<?xml version="1.0" encoding="UTF-8" standalone="no" ?>
<gpx xmlns="http://www.topografix.com/GPX/1/1" xmlns:xsi="http://www.w3.org/2001/XMLSchema-instance" xsi:schemaLocation="http://www.topografix.com/GPX/1/1 http://www.topografix.com/GPX/1/1/gpx.xsd" version="1.1" creator="VisuGPX - https://www.visugpx.com">
  <metadata>
    <name>Marcols les eaux 4 août 2018</name>
  </metadata>
  <trk>
    <name><![CDATA[SityTrail - Marcols les eaux 4 août 2018]]></name>
    <trkseg>
      <trkpt lat="44.81292" lon="4.40008">
        <ele>734</ele>
        <time>2018-08-04T09:18:12Z</time>
      </trkpt>
      <trkpt lat="44.81291" lon="4.40011">
        <ele>734</ele>
        <time>2018-08-04T09:18:12Z</time>
      </trkpt>
      <trkpt lat="44.81293" lon="4.40017">
        <ele>731</ele>
        <time>2018-08-04T09:18:12Z</time>
      </trkpt>
      <trkpt lat="44.81296" lon="4.40021">
        <ele>731</ele>
        <time>2018-08-04T09:18:12Z</time>
      </trkpt>
      <trkpt lat="44.813" lon="4.40026">
        <ele>731</ele>
        <time>2018-08-04T09:18:28Z</time>
      </trkpt>
      <trkpt lat="44.81303" lon="4.40029">
        <ele>731</ele>
        <time>2018-08-04T09:18:28Z</time>
      </trkpt>
      <trkpt lat="44.81308" lon="4.40033">
        <ele>731</ele>
        <time>2018-08-04T09:18:28Z</time>
      </trkpt>
      <trkpt lat="44.81312" lon="4.40035">
        <ele>731</ele>
        <time>2018-08-04T09:18:28Z</time>
      </trkpt>
      <trkpt lat="44.81315" lon="4.40037">
        <ele>731</ele>
        <time>2018-08-04T09:18:48Z</time>
      </trkpt>
      <trkpt lat="44.81316" lon="4.4004">
        <ele>731</ele>
        <time>2018-08-04T09:18:48Z</time>
      </trkpt>
      <trkpt lat="44.81321" lon="4.40043">
        <ele>725</ele>
        <time>2018-08-04T09:18:48Z</time>
      </trkpt>
      <trkpt lat="44.81322" lon="4.40045">
        <ele>725</ele>
        <time>2018-08-04T09:18:48Z</time>
      </trkpt>
      <trkpt lat="44.81324" lon="4.4005">
        <ele>725</ele>
        <time>2018-08-04T09:18:48Z</time>
      </trkpt>
      <trkpt lat="44.81325" lon="4.40054">
        <ele>725</ele>
        <time>2018-08-04T09:19:04Z</time>
      </trkpt>
      <trkpt lat="44.81326" lon="4.40059">
        <ele>725</ele>
        <time>2018-08-04T09:19:04Z</time>
      </trkpt>
      <trkpt lat="44.81328" lon="4.40064">
        <ele>725</ele>
        <time>2018-08-04T09:19:04Z</time>
      </trkpt>
      <trkpt lat="44.81331" lon="4.40066">
        <ele>725</ele>
        <time>2018-08-04T09:19:04Z</time>
      </trkpt>
      <trkpt lat="44.81333" lon="4.40071">
        <ele>729</ele>
        <time>2018-08-04T09:19:20Z</time>
      </trkpt>
      <trkpt lat="44.81332" lon="4.40077">
        <ele>729</ele>
        <time>2018-08-04T09:19:20Z</time>
      </trkpt>
      <trkpt lat="44.81333" lon="4.40084">
        <ele>729</ele>
        <time>2018-08-04T09:19:20Z</time>
      </trkpt>
      <trkpt lat="44.81332" lon="4.4009">
        <ele>729</ele>
        <time>2018-08-04T09:19:20Z</time>
      </trkpt>
      <trkpt lat="44.81333" lon="4.40095">
        <ele>729</ele>
        <time>2018-08-04T09:19:36Z</time>
      </trkpt>
      <trkpt lat="44.81331" lon="4.40101">
        <ele>734</ele>
        <time>2018-08-04T09:19:36Z</time>
      </trkpt>
      <trkpt lat="44.81331" lon="4.40107">
        <ele>734</ele>
        <time>2018-08-04T09:19:36Z</time>
      </trkpt>
      <trkpt lat="44.81335" lon="4.40114">
        <ele>734</ele>
        <time>2018-08-04T09:19:36Z</time>
      </trkpt>
      <trkpt lat="44.81337" lon="4.40122">
        <ele>734</ele>
        <time>2018-08-04T09:19:52Z</time>
      </trkpt>
      <trkpt lat="44.81339" lon="4.40128">
        <ele>738</ele>
        <time>2018-08-04T09:19:52Z</time>
      </trkpt>
      <trkpt lat="44.81341" lon="4.40138">
        <ele>738</ele>
        <time>2018-08-04T09:19:52Z</time>
      </trkpt>
      <trkpt lat="44.81347" lon="4.40144">
        <ele>738</ele>
        <time>2018-08-04T09:19:52Z</time>
      </trkpt>
      <trkpt lat="44.81349" lon="4.4015">
        <ele>727</ele>
        <time>2018-08-04T09:20:08Z</time>
      </trkpt>
      <trkpt lat="44.81351" lon="4.40157">
        <ele>727</ele>
        <time>2018-08-04T09:20:08Z</time>
      </trkpt>
      <trkpt lat="44.81355" lon="4.40162">
        <ele>727</ele>
        <time>2018-08-04T09:20:08Z</time>
      </trkpt>
      <trkpt lat="44.81358" lon="4.40166">
        <ele>727</ele>
        <time>2018-08-04T09:20:08Z</time>
      </trkpt>
      <trkpt lat="44.81361" lon="4.40175">
        <ele>727</ele>
        <time>2018-08-04T09:20:52Z</time>
      </trkpt>
      <trkpt lat="44.81361" lon="4.40175">
        <ele>727</ele>
        <time>2018-08-04T09:20:52Z</time>
      </trkpt>
      <trkpt lat="44.8136" lon="4.40178">
        <ele>727</ele>
        <time>2018-08-04T09:20:52Z</time>
      </trkpt>
      <trkpt lat="44.81364" lon="4.40183">
        <ele>725</ele>
        <time>2018-08-04T09:20:52Z</time>
      </trkpt>
      <trkpt lat="44.81368" lon="4.40191">
        <ele>725</ele>
        <time>2018-08-04T09:20:52Z</time>
      </trkpt>
      <trkpt lat="44.8137" lon="4.40195">
        <ele>725</ele>
        <time>2018-08-04T09:21:08Z</time>
      </trkpt>
      <trkpt lat="44.81373" lon="4.402">
        <ele>725</ele>
        <time>2018-08-04T09:21:08Z</time>
      </trkpt>
      <trkpt lat="44.81373" lon="4.40205">
        <ele>725</ele>
        <time>2018-08-04T09:21:08Z</time>
      </trkpt>
      <trkpt lat="44.81375" lon="4.40213">
        <ele>725</ele>
        <time>2018-08-04T09:21:08Z</time>
      </trkpt>
      <trkpt lat="44.81374" lon="4.40218">
        <ele>725</ele>
        <time>2018-08-04T09:21:24Z</time>
      </trkpt>
      <trkpt lat="44.81376" lon="4.40224">
        <ele>716</ele>
        <time>2018-08-04T09:21:24Z</time>
      </trkpt>
      <trkpt lat="44.81374" lon="4.40234">
        <ele>725</ele>
        <time>2018-08-04T09:21:24Z</time>
      </trkpt>
      <trkpt lat="44.81375" lon="4.40241">
        <ele>718</ele>
        <time>2018-08-04T09:21:24Z</time>
      </trkpt>
      <trkpt lat="44.81377" lon="4.40248">
        <ele>718</ele>
        <time>2018-08-04T09:21:40Z</time>
      </trkpt>
      <trkpt lat="44.81378" lon="4.40256">
        <ele>718</ele>
        <time>2018-08-04T09:21:40Z</time>
      </trkpt>
      <trkpt lat="44.81376" lon="4.40263">
        <ele>718</ele>
        <time>2018-08-04T09:21:40Z</time>
      </trkpt>
      <trkpt lat="44.81375" lon="4.40271">
        <ele>727</ele>
        <time>2018-08-04T09:21:40Z</time>
      </trkpt>
      <trkpt lat="44.81373" lon="4.40274">
        <ele>727</ele>
        <time>2018-08-04T09:21:56Z</time>
      </trkpt>
      <trkpt lat="44.81371" lon="4.40279">
        <ele>727</ele>
        <time>2018-08-04T09:21:56Z</time>
      </trkpt>
      <trkpt lat="44.81368" lon="4.40286">
        <ele>727</ele>
        <time>2018-08-04T09:21:56Z</time>
      </trkpt>
      <trkpt lat="44.8137" lon="4.40299">
        <ele>728</ele>
        <time>2018-08-04T09:21:56Z</time>
      </trkpt>
      <trkpt lat="44.81372" lon="4.40307">
        <ele>728</ele>
        <time>2018-08-04T09:22:12Z</time>
      </trkpt>
      <trkpt lat="44.81373" lon="4.40315">
        <ele>728</ele>
        <time>2018-08-04T09:22:12Z</time>
      </trkpt>
      <trkpt lat="44.81374" lon="4.40323">
        <ele>728</ele>
        <time>2018-08-04T09:22:12Z</time>
      </trkpt>
      <trkpt lat="44.81373" lon="4.40328">
        <ele>728</ele>
        <time>2018-08-04T09:22:12Z</time>
      </trkpt>
      <trkpt lat="44.81373" lon="4.40338">
        <ele>728</ele>
        <time>2018-08-04T09:22:28Z</time>
      </trkpt>
      <trkpt lat="44.81374" lon="4.40349">
        <ele>731</ele>
        <time>2018-08-04T09:22:28Z</time>
      </trkpt>
      <trkpt lat="44.81373" lon="4.40356">
        <ele>731</ele>
        <time>2018-08-04T09:22:28Z</time>
      </trkpt>
      <trkpt lat="44.81374" lon="4.40361">
        <ele>731</ele>
        <time>2018-08-04T09:22:28Z</time>
      </trkpt>
      <trkpt lat="44.81377" lon="4.40366">
        <ele>718</ele>
        <time>2018-08-04T09:22:44Z</time>
      </trkpt>
      <trkpt lat="44.81379" lon="4.40372">
        <ele>718</ele>
        <time>2018-08-04T09:22:44Z</time>
      </trkpt>
      <trkpt lat="44.81379" lon="4.40378">
        <ele>719</ele>
        <time>2018-08-04T09:22:44Z</time>
      </trkpt>
      <trkpt lat="44.81379" lon="4.40383">
        <ele>719</ele>
        <time>2018-08-04T09:22:44Z</time>
      </trkpt>
      <trkpt lat="44.81378" lon="4.40389">
        <ele>719</ele>
        <time>2018-08-04T09:23:00Z</time>
      </trkpt>
      <trkpt lat="44.81379" lon="4.40395">
        <ele>719</ele>
        <time>2018-08-04T09:23:00Z</time>
      </trkpt>
      <trkpt lat="44.81377" lon="4.404">
        <ele>719</ele>
        <time>2018-08-04T09:23:00Z</time>
      </trkpt>
      <trkpt lat="44.81375" lon="4.40404">
        <ele>730</ele>
        <time>2018-08-04T09:23:00Z</time>
      </trkpt>
      <trkpt lat="44.81375" lon="4.40407">
        <ele>720</ele>
        <time>2018-08-04T09:23:16Z</time>
      </trkpt>
      <trkpt lat="44.81374" lon="4.40412">
        <ele>730</ele>
        <time>2018-08-04T09:23:16Z</time>
      </trkpt>
      <trkpt lat="44.81373" lon="4.40418">
        <ele>730</ele>
        <time>2018-08-04T09:23:16Z</time>
      </trkpt>
      <trkpt lat="44.81369" lon="4.40425">
        <ele>730</ele>
        <time>2018-08-04T09:23:16Z</time>
      </trkpt>
      <trkpt lat="44.81368" lon="4.40433">
        <ele>729</ele>
        <time>2018-08-04T09:23:32Z</time>
      </trkpt>
      <trkpt lat="44.81366" lon="4.40441">
        <ele>729</ele>
        <time>2018-08-04T09:23:32Z</time>
      </trkpt>
      <trkpt lat="44.81361" lon="4.40445">
        <ele>729</ele>
        <time>2018-08-04T09:23:32Z</time>
      </trkpt>
      <trkpt lat="44.81357" lon="4.4045">
        <ele>729</ele>
        <time>2018-08-04T09:23:32Z</time>
      </trkpt>
      <trkpt lat="44.81352" lon="4.40455">
        <ele>729</ele>
        <time>2018-08-04T09:23:48Z</time>
      </trkpt>
      <trkpt lat="44.81349" lon="4.40462">
        <ele>725</ele>
        <time>2018-08-04T09:23:48Z</time>
      </trkpt>
      <trkpt lat="44.81344" lon="4.40464">
        <ele>733</ele>
        <time>2018-08-04T09:23:48Z</time>
      </trkpt>
      <trkpt lat="44.81342" lon="4.40465">
        <ele>733</ele>
        <time>2018-08-04T09:23:48Z</time>
      </trkpt>
      <trkpt lat="44.81337" lon="4.40467">
        <ele>733</ele>
        <time>2018-08-04T09:24:04Z</time>
      </trkpt>
      <trkpt lat="44.81333" lon="4.40471">
        <ele>733</ele>
        <time>2018-08-04T09:24:04Z</time>
      </trkpt>
      <trkpt lat="44.81325" lon="4.40475">
        <ele>733</ele>
        <time>2018-08-04T09:24:04Z</time>
      </trkpt>
      <trkpt lat="44.81317" lon="4.40477">
        <ele>742</ele>
        <time>2018-08-04T09:24:04Z</time>
      </trkpt>
      <trkpt lat="44.81308" lon="4.40483">
        <ele>742</ele>
        <time>2018-08-04T09:24:36Z</time>
      </trkpt>
      <trkpt lat="44.81302" lon="4.40486">
        <ele>737</ele>
        <time>2018-08-04T09:24:36Z</time>
      </trkpt>
      <trkpt lat="44.81298" lon="4.4049">
        <ele>737</ele>
        <time>2018-08-04T09:24:36Z</time>
      </trkpt>
      <trkpt lat="44.81294" lon="4.40494">
        <ele>737</ele>
        <time>2018-08-04T09:24:36Z</time>
      </trkpt>
      <trkpt lat="44.81289" lon="4.40498">
        <ele>741</ele>
        <time>2018-08-04T09:24:36Z</time>
      </trkpt>
      <trkpt lat="44.81283" lon="4.40501">
        <ele>741</ele>
        <time>2018-08-04T09:24:52Z</time>
      </trkpt>
      <trkpt lat="44.81279" lon="4.40503">
        <ele>741</ele>
        <time>2018-08-04T09:24:52Z</time>
      </trkpt>
      <trkpt lat="44.81274" lon="4.40504">
        <ele>741</ele>
        <time>2018-08-04T09:24:52Z</time>
      </trkpt>
      <trkpt lat="44.81271" lon="4.40505">
        <ele>741</ele>
        <time>2018-08-04T09:24:52Z</time>
      </trkpt>
      <trkpt lat="44.81265" lon="4.40506">
        <ele>741</ele>
        <time>2018-08-04T09:25:08Z</time>
      </trkpt>
      <trkpt lat="44.81259" lon="4.40509">
        <ele>741</ele>
        <time>2018-08-04T09:25:08Z</time>
      </trkpt>
      <trkpt lat="44.81254" lon="4.4051">
        <ele>741</ele>
        <time>2018-08-04T09:25:08Z</time>
      </trkpt>
      <trkpt lat="44.81252" lon="4.40511">
        <ele>741</ele>
        <time>2018-08-04T09:25:08Z</time>
      </trkpt>
      <trkpt lat="44.81246" lon="4.40511">
        <ele>741</ele>
        <time>2018-08-04T09:25:24Z</time>
      </trkpt>
      <trkpt lat="44.81241" lon="4.40511">
        <ele>741</ele>
        <time>2018-08-04T09:25:24Z</time>
      </trkpt>
      <trkpt lat="44.81236" lon="4.40511">
        <ele>746</ele>
        <time>2018-08-04T09:25:24Z</time>
      </trkpt>
      <trkpt lat="44.81232" lon="4.40514">
        <ele>742</ele>
        <time>2018-08-04T09:25:24Z</time>
      </trkpt>
      <trkpt lat="44.81226" lon="4.40518">
        <ele>742</ele>
        <time>2018-08-04T09:25:40Z</time>
      </trkpt>
      <trkpt lat="44.8122" lon="4.4052">
        <ele>742</ele>
        <time>2018-08-04T09:25:40Z</time>
      </trkpt>
      <trkpt lat="44.81217" lon="4.40519">
        <ele>742</ele>
        <time>2018-08-04T09:25:40Z</time>
      </trkpt>
      <trkpt lat="44.81211" lon="4.40519">
        <ele>742</ele>
        <time>2018-08-04T09:25:40Z</time>
      </trkpt>
      <trkpt lat="44.81209" lon="4.40514">
        <ele>742</ele>
        <time>2018-08-04T09:25:56Z</time>
      </trkpt>
      <trkpt lat="44.81205" lon="4.40513">
        <ele>755</ele>
        <time>2018-08-04T09:25:56Z</time>
      </trkpt>
      <trkpt lat="44.81201" lon="4.40513">
        <ele>755</ele>
        <time>2018-08-04T09:25:56Z</time>
      </trkpt>
      <trkpt lat="44.81199" lon="4.40513">
        <ele>755</ele>
        <time>2018-08-04T09:25:56Z</time>
      </trkpt>
      <trkpt lat="44.81196" lon="4.40519">
        <ele>751</ele>
        <time>2018-08-04T09:26:12Z</time>
      </trkpt>
      <trkpt lat="44.81196" lon="4.40527">
        <ele>751</ele>
        <time>2018-08-04T09:26:12Z</time>
      </trkpt>
      <trkpt lat="44.81196" lon="4.40538">
        <ele>751</ele>
        <time>2018-08-04T09:26:12Z</time>
      </trkpt>
      <trkpt lat="44.81195" lon="4.40546">
        <ele>747</ele>
        <time>2018-08-04T09:26:12Z</time>
      </trkpt>
      <trkpt lat="44.81191" lon="4.40551">
        <ele>747</ele>
        <time>2018-08-04T09:26:32Z</time>
      </trkpt>
      <trkpt lat="44.81189" lon="4.40549">
        <ele>747</ele>
        <time>2018-08-04T09:26:32Z</time>
      </trkpt>
      <trkpt lat="44.81185" lon="4.4055">
        <ele>747</ele>
        <time>2018-08-04T09:26:32Z</time>
      </trkpt>
      <trkpt lat="44.81184" lon="4.4055">
        <ele>747</ele>
        <time>2018-08-04T09:26:32Z</time>
      </trkpt>
      <trkpt lat="44.81177" lon="4.40547">
        <ele>756</ele>
        <time>2018-08-04T09:26:32Z</time>
      </trkpt>
      <trkpt lat="44.81172" lon="4.40549">
        <ele>756</ele>
        <time>2018-08-04T09:26:48Z</time>
      </trkpt>
      <trkpt lat="44.81169" lon="4.40548">
        <ele>756</ele>
        <time>2018-08-04T09:26:48Z</time>
      </trkpt>
      <trkpt lat="44.81164" lon="4.4055">
        <ele>756</ele>
        <time>2018-08-04T09:26:48Z</time>
      </trkpt>
      <trkpt lat="44.8116" lon="4.40553">
        <ele>756</ele>
        <time>2018-08-04T09:26:48Z</time>
      </trkpt>
      <trkpt lat="44.81157" lon="4.40553">
        <ele>756</ele>
        <time>2018-08-04T09:27:04Z</time>
      </trkpt>
      <trkpt lat="44.81153" lon="4.40554">
        <ele>756</ele>
        <time>2018-08-04T09:27:04Z</time>
      </trkpt>
      <trkpt lat="44.8115" lon="4.40555">
        <ele>759</ele>
        <time>2018-08-04T09:27:04Z</time>
      </trkpt>
      <trkpt lat="44.81146" lon="4.40554">
        <ele>759</ele>
        <time>2018-08-04T09:27:04Z</time>
      </trkpt>
      <trkpt lat="44.81144" lon="4.40555">
        <ele>759</ele>
        <time>2018-08-04T09:27:24Z</time>
      </trkpt>
      <trkpt lat="44.81142" lon="4.40558">
        <ele>759</ele>
        <time>2018-08-04T09:27:24Z</time>
      </trkpt>
      <trkpt lat="44.81141" lon="4.40556">
        <ele>759</ele>
        <time>2018-08-04T09:27:24Z</time>
      </trkpt>
      <trkpt lat="44.81136" lon="4.40558">
        <ele>759</ele>
        <time>2018-08-04T09:27:24Z</time>
      </trkpt>
      <trkpt lat="44.81134" lon="4.40559">
        <ele>759</ele>
        <time>2018-08-04T09:27:24Z</time>
      </trkpt>
      <trkpt lat="44.81129" lon="4.40562">
        <ele>759</ele>
        <time>2018-08-04T09:27:48Z</time>
      </trkpt>
      <trkpt lat="44.81127" lon="4.4056">
        <ele>759</ele>
        <time>2018-08-04T09:27:48Z</time>
      </trkpt>
      <trkpt lat="44.81126" lon="4.4056">
        <ele>759</ele>
        <time>2018-08-04T09:27:48Z</time>
      </trkpt>
      <trkpt lat="44.81122" lon="4.40558">
        <ele>760</ele>
        <time>2018-08-04T09:27:48Z</time>
      </trkpt>
      <trkpt lat="44.81118" lon="4.40561">
        <ele>760</ele>
        <time>2018-08-04T09:27:48Z</time>
      </trkpt>
      <trkpt lat="44.81109" lon="4.40561">
        <ele>760</ele>
        <time>2018-08-04T09:28:20Z</time>
      </trkpt>
      <trkpt lat="44.81104" lon="4.40564">
        <ele>760</ele>
        <time>2018-08-04T09:28:20Z</time>
      </trkpt>
      <trkpt lat="44.81099" lon="4.40567">
        <ele>760</ele>
        <time>2018-08-04T09:28:20Z</time>
      </trkpt>
      <trkpt lat="44.81096" lon="4.4057">
        <ele>762</ele>
        <time>2018-08-04T09:28:20Z</time>
      </trkpt>
      <trkpt lat="44.81095" lon="4.40571">
        <ele>762</ele>
        <time>2018-08-04T09:28:20Z</time>
      </trkpt>
      <trkpt lat="44.8109" lon="4.40571">
        <ele>762</ele>
        <time>2018-08-04T09:28:36Z</time>
      </trkpt>
      <trkpt lat="44.81088" lon="4.40572">
        <ele>762</ele>
        <time>2018-08-04T09:28:36Z</time>
      </trkpt>
      <trkpt lat="44.81084" lon="4.40573">
        <ele>762</ele>
        <time>2018-08-04T09:28:36Z</time>
      </trkpt>
      <trkpt lat="44.8108" lon="4.40574">
        <ele>762</ele>
        <time>2018-08-04T09:28:36Z</time>
      </trkpt>
      <trkpt lat="44.81076" lon="4.40575">
        <ele>762</ele>
        <time>2018-08-04T09:28:52Z</time>
      </trkpt>
      <trkpt lat="44.81073" lon="4.40579">
        <ele>762</ele>
        <time>2018-08-04T09:28:52Z</time>
      </trkpt>
      <trkpt lat="44.8107" lon="4.40584">
        <ele>762</ele>
        <time>2018-08-04T09:28:52Z</time>
      </trkpt>
      <trkpt lat="44.81067" lon="4.40589">
        <ele>774</ele>
        <time>2018-08-04T09:28:52Z</time>
      </trkpt>
      <trkpt lat="44.81065" lon="4.40592">
        <ele>774</ele>
        <time>2018-08-04T09:29:12Z</time>
      </trkpt>
      <trkpt lat="44.81064" lon="4.40595">
        <ele>774</ele>
        <time>2018-08-04T09:29:12Z</time>
      </trkpt>
      <trkpt lat="44.81063" lon="4.40601">
        <ele>772</ele>
        <time>2018-08-04T09:29:12Z</time>
      </trkpt>
      <trkpt lat="44.81063" lon="4.40604">
        <ele>772</ele>
        <time>2018-08-04T09:29:12Z</time>
      </trkpt>
      <trkpt lat="44.8106" lon="4.40604">
        <ele>772</ele>
        <time>2018-08-04T09:29:12Z</time>
      </trkpt>
      <trkpt lat="44.81057" lon="4.40602">
        <ele>772</ele>
        <time>2018-08-04T09:29:32Z</time>
      </trkpt>
      <trkpt lat="44.81054" lon="4.40603">
        <ele>772</ele>
        <time>2018-08-04T09:29:32Z</time>
      </trkpt>
      <trkpt lat="44.81051" lon="4.40604">
        <ele>772</ele>
        <time>2018-08-04T09:29:32Z</time>
      </trkpt>
      <trkpt lat="44.81049" lon="4.40604">
        <ele>772</ele>
        <time>2018-08-04T09:29:32Z</time>
      </trkpt>
      <trkpt lat="44.81047" lon="4.40604">
        <ele>772</ele>
        <time>2018-08-04T09:29:32Z</time>
      </trkpt>
      <trkpt lat="44.81044" lon="4.40602">
        <ele>772</ele>
        <time>2018-08-04T09:29:52Z</time>
      </trkpt>
      <trkpt lat="44.81043" lon="4.40602">
        <ele>772</ele>
        <time>2018-08-04T09:29:52Z</time>
      </trkpt>
      <trkpt lat="44.81041" lon="4.406">
        <ele>780</ele>
        <time>2018-08-04T09:29:52Z</time>
      </trkpt>
      <trkpt lat="44.81036" lon="4.406">
        <ele>780</ele>
        <time>2018-08-04T09:29:52Z</time>
      </trkpt>
      <trkpt lat="44.81033" lon="4.40598">
        <ele>780</ele>
        <time>2018-08-04T09:29:52Z</time>
      </trkpt>
      <trkpt lat="44.81031" lon="4.40598">
        <ele>780</ele>
        <time>2018-08-04T09:30:08Z</time>
      </trkpt>
      <trkpt lat="44.81029" lon="4.40596">
        <ele>783</ele>
        <time>2018-08-04T09:30:08Z</time>
      </trkpt>
      <trkpt lat="44.81025" lon="4.40593">
        <ele>783</ele>
        <time>2018-08-04T09:30:08Z</time>
      </trkpt>
      <trkpt lat="44.81019" lon="4.40592">
        <ele>783</ele>
        <time>2018-08-04T09:30:08Z</time>
      </trkpt>
      <trkpt lat="44.81012" lon="4.40591">
        <ele>785</ele>
        <time>2018-08-04T09:30:24Z</time>
      </trkpt>
      <trkpt lat="44.81005" lon="4.40592">
        <ele>785</ele>
        <time>2018-08-04T09:30:24Z</time>
      </trkpt>
      <trkpt lat="44.80999" lon="4.4059">
        <ele>785</ele>
        <time>2018-08-04T09:30:24Z</time>
      </trkpt>
      <trkpt lat="44.80998" lon="4.4059">
        <ele>785</ele>
        <time>2018-08-04T09:30:24Z</time>
      </trkpt>
      <trkpt lat="44.80997" lon="4.40588">
        <ele>785</ele>
        <time>2018-08-04T09:30:44Z</time>
      </trkpt>
      <trkpt lat="44.80995" lon="4.40588">
        <ele>785</ele>
        <time>2018-08-04T09:30:44Z</time>
      </trkpt>
      <trkpt lat="44.80993" lon="4.40587">
        <ele>785</ele>
        <time>2018-08-04T09:30:44Z</time>
      </trkpt>
      <trkpt lat="44.80993" lon="4.40585">
        <ele>785</ele>
        <time>2018-08-04T09:30:44Z</time>
      </trkpt>
      <trkpt lat="44.80988" lon="4.40584">
        <ele>785</ele>
        <time>2018-08-04T09:30:44Z</time>
      </trkpt>
      <trkpt lat="44.80986" lon="4.40581">
        <ele>785</ele>
        <time>2018-08-04T09:31:08Z</time>
      </trkpt>
      <trkpt lat="44.80987" lon="4.40578">
        <ele>785</ele>
        <time>2018-08-04T09:31:08Z</time>
      </trkpt>
      <trkpt lat="44.80984" lon="4.40576">
        <ele>789</ele>
        <time>2018-08-04T09:31:08Z</time>
      </trkpt>
      <trkpt lat="44.80981" lon="4.40573">
        <ele>789</ele>
        <time>2018-08-04T09:31:08Z</time>
      </trkpt>
      <trkpt lat="44.8098" lon="4.40573">
        <ele>789</ele>
        <time>2018-08-04T09:31:08Z</time>
      </trkpt>
      <trkpt lat="44.8097" lon="4.40577">
        <ele>789</ele>
        <time>2018-08-04T09:31:56Z</time>
      </trkpt>
      <trkpt lat="44.8097" lon="4.40575">
        <ele>789</ele>
        <time>2018-08-04T09:31:56Z</time>
      </trkpt>
      <trkpt lat="44.80969" lon="4.40573">
        <ele>789</ele>
        <time>2018-08-04T09:31:56Z</time>
      </trkpt>
      <trkpt lat="44.80968" lon="4.4057">
        <ele>789</ele>
        <time>2018-08-04T09:31:56Z</time>
      </trkpt>
      <trkpt lat="44.80965" lon="4.40566">
        <ele>793</ele>
        <time>2018-08-04T09:31:56Z</time>
      </trkpt>
      <trkpt lat="44.80955" lon="4.40559">
        <ele>802</ele>
        <time>2018-08-04T09:32:32Z</time>
      </trkpt>
      <trkpt lat="44.80952" lon="4.40559">
        <ele>802</ele>
        <time>2018-08-04T09:32:32Z</time>
      </trkpt>
      <trkpt lat="44.8095" lon="4.40558">
        <ele>802</ele>
        <time>2018-08-04T09:32:32Z</time>
      </trkpt>
      <trkpt lat="44.80949" lon="4.40558">
        <ele>802</ele>
        <time>2018-08-04T09:32:32Z</time>
      </trkpt>
      <trkpt lat="44.80945" lon="4.40558">
        <ele>802</ele>
        <time>2018-08-04T09:32:32Z</time>
      </trkpt>
      <trkpt lat="44.80939" lon="4.40562">
        <ele>802</ele>
        <time>2018-08-04T09:33:16Z</time>
      </trkpt>
      <trkpt lat="44.80938" lon="4.40563">
        <ele>802</ele>
        <time>2018-08-04T09:33:16Z</time>
      </trkpt>
      <trkpt lat="44.80935" lon="4.40566">
        <ele>802</ele>
        <time>2018-08-04T09:33:16Z</time>
      </trkpt>
      <trkpt lat="44.80932" lon="4.4057">
        <ele>797</ele>
        <time>2018-08-04T09:33:16Z</time>
      </trkpt>
      <trkpt lat="44.80929" lon="4.40573">
        <ele>805</ele>
        <time>2018-08-04T09:33:16Z</time>
      </trkpt>
      <trkpt lat="44.80925" lon="4.40577">
        <ele>805</ele>
        <time>2018-08-04T09:33:32Z</time>
      </trkpt>
      <trkpt lat="44.8092" lon="4.40582">
        <ele>805</ele>
        <time>2018-08-04T09:33:32Z</time>
      </trkpt>
      <trkpt lat="44.80917" lon="4.40587">
        <ele>805</ele>
        <time>2018-08-04T09:33:32Z</time>
      </trkpt>
      <trkpt lat="44.80913" lon="4.40591">
        <ele>805</ele>
        <time>2018-08-04T09:33:32Z</time>
      </trkpt>
      <trkpt lat="44.80909" lon="4.40592">
        <ele>805</ele>
        <time>2018-08-04T09:33:48Z</time>
      </trkpt>
      <trkpt lat="44.80907" lon="4.40597">
        <ele>805</ele>
        <time>2018-08-04T09:33:48Z</time>
      </trkpt>
      <trkpt lat="44.80904" lon="4.406">
        <ele>798</ele>
        <time>2018-08-04T09:33:48Z</time>
      </trkpt>
      <trkpt lat="44.809" lon="4.40603">
        <ele>809</ele>
        <time>2018-08-04T09:33:48Z</time>
      </trkpt>
      <trkpt lat="44.80898" lon="4.40611">
        <ele>809</ele>
        <time>2018-08-04T09:34:04Z</time>
      </trkpt>
      <trkpt lat="44.80894" lon="4.40616">
        <ele>809</ele>
        <time>2018-08-04T09:34:04Z</time>
      </trkpt>
      <trkpt lat="44.8089" lon="4.40622">
        <ele>809</ele>
        <time>2018-08-04T09:34:04Z</time>
      </trkpt>
      <trkpt lat="44.80887" lon="4.40622">
        <ele>809</ele>
        <time>2018-08-04T09:34:04Z</time>
      </trkpt>
      <trkpt lat="44.80883" lon="4.40624">
        <ele>809</ele>
        <time>2018-08-04T09:34:20Z</time>
      </trkpt>
      <trkpt lat="44.80878" lon="4.40626">
        <ele>804</ele>
        <time>2018-08-04T09:34:20Z</time>
      </trkpt>
      <trkpt lat="44.80874" lon="4.40629">
        <ele>811</ele>
        <time>2018-08-04T09:34:20Z</time>
      </trkpt>
      <trkpt lat="44.80869" lon="4.40633">
        <ele>811</ele>
        <time>2018-08-04T09:34:20Z</time>
      </trkpt>
      <trkpt lat="44.80864" lon="4.40637">
        <ele>811</ele>
        <time>2018-08-04T09:34:36Z</time>
      </trkpt>
      <trkpt lat="44.8086" lon="4.40642">
        <ele>811</ele>
        <time>2018-08-04T09:34:36Z</time>
      </trkpt>
      <trkpt lat="44.80854" lon="4.40644">
        <ele>811</ele>
        <time>2018-08-04T09:34:36Z</time>
      </trkpt>
      <trkpt lat="44.8085" lon="4.40646">
        <ele>811</ele>
        <time>2018-08-04T09:34:36Z</time>
      </trkpt>
      <trkpt lat="44.80846" lon="4.40645">
        <ele>816</ele>
        <time>2018-08-04T09:34:56Z</time>
      </trkpt>
      <trkpt lat="44.80847" lon="4.40639">
        <ele>816</ele>
        <time>2018-08-04T09:34:56Z</time>
      </trkpt>
      <trkpt lat="44.80848" lon="4.40636">
        <ele>811</ele>
        <time>2018-08-04T09:34:56Z</time>
      </trkpt>
      <trkpt lat="44.80847" lon="4.40635">
        <ele>816</ele>
        <time>2018-08-04T09:34:56Z</time>
      </trkpt>
      <trkpt lat="44.80853" lon="4.4063">
        <ele>811</ele>
        <time>2018-08-04T09:34:56Z</time>
      </trkpt>
      <trkpt lat="44.80856" lon="4.40625">
        <ele>811</ele>
        <time>2018-08-04T09:35:12Z</time>
      </trkpt>
      <trkpt lat="44.8086" lon="4.40623">
        <ele>815</ele>
        <time>2018-08-04T09:35:12Z</time>
      </trkpt>
      <trkpt lat="44.80863" lon="4.40616">
        <ele>815</ele>
        <time>2018-08-04T09:35:12Z</time>
      </trkpt>
      <trkpt lat="44.80867" lon="4.40612">
        <ele>815</ele>
        <time>2018-08-04T09:35:12Z</time>
      </trkpt>
      <trkpt lat="44.8087" lon="4.40608">
        <ele>815</ele>
        <time>2018-08-04T09:35:28Z</time>
      </trkpt>
      <trkpt lat="44.80871" lon="4.40605">
        <ele>815</ele>
        <time>2018-08-04T09:35:28Z</time>
      </trkpt>
      <trkpt lat="44.80875" lon="4.40601">
        <ele>815</ele>
        <time>2018-08-04T09:35:28Z</time>
      </trkpt>
      <trkpt lat="44.80878" lon="4.40596">
        <ele>812</ele>
        <time>2018-08-04T09:35:28Z</time>
      </trkpt>
      <trkpt lat="44.80883" lon="4.40594">
        <ele>812</ele>
        <time>2018-08-04T09:35:44Z</time>
      </trkpt>
      <trkpt lat="44.8089" lon="4.40591">
        <ele>812</ele>
        <time>2018-08-04T09:35:44Z</time>
      </trkpt>
      <trkpt lat="44.80895" lon="4.40589">
        <ele>812</ele>
        <time>2018-08-04T09:35:44Z</time>
      </trkpt>
      <trkpt lat="44.80899" lon="4.40582">
        <ele>812</ele>
        <time>2018-08-04T09:35:44Z</time>
      </trkpt>
      <trkpt lat="44.80899" lon="4.40578">
        <ele>812</ele>
        <time>2018-08-04T09:36:00Z</time>
      </trkpt>
      <trkpt lat="44.80901" lon="4.40574">
        <ele>812</ele>
        <time>2018-08-04T09:36:00Z</time>
      </trkpt>
      <trkpt lat="44.80899" lon="4.40568">
        <ele>817</ele>
        <time>2018-08-04T09:36:00Z</time>
      </trkpt>
      <trkpt lat="44.80898" lon="4.40563">
        <ele>817</ele>
        <time>2018-08-04T09:36:00Z</time>
      </trkpt>
      <trkpt lat="44.809" lon="4.40557">
        <ele>817</ele>
        <time>2018-08-04T09:36:16Z</time>
      </trkpt>
      <trkpt lat="44.80901" lon="4.40551">
        <ele>817</ele>
        <time>2018-08-04T09:36:16Z</time>
      </trkpt>
      <trkpt lat="44.80901" lon="4.40545">
        <ele>817</ele>
        <time>2018-08-04T09:36:16Z</time>
      </trkpt>
      <trkpt lat="44.80902" lon="4.40538">
        <ele>824</ele>
        <time>2018-08-04T09:36:16Z</time>
      </trkpt>
      <trkpt lat="44.80903" lon="4.4053">
        <ele>824</ele>
        <time>2018-08-04T09:36:32Z</time>
      </trkpt>
      <trkpt lat="44.80901" lon="4.40528">
        <ele>824</ele>
        <time>2018-08-04T09:36:32Z</time>
      </trkpt>
      <trkpt lat="44.809" lon="4.40522">
        <ele>824</ele>
        <time>2018-08-04T09:36:32Z</time>
      </trkpt>
      <trkpt lat="44.80899" lon="4.40513">
        <ele>827</ele>
        <time>2018-08-04T09:36:32Z</time>
      </trkpt>
      <trkpt lat="44.80899" lon="4.40502">
        <ele>827</ele>
        <time>2018-08-04T09:36:48Z</time>
      </trkpt>
      <trkpt lat="44.80898" lon="4.40499">
        <ele>827</ele>
        <time>2018-08-04T09:36:48Z</time>
      </trkpt>
      <trkpt lat="44.80896" lon="4.40493">
        <ele>827</ele>
        <time>2018-08-04T09:36:48Z</time>
      </trkpt>
      <trkpt lat="44.80896" lon="4.40489">
        <ele>827</ele>
        <time>2018-08-04T09:36:48Z</time>
      </trkpt>
      <trkpt lat="44.80896" lon="4.40479">
        <ele>831</ele>
        <time>2018-08-04T09:37:04Z</time>
      </trkpt>
      <trkpt lat="44.80896" lon="4.40471">
        <ele>831</ele>
        <time>2018-08-04T09:37:04Z</time>
      </trkpt>
      <trkpt lat="44.80896" lon="4.40467">
        <ele>831</ele>
        <time>2018-08-04T09:37:04Z</time>
      </trkpt>
      <trkpt lat="44.80898" lon="4.40463">
        <ele>831</ele>
        <time>2018-08-04T09:37:04Z</time>
      </trkpt>
      <trkpt lat="44.80896" lon="4.40455">
        <ele>834</ele>
        <time>2018-08-04T09:37:20Z</time>
      </trkpt>
      <trkpt lat="44.80898" lon="4.40452">
        <ele>834</ele>
        <time>2018-08-04T09:37:20Z</time>
      </trkpt>
      <trkpt lat="44.809" lon="4.40448">
        <ele>834</ele>
        <time>2018-08-04T09:37:20Z</time>
      </trkpt>
      <trkpt lat="44.80902" lon="4.40444">
        <ele>834</ele>
        <time>2018-08-04T09:37:20Z</time>
      </trkpt>
      <trkpt lat="44.809" lon="4.40436">
        <ele>834</ele>
        <time>2018-08-04T09:37:40Z</time>
      </trkpt>
      <trkpt lat="44.809" lon="4.40433">
        <ele>834</ele>
        <time>2018-08-04T09:37:40Z</time>
      </trkpt>
      <trkpt lat="44.80903" lon="4.4043">
        <ele>822</ele>
        <time>2018-08-04T09:37:40Z</time>
      </trkpt>
      <trkpt lat="44.80903" lon="4.40426">
        <ele>822</ele>
        <time>2018-08-04T09:37:40Z</time>
      </trkpt>
      <trkpt lat="44.80902" lon="4.40422">
        <ele>834</ele>
        <time>2018-08-04T09:37:40Z</time>
      </trkpt>
      <trkpt lat="44.80898" lon="4.40413">
        <ele>834</ele>
        <time>2018-08-04T09:37:56Z</time>
      </trkpt>
      <trkpt lat="44.80894" lon="4.40408">
        <ele>834</ele>
        <time>2018-08-04T09:37:56Z</time>
      </trkpt>
      <trkpt lat="44.8089" lon="4.404">
        <ele>836</ele>
        <time>2018-08-04T09:37:56Z</time>
      </trkpt>
      <trkpt lat="44.8089" lon="4.40397">
        <ele>836</ele>
        <time>2018-08-04T09:37:56Z</time>
      </trkpt>
      <trkpt lat="44.80891" lon="4.40394">
        <ele>836</ele>
        <time>2018-08-04T09:38:16Z</time>
      </trkpt>
      <trkpt lat="44.80889" lon="4.40391">
        <ele>836</ele>
        <time>2018-08-04T09:38:16Z</time>
      </trkpt>
      <trkpt lat="44.80889" lon="4.40387">
        <ele>836</ele>
        <time>2018-08-04T09:38:16Z</time>
      </trkpt>
      <trkpt lat="44.80888" lon="4.40383">
        <ele>836</ele>
        <time>2018-08-04T09:38:16Z</time>
      </trkpt>
      <trkpt lat="44.80887" lon="4.40378">
        <ele>836</ele>
        <time>2018-08-04T09:38:16Z</time>
      </trkpt>
      <trkpt lat="44.80887" lon="4.40373">
        <ele>838</ele>
        <time>2018-08-04T09:38:32Z</time>
      </trkpt>
      <trkpt lat="44.80889" lon="4.40368">
        <ele>838</ele>
        <time>2018-08-04T09:38:32Z</time>
      </trkpt>
      <trkpt lat="44.80892" lon="4.40362">
        <ele>838</ele>
        <time>2018-08-04T09:38:32Z</time>
      </trkpt>
      <trkpt lat="44.80895" lon="4.40358">
        <ele>838</ele>
        <time>2018-08-04T09:38:32Z</time>
      </trkpt>
      <trkpt lat="44.80897" lon="4.40353">
        <ele>838</ele>
        <time>2018-08-04T09:38:52Z</time>
      </trkpt>
      <trkpt lat="44.80899" lon="4.40351">
        <ele>838</ele>
        <time>2018-08-04T09:38:52Z</time>
      </trkpt>
      <trkpt lat="44.80902" lon="4.40353">
        <ele>838</ele>
        <time>2018-08-04T09:38:52Z</time>
      </trkpt>
      <trkpt lat="44.80904" lon="4.40352">
        <ele>831</ele>
        <time>2018-08-04T09:38:52Z</time>
      </trkpt>
      <trkpt lat="44.80908" lon="4.40351">
        <ele>831</ele>
        <time>2018-08-04T09:38:52Z</time>
      </trkpt>
      <trkpt lat="44.80912" lon="4.4035">
        <ele>831</ele>
        <time>2018-08-04T09:39:08Z</time>
      </trkpt>
      <trkpt lat="44.80914" lon="4.40353">
        <ele>831</ele>
        <time>2018-08-04T09:39:08Z</time>
      </trkpt>
      <trkpt lat="44.80919" lon="4.40353">
        <ele>831</ele>
        <time>2018-08-04T09:39:08Z</time>
      </trkpt>
      <trkpt lat="44.80922" lon="4.4035">
        <ele>831</ele>
        <time>2018-08-04T09:39:08Z</time>
      </trkpt>
      <trkpt lat="44.80926" lon="4.40349">
        <ele>831</ele>
        <time>2018-08-04T09:39:24Z</time>
      </trkpt>
      <trkpt lat="44.80931" lon="4.40349">
        <ele>828</ele>
        <time>2018-08-04T09:39:24Z</time>
      </trkpt>
      <trkpt lat="44.80935" lon="4.40343">
        <ele>835</ele>
        <time>2018-08-04T09:39:24Z</time>
      </trkpt>
      <trkpt lat="44.80941" lon="4.4034">
        <ele>835</ele>
        <time>2018-08-04T09:39:24Z</time>
      </trkpt>
      <trkpt lat="44.80948" lon="4.40337">
        <ele>835</ele>
        <time>2018-08-04T09:39:40Z</time>
      </trkpt>
      <trkpt lat="44.80954" lon="4.40336">
        <ele>835</ele>
        <time>2018-08-04T09:39:40Z</time>
      </trkpt>
      <trkpt lat="44.80959" lon="4.40336">
        <ele>834</ele>
        <time>2018-08-04T09:39:40Z</time>
      </trkpt>
      <trkpt lat="44.80963" lon="4.40336">
        <ele>834</ele>
        <time>2018-08-04T09:39:40Z</time>
      </trkpt>
      <trkpt lat="44.80968" lon="4.40335">
        <ele>834</ele>
        <time>2018-08-04T09:39:56Z</time>
      </trkpt>
      <trkpt lat="44.80972" lon="4.40332">
        <ele>834</ele>
        <time>2018-08-04T09:39:56Z</time>
      </trkpt>
      <trkpt lat="44.80977" lon="4.40332">
        <ele>834</ele>
        <time>2018-08-04T09:39:56Z</time>
      </trkpt>
      <trkpt lat="44.80983" lon="4.40331">
        <ele>834</ele>
        <time>2018-08-04T09:39:56Z</time>
      </trkpt>
      <trkpt lat="44.80988" lon="4.4033">
        <ele>832</ele>
        <time>2018-08-04T09:40:12Z</time>
      </trkpt>
      <trkpt lat="44.80992" lon="4.40328">
        <ele>832</ele>
        <time>2018-08-04T09:40:12Z</time>
      </trkpt>
      <trkpt lat="44.80993" lon="4.40326">
        <ele>832</ele>
        <time>2018-08-04T09:40:12Z</time>
      </trkpt>
      <trkpt lat="44.80996" lon="4.40323">
        <ele>832</ele>
        <time>2018-08-04T09:40:12Z</time>
      </trkpt>
      <trkpt lat="44.80999" lon="4.40319">
        <ele>840</ele>
        <time>2018-08-04T09:40:28Z</time>
      </trkpt>
      <trkpt lat="44.81002" lon="4.40315">
        <ele>840</ele>
        <time>2018-08-04T09:40:28Z</time>
      </trkpt>
      <trkpt lat="44.81006" lon="4.4031">
        <ele>840</ele>
        <time>2018-08-04T09:40:28Z</time>
      </trkpt>
      <trkpt lat="44.81009" lon="4.40305">
        <ele>840</ele>
        <time>2018-08-04T09:40:28Z</time>
      </trkpt>
      <trkpt lat="44.81012" lon="4.40299">
        <ele>840</ele>
        <time>2018-08-04T09:40:44Z</time>
      </trkpt>
      <trkpt lat="44.81014" lon="4.40295">
        <ele>840</ele>
        <time>2018-08-04T09:40:44Z</time>
      </trkpt>
      <trkpt lat="44.81019" lon="4.40293">
        <ele>832</ele>
        <time>2018-08-04T09:40:44Z</time>
      </trkpt>
      <trkpt lat="44.81021" lon="4.4029">
        <ele>839</ele>
        <time>2018-08-04T09:40:44Z</time>
      </trkpt>
      <trkpt lat="44.81024" lon="4.40284">
        <ele>839</ele>
        <time>2018-08-04T09:41:00Z</time>
      </trkpt>
      <trkpt lat="44.81028" lon="4.40281">
        <ele>839</ele>
        <time>2018-08-04T09:41:00Z</time>
      </trkpt>
      <trkpt lat="44.81034" lon="4.40276">
        <ele>839</ele>
        <time>2018-08-04T09:41:00Z</time>
      </trkpt>
      <trkpt lat="44.81035" lon="4.40273">
        <ele>839</ele>
        <time>2018-08-04T09:41:00Z</time>
      </trkpt>
      <trkpt lat="44.81037" lon="4.4027">
        <ele>839</ele>
        <time>2018-08-04T09:41:16Z</time>
      </trkpt>
      <trkpt lat="44.8104" lon="4.40266">
        <ele>839</ele>
        <time>2018-08-04T09:41:16Z</time>
      </trkpt>
      <trkpt lat="44.81043" lon="4.40263">
        <ele>840</ele>
        <time>2018-08-04T09:41:16Z</time>
      </trkpt>
      <trkpt lat="44.81047" lon="4.4026">
        <ele>840</ele>
        <time>2018-08-04T09:41:16Z</time>
      </trkpt>
      <trkpt lat="44.81051" lon="4.40256">
        <ele>840</ele>
        <time>2018-08-04T09:41:32Z</time>
      </trkpt>
      <trkpt lat="44.81054" lon="4.40253">
        <ele>840</ele>
        <time>2018-08-04T09:41:32Z</time>
      </trkpt>
      <trkpt lat="44.81058" lon="4.4025">
        <ele>840</ele>
        <time>2018-08-04T09:41:32Z</time>
      </trkpt>
      <trkpt lat="44.81061" lon="4.40246">
        <ele>840</ele>
        <time>2018-08-04T09:41:32Z</time>
      </trkpt>
      <trkpt lat="44.81066" lon="4.40241">
        <ele>840</ele>
        <time>2018-08-04T09:41:48Z</time>
      </trkpt>
      <trkpt lat="44.81069" lon="4.40237">
        <ele>840</ele>
        <time>2018-08-04T09:41:48Z</time>
      </trkpt>
      <trkpt lat="44.8107" lon="4.40235">
        <ele>840</ele>
        <time>2018-08-04T09:41:48Z</time>
      </trkpt>
      <trkpt lat="44.81076" lon="4.40233">
        <ele>840</ele>
        <time>2018-08-04T09:41:48Z</time>
      </trkpt>
      <trkpt lat="44.8108" lon="4.40229">
        <ele>840</ele>
        <time>2018-08-04T09:42:04Z</time>
      </trkpt>
      <trkpt lat="44.81082" lon="4.40226">
        <ele>840</ele>
        <time>2018-08-04T09:42:04Z</time>
      </trkpt>
      <trkpt lat="44.81085" lon="4.40223">
        <ele>840</ele>
        <time>2018-08-04T09:42:04Z</time>
      </trkpt>
      <trkpt lat="44.81087" lon="4.40219">
        <ele>840</ele>
        <time>2018-08-04T09:42:04Z</time>
      </trkpt>
      <trkpt lat="44.81087" lon="4.40216">
        <ele>840</ele>
        <time>2018-08-04T09:42:20Z</time>
      </trkpt>
      <trkpt lat="44.81088" lon="4.40212">
        <ele>840</ele>
        <time>2018-08-04T09:42:20Z</time>
      </trkpt>
      <trkpt lat="44.81091" lon="4.40207">
        <ele>841</ele>
        <time>2018-08-04T09:42:20Z</time>
      </trkpt>
      <trkpt lat="44.81096" lon="4.40203">
        <ele>841</ele>
        <time>2018-08-04T09:42:20Z</time>
      </trkpt>
      <trkpt lat="44.811" lon="4.40196">
        <ele>837</ele>
        <time>2018-08-04T09:42:36Z</time>
      </trkpt>
      <trkpt lat="44.81102" lon="4.40189">
        <ele>837</ele>
        <time>2018-08-04T09:42:36Z</time>
      </trkpt>
      <trkpt lat="44.81104" lon="4.40186">
        <ele>837</ele>
        <time>2018-08-04T09:42:36Z</time>
      </trkpt>
      <trkpt lat="44.81106" lon="4.40184">
        <ele>837</ele>
        <time>2018-08-04T09:42:36Z</time>
      </trkpt>
      <trkpt lat="44.81106" lon="4.40182">
        <ele>837</ele>
        <time>2018-08-04T09:42:56Z</time>
      </trkpt>
      <trkpt lat="44.81107" lon="4.40179">
        <ele>836</ele>
        <time>2018-08-04T09:42:56Z</time>
      </trkpt>
      <trkpt lat="44.81106" lon="4.40177">
        <ele>836</ele>
        <time>2018-08-04T09:42:56Z</time>
      </trkpt>
      <trkpt lat="44.81105" lon="4.4017">
        <ele>836</ele>
        <time>2018-08-04T09:42:56Z</time>
      </trkpt>
      <trkpt lat="44.81101" lon="4.40167">
        <ele>836</ele>
        <time>2018-08-04T09:42:56Z</time>
      </trkpt>
      <trkpt lat="44.81098" lon="4.40164">
        <ele>836</ele>
        <time>2018-08-04T09:43:12Z</time>
      </trkpt>
      <trkpt lat="44.81096" lon="4.40158">
        <ele>840</ele>
        <time>2018-08-04T09:43:12Z</time>
      </trkpt>
      <trkpt lat="44.81094" lon="4.40153">
        <ele>840</ele>
        <time>2018-08-04T09:43:12Z</time>
      </trkpt>
      <trkpt lat="44.81092" lon="4.40147">
        <ele>838</ele>
        <time>2018-08-04T09:43:12Z</time>
      </trkpt>
      <trkpt lat="44.81087" lon="4.4014">
        <ele>838</ele>
        <time>2018-08-04T09:43:28Z</time>
      </trkpt>
      <trkpt lat="44.81085" lon="4.40136">
        <ele>838</ele>
        <time>2018-08-04T09:43:28Z</time>
      </trkpt>
      <trkpt lat="44.81081" lon="4.40133">
        <ele>838</ele>
        <time>2018-08-04T09:43:28Z</time>
      </trkpt>
      <trkpt lat="44.81076" lon="4.40129">
        <ele>838</ele>
        <time>2018-08-04T09:43:28Z</time>
      </trkpt>
      <trkpt lat="44.81069" lon="4.40126">
        <ele>841</ele>
        <time>2018-08-04T09:43:44Z</time>
      </trkpt>
      <trkpt lat="44.81064" lon="4.40127">
        <ele>841</ele>
        <time>2018-08-04T09:43:44Z</time>
      </trkpt>
      <trkpt lat="44.81059" lon="4.40129">
        <ele>841</ele>
        <time>2018-08-04T09:43:44Z</time>
      </trkpt>
      <trkpt lat="44.81054" lon="4.4013">
        <ele>841</ele>
        <time>2018-08-04T09:43:44Z</time>
      </trkpt>
      <trkpt lat="44.81052" lon="4.40132">
        <ele>841</ele>
        <time>2018-08-04T09:44:00Z</time>
      </trkpt>
      <trkpt lat="44.81051" lon="4.40135">
        <ele>841</ele>
        <time>2018-08-04T09:44:00Z</time>
      </trkpt>
      <trkpt lat="44.81046" lon="4.40138">
        <ele>841</ele>
        <time>2018-08-04T09:44:00Z</time>
      </trkpt>
      <trkpt lat="44.81041" lon="4.40138">
        <ele>840</ele>
        <time>2018-08-04T09:44:00Z</time>
      </trkpt>
      <trkpt lat="44.81034" lon="4.40137">
        <ele>840</ele>
        <time>2018-08-04T09:44:16Z</time>
      </trkpt>
      <trkpt lat="44.8103" lon="4.40135">
        <ele>840</ele>
        <time>2018-08-04T09:44:16Z</time>
      </trkpt>
      <trkpt lat="44.81027" lon="4.40132">
        <ele>840</ele>
        <time>2018-08-04T09:44:16Z</time>
      </trkpt>
      <trkpt lat="44.81025" lon="4.40133">
        <ele>840</ele>
        <time>2018-08-04T09:44:16Z</time>
      </trkpt>
      <trkpt lat="44.8102" lon="4.40134">
        <ele>840</ele>
        <time>2018-08-04T09:44:32Z</time>
      </trkpt>
      <trkpt lat="44.81017" lon="4.40134">
        <ele>840</ele>
        <time>2018-08-04T09:44:32Z</time>
      </trkpt>
      <trkpt lat="44.81012" lon="4.40131">
        <ele>843</ele>
        <time>2018-08-04T09:44:32Z</time>
      </trkpt>
      <trkpt lat="44.81011" lon="4.40129">
        <ele>843</ele>
        <time>2018-08-04T09:44:32Z</time>
      </trkpt>
      <trkpt lat="44.81009" lon="4.40123">
        <ele>842</ele>
        <time>2018-08-04T09:44:48Z</time>
      </trkpt>
      <trkpt lat="44.81004" lon="4.40116">
        <ele>842</ele>
        <time>2018-08-04T09:44:48Z</time>
      </trkpt>
      <trkpt lat="44.81002" lon="4.40111">
        <ele>842</ele>
        <time>2018-08-04T09:44:48Z</time>
      </trkpt>
      <trkpt lat="44.80999" lon="4.40106">
        <ele>842</ele>
        <time>2018-08-04T09:44:48Z</time>
      </trkpt>
      <trkpt lat="44.80997" lon="4.401">
        <ele>842</ele>
        <time>2018-08-04T09:45:04Z</time>
      </trkpt>
      <trkpt lat="44.80995" lon="4.40097">
        <ele>839</ele>
        <time>2018-08-04T09:45:04Z</time>
      </trkpt>
      <trkpt lat="44.80988" lon="4.40093">
        <ele>839</ele>
        <time>2018-08-04T09:45:04Z</time>
      </trkpt>
      <trkpt lat="44.80986" lon="4.40092">
        <ele>851</ele>
        <time>2018-08-04T09:45:04Z</time>
      </trkpt>
      <trkpt lat="44.80983" lon="4.40089">
        <ele>851</ele>
        <time>2018-08-04T09:45:20Z</time>
      </trkpt>
      <trkpt lat="44.80982" lon="4.40085">
        <ele>851</ele>
        <time>2018-08-04T09:45:20Z</time>
      </trkpt>
      <trkpt lat="44.80983" lon="4.40076">
        <ele>851</ele>
        <time>2018-08-04T09:45:20Z</time>
      </trkpt>
      <trkpt lat="44.80981" lon="4.40069">
        <ele>846</ele>
        <time>2018-08-04T09:45:20Z</time>
      </trkpt>
      <trkpt lat="44.80979" lon="4.40064">
        <ele>846</ele>
        <time>2018-08-04T09:45:36Z</time>
      </trkpt>
      <trkpt lat="44.80977" lon="4.40054">
        <ele>846</ele>
        <time>2018-08-04T09:45:36Z</time>
      </trkpt>
      <trkpt lat="44.80971" lon="4.40045">
        <ele>846</ele>
        <time>2018-08-04T09:45:36Z</time>
      </trkpt>
      <trkpt lat="44.8097" lon="4.40037">
        <ele>844</ele>
        <time>2018-08-04T09:45:36Z</time>
      </trkpt>
      <trkpt lat="44.80973" lon="4.40027">
        <ele>844</ele>
        <time>2018-08-04T09:45:52Z</time>
      </trkpt>
      <trkpt lat="44.80974" lon="4.40019">
        <ele>844</ele>
        <time>2018-08-04T09:45:52Z</time>
      </trkpt>
      <trkpt lat="44.80973" lon="4.40014">
        <ele>840</ele>
        <time>2018-08-04T09:45:52Z</time>
      </trkpt>
      <trkpt lat="44.8097" lon="4.40009">
        <ele>840</ele>
        <time>2018-08-04T09:45:52Z</time>
      </trkpt>
      <trkpt lat="44.80966" lon="4.40006">
        <ele>840</ele>
        <time>2018-08-04T09:46:08Z</time>
      </trkpt>
      <trkpt lat="44.80965" lon="4.40002">
        <ele>840</ele>
        <time>2018-08-04T09:46:08Z</time>
      </trkpt>
      <trkpt lat="44.80963" lon="4.39994">
        <ele>840</ele>
        <time>2018-08-04T09:46:08Z</time>
      </trkpt>
      <trkpt lat="44.8096" lon="4.39989">
        <ele>840</ele>
        <time>2018-08-04T09:46:08Z</time>
      </trkpt>
      <trkpt lat="44.80963" lon="4.39982">
        <ele>838</ele>
        <time>2018-08-04T09:46:24Z</time>
      </trkpt>
      <trkpt lat="44.80966" lon="4.39977">
        <ele>838</ele>
        <time>2018-08-04T09:46:24Z</time>
      </trkpt>
      <trkpt lat="44.80962" lon="4.39972">
        <ele>838</ele>
        <time>2018-08-04T09:46:24Z</time>
      </trkpt>
      <trkpt lat="44.80956" lon="4.39966">
        <ele>845</ele>
        <time>2018-08-04T09:46:24Z</time>
      </trkpt>
      <trkpt lat="44.80954" lon="4.39962">
        <ele>845</ele>
        <time>2018-08-04T09:46:40Z</time>
      </trkpt>
      <trkpt lat="44.8095" lon="4.39959">
        <ele>845</ele>
        <time>2018-08-04T09:46:40Z</time>
      </trkpt>
      <trkpt lat="44.80945" lon="4.39954">
        <ele>840</ele>
        <time>2018-08-04T09:46:40Z</time>
      </trkpt>
      <trkpt lat="44.80943" lon="4.3995">
        <ele>840</ele>
        <time>2018-08-04T09:46:40Z</time>
      </trkpt>
      <trkpt lat="44.8094" lon="4.39946">
        <ele>840</ele>
        <time>2018-08-04T09:46:56Z</time>
      </trkpt>
      <trkpt lat="44.80937" lon="4.39943">
        <ele>840</ele>
        <time>2018-08-04T09:46:56Z</time>
      </trkpt>
      <trkpt lat="44.80934" lon="4.39939">
        <ele>840</ele>
        <time>2018-08-04T09:46:56Z</time>
      </trkpt>
      <trkpt lat="44.8093" lon="4.39936">
        <ele>850</ele>
        <time>2018-08-04T09:46:56Z</time>
      </trkpt>
      <trkpt lat="44.80931" lon="4.39932">
        <ele>850</ele>
        <time>2018-08-04T09:47:12Z</time>
      </trkpt>
      <trkpt lat="44.80929" lon="4.39926">
        <ele>844</ele>
        <time>2018-08-04T09:47:12Z</time>
      </trkpt>
      <trkpt lat="44.80925" lon="4.39921">
        <ele>844</ele>
        <time>2018-08-04T09:47:12Z</time>
      </trkpt>
      <trkpt lat="44.80922" lon="4.39918">
        <ele>844</ele>
        <time>2018-08-04T09:47:12Z</time>
      </trkpt>
      <trkpt lat="44.80918" lon="4.39915">
        <ele>844</ele>
        <time>2018-08-04T09:47:28Z</time>
      </trkpt>
      <trkpt lat="44.80912" lon="4.39911">
        <ele>844</ele>
        <time>2018-08-04T09:47:28Z</time>
      </trkpt>
      <trkpt lat="44.80907" lon="4.39908">
        <ele>844</ele>
        <time>2018-08-04T09:47:28Z</time>
      </trkpt>
      <trkpt lat="44.80907" lon="4.39904">
        <ele>844</ele>
        <time>2018-08-04T09:47:28Z</time>
      </trkpt>
      <trkpt lat="44.80907" lon="4.39902">
        <ele>840</ele>
        <time>2018-08-04T09:47:50Z</time>
      </trkpt>
      <trkpt lat="44.80907" lon="4.39904">
        <ele>844</ele>
        <time>2018-08-04T09:47:51Z</time>
      </trkpt>
      <trkpt lat="44.80904" lon="4.39897">
        <ele>840</ele>
        <time>2018-08-04T09:47:53Z</time>
      </trkpt>
      <trkpt lat="44.80893" lon="4.39891">
        <ele>848</ele>
        <time>2018-08-04T09:47:54Z</time>
      </trkpt>
      <trkpt lat="44.80888" lon="4.39888">
        <ele>848</ele>
        <time>2018-08-04T09:48:21Z</time>
      </trkpt>
      <trkpt lat="44.80883" lon="4.39881">
        <ele>848</ele>
        <time>2018-08-04T09:48:22Z</time>
      </trkpt>
      <trkpt lat="44.80876" lon="4.39872">
        <ele>844</ele>
        <time>2018-08-04T09:48:22Z</time>
      </trkpt>
      <trkpt lat="44.80867" lon="4.39856">
        <ele>855</ele>
        <time>2018-08-04T09:48:23Z</time>
      </trkpt>
      <trkpt lat="44.80863" lon="4.39852">
        <ele>855</ele>
        <time>2018-08-04T09:48:40Z</time>
      </trkpt>
      <trkpt lat="44.80861" lon="4.39851">
        <ele>855</ele>
        <time>2018-08-04T09:48:40Z</time>
      </trkpt>
      <trkpt lat="44.80849" lon="4.39835">
        <ele>850</ele>
        <time>2018-08-04T09:48:40Z</time>
      </trkpt>
      <trkpt lat="44.80849" lon="4.39833">
        <ele>850</ele>
        <time>2018-08-04T09:48:40Z</time>
      </trkpt>
      <trkpt lat="44.80844" lon="4.39831">
        <ele>860</ele>
        <time>2018-08-04T09:48:56Z</time>
      </trkpt>
      <trkpt lat="44.80835" lon="4.39829">
        <ele>860</ele>
        <time>2018-08-04T09:48:56Z</time>
      </trkpt>
      <trkpt lat="44.80829" lon="4.39827">
        <ele>860</ele>
        <time>2018-08-04T09:48:56Z</time>
      </trkpt>
      <trkpt lat="44.80825" lon="4.39826">
        <ele>860</ele>
        <time>2018-08-04T09:48:56Z</time>
      </trkpt>
      <trkpt lat="44.80822" lon="4.39824">
        <ele>860</ele>
        <time>2018-08-04T09:49:12Z</time>
      </trkpt>
      <trkpt lat="44.80818" lon="4.39821">
        <ele>869</ele>
        <time>2018-08-04T09:49:12Z</time>
      </trkpt>
      <trkpt lat="44.80815" lon="4.39818">
        <ele>862</ele>
        <time>2018-08-04T09:49:12Z</time>
      </trkpt>
      <trkpt lat="44.80813" lon="4.39816">
        <ele>862</ele>
        <time>2018-08-04T09:49:12Z</time>
      </trkpt>
      <trkpt lat="44.80809" lon="4.39813">
        <ele>862</ele>
        <time>2018-08-04T09:49:28Z</time>
      </trkpt>
      <trkpt lat="44.80805" lon="4.3981">
        <ele>862</ele>
        <time>2018-08-04T09:49:28Z</time>
      </trkpt>
      <trkpt lat="44.80804" lon="4.39807">
        <ele>862</ele>
        <time>2018-08-04T09:49:28Z</time>
      </trkpt>
      <trkpt lat="44.80799" lon="4.39806">
        <ele>862</ele>
        <time>2018-08-04T09:49:28Z</time>
      </trkpt>
      <trkpt lat="44.80795" lon="4.39805">
        <ele>862</ele>
        <time>2018-08-04T09:49:44Z</time>
      </trkpt>
      <trkpt lat="44.80792" lon="4.39805">
        <ele>862</ele>
        <time>2018-08-04T09:49:44Z</time>
      </trkpt>
      <trkpt lat="44.80788" lon="4.39802">
        <ele>870</ele>
        <time>2018-08-04T09:49:44Z</time>
      </trkpt>
      <trkpt lat="44.80783" lon="4.398">
        <ele>870</ele>
        <time>2018-08-04T09:49:44Z</time>
      </trkpt>
      <trkpt lat="44.80778" lon="4.39796">
        <ele>870</ele>
        <time>2018-08-04T09:50:00Z</time>
      </trkpt>
      <trkpt lat="44.80773" lon="4.39797">
        <ele>870</ele>
        <time>2018-08-04T09:50:00Z</time>
      </trkpt>
      <trkpt lat="44.80766" lon="4.39796">
        <ele>870</ele>
        <time>2018-08-04T09:50:00Z</time>
      </trkpt>
      <trkpt lat="44.80763" lon="4.39792">
        <ele>878</ele>
        <time>2018-08-04T09:50:00Z</time>
      </trkpt>
      <trkpt lat="44.80763" lon="4.39788">
        <ele>873</ele>
        <time>2018-08-04T09:50:16Z</time>
      </trkpt>
      <trkpt lat="44.80764" lon="4.39782">
        <ele>873</ele>
        <time>2018-08-04T09:50:16Z</time>
      </trkpt>
      <trkpt lat="44.80767" lon="4.39776">
        <ele>865</ele>
        <time>2018-08-04T09:50:16Z</time>
      </trkpt>
      <trkpt lat="44.80771" lon="4.39771">
        <ele>865</ele>
        <time>2018-08-04T09:50:16Z</time>
      </trkpt>
      <trkpt lat="44.80776" lon="4.39765">
        <ele>865</ele>
        <time>2018-08-04T09:50:32Z</time>
      </trkpt>
      <trkpt lat="44.80778" lon="4.39759">
        <ele>864</ele>
        <time>2018-08-04T09:50:32Z</time>
      </trkpt>
      <trkpt lat="44.80783" lon="4.39753">
        <ele>864</ele>
        <time>2018-08-04T09:50:32Z</time>
      </trkpt>
      <trkpt lat="44.80785" lon="4.39748">
        <ele>864</ele>
        <time>2018-08-04T09:50:32Z</time>
      </trkpt>
      <trkpt lat="44.80787" lon="4.39746">
        <ele>864</ele>
        <time>2018-08-04T09:50:57Z</time>
      </trkpt>
      <trkpt lat="44.80787" lon="4.39742">
        <ele>864</ele>
        <time>2018-08-04T09:50:59Z</time>
      </trkpt>
      <trkpt lat="44.80787" lon="4.39741">
        <ele>864</ele>
        <time>2018-08-04T09:51:00Z</time>
      </trkpt>
      <trkpt lat="44.80807" lon="4.39726">
        <ele>855</ele>
        <time>2018-08-04T09:51:01Z</time>
      </trkpt>
      <trkpt lat="44.80808" lon="4.39721">
        <ele>855</ele>
        <time>2018-08-04T09:51:26Z</time>
      </trkpt>
      <trkpt lat="44.80809" lon="4.39718">
        <ele>855</ele>
        <time>2018-08-04T09:51:27Z</time>
      </trkpt>
      <trkpt lat="44.80814" lon="4.39715">
        <ele>855</ele>
        <time>2018-08-04T09:51:28Z</time>
      </trkpt>
      <trkpt lat="44.80837" lon="4.39688">
        <ele>851</ele>
        <time>2018-08-04T09:51:29Z</time>
      </trkpt>
      <trkpt lat="44.80841" lon="4.39683">
        <ele>851</ele>
        <time>2018-08-04T09:51:45Z</time>
      </trkpt>
      <trkpt lat="44.80847" lon="4.39667">
        <ele>855</ele>
        <time>2018-08-04T09:51:45Z</time>
      </trkpt>
      <trkpt lat="44.80848" lon="4.39666">
        <ele>848</ele>
        <time>2018-08-04T09:51:45Z</time>
      </trkpt>
      <trkpt lat="44.8085" lon="4.39663">
        <ele>848</ele>
        <time>2018-08-04T09:51:45Z</time>
      </trkpt>
      <trkpt lat="44.80856" lon="4.39617">
        <ele>848</ele>
        <time>2018-08-04T09:53:17Z</time>
      </trkpt>
      <trkpt lat="44.80847" lon="4.39608">
        <ele>851</ele>
        <time>2018-08-04T09:53:18Z</time>
      </trkpt>
      <trkpt lat="44.80834" lon="4.39605">
        <ele>851</ele>
        <time>2018-08-04T09:53:19Z</time>
      </trkpt>
      <trkpt lat="44.80819" lon="4.39595">
        <ele>852</ele>
        <time>2018-08-04T09:53:20Z</time>
      </trkpt>
      <trkpt lat="44.80818" lon="4.39594">
        <ele>852</ele>
        <time>2018-08-04T09:53:21Z</time>
      </trkpt>
      <trkpt lat="44.80806" lon="4.39588">
        <ele>852</ele>
        <time>2018-08-04T09:53:48Z</time>
      </trkpt>
      <trkpt lat="44.80794" lon="4.39576">
        <ele>852</ele>
        <time>2018-08-04T09:53:48Z</time>
      </trkpt>
      <trkpt lat="44.80793" lon="4.39575">
        <ele>852</ele>
        <time>2018-08-04T09:53:49Z</time>
      </trkpt>
      <trkpt lat="44.80779" lon="4.39562">
        <ele>853</ele>
        <time>2018-08-04T09:53:50Z</time>
      </trkpt>
      <trkpt lat="44.80774" lon="4.3956">
        <ele>853</ele>
        <time>2018-08-04T09:54:09Z</time>
      </trkpt>
      <trkpt lat="44.8077" lon="4.39555">
        <ele>853</ele>
        <time>2018-08-04T09:54:11Z</time>
      </trkpt>
      <trkpt lat="44.80766" lon="4.39546">
        <ele>853</ele>
        <time>2018-08-04T09:54:12Z</time>
      </trkpt>
      <trkpt lat="44.80765" lon="4.39545">
        <ele>853</ele>
        <time>2018-08-04T09:54:13Z</time>
      </trkpt>
      <trkpt lat="44.80762" lon="4.3954">
        <ele>858</ele>
        <time>2018-08-04T09:54:41Z</time>
      </trkpt>
      <trkpt lat="44.80751" lon="4.39537">
        <ele>858</ele>
        <time>2018-08-04T09:54:44Z</time>
      </trkpt>
      <trkpt lat="44.80742" lon="4.39523">
        <ele>858</ele>
        <time>2018-08-04T09:54:44Z</time>
      </trkpt>
      <trkpt lat="44.80742" lon="4.3952">
        <ele>858</ele>
        <time>2018-08-04T09:54:45Z</time>
      </trkpt>
      <trkpt lat="44.80741" lon="4.39511">
        <ele>850</ele>
        <time>2018-08-04T09:55:04Z</time>
      </trkpt>
      <trkpt lat="44.80739" lon="4.39503">
        <ele>850</ele>
        <time>2018-08-04T09:55:04Z</time>
      </trkpt>
      <trkpt lat="44.80738" lon="4.39483">
        <ele>845</ele>
        <time>2018-08-04T09:55:04Z</time>
      </trkpt>
      <trkpt lat="44.80737" lon="4.39477">
        <ele>845</ele>
        <time>2018-08-04T09:55:04Z</time>
      </trkpt>
      <trkpt lat="44.80738" lon="4.39474">
        <ele>845</ele>
        <time>2018-08-04T09:55:38Z</time>
      </trkpt>
      <trkpt lat="44.80731" lon="4.39443">
        <ele>854</ele>
        <time>2018-08-04T09:55:39Z</time>
      </trkpt>
      <trkpt lat="44.80726" lon="4.39429">
        <ele>850</ele>
        <time>2018-08-04T09:55:39Z</time>
      </trkpt>
      <trkpt lat="44.80724" lon="4.39425">
        <ele>850</ele>
        <time>2018-08-04T09:55:39Z</time>
      </trkpt>
      <trkpt lat="44.80724" lon="4.39414">
        <ele>850</ele>
        <time>2018-08-04T10:01:40Z</time>
      </trkpt>
      <trkpt lat="44.80723" lon="4.39413">
        <ele>850</ele>
        <time>2018-08-04T10:01:40Z</time>
      </trkpt>
      <trkpt lat="44.80722" lon="4.39412">
        <ele>850</ele>
        <time>2018-08-04T10:01:40Z</time>
      </trkpt>
      <trkpt lat="44.80721" lon="4.39412">
        <ele>850</ele>
        <time>2018-08-04T10:01:40Z</time>
      </trkpt>
      <trkpt lat="44.80721" lon="4.39411">
        <ele>850</ele>
        <time>2018-08-04T10:01:40Z</time>
      </trkpt>
      <trkpt lat="44.8072" lon="4.39412">
        <ele>850</ele>
        <time>2018-08-04T10:04:20Z</time>
      </trkpt>
      <trkpt lat="44.8072" lon="4.39412">
        <ele>850</ele>
        <time>2018-08-04T10:04:20Z</time>
      </trkpt>
      <trkpt lat="44.8072" lon="4.39412">
        <ele>850</ele>
        <time>2018-08-04T10:04:20Z</time>
      </trkpt>
      <trkpt lat="44.80717" lon="4.39409">
        <ele>850</ele>
        <time>2018-08-04T10:04:20Z</time>
      </trkpt>
      <trkpt lat="44.80713" lon="4.39406">
        <ele>850</ele>
        <time>2018-08-04T10:04:20Z</time>
      </trkpt>
      <trkpt lat="44.80709" lon="4.39404">
        <ele>850</ele>
        <time>2018-08-04T10:04:36Z</time>
      </trkpt>
      <trkpt lat="44.80704" lon="4.39402">
        <ele>853</ele>
        <time>2018-08-04T10:04:36Z</time>
      </trkpt>
      <trkpt lat="44.807" lon="4.39399">
        <ele>853</ele>
        <time>2018-08-04T10:04:36Z</time>
      </trkpt>
      <trkpt lat="44.80697" lon="4.39396">
        <ele>853</ele>
        <time>2018-08-04T10:04:36Z</time>
      </trkpt>
      <trkpt lat="44.80694" lon="4.39395">
        <ele>853</ele>
        <time>2018-08-04T10:04:52Z</time>
      </trkpt>
      <trkpt lat="44.80691" lon="4.39392">
        <ele>853</ele>
        <time>2018-08-04T10:04:52Z</time>
      </trkpt>
      <trkpt lat="44.80687" lon="4.39389">
        <ele>853</ele>
        <time>2018-08-04T10:04:52Z</time>
      </trkpt>
      <trkpt lat="44.80685" lon="4.3939">
        <ele>853</ele>
        <time>2018-08-04T10:04:52Z</time>
      </trkpt>
      <trkpt lat="44.80681" lon="4.39389">
        <ele>853</ele>
        <time>2018-08-04T10:05:08Z</time>
      </trkpt>
      <trkpt lat="44.80679" lon="4.3939">
        <ele>857</ele>
        <time>2018-08-04T10:05:08Z</time>
      </trkpt>
      <trkpt lat="44.80674" lon="4.39389">
        <ele>857</ele>
        <time>2018-08-04T10:05:08Z</time>
      </trkpt>
      <trkpt lat="44.80669" lon="4.39389">
        <ele>857</ele>
        <time>2018-08-04T10:05:08Z</time>
      </trkpt>
      <trkpt lat="44.80666" lon="4.39388">
        <ele>857</ele>
        <time>2018-08-04T10:05:24Z</time>
      </trkpt>
      <trkpt lat="44.80662" lon="4.39389">
        <ele>857</ele>
        <time>2018-08-04T10:05:24Z</time>
      </trkpt>
      <trkpt lat="44.80658" lon="4.39388">
        <ele>857</ele>
        <time>2018-08-04T10:05:24Z</time>
      </trkpt>
      <trkpt lat="44.80655" lon="4.39387">
        <ele>857</ele>
        <time>2018-08-04T10:05:24Z</time>
      </trkpt>
      <trkpt lat="44.8065" lon="4.39387">
        <ele>863</ele>
        <time>2018-08-04T10:05:40Z</time>
      </trkpt>
      <trkpt lat="44.80644" lon="4.3939">
        <ele>863</ele>
        <time>2018-08-04T10:05:40Z</time>
      </trkpt>
      <trkpt lat="44.8064" lon="4.3939">
        <ele>863</ele>
        <time>2018-08-04T10:05:40Z</time>
      </trkpt>
      <trkpt lat="44.80635" lon="4.39385">
        <ele>863</ele>
        <time>2018-08-04T10:05:40Z</time>
      </trkpt>
      <trkpt lat="44.80633" lon="4.39385">
        <ele>863</ele>
        <time>2018-08-04T10:05:56Z</time>
      </trkpt>
      <trkpt lat="44.80628" lon="4.39386">
        <ele>863</ele>
        <time>2018-08-04T10:05:56Z</time>
      </trkpt>
      <trkpt lat="44.80625" lon="4.39381">
        <ele>863</ele>
        <time>2018-08-04T10:05:56Z</time>
      </trkpt>
      <trkpt lat="44.80617" lon="4.3938">
        <ele>873</ele>
        <time>2018-08-04T10:05:56Z</time>
      </trkpt>
      <trkpt lat="44.80607" lon="4.3938">
        <ele>873</ele>
        <time>2018-08-04T10:06:12Z</time>
      </trkpt>
      <trkpt lat="44.806" lon="4.39374">
        <ele>857</ele>
        <time>2018-08-04T10:06:12Z</time>
      </trkpt>
      <trkpt lat="44.80595" lon="4.39371">
        <ele>869</ele>
        <time>2018-08-04T10:06:12Z</time>
      </trkpt>
      <trkpt lat="44.80589" lon="4.39368">
        <ele>869</ele>
        <time>2018-08-04T10:06:12Z</time>
      </trkpt>
      <trkpt lat="44.80579" lon="4.39366">
        <ele>869</ele>
        <time>2018-08-04T10:06:28Z</time>
      </trkpt>
      <trkpt lat="44.80574" lon="4.39363">
        <ele>869</ele>
        <time>2018-08-04T10:06:28Z</time>
      </trkpt>
      <trkpt lat="44.80567" lon="4.39361">
        <ele>876</ele>
        <time>2018-08-04T10:06:28Z</time>
      </trkpt>
      <trkpt lat="44.80566" lon="4.39361">
        <ele>876</ele>
        <time>2018-08-04T10:06:28Z</time>
      </trkpt>
      <trkpt lat="44.8056" lon="4.39362">
        <ele>876</ele>
        <time>2018-08-04T10:06:44Z</time>
      </trkpt>
      <trkpt lat="44.80557" lon="4.39357">
        <ele>876</ele>
        <time>2018-08-04T10:06:44Z</time>
      </trkpt>
      <trkpt lat="44.80556" lon="4.39349">
        <ele>876</ele>
        <time>2018-08-04T10:06:44Z</time>
      </trkpt>
      <trkpt lat="44.80552" lon="4.39345">
        <ele>863</ele>
        <time>2018-08-04T10:06:44Z</time>
      </trkpt>
      <trkpt lat="44.80551" lon="4.39344">
        <ele>863</ele>
        <time>2018-08-04T10:07:00Z</time>
      </trkpt>
      <trkpt lat="44.80547" lon="4.39342">
        <ele>863</ele>
        <time>2018-08-04T10:07:00Z</time>
      </trkpt>
      <trkpt lat="44.80546" lon="4.3934">
        <ele>863</ele>
        <time>2018-08-04T10:07:00Z</time>
      </trkpt>
      <trkpt lat="44.80543" lon="4.39336">
        <ele>863</ele>
        <time>2018-08-04T10:07:00Z</time>
      </trkpt>
      <trkpt lat="44.8054" lon="4.39332">
        <ele>868</ele>
        <time>2018-08-04T10:07:16Z</time>
      </trkpt>
      <trkpt lat="44.80536" lon="4.39326">
        <ele>868</ele>
        <time>2018-08-04T10:07:16Z</time>
      </trkpt>
      <trkpt lat="44.80529" lon="4.39323">
        <ele>868</ele>
        <time>2018-08-04T10:07:16Z</time>
      </trkpt>
      <trkpt lat="44.80524" lon="4.39321">
        <ele>868</ele>
        <time>2018-08-04T10:07:16Z</time>
      </trkpt>
      <trkpt lat="44.80519" lon="4.39323">
        <ele>868</ele>
        <time>2018-08-04T10:07:32Z</time>
      </trkpt>
      <trkpt lat="44.80515" lon="4.39319">
        <ele>858</ele>
        <time>2018-08-04T10:07:32Z</time>
      </trkpt>
      <trkpt lat="44.80511" lon="4.39312">
        <ele>864</ele>
        <time>2018-08-04T10:07:32Z</time>
      </trkpt>
      <trkpt lat="44.80506" lon="4.39311">
        <ele>864</ele>
        <time>2018-08-04T10:07:32Z</time>
      </trkpt>
      <trkpt lat="44.80504" lon="4.39309">
        <ele>864</ele>
        <time>2018-08-04T10:07:48Z</time>
      </trkpt>
      <trkpt lat="44.80497" lon="4.39306">
        <ele>864</ele>
        <time>2018-08-04T10:07:48Z</time>
      </trkpt>
      <trkpt lat="44.80491" lon="4.39303">
        <ele>864</ele>
        <time>2018-08-04T10:07:48Z</time>
      </trkpt>
      <trkpt lat="44.80487" lon="4.39301">
        <ele>864</ele>
        <time>2018-08-04T10:07:48Z</time>
      </trkpt>
      <trkpt lat="44.80485" lon="4.393">
        <ele>871</ele>
        <time>2018-08-04T10:08:08Z</time>
      </trkpt>
      <trkpt lat="44.80483" lon="4.39297">
        <ele>871</ele>
        <time>2018-08-04T10:08:08Z</time>
      </trkpt>
      <trkpt lat="44.80482" lon="4.39297">
        <ele>871</ele>
        <time>2018-08-04T10:08:08Z</time>
      </trkpt>
      <trkpt lat="44.80479" lon="4.39299">
        <ele>871</ele>
        <time>2018-08-04T10:08:08Z</time>
      </trkpt>
      <trkpt lat="44.80473" lon="4.39297">
        <ele>871</ele>
        <time>2018-08-04T10:08:08Z</time>
      </trkpt>
      <trkpt lat="44.80468" lon="4.39295">
        <ele>871</ele>
        <time>2018-08-04T10:08:24Z</time>
      </trkpt>
      <trkpt lat="44.80462" lon="4.39293">
        <ele>871</ele>
        <time>2018-08-04T10:08:24Z</time>
      </trkpt>
      <trkpt lat="44.80456" lon="4.3929">
        <ele>864</ele>
        <time>2018-08-04T10:08:24Z</time>
      </trkpt>
      <trkpt lat="44.80449" lon="4.39287">
        <ele>864</ele>
        <time>2018-08-04T10:08:24Z</time>
      </trkpt>
      <trkpt lat="44.80443" lon="4.39286">
        <ele>864</ele>
        <time>2018-08-04T10:08:40Z</time>
      </trkpt>
      <trkpt lat="44.80438" lon="4.39286">
        <ele>864</ele>
        <time>2018-08-04T10:08:40Z</time>
      </trkpt>
      <trkpt lat="44.80434" lon="4.39287">
        <ele>864</ele>
        <time>2018-08-04T10:08:40Z</time>
      </trkpt>
      <trkpt lat="44.80429" lon="4.39285">
        <ele>869</ele>
        <time>2018-08-04T10:08:40Z</time>
      </trkpt>
      <trkpt lat="44.80426" lon="4.39285">
        <ele>869</ele>
        <time>2018-08-04T10:08:56Z</time>
      </trkpt>
      <trkpt lat="44.80422" lon="4.39285">
        <ele>869</ele>
        <time>2018-08-04T10:08:56Z</time>
      </trkpt>
      <trkpt lat="44.8042" lon="4.39286">
        <ele>869</ele>
        <time>2018-08-04T10:08:56Z</time>
      </trkpt>
      <trkpt lat="44.80416" lon="4.39285">
        <ele>869</ele>
        <time>2018-08-04T10:08:56Z</time>
      </trkpt>
      <trkpt lat="44.80406" lon="4.39274">
        <ele>869</ele>
        <time>2018-08-04T10:09:28Z</time>
      </trkpt>
      <trkpt lat="44.80405" lon="4.3927">
        <ele>869</ele>
        <time>2018-08-04T10:09:28Z</time>
      </trkpt>
      <trkpt lat="44.80404" lon="4.39265">
        <ele>869</ele>
        <time>2018-08-04T10:09:28Z</time>
      </trkpt>
      <trkpt lat="44.80405" lon="4.39261">
        <ele>862</ele>
        <time>2018-08-04T10:09:28Z</time>
      </trkpt>
      <trkpt lat="44.80403" lon="4.39256">
        <ele>862</ele>
        <time>2018-08-04T10:09:28Z</time>
      </trkpt>
      <trkpt lat="44.80401" lon="4.39254">
        <ele>867</ele>
        <time>2018-08-04T10:09:44Z</time>
      </trkpt>
      <trkpt lat="44.80396" lon="4.39248">
        <ele>867</ele>
        <time>2018-08-04T10:09:44Z</time>
      </trkpt>
      <trkpt lat="44.80392" lon="4.39243">
        <ele>867</ele>
        <time>2018-08-04T10:09:44Z</time>
      </trkpt>
      <trkpt lat="44.80388" lon="4.39241">
        <ele>867</ele>
        <time>2018-08-04T10:09:44Z</time>
      </trkpt>
      <trkpt lat="44.80383" lon="4.39236">
        <ele>867</ele>
        <time>2018-08-04T10:10:00Z</time>
      </trkpt>
      <trkpt lat="44.80379" lon="4.39235">
        <ele>858</ele>
        <time>2018-08-04T10:10:00Z</time>
      </trkpt>
      <trkpt lat="44.80372" lon="4.39231">
        <ele>858</ele>
        <time>2018-08-04T10:10:00Z</time>
      </trkpt>
      <trkpt lat="44.80367" lon="4.39232">
        <ele>858</ele>
        <time>2018-08-04T10:10:00Z</time>
      </trkpt>
      <trkpt lat="44.80362" lon="4.39231">
        <ele>858</ele>
        <time>2018-08-04T10:10:16Z</time>
      </trkpt>
      <trkpt lat="44.80356" lon="4.39233">
        <ele>858</ele>
        <time>2018-08-04T10:10:16Z</time>
      </trkpt>
      <trkpt lat="44.80352" lon="4.39232">
        <ele>858</ele>
        <time>2018-08-04T10:10:16Z</time>
      </trkpt>
      <trkpt lat="44.80349" lon="4.39234">
        <ele>858</ele>
        <time>2018-08-04T10:10:16Z</time>
      </trkpt>
      <trkpt lat="44.80346" lon="4.39237">
        <ele>865</ele>
        <time>2018-08-04T10:10:32Z</time>
      </trkpt>
      <trkpt lat="44.80343" lon="4.39238">
        <ele>865</ele>
        <time>2018-08-04T10:10:32Z</time>
      </trkpt>
      <trkpt lat="44.80337" lon="4.39242">
        <ele>865</ele>
        <time>2018-08-04T10:10:32Z</time>
      </trkpt>
      <trkpt lat="44.80333" lon="4.39243">
        <ele>865</ele>
        <time>2018-08-04T10:10:32Z</time>
      </trkpt>
      <trkpt lat="44.80331" lon="4.39245">
        <ele>865</ele>
        <time>2018-08-04T10:11:08Z</time>
      </trkpt>
      <trkpt lat="44.80328" lon="4.39243">
        <ele>865</ele>
        <time>2018-08-04T10:11:08Z</time>
      </trkpt>
      <trkpt lat="44.80324" lon="4.39245">
        <ele>865</ele>
        <time>2018-08-04T10:11:08Z</time>
      </trkpt>
      <trkpt lat="44.80321" lon="4.39247">
        <ele>865</ele>
        <time>2018-08-04T10:11:08Z</time>
      </trkpt>
      <trkpt lat="44.8032" lon="4.39249">
        <ele>865</ele>
        <time>2018-08-04T10:11:08Z</time>
      </trkpt>
      <trkpt lat="44.80317" lon="4.39252">
        <ele>862</ele>
        <time>2018-08-04T10:11:24Z</time>
      </trkpt>
      <trkpt lat="44.80314" lon="4.39259">
        <ele>862</ele>
        <time>2018-08-04T10:11:24Z</time>
      </trkpt>
      <trkpt lat="44.80309" lon="4.39264">
        <ele>865</ele>
        <time>2018-08-04T10:11:24Z</time>
      </trkpt>
      <trkpt lat="44.80308" lon="4.39268">
        <ele>865</ele>
        <time>2018-08-04T10:11:24Z</time>
      </trkpt>
      <trkpt lat="44.80304" lon="4.39273">
        <ele>865</ele>
        <time>2018-08-04T10:11:44Z</time>
      </trkpt>
      <trkpt lat="44.803" lon="4.39277">
        <ele>865</ele>
        <time>2018-08-04T10:11:44Z</time>
      </trkpt>
      <trkpt lat="44.80298" lon="4.39276">
        <ele>865</ele>
        <time>2018-08-04T10:11:44Z</time>
      </trkpt>
      <trkpt lat="44.80296" lon="4.39278">
        <ele>865</ele>
        <time>2018-08-04T10:11:44Z</time>
      </trkpt>
      <trkpt lat="44.80293" lon="4.39274">
        <ele>865</ele>
        <time>2018-08-04T10:11:44Z</time>
      </trkpt>
      <trkpt lat="44.80291" lon="4.39268">
        <ele>870</ele>
        <time>2018-08-04T10:12:00Z</time>
      </trkpt>
      <trkpt lat="44.80289" lon="4.39263">
        <ele>870</ele>
        <time>2018-08-04T10:12:00Z</time>
      </trkpt>
      <trkpt lat="44.80289" lon="4.39258">
        <ele>870</ele>
        <time>2018-08-04T10:12:00Z</time>
      </trkpt>
      <trkpt lat="44.80287" lon="4.39253">
        <ele>870</ele>
        <time>2018-08-04T10:12:00Z</time>
      </trkpt>
      <trkpt lat="44.80285" lon="4.39248">
        <ele>870</ele>
        <time>2018-08-04T10:12:16Z</time>
      </trkpt>
      <trkpt lat="44.80284" lon="4.39242">
        <ele>870</ele>
        <time>2018-08-04T10:12:16Z</time>
      </trkpt>
      <trkpt lat="44.80285" lon="4.39236">
        <ele>869</ele>
        <time>2018-08-04T10:12:16Z</time>
      </trkpt>
      <trkpt lat="44.80285" lon="4.39228">
        <ele>869</ele>
        <time>2018-08-04T10:12:16Z</time>
      </trkpt>
      <trkpt lat="44.80284" lon="4.39226">
        <ele>869</ele>
        <time>2018-08-04T10:12:32Z</time>
      </trkpt>
      <trkpt lat="44.80282" lon="4.3922">
        <ele>869</ele>
        <time>2018-08-04T10:12:32Z</time>
      </trkpt>
      <trkpt lat="44.80281" lon="4.39219">
        <ele>869</ele>
        <time>2018-08-04T10:12:32Z</time>
      </trkpt>
      <trkpt lat="44.8028" lon="4.39212">
        <ele>869</ele>
        <time>2018-08-04T10:12:32Z</time>
      </trkpt>
      <trkpt lat="44.8028" lon="4.39205">
        <ele>864</ele>
        <time>2018-08-04T10:12:48Z</time>
      </trkpt>
      <trkpt lat="44.80282" lon="4.39199">
        <ele>864</ele>
        <time>2018-08-04T10:12:48Z</time>
      </trkpt>
      <trkpt lat="44.80282" lon="4.39194">
        <ele>864</ele>
        <time>2018-08-04T10:12:48Z</time>
      </trkpt>
      <trkpt lat="44.80284" lon="4.39187">
        <ele>864</ele>
        <time>2018-08-04T10:12:48Z</time>
      </trkpt>
      <trkpt lat="44.80285" lon="4.39181">
        <ele>864</ele>
        <time>2018-08-04T10:13:04Z</time>
      </trkpt>
      <trkpt lat="44.80286" lon="4.39175">
        <ele>859</ele>
        <time>2018-08-04T10:13:04Z</time>
      </trkpt>
      <trkpt lat="44.80286" lon="4.39169">
        <ele>859</ele>
        <time>2018-08-04T10:13:04Z</time>
      </trkpt>
      <trkpt lat="44.80284" lon="4.39163">
        <ele>859</ele>
        <time>2018-08-04T10:13:04Z</time>
      </trkpt>
      <trkpt lat="44.80282" lon="4.39159">
        <ele>859</ele>
        <time>2018-08-04T10:13:20Z</time>
      </trkpt>
      <trkpt lat="44.80282" lon="4.39154">
        <ele>859</ele>
        <time>2018-08-04T10:13:20Z</time>
      </trkpt>
      <trkpt lat="44.80278" lon="4.39149">
        <ele>851</ele>
        <time>2018-08-04T10:13:20Z</time>
      </trkpt>
      <trkpt lat="44.80275" lon="4.39144">
        <ele>851</ele>
        <time>2018-08-04T10:13:20Z</time>
      </trkpt>
      <trkpt lat="44.80272" lon="4.3914">
        <ele>851</ele>
        <time>2018-08-04T10:13:36Z</time>
      </trkpt>
      <trkpt lat="44.80268" lon="4.39135">
        <ele>851</ele>
        <time>2018-08-04T10:13:36Z</time>
      </trkpt>
      <trkpt lat="44.80264" lon="4.39131">
        <ele>851</ele>
        <time>2018-08-04T10:13:36Z</time>
      </trkpt>
      <trkpt lat="44.8026" lon="4.39129">
        <ele>856</ele>
        <time>2018-08-04T10:13:36Z</time>
      </trkpt>
      <trkpt lat="44.80256" lon="4.39126">
        <ele>856</ele>
        <time>2018-08-04T10:13:52Z</time>
      </trkpt>
      <trkpt lat="44.80251" lon="4.39123">
        <ele>848</ele>
        <time>2018-08-04T10:13:52Z</time>
      </trkpt>
      <trkpt lat="44.80247" lon="4.3912">
        <ele>848</ele>
        <time>2018-08-04T10:13:52Z</time>
      </trkpt>
      <trkpt lat="44.80242" lon="4.39116">
        <ele>848</ele>
        <time>2018-08-04T10:13:52Z</time>
      </trkpt>
      <trkpt lat="44.80238" lon="4.39113">
        <ele>848</ele>
        <time>2018-08-04T10:14:08Z</time>
      </trkpt>
      <trkpt lat="44.80233" lon="4.39109">
        <ele>852</ele>
        <time>2018-08-04T10:14:08Z</time>
      </trkpt>
      <trkpt lat="44.80229" lon="4.39105">
        <ele>852</ele>
        <time>2018-08-04T10:14:08Z</time>
      </trkpt>
      <trkpt lat="44.80224" lon="4.39103">
        <ele>852</ele>
        <time>2018-08-04T10:14:08Z</time>
      </trkpt>
      <trkpt lat="44.8022" lon="4.39101">
        <ele>852</ele>
        <time>2018-08-04T10:14:24Z</time>
      </trkpt>
      <trkpt lat="44.80215" lon="4.39099">
        <ele>852</ele>
        <time>2018-08-04T10:14:24Z</time>
      </trkpt>
      <trkpt lat="44.80211" lon="4.39097">
        <ele>843</ele>
        <time>2018-08-04T10:14:24Z</time>
      </trkpt>
      <trkpt lat="44.80208" lon="4.39095">
        <ele>848</ele>
        <time>2018-08-04T10:14:24Z</time>
      </trkpt>
      <trkpt lat="44.80202" lon="4.39094">
        <ele>848</ele>
        <time>2018-08-04T10:14:40Z</time>
      </trkpt>
      <trkpt lat="44.80198" lon="4.39092">
        <ele>848</ele>
        <time>2018-08-04T10:14:40Z</time>
      </trkpt>
      <trkpt lat="44.80193" lon="4.39092">
        <ele>848</ele>
        <time>2018-08-04T10:14:40Z</time>
      </trkpt>
      <trkpt lat="44.80189" lon="4.39093">
        <ele>848</ele>
        <time>2018-08-04T10:14:40Z</time>
      </trkpt>
      <trkpt lat="44.80184" lon="4.39093">
        <ele>848</ele>
        <time>2018-08-04T10:14:56Z</time>
      </trkpt>
      <trkpt lat="44.80179" lon="4.39094">
        <ele>848</ele>
        <time>2018-08-04T10:14:56Z</time>
      </trkpt>
      <trkpt lat="44.80174" lon="4.39096">
        <ele>848</ele>
        <time>2018-08-04T10:14:56Z</time>
      </trkpt>
      <trkpt lat="44.80168" lon="4.39098">
        <ele>856</ele>
        <time>2018-08-04T10:14:56Z</time>
      </trkpt>
      <trkpt lat="44.80164" lon="4.39098">
        <ele>856</ele>
        <time>2018-08-04T10:15:12Z</time>
      </trkpt>
      <trkpt lat="44.80159" lon="4.391">
        <ele>856</ele>
        <time>2018-08-04T10:15:12Z</time>
      </trkpt>
      <trkpt lat="44.80155" lon="4.39101">
        <ele>856</ele>
        <time>2018-08-04T10:15:12Z</time>
      </trkpt>
      <trkpt lat="44.8015" lon="4.39102">
        <ele>851</ele>
        <time>2018-08-04T10:15:12Z</time>
      </trkpt>
      <trkpt lat="44.80145" lon="4.39104">
        <ele>851</ele>
        <time>2018-08-04T10:15:28Z</time>
      </trkpt>
      <trkpt lat="44.8014" lon="4.39105">
        <ele>851</ele>
        <time>2018-08-04T10:15:28Z</time>
      </trkpt>
      <trkpt lat="44.80135" lon="4.39105">
        <ele>851</ele>
        <time>2018-08-04T10:15:28Z</time>
      </trkpt>
      <trkpt lat="44.80131" lon="4.39105">
        <ele>851</ele>
        <time>2018-08-04T10:15:28Z</time>
      </trkpt>
      <trkpt lat="44.80126" lon="4.39108">
        <ele>851</ele>
        <time>2018-08-04T10:15:44Z</time>
      </trkpt>
      <trkpt lat="44.8012" lon="4.3911">
        <ele>852</ele>
        <time>2018-08-04T10:15:44Z</time>
      </trkpt>
      <trkpt lat="44.80116" lon="4.39112">
        <ele>852</ele>
        <time>2018-08-04T10:15:44Z</time>
      </trkpt>
      <trkpt lat="44.80112" lon="4.39116">
        <ele>852</ele>
        <time>2018-08-04T10:15:44Z</time>
      </trkpt>
      <trkpt lat="44.80109" lon="4.3912">
        <ele>852</ele>
        <time>2018-08-04T10:16:00Z</time>
      </trkpt>
      <trkpt lat="44.80104" lon="4.39122">
        <ele>852</ele>
        <time>2018-08-04T10:16:00Z</time>
      </trkpt>
      <trkpt lat="44.80099" lon="4.39124">
        <ele>852</ele>
        <time>2018-08-04T10:16:00Z</time>
      </trkpt>
      <trkpt lat="44.80094" lon="4.39123">
        <ele>855</ele>
        <time>2018-08-04T10:16:00Z</time>
      </trkpt>
      <trkpt lat="44.80089" lon="4.39122">
        <ele>855</ele>
        <time>2018-08-04T10:16:16Z</time>
      </trkpt>
      <trkpt lat="44.80085" lon="4.39117">
        <ele>855</ele>
        <time>2018-08-04T10:16:16Z</time>
      </trkpt>
      <trkpt lat="44.80082" lon="4.3911">
        <ele>855</ele>
        <time>2018-08-04T10:16:16Z</time>
      </trkpt>
      <trkpt lat="44.80082" lon="4.39104">
        <ele>855</ele>
        <time>2018-08-04T10:16:16Z</time>
      </trkpt>
      <trkpt lat="44.80081" lon="4.39097">
        <ele>851</ele>
        <time>2018-08-04T10:16:32Z</time>
      </trkpt>
      <trkpt lat="44.80081" lon="4.3909">
        <ele>851</ele>
        <time>2018-08-04T10:16:32Z</time>
      </trkpt>
      <trkpt lat="44.80081" lon="4.39088">
        <ele>851</ele>
        <time>2018-08-04T10:16:32Z</time>
      </trkpt>
      <trkpt lat="44.8008" lon="4.39084">
        <ele>851</ele>
        <time>2018-08-04T10:16:32Z</time>
      </trkpt>
      <trkpt lat="44.80083" lon="4.39088">
        <ele>851</ele>
        <time>2018-08-04T10:17:48Z</time>
      </trkpt>
      <trkpt lat="44.80086" lon="4.39091">
        <ele>851</ele>
        <time>2018-08-04T10:17:48Z</time>
      </trkpt>
      <trkpt lat="44.8009" lon="4.39098">
        <ele>855</ele>
        <time>2018-08-04T10:17:48Z</time>
      </trkpt>
      <trkpt lat="44.80093" lon="4.39105">
        <ele>855</ele>
        <time>2018-08-04T10:17:48Z</time>
      </trkpt>
      <trkpt lat="44.80093" lon="4.39105">
        <ele>855</ele>
        <time>2018-08-04T10:17:48Z</time>
      </trkpt>
      <trkpt lat="44.80092" lon="4.39102">
        <ele>855</ele>
        <time>2018-08-04T10:18:12Z</time>
      </trkpt>
      <trkpt lat="44.8009" lon="4.391">
        <ele>855</ele>
        <time>2018-08-04T10:18:12Z</time>
      </trkpt>
      <trkpt lat="44.80089" lon="4.39099">
        <ele>855</ele>
        <time>2018-08-04T10:18:12Z</time>
      </trkpt>
      <trkpt lat="44.80088" lon="4.39097">
        <ele>851</ele>
        <time>2018-08-04T10:18:12Z</time>
      </trkpt>
      <trkpt lat="44.80087" lon="4.39095">
        <ele>851</ele>
        <time>2018-08-04T10:18:12Z</time>
      </trkpt>
      <trkpt lat="44.80088" lon="4.39088">
        <ele>851</ele>
        <time>2018-08-04T10:18:28Z</time>
      </trkpt>
      <trkpt lat="44.80085" lon="4.39084">
        <ele>851</ele>
        <time>2018-08-04T10:18:28Z</time>
      </trkpt>
      <trkpt lat="44.80085" lon="4.39079">
        <ele>851</ele>
        <time>2018-08-04T10:18:28Z</time>
      </trkpt>
      <trkpt lat="44.80085" lon="4.39075">
        <ele>851</ele>
        <time>2018-08-04T10:18:28Z</time>
      </trkpt>
      <trkpt lat="44.80086" lon="4.39069">
        <ele>849</ele>
        <time>2018-08-04T10:18:44Z</time>
      </trkpt>
      <trkpt lat="44.80086" lon="4.39064">
        <ele>849</ele>
        <time>2018-08-04T10:18:44Z</time>
      </trkpt>
      <trkpt lat="44.80085" lon="4.3906">
        <ele>849</ele>
        <time>2018-08-04T10:18:44Z</time>
      </trkpt>
      <trkpt lat="44.80085" lon="4.39056">
        <ele>849</ele>
        <time>2018-08-04T10:18:44Z</time>
      </trkpt>
      <trkpt lat="44.80083" lon="4.39044">
        <ele>849</ele>
        <time>2018-08-04T10:19:16Z</time>
      </trkpt>
      <trkpt lat="44.80083" lon="4.39043">
        <ele>849</ele>
        <time>2018-08-04T10:19:16Z</time>
      </trkpt>
      <trkpt lat="44.80083" lon="4.39042">
        <ele>849</ele>
        <time>2018-08-04T10:19:16Z</time>
      </trkpt>
      <trkpt lat="44.80083" lon="4.39042">
        <ele>849</ele>
        <time>2018-08-04T10:19:16Z</time>
      </trkpt>
      <trkpt lat="44.80084" lon="4.39038">
        <ele>849</ele>
        <time>2018-08-04T10:19:16Z</time>
      </trkpt>
      <trkpt lat="44.80088" lon="4.39037">
        <ele>849</ele>
        <time>2018-08-04T10:19:32Z</time>
      </trkpt>
      <trkpt lat="44.80092" lon="4.39036">
        <ele>849</ele>
        <time>2018-08-04T10:19:32Z</time>
      </trkpt>
      <trkpt lat="44.80097" lon="4.39035">
        <ele>849</ele>
        <time>2018-08-04T10:19:32Z</time>
      </trkpt>
      <trkpt lat="44.80099" lon="4.39027">
        <ele>844</ele>
        <time>2018-08-04T10:19:32Z</time>
      </trkpt>
      <trkpt lat="44.801" lon="4.39018">
        <ele>844</ele>
        <time>2018-08-04T10:19:48Z</time>
      </trkpt>
      <trkpt lat="44.801" lon="4.39009">
        <ele>841</ele>
        <time>2018-08-04T10:19:48Z</time>
      </trkpt>
      <trkpt lat="44.80098" lon="4.38998">
        <ele>841</ele>
        <time>2018-08-04T10:19:48Z</time>
      </trkpt>
      <trkpt lat="44.80094" lon="4.38987">
        <ele>849</ele>
        <time>2018-08-04T10:19:48Z</time>
      </trkpt>
      <trkpt lat="44.80089" lon="4.38979">
        <ele>846</ele>
        <time>2018-08-04T10:20:04Z</time>
      </trkpt>
      <trkpt lat="44.80085" lon="4.38972">
        <ele>846</ele>
        <time>2018-08-04T10:20:04Z</time>
      </trkpt>
      <trkpt lat="44.80081" lon="4.38969">
        <ele>846</ele>
        <time>2018-08-04T10:20:04Z</time>
      </trkpt>
      <trkpt lat="44.80078" lon="4.38965">
        <ele>846</ele>
        <time>2018-08-04T10:20:04Z</time>
      </trkpt>
      <trkpt lat="44.80077" lon="4.38963">
        <ele>846</ele>
        <time>2018-08-04T10:20:20Z</time>
      </trkpt>
      <trkpt lat="44.80074" lon="4.38958">
        <ele>846</ele>
        <time>2018-08-04T10:20:20Z</time>
      </trkpt>
      <trkpt lat="44.80071" lon="4.38953">
        <ele>841</ele>
        <time>2018-08-04T10:20:20Z</time>
      </trkpt>
      <trkpt lat="44.80069" lon="4.38948">
        <ele>849</ele>
        <time>2018-08-04T10:20:20Z</time>
      </trkpt>
      <trkpt lat="44.8007" lon="4.3894">
        <ele>841</ele>
        <time>2018-08-04T10:20:36Z</time>
      </trkpt>
      <trkpt lat="44.80069" lon="4.38932">
        <ele>849</ele>
        <time>2018-08-04T10:20:36Z</time>
      </trkpt>
      <trkpt lat="44.80066" lon="4.38924">
        <ele>842</ele>
        <time>2018-08-04T10:20:36Z</time>
      </trkpt>
      <trkpt lat="44.80064" lon="4.38916">
        <ele>842</ele>
        <time>2018-08-04T10:20:36Z</time>
      </trkpt>
      <trkpt lat="44.80063" lon="4.38911">
        <ele>842</ele>
        <time>2018-08-04T10:20:52Z</time>
      </trkpt>
      <trkpt lat="44.80064" lon="4.38906">
        <ele>842</ele>
        <time>2018-08-04T10:20:52Z</time>
      </trkpt>
      <trkpt lat="44.80066" lon="4.38899">
        <ele>839</ele>
        <time>2018-08-04T10:20:52Z</time>
      </trkpt>
      <trkpt lat="44.80069" lon="4.38893">
        <ele>839</ele>
        <time>2018-08-04T10:20:52Z</time>
      </trkpt>
      <trkpt lat="44.8007" lon="4.38885">
        <ele>833</ele>
        <time>2018-08-04T10:21:08Z</time>
      </trkpt>
      <trkpt lat="44.80067" lon="4.38878">
        <ele>839</ele>
        <time>2018-08-04T10:21:08Z</time>
      </trkpt>
      <trkpt lat="44.80065" lon="4.3887">
        <ele>836</ele>
        <time>2018-08-04T10:21:08Z</time>
      </trkpt>
      <trkpt lat="44.80063" lon="4.38864">
        <ele>836</ele>
        <time>2018-08-04T10:21:08Z</time>
      </trkpt>
      <trkpt lat="44.80062" lon="4.38858">
        <ele>836</ele>
        <time>2018-08-04T10:21:24Z</time>
      </trkpt>
      <trkpt lat="44.8006" lon="4.38856">
        <ele>836</ele>
        <time>2018-08-04T10:21:24Z</time>
      </trkpt>
      <trkpt lat="44.80058" lon="4.38852">
        <ele>836</ele>
        <time>2018-08-04T10:21:24Z</time>
      </trkpt>
      <trkpt lat="44.80056" lon="4.38841">
        <ele>833</ele>
        <time>2018-08-04T10:21:24Z</time>
      </trkpt>
      <trkpt lat="44.80054" lon="4.38834">
        <ele>833</ele>
        <time>2018-08-04T10:21:40Z</time>
      </trkpt>
      <trkpt lat="44.80052" lon="4.38825">
        <ele>833</ele>
        <time>2018-08-04T10:21:40Z</time>
      </trkpt>
      <trkpt lat="44.80049" lon="4.3882">
        <ele>833</ele>
        <time>2018-08-04T10:21:40Z</time>
      </trkpt>
      <trkpt lat="44.80045" lon="4.38815">
        <ele>832</ele>
        <time>2018-08-04T10:21:40Z</time>
      </trkpt>
      <trkpt lat="44.80043" lon="4.38811">
        <ele>832</ele>
        <time>2018-08-04T10:22:08Z</time>
      </trkpt>
      <trkpt lat="44.80044" lon="4.38808">
        <ele>832</ele>
        <time>2018-08-04T10:22:08Z</time>
      </trkpt>
      <trkpt lat="44.80045" lon="4.38801">
        <ele>832</ele>
        <time>2018-08-04T10:22:08Z</time>
      </trkpt>
      <trkpt lat="44.80044" lon="4.38796">
        <ele>832</ele>
        <time>2018-08-04T10:22:08Z</time>
      </trkpt>
      <trkpt lat="44.80046" lon="4.38789">
        <ele>834</ele>
        <time>2018-08-04T10:22:08Z</time>
      </trkpt>
      <trkpt lat="44.80048" lon="4.38783">
        <ele>834</ele>
        <time>2018-08-04T10:22:24Z</time>
      </trkpt>
      <trkpt lat="44.8005" lon="4.38777">
        <ele>834</ele>
        <time>2018-08-04T10:22:24Z</time>
      </trkpt>
      <trkpt lat="44.80052" lon="4.38771">
        <ele>834</ele>
        <time>2018-08-04T10:22:24Z</time>
      </trkpt>
      <trkpt lat="44.80053" lon="4.38764">
        <ele>839</ele>
        <time>2018-08-04T10:22:24Z</time>
      </trkpt>
      <trkpt lat="44.80054" lon="4.38757">
        <ele>839</ele>
        <time>2018-08-04T10:22:40Z</time>
      </trkpt>
      <trkpt lat="44.80058" lon="4.38755">
        <ele>839</ele>
        <time>2018-08-04T10:22:40Z</time>
      </trkpt>
      <trkpt lat="44.80059" lon="4.38751">
        <ele>839</ele>
        <time>2018-08-04T10:22:40Z</time>
      </trkpt>
      <trkpt lat="44.80059" lon="4.38744">
        <ele>839</ele>
        <time>2018-08-04T10:22:40Z</time>
      </trkpt>
      <trkpt lat="44.8006" lon="4.38739">
        <ele>839</ele>
        <time>2018-08-04T10:22:56Z</time>
      </trkpt>
      <trkpt lat="44.80061" lon="4.38731">
        <ele>842</ele>
        <time>2018-08-04T10:22:56Z</time>
      </trkpt>
      <trkpt lat="44.80056" lon="4.38724">
        <ele>842</ele>
        <time>2018-08-04T10:22:56Z</time>
      </trkpt>
      <trkpt lat="44.80052" lon="4.3872">
        <ele>842</ele>
        <time>2018-08-04T10:22:56Z</time>
      </trkpt>
      <trkpt lat="44.80049" lon="4.38715">
        <ele>842</ele>
        <time>2018-08-04T10:23:12Z</time>
      </trkpt>
      <trkpt lat="44.80045" lon="4.3871">
        <ele>842</ele>
        <time>2018-08-04T10:23:12Z</time>
      </trkpt>
      <trkpt lat="44.80041" lon="4.38706">
        <ele>846</ele>
        <time>2018-08-04T10:23:12Z</time>
      </trkpt>
      <trkpt lat="44.80037" lon="4.38703">
        <ele>846</ele>
        <time>2018-08-04T10:23:12Z</time>
      </trkpt>
      <trkpt lat="44.80031" lon="4.387">
        <ele>846</ele>
        <time>2018-08-04T10:23:28Z</time>
      </trkpt>
      <trkpt lat="44.80025" lon="4.38696">
        <ele>846</ele>
        <time>2018-08-04T10:23:28Z</time>
      </trkpt>
      <trkpt lat="44.8002" lon="4.38693">
        <ele>846</ele>
        <time>2018-08-04T10:23:28Z</time>
      </trkpt>
      <trkpt lat="44.80017" lon="4.3869">
        <ele>846</ele>
        <time>2018-08-04T10:23:28Z</time>
      </trkpt>
      <trkpt lat="44.80011" lon="4.38687">
        <ele>844</ele>
        <time>2018-08-04T10:23:44Z</time>
      </trkpt>
      <trkpt lat="44.80007" lon="4.38686">
        <ele>844</ele>
        <time>2018-08-04T10:23:44Z</time>
      </trkpt>
      <trkpt lat="44.80002" lon="4.38684">
        <ele>844</ele>
        <time>2018-08-04T10:23:44Z</time>
      </trkpt>
      <trkpt lat="44.79998" lon="4.38683">
        <ele>844</ele>
        <time>2018-08-04T10:23:44Z</time>
      </trkpt>
      <trkpt lat="44.79997" lon="4.38684">
        <ele>844</ele>
        <time>2018-08-04T10:24:04Z</time>
      </trkpt>
      <trkpt lat="44.79997" lon="4.38685">
        <ele>844</ele>
        <time>2018-08-04T10:24:04Z</time>
      </trkpt>
      <trkpt lat="44.79993" lon="4.38683">
        <ele>844</ele>
        <time>2018-08-04T10:24:04Z</time>
      </trkpt>
      <trkpt lat="44.7999" lon="4.3868">
        <ele>844</ele>
        <time>2018-08-04T10:24:04Z</time>
      </trkpt>
      <trkpt lat="44.79986" lon="4.38678">
        <ele>843</ele>
        <time>2018-08-04T10:24:04Z</time>
      </trkpt>
      <trkpt lat="44.79984" lon="4.38676">
        <ele>843</ele>
        <time>2018-08-04T10:24:20Z</time>
      </trkpt>
      <trkpt lat="44.79981" lon="4.3867">
        <ele>843</ele>
        <time>2018-08-04T10:24:20Z</time>
      </trkpt>
      <trkpt lat="44.7998" lon="4.38665">
        <ele>843</ele>
        <time>2018-08-04T10:24:20Z</time>
      </trkpt>
      <trkpt lat="44.79977" lon="4.3866">
        <ele>843</ele>
        <time>2018-08-04T10:24:20Z</time>
      </trkpt>
      <trkpt lat="44.79975" lon="4.38653">
        <ele>843</ele>
        <time>2018-08-04T10:24:36Z</time>
      </trkpt>
      <trkpt lat="44.7997" lon="4.3865">
        <ele>846</ele>
        <time>2018-08-04T10:24:36Z</time>
      </trkpt>
      <trkpt lat="44.79966" lon="4.38649">
        <ele>846</ele>
        <time>2018-08-04T10:24:36Z</time>
      </trkpt>
      <trkpt lat="44.79961" lon="4.38648">
        <ele>846</ele>
        <time>2018-08-04T10:24:36Z</time>
      </trkpt>
      <trkpt lat="44.79957" lon="4.38646">
        <ele>849</ele>
        <time>2018-08-04T10:24:52Z</time>
      </trkpt>
      <trkpt lat="44.79953" lon="4.38643">
        <ele>849</ele>
        <time>2018-08-04T10:24:52Z</time>
      </trkpt>
      <trkpt lat="44.7995" lon="4.38639">
        <ele>849</ele>
        <time>2018-08-04T10:24:52Z</time>
      </trkpt>
      <trkpt lat="44.79949" lon="4.38636">
        <ele>849</ele>
        <time>2018-08-04T10:24:52Z</time>
      </trkpt>
      <trkpt lat="44.7995" lon="4.38632">
        <ele>849</ele>
        <time>2018-08-04T10:25:08Z</time>
      </trkpt>
      <trkpt lat="44.79944" lon="4.38628">
        <ele>849</ele>
        <time>2018-08-04T10:25:08Z</time>
      </trkpt>
      <trkpt lat="44.7994" lon="4.38626">
        <ele>849</ele>
        <time>2018-08-04T10:25:08Z</time>
      </trkpt>
      <trkpt lat="44.79939" lon="4.38626">
        <ele>849</ele>
        <time>2018-08-04T10:25:08Z</time>
      </trkpt>
      <trkpt lat="44.79933" lon="4.3862">
        <ele>850</ele>
        <time>2018-08-04T10:25:44Z</time>
      </trkpt>
      <trkpt lat="44.79933" lon="4.3862">
        <ele>850</ele>
        <time>2018-08-04T10:25:44Z</time>
      </trkpt>
      <trkpt lat="44.79933" lon="4.38619">
        <ele>850</ele>
        <time>2018-08-04T10:25:44Z</time>
      </trkpt>
      <trkpt lat="44.79932" lon="4.38615">
        <ele>850</ele>
        <time>2018-08-04T10:25:44Z</time>
      </trkpt>
      <trkpt lat="44.79934" lon="4.38611">
        <ele>850</ele>
        <time>2018-08-04T10:25:44Z</time>
      </trkpt>
      <trkpt lat="44.79929" lon="4.38607">
        <ele>853</ele>
        <time>2018-08-04T10:26:16Z</time>
      </trkpt>
      <trkpt lat="44.79928" lon="4.38606">
        <ele>853</ele>
        <time>2018-08-04T10:26:16Z</time>
      </trkpt>
      <trkpt lat="44.79928" lon="4.38606">
        <ele>853</ele>
        <time>2018-08-04T10:26:16Z</time>
      </trkpt>
      <trkpt lat="44.79925" lon="4.38604">
        <ele>853</ele>
        <time>2018-08-04T10:26:16Z</time>
      </trkpt>
      <trkpt lat="44.79922" lon="4.38604">
        <ele>853</ele>
        <time>2018-08-04T10:26:16Z</time>
      </trkpt>
      <trkpt lat="44.79918" lon="4.38605">
        <ele>853</ele>
        <time>2018-08-04T10:26:40Z</time>
      </trkpt>
      <trkpt lat="44.79916" lon="4.38605">
        <ele>853</ele>
        <time>2018-08-04T10:26:40Z</time>
      </trkpt>
      <trkpt lat="44.79915" lon="4.38602">
        <ele>853</ele>
        <time>2018-08-04T10:26:40Z</time>
      </trkpt>
      <trkpt lat="44.79913" lon="4.38601">
        <ele>853</ele>
        <time>2018-08-04T10:26:40Z</time>
      </trkpt>
      <trkpt lat="44.7991" lon="4.38601">
        <ele>853</ele>
        <time>2018-08-04T10:26:40Z</time>
      </trkpt>
      <trkpt lat="44.79908" lon="4.386">
        <ele>853</ele>
        <time>2018-08-04T10:26:56Z</time>
      </trkpt>
      <trkpt lat="44.79905" lon="4.38599">
        <ele>853</ele>
        <time>2018-08-04T10:26:56Z</time>
      </trkpt>
      <trkpt lat="44.79902" lon="4.38597">
        <ele>855</ele>
        <time>2018-08-04T10:26:56Z</time>
      </trkpt>
      <trkpt lat="44.79897" lon="4.38595">
        <ele>855</ele>
        <time>2018-08-04T10:26:56Z</time>
      </trkpt>
      <trkpt lat="44.79894" lon="4.38592">
        <ele>855</ele>
        <time>2018-08-04T10:27:12Z</time>
      </trkpt>
      <trkpt lat="44.79892" lon="4.38591">
        <ele>855</ele>
        <time>2018-08-04T10:27:12Z</time>
      </trkpt>
      <trkpt lat="44.79887" lon="4.38591">
        <ele>855</ele>
        <time>2018-08-04T10:27:12Z</time>
      </trkpt>
      <trkpt lat="44.79883" lon="4.3859">
        <ele>855</ele>
        <time>2018-08-04T10:27:12Z</time>
      </trkpt>
      <trkpt lat="44.7988" lon="4.38589">
        <ele>855</ele>
        <time>2018-08-04T10:27:28Z</time>
      </trkpt>
      <trkpt lat="44.79878" lon="4.38587">
        <ele>855</ele>
        <time>2018-08-04T10:27:28Z</time>
      </trkpt>
      <trkpt lat="44.79876" lon="4.38583">
        <ele>855</ele>
        <time>2018-08-04T10:27:28Z</time>
      </trkpt>
      <trkpt lat="44.79872" lon="4.3858">
        <ele>861</ele>
        <time>2018-08-04T10:27:28Z</time>
      </trkpt>
      <trkpt lat="44.79869" lon="4.38573">
        <ele>861</ele>
        <time>2018-08-04T10:27:44Z</time>
      </trkpt>
      <trkpt lat="44.79867" lon="4.38569">
        <ele>859</ele>
        <time>2018-08-04T10:27:44Z</time>
      </trkpt>
      <trkpt lat="44.79864" lon="4.38567">
        <ele>859</ele>
        <time>2018-08-04T10:27:44Z</time>
      </trkpt>
      <trkpt lat="44.79859" lon="4.38562">
        <ele>859</ele>
        <time>2018-08-04T10:27:44Z</time>
      </trkpt>
      <trkpt lat="44.79854" lon="4.38557">
        <ele>859</ele>
        <time>2018-08-04T10:28:00Z</time>
      </trkpt>
      <trkpt lat="44.7985" lon="4.38555">
        <ele>859</ele>
        <time>2018-08-04T10:28:00Z</time>
      </trkpt>
      <trkpt lat="44.79847" lon="4.38553">
        <ele>864</ele>
        <time>2018-08-04T10:28:00Z</time>
      </trkpt>
      <trkpt lat="44.79843" lon="4.38552">
        <ele>864</ele>
        <time>2018-08-04T10:28:00Z</time>
      </trkpt>
      <trkpt lat="44.79835" lon="4.38558">
        <ele>864</ele>
        <time>2018-08-04T10:28:44Z</time>
      </trkpt>
      <trkpt lat="44.79837" lon="4.38563">
        <ele>864</ele>
        <time>2018-08-04T10:28:44Z</time>
      </trkpt>
      <trkpt lat="44.79839" lon="4.38569">
        <ele>864</ele>
        <time>2018-08-04T10:28:44Z</time>
      </trkpt>
      <trkpt lat="44.7984" lon="4.38575">
        <ele>866</ele>
        <time>2018-08-04T10:28:44Z</time>
      </trkpt>
      <trkpt lat="44.79841" lon="4.38581">
        <ele>866</ele>
        <time>2018-08-04T10:28:44Z</time>
      </trkpt>
      <trkpt lat="44.79844" lon="4.38587">
        <ele>866</ele>
        <time>2018-08-04T10:29:00Z</time>
      </trkpt>
      <trkpt lat="44.79845" lon="4.38594">
        <ele>866</ele>
        <time>2018-08-04T10:29:00Z</time>
      </trkpt>
      <trkpt lat="44.79847" lon="4.38599">
        <ele>869</ele>
        <time>2018-08-04T10:29:00Z</time>
      </trkpt>
      <trkpt lat="44.79848" lon="4.38604">
        <ele>864</ele>
        <time>2018-08-04T10:29:00Z</time>
      </trkpt>
      <trkpt lat="44.79848" lon="4.38603">
        <ele>864</ele>
        <time>2018-08-04T10:29:56Z</time>
      </trkpt>
      <trkpt lat="44.7985" lon="4.38608">
        <ele>864</ele>
        <time>2018-08-04T10:29:56Z</time>
      </trkpt>
      <trkpt lat="44.79851" lon="4.38613">
        <ele>864</ele>
        <time>2018-08-04T10:29:56Z</time>
      </trkpt>
      <trkpt lat="44.79852" lon="4.3862">
        <ele>864</ele>
        <time>2018-08-04T10:29:56Z</time>
      </trkpt>
      <trkpt lat="44.79854" lon="4.38628">
        <ele>866</ele>
        <time>2018-08-04T10:29:56Z</time>
      </trkpt>
      <trkpt lat="44.79856" lon="4.38634">
        <ele>866</ele>
        <time>2018-08-04T10:30:12Z</time>
      </trkpt>
      <trkpt lat="44.79858" lon="4.38641">
        <ele>866</ele>
        <time>2018-08-04T10:30:12Z</time>
      </trkpt>
      <trkpt lat="44.7986" lon="4.38647">
        <ele>866</ele>
        <time>2018-08-04T10:30:12Z</time>
      </trkpt>
      <trkpt lat="44.79862" lon="4.38654">
        <ele>867</ele>
        <time>2018-08-04T10:30:12Z</time>
      </trkpt>
      <trkpt lat="44.79864" lon="4.38664">
        <ele>867</ele>
        <time>2018-08-04T10:30:28Z</time>
      </trkpt>
      <trkpt lat="44.79866" lon="4.38671">
        <ele>867</ele>
        <time>2018-08-04T10:30:28Z</time>
      </trkpt>
      <trkpt lat="44.79866" lon="4.38678">
        <ele>867</ele>
        <time>2018-08-04T10:30:28Z</time>
      </trkpt>
      <trkpt lat="44.79867" lon="4.38685">
        <ele>866</ele>
        <time>2018-08-04T10:30:28Z</time>
      </trkpt>
      <trkpt lat="44.79868" lon="4.38692">
        <ele>866</ele>
        <time>2018-08-04T10:30:44Z</time>
      </trkpt>
      <trkpt lat="44.79868" lon="4.38699">
        <ele>866</ele>
        <time>2018-08-04T10:30:44Z</time>
      </trkpt>
      <trkpt lat="44.79869" lon="4.38706">
        <ele>866</ele>
        <time>2018-08-04T10:30:44Z</time>
      </trkpt>
      <trkpt lat="44.79871" lon="4.38712">
        <ele>869</ele>
        <time>2018-08-04T10:30:44Z</time>
      </trkpt>
      <trkpt lat="44.79873" lon="4.38716">
        <ele>869</ele>
        <time>2018-08-04T10:31:00Z</time>
      </trkpt>
      <trkpt lat="44.79872" lon="4.38723">
        <ele>869</ele>
        <time>2018-08-04T10:31:00Z</time>
      </trkpt>
      <trkpt lat="44.79871" lon="4.38731">
        <ele>869</ele>
        <time>2018-08-04T10:31:00Z</time>
      </trkpt>
      <trkpt lat="44.7987" lon="4.38739">
        <ele>872</ele>
        <time>2018-08-04T10:31:00Z</time>
      </trkpt>
      <trkpt lat="44.7987" lon="4.38746">
        <ele>872</ele>
        <time>2018-08-04T10:31:16Z</time>
      </trkpt>
      <trkpt lat="44.79871" lon="4.38754">
        <ele>872</ele>
        <time>2018-08-04T10:31:16Z</time>
      </trkpt>
      <trkpt lat="44.79871" lon="4.38759">
        <ele>872</ele>
        <time>2018-08-04T10:31:16Z</time>
      </trkpt>
      <trkpt lat="44.79871" lon="4.38764">
        <ele>872</ele>
        <time>2018-08-04T10:31:16Z</time>
      </trkpt>
      <trkpt lat="44.7987" lon="4.3877">
        <ele>878</ele>
        <time>2018-08-04T10:31:32Z</time>
      </trkpt>
      <trkpt lat="44.79868" lon="4.38776">
        <ele>878</ele>
        <time>2018-08-04T10:31:32Z</time>
      </trkpt>
      <trkpt lat="44.79864" lon="4.38779">
        <ele>878</ele>
        <time>2018-08-04T10:31:32Z</time>
      </trkpt>
      <trkpt lat="44.7986" lon="4.38773">
        <ele>878</ele>
        <time>2018-08-04T10:31:32Z</time>
      </trkpt>
      <trkpt lat="44.79859" lon="4.38769">
        <ele>878</ele>
        <time>2018-08-04T10:31:48Z</time>
      </trkpt>
      <trkpt lat="44.79856" lon="4.38764">
        <ele>872</ele>
        <time>2018-08-04T10:31:48Z</time>
      </trkpt>
      <trkpt lat="44.79856" lon="4.38757">
        <ele>872</ele>
        <time>2018-08-04T10:31:48Z</time>
      </trkpt>
      <trkpt lat="44.79857" lon="4.38749">
        <ele>872</ele>
        <time>2018-08-04T10:31:48Z</time>
      </trkpt>
      <trkpt lat="44.79855" lon="4.38744">
        <ele>872</ele>
        <time>2018-08-04T10:32:04Z</time>
      </trkpt>
      <trkpt lat="44.79854" lon="4.38738">
        <ele>872</ele>
        <time>2018-08-04T10:32:04Z</time>
      </trkpt>
      <trkpt lat="44.79853" lon="4.38731">
        <ele>869</ele>
        <time>2018-08-04T10:32:04Z</time>
      </trkpt>
      <trkpt lat="44.7985" lon="4.38725">
        <ele>869</ele>
        <time>2018-08-04T10:32:04Z</time>
      </trkpt>
      <trkpt lat="44.79847" lon="4.38719">
        <ele>869</ele>
        <time>2018-08-04T10:32:20Z</time>
      </trkpt>
      <trkpt lat="44.79844" lon="4.38714">
        <ele>877</ele>
        <time>2018-08-04T10:32:20Z</time>
      </trkpt>
      <trkpt lat="44.79842" lon="4.38709">
        <ele>877</ele>
        <time>2018-08-04T10:32:20Z</time>
      </trkpt>
      <trkpt lat="44.79839" lon="4.38705">
        <ele>876</ele>
        <time>2018-08-04T10:32:20Z</time>
      </trkpt>
      <trkpt lat="44.79835" lon="4.38702">
        <ele>876</ele>
        <time>2018-08-04T10:32:36Z</time>
      </trkpt>
      <trkpt lat="44.7983" lon="4.38699">
        <ele>876</ele>
        <time>2018-08-04T10:32:36Z</time>
      </trkpt>
      <trkpt lat="44.79826" lon="4.38696">
        <ele>876</ele>
        <time>2018-08-04T10:32:36Z</time>
      </trkpt>
      <trkpt lat="44.79822" lon="4.38693">
        <ele>876</ele>
        <time>2018-08-04T10:32:36Z</time>
      </trkpt>
      <trkpt lat="44.79819" lon="4.3869">
        <ele>887</ele>
        <time>2018-08-04T10:32:52Z</time>
      </trkpt>
      <trkpt lat="44.79816" lon="4.38687">
        <ele>887</ele>
        <time>2018-08-04T10:32:52Z</time>
      </trkpt>
      <trkpt lat="44.79813" lon="4.38684">
        <ele>887</ele>
        <time>2018-08-04T10:32:52Z</time>
      </trkpt>
      <trkpt lat="44.7981" lon="4.3868">
        <ele>883</ele>
        <time>2018-08-04T10:32:52Z</time>
      </trkpt>
      <trkpt lat="44.79806" lon="4.38675">
        <ele>883</ele>
        <time>2018-08-04T10:33:08Z</time>
      </trkpt>
      <trkpt lat="44.79805" lon="4.38668">
        <ele>883</ele>
        <time>2018-08-04T10:33:08Z</time>
      </trkpt>
      <trkpt lat="44.79802" lon="4.38663">
        <ele>883</ele>
        <time>2018-08-04T10:33:08Z</time>
      </trkpt>
      <trkpt lat="44.79798" lon="4.3866">
        <ele>883</ele>
        <time>2018-08-04T10:33:08Z</time>
      </trkpt>
      <trkpt lat="44.79793" lon="4.38656">
        <ele>883</ele>
        <time>2018-08-04T10:33:24Z</time>
      </trkpt>
      <trkpt lat="44.79789" lon="4.38651">
        <ele>885</ele>
        <time>2018-08-04T10:33:24Z</time>
      </trkpt>
      <trkpt lat="44.79785" lon="4.38648">
        <ele>885</ele>
        <time>2018-08-04T10:33:24Z</time>
      </trkpt>
      <trkpt lat="44.7978" lon="4.38647">
        <ele>885</ele>
        <time>2018-08-04T10:33:24Z</time>
      </trkpt>
      <trkpt lat="44.79777" lon="4.38644">
        <ele>885</ele>
        <time>2018-08-04T10:33:40Z</time>
      </trkpt>
      <trkpt lat="44.79773" lon="4.38641">
        <ele>885</ele>
        <time>2018-08-04T10:33:40Z</time>
      </trkpt>
      <trkpt lat="44.7977" lon="4.38639">
        <ele>885</ele>
        <time>2018-08-04T10:33:40Z</time>
      </trkpt>
      <trkpt lat="44.79766" lon="4.38637">
        <ele>885</ele>
        <time>2018-08-04T10:33:40Z</time>
      </trkpt>
      <trkpt lat="44.79761" lon="4.38634">
        <ele>892</ele>
        <time>2018-08-04T10:33:56Z</time>
      </trkpt>
      <trkpt lat="44.79757" lon="4.38631">
        <ele>892</ele>
        <time>2018-08-04T10:33:56Z</time>
      </trkpt>
      <trkpt lat="44.79752" lon="4.38629">
        <ele>892</ele>
        <time>2018-08-04T10:33:56Z</time>
      </trkpt>
      <trkpt lat="44.79748" lon="4.38627">
        <ele>892</ele>
        <time>2018-08-04T10:33:56Z</time>
      </trkpt>
      <trkpt lat="44.79742" lon="4.38625">
        <ele>892</ele>
        <time>2018-08-04T10:34:12Z</time>
      </trkpt>
      <trkpt lat="44.79737" lon="4.38621">
        <ele>886</ele>
        <time>2018-08-04T10:34:12Z</time>
      </trkpt>
      <trkpt lat="44.79734" lon="4.38619">
        <ele>893</ele>
        <time>2018-08-04T10:34:12Z</time>
      </trkpt>
      <trkpt lat="44.7973" lon="4.38617">
        <ele>893</ele>
        <time>2018-08-04T10:34:12Z</time>
      </trkpt>
      <trkpt lat="44.79726" lon="4.38613">
        <ele>893</ele>
        <time>2018-08-04T10:34:28Z</time>
      </trkpt>
      <trkpt lat="44.79723" lon="4.3861">
        <ele>893</ele>
        <time>2018-08-04T10:34:28Z</time>
      </trkpt>
      <trkpt lat="44.79718" lon="4.38607">
        <ele>893</ele>
        <time>2018-08-04T10:34:28Z</time>
      </trkpt>
      <trkpt lat="44.79715" lon="4.38605">
        <ele>893</ele>
        <time>2018-08-04T10:34:28Z</time>
      </trkpt>
      <trkpt lat="44.79712" lon="4.38598">
        <ele>893</ele>
        <time>2018-08-04T10:34:44Z</time>
      </trkpt>
      <trkpt lat="44.7971" lon="4.38592">
        <ele>889</ele>
        <time>2018-08-04T10:34:44Z</time>
      </trkpt>
      <trkpt lat="44.79709" lon="4.3859">
        <ele>889</ele>
        <time>2018-08-04T10:34:44Z</time>
      </trkpt>
      <trkpt lat="44.79708" lon="4.38584">
        <ele>896</ele>
        <time>2018-08-04T10:34:44Z</time>
      </trkpt>
      <trkpt lat="44.79704" lon="4.38578">
        <ele>896</ele>
        <time>2018-08-04T10:35:00Z</time>
      </trkpt>
      <trkpt lat="44.79701" lon="4.38573">
        <ele>896</ele>
        <time>2018-08-04T10:35:00Z</time>
      </trkpt>
      <trkpt lat="44.79698" lon="4.38567">
        <ele>894</ele>
        <time>2018-08-04T10:35:00Z</time>
      </trkpt>
      <trkpt lat="44.79694" lon="4.38561">
        <ele>894</ele>
        <time>2018-08-04T10:35:00Z</time>
      </trkpt>
      <trkpt lat="44.7969" lon="4.38556">
        <ele>894</ele>
        <time>2018-08-04T10:35:16Z</time>
      </trkpt>
      <trkpt lat="44.79684" lon="4.38551">
        <ele>894</ele>
        <time>2018-08-04T10:35:16Z</time>
      </trkpt>
      <trkpt lat="44.79679" lon="4.38547">
        <ele>899</ele>
        <time>2018-08-04T10:35:16Z</time>
      </trkpt>
      <trkpt lat="44.79677" lon="4.38542">
        <ele>896</ele>
        <time>2018-08-04T10:35:16Z</time>
      </trkpt>
      <trkpt lat="44.79674" lon="4.38537">
        <ele>896</ele>
        <time>2018-08-04T10:35:32Z</time>
      </trkpt>
      <trkpt lat="44.79672" lon="4.38533">
        <ele>896</ele>
        <time>2018-08-04T10:35:32Z</time>
      </trkpt>
      <trkpt lat="44.79668" lon="4.3853">
        <ele>896</ele>
        <time>2018-08-04T10:35:32Z</time>
      </trkpt>
      <trkpt lat="44.79665" lon="4.38527">
        <ele>896</ele>
        <time>2018-08-04T10:35:32Z</time>
      </trkpt>
      <trkpt lat="44.79662" lon="4.38521">
        <ele>896</ele>
        <time>2018-08-04T10:35:48Z</time>
      </trkpt>
      <trkpt lat="44.79659" lon="4.38517">
        <ele>896</ele>
        <time>2018-08-04T10:35:48Z</time>
      </trkpt>
      <trkpt lat="44.79654" lon="4.38514">
        <ele>894</ele>
        <time>2018-08-04T10:35:48Z</time>
      </trkpt>
      <trkpt lat="44.79651" lon="4.3851">
        <ele>899</ele>
        <time>2018-08-04T10:35:48Z</time>
      </trkpt>
      <trkpt lat="44.79647" lon="4.38506">
        <ele>899</ele>
        <time>2018-08-04T10:36:04Z</time>
      </trkpt>
      <trkpt lat="44.79645" lon="4.38501">
        <ele>899</ele>
        <time>2018-08-04T10:36:04Z</time>
      </trkpt>
      <trkpt lat="44.79643" lon="4.38498">
        <ele>899</ele>
        <time>2018-08-04T10:36:04Z</time>
      </trkpt>
      <trkpt lat="44.79639" lon="4.38494">
        <ele>899</ele>
        <time>2018-08-04T10:36:04Z</time>
      </trkpt>
      <trkpt lat="44.79634" lon="4.38488">
        <ele>899</ele>
        <time>2018-08-04T10:36:20Z</time>
      </trkpt>
      <trkpt lat="44.79629" lon="4.38484">
        <ele>897</ele>
        <time>2018-08-04T10:36:20Z</time>
      </trkpt>
      <trkpt lat="44.79626" lon="4.38478">
        <ele>897</ele>
        <time>2018-08-04T10:36:20Z</time>
      </trkpt>
      <trkpt lat="44.79624" lon="4.38474">
        <ele>902</ele>
        <time>2018-08-04T10:36:20Z</time>
      </trkpt>
      <trkpt lat="44.79622" lon="4.38467">
        <ele>902</ele>
        <time>2018-08-04T10:36:36Z</time>
      </trkpt>
      <trkpt lat="44.7962" lon="4.38463">
        <ele>902</ele>
        <time>2018-08-04T10:36:36Z</time>
      </trkpt>
      <trkpt lat="44.79617" lon="4.38459">
        <ele>902</ele>
        <time>2018-08-04T10:36:36Z</time>
      </trkpt>
      <trkpt lat="44.79613" lon="4.38455">
        <ele>899</ele>
        <time>2018-08-04T10:36:36Z</time>
      </trkpt>
      <trkpt lat="44.7961" lon="4.38452">
        <ele>899</ele>
        <time>2018-08-04T10:36:52Z</time>
      </trkpt>
      <trkpt lat="44.79607" lon="4.38448">
        <ele>899</ele>
        <time>2018-08-04T10:36:52Z</time>
      </trkpt>
      <trkpt lat="44.79604" lon="4.38444">
        <ele>899</ele>
        <time>2018-08-04T10:36:52Z</time>
      </trkpt>
      <trkpt lat="44.79601" lon="4.38439">
        <ele>899</ele>
        <time>2018-08-04T10:36:52Z</time>
      </trkpt>
      <trkpt lat="44.79595" lon="4.38436">
        <ele>904</ele>
        <time>2018-08-04T10:37:08Z</time>
      </trkpt>
      <trkpt lat="44.79591" lon="4.3843">
        <ele>902</ele>
        <time>2018-08-04T10:37:08Z</time>
      </trkpt>
      <trkpt lat="44.79588" lon="4.38427">
        <ele>902</ele>
        <time>2018-08-04T10:37:08Z</time>
      </trkpt>
      <trkpt lat="44.79587" lon="4.38428">
        <ele>902</ele>
        <time>2018-08-04T10:37:08Z</time>
      </trkpt>
      <trkpt lat="44.79588" lon="4.38419">
        <ele>902</ele>
        <time>2018-08-04T10:37:52Z</time>
      </trkpt>
      <trkpt lat="44.79588" lon="4.38419">
        <ele>902</ele>
        <time>2018-08-04T10:37:52Z</time>
      </trkpt>
      <trkpt lat="44.79589" lon="4.38419">
        <ele>902</ele>
        <time>2018-08-04T10:37:52Z</time>
      </trkpt>
      <trkpt lat="44.79588" lon="4.38419">
        <ele>902</ele>
        <time>2018-08-04T10:37:52Z</time>
      </trkpt>
      <trkpt lat="44.79586" lon="4.38416">
        <ele>902</ele>
        <time>2018-08-04T10:37:52Z</time>
      </trkpt>
      <trkpt lat="44.79584" lon="4.38415">
        <ele>902</ele>
        <time>2018-08-04T10:38:20Z</time>
      </trkpt>
      <trkpt lat="44.79582" lon="4.38409">
        <ele>902</ele>
        <time>2018-08-04T10:38:20Z</time>
      </trkpt>
      <trkpt lat="44.79579" lon="4.38402">
        <ele>899</ele>
        <time>2018-08-04T10:38:20Z</time>
      </trkpt>
      <trkpt lat="44.79576" lon="4.38398">
        <ele>899</ele>
        <time>2018-08-04T10:38:20Z</time>
      </trkpt>
      <trkpt lat="44.79574" lon="4.38392">
        <ele>899</ele>
        <time>2018-08-04T10:38:20Z</time>
      </trkpt>
      <trkpt lat="44.7957" lon="4.38383">
        <ele>899</ele>
        <time>2018-08-04T10:38:44Z</time>
      </trkpt>
      <trkpt lat="44.79569" lon="4.38385">
        <ele>909</ele>
        <time>2018-08-04T10:38:44Z</time>
      </trkpt>
      <trkpt lat="44.79566" lon="4.38382">
        <ele>909</ele>
        <time>2018-08-04T10:38:44Z</time>
      </trkpt>
      <trkpt lat="44.79564" lon="4.38381">
        <ele>909</ele>
        <time>2018-08-04T10:38:44Z</time>
      </trkpt>
      <trkpt lat="44.79563" lon="4.38379">
        <ele>909</ele>
        <time>2018-08-04T10:38:44Z</time>
      </trkpt>
      <trkpt lat="44.79561" lon="4.38374">
        <ele>906</ele>
        <time>2018-08-04T10:39:00Z</time>
      </trkpt>
      <trkpt lat="44.79558" lon="4.38369">
        <ele>906</ele>
        <time>2018-08-04T10:39:00Z</time>
      </trkpt>
      <trkpt lat="44.79556" lon="4.38369">
        <ele>906</ele>
        <time>2018-08-04T10:39:00Z</time>
      </trkpt>
      <trkpt lat="44.79551" lon="4.38364">
        <ele>906</ele>
        <time>2018-08-04T10:39:00Z</time>
      </trkpt>
      <trkpt lat="44.79545" lon="4.38356">
        <ele>906</ele>
        <time>2018-08-04T10:39:16Z</time>
      </trkpt>
      <trkpt lat="44.79542" lon="4.38337">
        <ele>903</ele>
        <time>2018-08-04T10:39:16Z</time>
      </trkpt>
      <trkpt lat="44.79538" lon="4.38326">
        <ele>914</ele>
        <time>2018-08-04T10:39:16Z</time>
      </trkpt>
      <trkpt lat="44.79536" lon="4.3832">
        <ele>914</ele>
        <time>2018-08-04T10:39:16Z</time>
      </trkpt>
      <trkpt lat="44.79533" lon="4.38311">
        <ele>909</ele>
        <time>2018-08-04T10:39:32Z</time>
      </trkpt>
      <trkpt lat="44.79529" lon="4.38305">
        <ele>909</ele>
        <time>2018-08-04T10:39:32Z</time>
      </trkpt>
      <trkpt lat="44.79527" lon="4.38302">
        <ele>909</ele>
        <time>2018-08-04T10:39:32Z</time>
      </trkpt>
      <trkpt lat="44.79525" lon="4.38299">
        <ele>909</ele>
        <time>2018-08-04T10:39:32Z</time>
      </trkpt>
      <trkpt lat="44.7952" lon="4.38297">
        <ele>909</ele>
        <time>2018-08-04T10:39:48Z</time>
      </trkpt>
      <trkpt lat="44.79515" lon="4.38293">
        <ele>909</ele>
        <time>2018-08-04T10:39:48Z</time>
      </trkpt>
      <trkpt lat="44.79512" lon="4.38289">
        <ele>911</ele>
        <time>2018-08-04T10:39:48Z</time>
      </trkpt>
      <trkpt lat="44.79512" lon="4.38288">
        <ele>911</ele>
        <time>2018-08-04T10:39:48Z</time>
      </trkpt>
      <trkpt lat="44.79511" lon="4.38288">
        <ele>911</ele>
        <time>2018-08-04T10:40:08Z</time>
      </trkpt>
      <trkpt lat="44.79509" lon="4.38286">
        <ele>911</ele>
        <time>2018-08-04T10:40:08Z</time>
      </trkpt>
      <trkpt lat="44.79506" lon="4.38284">
        <ele>911</ele>
        <time>2018-08-04T10:40:08Z</time>
      </trkpt>
      <trkpt lat="44.79502" lon="4.38284">
        <ele>911</ele>
        <time>2018-08-04T10:40:08Z</time>
      </trkpt>
      <trkpt lat="44.79498" lon="4.38283">
        <ele>911</ele>
        <time>2018-08-04T10:40:08Z</time>
      </trkpt>
      <trkpt lat="44.79493" lon="4.38276">
        <ele>911</ele>
        <time>2018-08-04T10:40:24Z</time>
      </trkpt>
      <trkpt lat="44.79488" lon="4.38273">
        <ele>911</ele>
        <time>2018-08-04T10:40:24Z</time>
      </trkpt>
      <trkpt lat="44.7948" lon="4.3827">
        <ele>917</ele>
        <time>2018-08-04T10:40:24Z</time>
      </trkpt>
      <trkpt lat="44.79474" lon="4.38266">
        <ele>917</ele>
        <time>2018-08-04T10:40:24Z</time>
      </trkpt>
      <trkpt lat="44.79468" lon="4.38263">
        <ele>913</ele>
        <time>2018-08-04T10:40:40Z</time>
      </trkpt>
      <trkpt lat="44.79461" lon="4.38262">
        <ele>913</ele>
        <time>2018-08-04T10:40:40Z</time>
      </trkpt>
      <trkpt lat="44.79458" lon="4.3826">
        <ele>920</ele>
        <time>2018-08-04T10:40:40Z</time>
      </trkpt>
      <trkpt lat="44.79452" lon="4.38255">
        <ele>920</ele>
        <time>2018-08-04T10:40:40Z</time>
      </trkpt>
      <trkpt lat="44.79446" lon="4.38253">
        <ele>920</ele>
        <time>2018-08-04T10:40:56Z</time>
      </trkpt>
      <trkpt lat="44.79441" lon="4.3825">
        <ele>920</ele>
        <time>2018-08-04T10:40:56Z</time>
      </trkpt>
      <trkpt lat="44.79437" lon="4.38247">
        <ele>920</ele>
        <time>2018-08-04T10:40:56Z</time>
      </trkpt>
      <trkpt lat="44.79433" lon="4.38239">
        <ele>920</ele>
        <time>2018-08-04T10:40:56Z</time>
      </trkpt>
      <trkpt lat="44.79428" lon="4.38235">
        <ele>924</ele>
        <time>2018-08-04T10:41:12Z</time>
      </trkpt>
      <trkpt lat="44.79425" lon="4.38233">
        <ele>924</ele>
        <time>2018-08-04T10:41:12Z</time>
      </trkpt>
      <trkpt lat="44.79422" lon="4.38231">
        <ele>924</ele>
        <time>2018-08-04T10:41:12Z</time>
      </trkpt>
      <trkpt lat="44.7942" lon="4.38228">
        <ele>924</ele>
        <time>2018-08-04T10:41:12Z</time>
      </trkpt>
      <trkpt lat="44.79416" lon="4.38224">
        <ele>924</ele>
        <time>2018-08-04T10:41:28Z</time>
      </trkpt>
      <trkpt lat="44.7941" lon="4.38224">
        <ele>924</ele>
        <time>2018-08-04T10:41:28Z</time>
      </trkpt>
      <trkpt lat="44.79405" lon="4.38225">
        <ele>924</ele>
        <time>2018-08-04T10:41:28Z</time>
      </trkpt>
      <trkpt lat="44.79399" lon="4.38226">
        <ele>927</ele>
        <time>2018-08-04T10:41:28Z</time>
      </trkpt>
      <trkpt lat="44.79395" lon="4.38225">
        <ele>927</ele>
        <time>2018-08-04T10:41:44Z</time>
      </trkpt>
      <trkpt lat="44.7939" lon="4.38223">
        <ele>927</ele>
        <time>2018-08-04T10:41:44Z</time>
      </trkpt>
      <trkpt lat="44.79389" lon="4.38221">
        <ele>927</ele>
        <time>2018-08-04T10:41:44Z</time>
      </trkpt>
      <trkpt lat="44.79385" lon="4.3822">
        <ele>927</ele>
        <time>2018-08-04T10:41:44Z</time>
      </trkpt>
      <trkpt lat="44.79383" lon="4.38219">
        <ele>927</ele>
        <time>2018-08-04T10:42:00Z</time>
      </trkpt>
      <trkpt lat="44.79381" lon="4.38218">
        <ele>927</ele>
        <time>2018-08-04T10:42:00Z</time>
      </trkpt>
      <trkpt lat="44.79378" lon="4.38217">
        <ele>927</ele>
        <time>2018-08-04T10:42:00Z</time>
      </trkpt>
      <trkpt lat="44.79372" lon="4.38216">
        <ele>933</ele>
        <time>2018-08-04T10:42:00Z</time>
      </trkpt>
      <trkpt lat="44.79367" lon="4.38215">
        <ele>933</ele>
        <time>2018-08-04T10:42:20Z</time>
      </trkpt>
      <trkpt lat="44.79365" lon="4.38213">
        <ele>933</ele>
        <time>2018-08-04T10:42:20Z</time>
      </trkpt>
      <trkpt lat="44.79363" lon="4.38211">
        <ele>933</ele>
        <time>2018-08-04T10:42:20Z</time>
      </trkpt>
      <trkpt lat="44.79362" lon="4.38204">
        <ele>928</ele>
        <time>2018-08-04T10:42:20Z</time>
      </trkpt>
      <trkpt lat="44.79356" lon="4.38201">
        <ele>928</ele>
        <time>2018-08-04T10:42:20Z</time>
      </trkpt>
      <trkpt lat="44.79349" lon="4.38196">
        <ele>928</ele>
        <time>2018-08-04T10:42:36Z</time>
      </trkpt>
      <trkpt lat="44.79345" lon="4.38194">
        <ele>938</ele>
        <time>2018-08-04T10:42:36Z</time>
      </trkpt>
      <trkpt lat="44.79339" lon="4.38192">
        <ele>938</ele>
        <time>2018-08-04T10:42:36Z</time>
      </trkpt>
      <trkpt lat="44.79334" lon="4.3819">
        <ele>938</ele>
        <time>2018-08-04T10:42:36Z</time>
      </trkpt>
      <trkpt lat="44.79329" lon="4.38184">
        <ele>938</ele>
        <time>2018-08-04T10:42:52Z</time>
      </trkpt>
      <trkpt lat="44.79324" lon="4.38178">
        <ele>935</ele>
        <time>2018-08-04T10:42:52Z</time>
      </trkpt>
      <trkpt lat="44.7932" lon="4.38172">
        <ele>935</ele>
        <time>2018-08-04T10:42:52Z</time>
      </trkpt>
      <trkpt lat="44.79316" lon="4.38167">
        <ele>946</ele>
        <time>2018-08-04T10:42:52Z</time>
      </trkpt>
      <trkpt lat="44.79313" lon="4.38165">
        <ele>946</ele>
        <time>2018-08-04T10:43:08Z</time>
      </trkpt>
      <trkpt lat="44.7931" lon="4.38161">
        <ele>946</ele>
        <time>2018-08-04T10:43:08Z</time>
      </trkpt>
      <trkpt lat="44.79312" lon="4.38155">
        <ele>946</ele>
        <time>2018-08-04T10:43:08Z</time>
      </trkpt>
      <trkpt lat="44.7931" lon="4.38151">
        <ele>940</ele>
        <time>2018-08-04T10:43:08Z</time>
      </trkpt>
      <trkpt lat="44.79307" lon="4.38147">
        <ele>940</ele>
        <time>2018-08-04T10:43:24Z</time>
      </trkpt>
      <trkpt lat="44.79307" lon="4.3814">
        <ele>940</ele>
        <time>2018-08-04T10:43:24Z</time>
      </trkpt>
      <trkpt lat="44.79304" lon="4.38137">
        <ele>940</ele>
        <time>2018-08-04T10:43:24Z</time>
      </trkpt>
      <trkpt lat="44.79303" lon="4.38136">
        <ele>940</ele>
        <time>2018-08-04T10:43:24Z</time>
      </trkpt>
      <trkpt lat="44.79302" lon="4.38134">
        <ele>940</ele>
        <time>2018-08-04T10:43:40Z</time>
      </trkpt>
      <trkpt lat="44.79302" lon="4.38134">
        <ele>940</ele>
        <time>2018-08-04T10:43:40Z</time>
      </trkpt>
      <trkpt lat="44.79299" lon="4.38127">
        <ele>940</ele>
        <time>2018-08-04T10:43:40Z</time>
      </trkpt>
      <trkpt lat="44.79295" lon="4.38125">
        <ele>939</ele>
        <time>2018-08-04T10:43:40Z</time>
      </trkpt>
      <trkpt lat="44.79292" lon="4.38121">
        <ele>939</ele>
        <time>2018-08-04T10:43:56Z</time>
      </trkpt>
      <trkpt lat="44.79288" lon="4.3812">
        <ele>942</ele>
        <time>2018-08-04T10:43:56Z</time>
      </trkpt>
      <trkpt lat="44.79283" lon="4.38122">
        <ele>942</ele>
        <time>2018-08-04T10:43:56Z</time>
      </trkpt>
      <trkpt lat="44.79281" lon="4.38122">
        <ele>942</ele>
        <time>2018-08-04T10:43:56Z</time>
      </trkpt>
      <trkpt lat="44.79278" lon="4.38121">
        <ele>942</ele>
        <time>2018-08-04T10:44:12Z</time>
      </trkpt>
      <trkpt lat="44.79275" lon="4.38125">
        <ele>947</ele>
        <time>2018-08-04T10:44:12Z</time>
      </trkpt>
      <trkpt lat="44.79271" lon="4.38126">
        <ele>947</ele>
        <time>2018-08-04T10:44:12Z</time>
      </trkpt>
      <trkpt lat="44.79264" lon="4.38124">
        <ele>942</ele>
        <time>2018-08-04T10:44:12Z</time>
      </trkpt>
      <trkpt lat="44.7926" lon="4.38124">
        <ele>947</ele>
        <time>2018-08-04T10:44:28Z</time>
      </trkpt>
      <trkpt lat="44.79254" lon="4.38122">
        <ele>947</ele>
        <time>2018-08-04T10:44:28Z</time>
      </trkpt>
      <trkpt lat="44.79251" lon="4.3812">
        <ele>947</ele>
        <time>2018-08-04T10:44:28Z</time>
      </trkpt>
      <trkpt lat="44.79248" lon="4.38117">
        <ele>947</ele>
        <time>2018-08-04T10:44:28Z</time>
      </trkpt>
      <trkpt lat="44.79244" lon="4.38112">
        <ele>947</ele>
        <time>2018-08-04T10:44:44Z</time>
      </trkpt>
      <trkpt lat="44.79238" lon="4.38107">
        <ele>947</ele>
        <time>2018-08-04T10:44:44Z</time>
      </trkpt>
      <trkpt lat="44.79235" lon="4.38101">
        <ele>951</ele>
        <time>2018-08-04T10:44:44Z</time>
      </trkpt>
      <trkpt lat="44.79235" lon="4.381">
        <ele>951</ele>
        <time>2018-08-04T10:44:44Z</time>
      </trkpt>
      <trkpt lat="44.79233" lon="4.38096">
        <ele>949</ele>
        <time>2018-08-04T10:45:00Z</time>
      </trkpt>
      <trkpt lat="44.79233" lon="4.38092">
        <ele>949</ele>
        <time>2018-08-04T10:45:00Z</time>
      </trkpt>
      <trkpt lat="44.79236" lon="4.38087">
        <ele>949</ele>
        <time>2018-08-04T10:45:00Z</time>
      </trkpt>
      <trkpt lat="44.79237" lon="4.38081">
        <ele>943</ele>
        <time>2018-08-04T10:45:00Z</time>
      </trkpt>
      <trkpt lat="44.7924" lon="4.38078">
        <ele>943</ele>
        <time>2018-08-04T10:45:16Z</time>
      </trkpt>
      <trkpt lat="44.79243" lon="4.38075">
        <ele>943</ele>
        <time>2018-08-04T10:45:16Z</time>
      </trkpt>
      <trkpt lat="44.79246" lon="4.38074">
        <ele>943</ele>
        <time>2018-08-04T10:45:16Z</time>
      </trkpt>
      <trkpt lat="44.79248" lon="4.38069">
        <ele>942</ele>
        <time>2018-08-04T10:45:16Z</time>
      </trkpt>
      <trkpt lat="44.79253" lon="4.38056">
        <ele>942</ele>
        <time>2018-08-04T10:45:44Z</time>
      </trkpt>
      <trkpt lat="44.79251" lon="4.38055">
        <ele>942</ele>
        <time>2018-08-04T10:45:44Z</time>
      </trkpt>
      <trkpt lat="44.79248" lon="4.38054">
        <ele>942</ele>
        <time>2018-08-04T10:45:44Z</time>
      </trkpt>
      <trkpt lat="44.79248" lon="4.38054">
        <ele>942</ele>
        <time>2018-08-04T10:45:44Z</time>
      </trkpt>
      <trkpt lat="44.79248" lon="4.38054">
        <ele>942</ele>
        <time>2018-08-04T10:45:44Z</time>
      </trkpt>
      <trkpt lat="44.79249" lon="4.38052">
        <ele>942</ele>
        <time>2018-08-04T10:46:00Z</time>
      </trkpt>
      <trkpt lat="44.79248" lon="4.38048">
        <ele>942</ele>
        <time>2018-08-04T10:46:00Z</time>
      </trkpt>
      <trkpt lat="44.79245" lon="4.38043">
        <ele>942</ele>
        <time>2018-08-04T10:46:00Z</time>
      </trkpt>
      <trkpt lat="44.79244" lon="4.38038">
        <ele>943</ele>
        <time>2018-08-04T10:46:00Z</time>
      </trkpt>
      <trkpt lat="44.7924" lon="4.38033">
        <ele>943</ele>
        <time>2018-08-04T10:46:28Z</time>
      </trkpt>
      <trkpt lat="44.7924" lon="4.38033">
        <ele>943</ele>
        <time>2018-08-04T10:46:28Z</time>
      </trkpt>
      <trkpt lat="44.79238" lon="4.3803">
        <ele>943</ele>
        <time>2018-08-04T10:46:28Z</time>
      </trkpt>
      <trkpt lat="44.79237" lon="4.38029">
        <ele>943</ele>
        <time>2018-08-04T10:46:28Z</time>
      </trkpt>
      <trkpt lat="44.79233" lon="4.38026">
        <ele>949</ele>
        <time>2018-08-04T10:46:28Z</time>
      </trkpt>
      <trkpt lat="44.79227" lon="4.38019">
        <ele>949</ele>
        <time>2018-08-04T10:46:52Z</time>
      </trkpt>
      <trkpt lat="44.79224" lon="4.38017">
        <ele>949</ele>
        <time>2018-08-04T10:46:52Z</time>
      </trkpt>
      <trkpt lat="44.79223" lon="4.38017">
        <ele>949</ele>
        <time>2018-08-04T10:46:52Z</time>
      </trkpt>
      <trkpt lat="44.79223" lon="4.38017">
        <ele>949</ele>
        <time>2018-08-04T10:46:52Z</time>
      </trkpt>
      <trkpt lat="44.7922" lon="4.38013">
        <ele>950</ele>
        <time>2018-08-04T10:46:52Z</time>
      </trkpt>
      <trkpt lat="44.79217" lon="4.3801">
        <ele>950</ele>
        <time>2018-08-04T10:47:12Z</time>
      </trkpt>
      <trkpt lat="44.79216" lon="4.38009">
        <ele>950</ele>
        <time>2018-08-04T10:47:12Z</time>
      </trkpt>
      <trkpt lat="44.79215" lon="4.38009">
        <ele>950</ele>
        <time>2018-08-04T10:47:12Z</time>
      </trkpt>
      <trkpt lat="44.79214" lon="4.38005">
        <ele>950</ele>
        <time>2018-08-04T10:47:12Z</time>
      </trkpt>
      <trkpt lat="44.7921" lon="4.38">
        <ele>950</ele>
        <time>2018-08-04T10:47:12Z</time>
      </trkpt>
      <trkpt lat="44.79208" lon="4.37996">
        <ele>955</ele>
        <time>2018-08-04T10:47:28Z</time>
      </trkpt>
      <trkpt lat="44.79205" lon="4.37991">
        <ele>955</ele>
        <time>2018-08-04T10:47:28Z</time>
      </trkpt>
      <trkpt lat="44.79202" lon="4.37987">
        <ele>955</ele>
        <time>2018-08-04T10:47:28Z</time>
      </trkpt>
      <trkpt lat="44.79199" lon="4.37982">
        <ele>956</ele>
        <time>2018-08-04T10:47:28Z</time>
      </trkpt>
      <trkpt lat="44.79195" lon="4.37975">
        <ele>956</ele>
        <time>2018-08-04T10:47:44Z</time>
      </trkpt>
      <trkpt lat="44.79191" lon="4.37972">
        <ele>956</ele>
        <time>2018-08-04T10:47:44Z</time>
      </trkpt>
      <trkpt lat="44.79188" lon="4.37969">
        <ele>956</ele>
        <time>2018-08-04T10:47:44Z</time>
      </trkpt>
      <trkpt lat="44.79186" lon="4.37964">
        <ele>956</ele>
        <time>2018-08-04T10:47:44Z</time>
      </trkpt>
      <trkpt lat="44.79184" lon="4.37961">
        <ele>956</ele>
        <time>2018-08-04T10:48:00Z</time>
      </trkpt>
      <trkpt lat="44.79181" lon="4.37958">
        <ele>956</ele>
        <time>2018-08-04T10:48:00Z</time>
      </trkpt>
      <trkpt lat="44.79177" lon="4.37956">
        <ele>964</ele>
        <time>2018-08-04T10:48:00Z</time>
      </trkpt>
      <trkpt lat="44.79175" lon="4.37953">
        <ele>964</ele>
        <time>2018-08-04T10:48:00Z</time>
      </trkpt>
      <trkpt lat="44.79172" lon="4.3795">
        <ele>964</ele>
        <time>2018-08-04T10:48:16Z</time>
      </trkpt>
      <trkpt lat="44.79169" lon="4.37948">
        <ele>964</ele>
        <time>2018-08-04T10:48:16Z</time>
      </trkpt>
      <trkpt lat="44.79164" lon="4.37947">
        <ele>964</ele>
        <time>2018-08-04T10:48:16Z</time>
      </trkpt>
      <trkpt lat="44.79158" lon="4.37946">
        <ele>964</ele>
        <time>2018-08-04T10:48:16Z</time>
      </trkpt>
      <trkpt lat="44.79156" lon="4.37943">
        <ele>964</ele>
        <time>2018-08-04T10:48:36Z</time>
      </trkpt>
      <trkpt lat="44.79154" lon="4.3794">
        <ele>964</ele>
        <time>2018-08-04T10:48:36Z</time>
      </trkpt>
      <trkpt lat="44.79151" lon="4.37939">
        <ele>972</ele>
        <time>2018-08-04T10:48:36Z</time>
      </trkpt>
      <trkpt lat="44.79148" lon="4.37941">
        <ele>972</ele>
        <time>2018-08-04T10:48:36Z</time>
      </trkpt>
      <trkpt lat="44.79147" lon="4.3794">
        <ele>972</ele>
        <time>2018-08-04T10:48:36Z</time>
      </trkpt>
      <trkpt lat="44.79145" lon="4.37938">
        <ele>972</ele>
        <time>2018-08-04T10:48:52Z</time>
      </trkpt>
      <trkpt lat="44.79142" lon="4.37937">
        <ele>972</ele>
        <time>2018-08-04T10:48:52Z</time>
      </trkpt>
      <trkpt lat="44.79138" lon="4.37935">
        <ele>972</ele>
        <time>2018-08-04T10:48:52Z</time>
      </trkpt>
      <trkpt lat="44.79134" lon="4.37932">
        <ele>972</ele>
        <time>2018-08-04T10:48:52Z</time>
      </trkpt>
      <trkpt lat="44.79131" lon="4.3793">
        <ele>973</ele>
        <time>2018-08-04T10:49:12Z</time>
      </trkpt>
      <trkpt lat="44.79127" lon="4.37928">
        <ele>973</ele>
        <time>2018-08-04T10:49:12Z</time>
      </trkpt>
      <trkpt lat="44.79126" lon="4.37926">
        <ele>973</ele>
        <time>2018-08-04T10:49:12Z</time>
      </trkpt>
      <trkpt lat="44.79124" lon="4.37924">
        <ele>979</ele>
        <time>2018-08-04T10:49:12Z</time>
      </trkpt>
      <trkpt lat="44.79122" lon="4.37923">
        <ele>979</ele>
        <time>2018-08-04T10:49:12Z</time>
      </trkpt>
      <trkpt lat="44.79119" lon="4.37923">
        <ele>979</ele>
        <time>2018-08-04T10:49:28Z</time>
      </trkpt>
      <trkpt lat="44.79115" lon="4.37921">
        <ele>979</ele>
        <time>2018-08-04T10:49:28Z</time>
      </trkpt>
      <trkpt lat="44.79112" lon="4.3792">
        <ele>979</ele>
        <time>2018-08-04T10:49:28Z</time>
      </trkpt>
      <trkpt lat="44.79108" lon="4.37919">
        <ele>979</ele>
        <time>2018-08-04T10:49:28Z</time>
      </trkpt>
      <trkpt lat="44.79103" lon="4.37919">
        <ele>979</ele>
        <time>2018-08-04T10:49:44Z</time>
      </trkpt>
      <trkpt lat="44.79099" lon="4.37916">
        <ele>979</ele>
        <time>2018-08-04T10:49:44Z</time>
      </trkpt>
      <trkpt lat="44.79095" lon="4.37915">
        <ele>983</ele>
        <time>2018-08-04T10:49:44Z</time>
      </trkpt>
      <trkpt lat="44.79092" lon="4.37914">
        <ele>983</ele>
        <time>2018-08-04T10:49:44Z</time>
      </trkpt>
      <trkpt lat="44.79089" lon="4.37912">
        <ele>983</ele>
        <time>2018-08-04T10:50:00Z</time>
      </trkpt>
      <trkpt lat="44.79086" lon="4.37914">
        <ele>983</ele>
        <time>2018-08-04T10:50:00Z</time>
      </trkpt>
      <trkpt lat="44.79082" lon="4.37912">
        <ele>983</ele>
        <time>2018-08-04T10:50:00Z</time>
      </trkpt>
      <trkpt lat="44.79078" lon="4.37909">
        <ele>983</ele>
        <time>2018-08-04T10:50:00Z</time>
      </trkpt>
      <trkpt lat="44.79075" lon="4.37907">
        <ele>983</ele>
        <time>2018-08-04T10:50:16Z</time>
      </trkpt>
      <trkpt lat="44.7907" lon="4.37905">
        <ele>983</ele>
        <time>2018-08-04T10:50:16Z</time>
      </trkpt>
      <trkpt lat="44.79067" lon="4.37904">
        <ele>986</ele>
        <time>2018-08-04T10:50:16Z</time>
      </trkpt>
      <trkpt lat="44.79063" lon="4.37902">
        <ele>990</ele>
        <time>2018-08-04T10:50:16Z</time>
      </trkpt>
      <trkpt lat="44.79058" lon="4.37899">
        <ele>990</ele>
        <time>2018-08-04T10:50:40Z</time>
      </trkpt>
      <trkpt lat="44.79053" lon="4.37897">
        <ele>990</ele>
        <time>2018-08-04T10:50:40Z</time>
      </trkpt>
      <trkpt lat="44.79052" lon="4.37897">
        <ele>990</ele>
        <time>2018-08-04T10:50:40Z</time>
      </trkpt>
      <trkpt lat="44.79052" lon="4.37895">
        <ele>990</ele>
        <time>2018-08-04T10:50:40Z</time>
      </trkpt>
      <trkpt lat="44.79053" lon="4.37892">
        <ele>990</ele>
        <time>2018-08-04T10:50:40Z</time>
      </trkpt>
      <trkpt lat="44.79056" lon="4.37887">
        <ele>990</ele>
        <time>2018-08-04T10:51:04Z</time>
      </trkpt>
      <trkpt lat="44.79058" lon="4.37887">
        <ele>990</ele>
        <time>2018-08-04T10:51:04Z</time>
      </trkpt>
      <trkpt lat="44.79059" lon="4.37883">
        <ele>990</ele>
        <time>2018-08-04T10:51:04Z</time>
      </trkpt>
      <trkpt lat="44.7906" lon="4.37881">
        <ele>990</ele>
        <time>2018-08-04T10:51:04Z</time>
      </trkpt>
      <trkpt lat="44.7906" lon="4.37875">
        <ele>993</ele>
        <time>2018-08-04T10:51:04Z</time>
      </trkpt>
      <trkpt lat="44.79059" lon="4.37863">
        <ele>993</ele>
        <time>2018-08-04T10:53:08Z</time>
      </trkpt>
      <trkpt lat="44.79059" lon="4.37863">
        <ele>993</ele>
        <time>2018-08-04T10:53:08Z</time>
      </trkpt>
      <trkpt lat="44.79057" lon="4.37861">
        <ele>993</ele>
        <time>2018-08-04T10:53:08Z</time>
      </trkpt>
      <trkpt lat="44.79057" lon="4.37858">
        <ele>993</ele>
        <time>2018-08-04T10:53:08Z</time>
      </trkpt>
      <trkpt lat="44.79058" lon="4.37856">
        <ele>993</ele>
        <time>2018-08-04T10:53:08Z</time>
      </trkpt>
      <trkpt lat="44.79058" lon="4.37854">
        <ele>993</ele>
        <time>2018-08-04T10:53:24Z</time>
      </trkpt>
      <trkpt lat="44.79059" lon="4.37851">
        <ele>993</ele>
        <time>2018-08-04T10:53:24Z</time>
      </trkpt>
      <trkpt lat="44.79063" lon="4.37847">
        <ele>995</ele>
        <time>2018-08-04T10:53:24Z</time>
      </trkpt>
      <trkpt lat="44.79064" lon="4.37841">
        <ele>995</ele>
        <time>2018-08-04T10:53:24Z</time>
      </trkpt>
      <trkpt lat="44.79068" lon="4.37835">
        <ele>995</ele>
        <time>2018-08-04T10:53:40Z</time>
      </trkpt>
      <trkpt lat="44.79073" lon="4.37828">
        <ele>989</ele>
        <time>2018-08-04T10:53:40Z</time>
      </trkpt>
      <trkpt lat="44.79076" lon="4.37823">
        <ele>989</ele>
        <time>2018-08-04T10:53:40Z</time>
      </trkpt>
      <trkpt lat="44.79077" lon="4.37819">
        <ele>991</ele>
        <time>2018-08-04T10:53:40Z</time>
      </trkpt>
      <trkpt lat="44.79079" lon="4.37815">
        <ele>991</ele>
        <time>2018-08-04T10:53:56Z</time>
      </trkpt>
      <trkpt lat="44.79082" lon="4.37813">
        <ele>991</ele>
        <time>2018-08-04T10:53:56Z</time>
      </trkpt>
      <trkpt lat="44.79083" lon="4.37809">
        <ele>991</ele>
        <time>2018-08-04T10:53:56Z</time>
      </trkpt>
      <trkpt lat="44.79083" lon="4.37802">
        <ele>991</ele>
        <time>2018-08-04T10:53:56Z</time>
      </trkpt>
      <trkpt lat="44.79082" lon="4.37795">
        <ele>991</ele>
        <time>2018-08-04T10:54:12Z</time>
      </trkpt>
      <trkpt lat="44.79085" lon="4.3779">
        <ele>993</ele>
        <time>2018-08-04T10:54:12Z</time>
      </trkpt>
      <trkpt lat="44.79088" lon="4.37781">
        <ele>993</ele>
        <time>2018-08-04T10:54:12Z</time>
      </trkpt>
      <trkpt lat="44.7909" lon="4.37775">
        <ele>993</ele>
        <time>2018-08-04T10:54:12Z</time>
      </trkpt>
      <trkpt lat="44.79092" lon="4.37769">
        <ele>993</ele>
        <time>2018-08-04T10:54:28Z</time>
      </trkpt>
      <trkpt lat="44.79093" lon="4.37765">
        <ele>993</ele>
        <time>2018-08-04T10:54:28Z</time>
      </trkpt>
      <trkpt lat="44.79095" lon="4.3776">
        <ele>994</ele>
        <time>2018-08-04T10:54:28Z</time>
      </trkpt>
      <trkpt lat="44.79098" lon="4.37758">
        <ele>991</ele>
        <time>2018-08-04T10:54:28Z</time>
      </trkpt>
      <trkpt lat="44.791" lon="4.37754">
        <ele>991</ele>
        <time>2018-08-04T10:54:44Z</time>
      </trkpt>
      <trkpt lat="44.791" lon="4.3775">
        <ele>991</ele>
        <time>2018-08-04T10:54:44Z</time>
      </trkpt>
      <trkpt lat="44.79103" lon="4.37747">
        <ele>991</ele>
        <time>2018-08-04T10:54:44Z</time>
      </trkpt>
      <trkpt lat="44.79104" lon="4.37741">
        <ele>991</ele>
        <time>2018-08-04T10:54:44Z</time>
      </trkpt>
      <trkpt lat="44.79104" lon="4.37734">
        <ele>991</ele>
        <time>2018-08-04T10:55:00Z</time>
      </trkpt>
      <trkpt lat="44.79104" lon="4.37726">
        <ele>991</ele>
        <time>2018-08-04T10:55:00Z</time>
      </trkpt>
      <trkpt lat="44.79103" lon="4.37719">
        <ele>991</ele>
        <time>2018-08-04T10:55:00Z</time>
      </trkpt>
      <trkpt lat="44.79103" lon="4.37715">
        <ele>991</ele>
        <time>2018-08-04T10:55:00Z</time>
      </trkpt>
      <trkpt lat="44.79101" lon="4.37712">
        <ele>991</ele>
        <time>2018-08-04T10:55:16Z</time>
      </trkpt>
      <trkpt lat="44.79099" lon="4.37708">
        <ele>991</ele>
        <time>2018-08-04T10:55:16Z</time>
      </trkpt>
      <trkpt lat="44.791" lon="4.37702">
        <ele>991</ele>
        <time>2018-08-04T10:55:16Z</time>
      </trkpt>
      <trkpt lat="44.791" lon="4.37697">
        <ele>991</ele>
        <time>2018-08-04T10:55:16Z</time>
      </trkpt>
      <trkpt lat="44.791" lon="4.37693">
        <ele>991</ele>
        <time>2018-08-04T10:55:32Z</time>
      </trkpt>
      <trkpt lat="44.791" lon="4.37687">
        <ele>991</ele>
        <time>2018-08-04T10:55:32Z</time>
      </trkpt>
      <trkpt lat="44.79099" lon="4.37684">
        <ele>991</ele>
        <time>2018-08-04T10:55:32Z</time>
      </trkpt>
      <trkpt lat="44.79098" lon="4.37677">
        <ele>991</ele>
        <time>2018-08-04T10:55:32Z</time>
      </trkpt>
      <trkpt lat="44.79098" lon="4.37671">
        <ele>991</ele>
        <time>2018-08-04T10:55:52Z</time>
      </trkpt>
      <trkpt lat="44.79097" lon="4.37667">
        <ele>991</ele>
        <time>2018-08-04T10:55:52Z</time>
      </trkpt>
      <trkpt lat="44.79097" lon="4.37664">
        <ele>991</ele>
        <time>2018-08-04T10:55:52Z</time>
      </trkpt>
      <trkpt lat="44.79097" lon="4.3766">
        <ele>991</ele>
        <time>2018-08-04T10:55:52Z</time>
      </trkpt>
      <trkpt lat="44.79098" lon="4.37657">
        <ele>991</ele>
        <time>2018-08-04T10:55:52Z</time>
      </trkpt>
      <trkpt lat="44.791" lon="4.37656">
        <ele>991</ele>
        <time>2018-08-04T10:56:12Z</time>
      </trkpt>
      <trkpt lat="44.79103" lon="4.37651">
        <ele>993</ele>
        <time>2018-08-04T10:56:12Z</time>
      </trkpt>
      <trkpt lat="44.79104" lon="4.37651">
        <ele>993</ele>
        <time>2018-08-04T10:56:12Z</time>
      </trkpt>
      <trkpt lat="44.79107" lon="4.37651">
        <ele>993</ele>
        <time>2018-08-04T10:56:12Z</time>
      </trkpt>
      <trkpt lat="44.7911" lon="4.3765">
        <ele>993</ele>
        <time>2018-08-04T10:56:12Z</time>
      </trkpt>
      <trkpt lat="44.79114" lon="4.37646">
        <ele>993</ele>
        <time>2018-08-04T10:56:44Z</time>
      </trkpt>
      <trkpt lat="44.79113" lon="4.37644">
        <ele>993</ele>
        <time>2018-08-04T10:56:44Z</time>
      </trkpt>
      <trkpt lat="44.79115" lon="4.37643">
        <ele>993</ele>
        <time>2018-08-04T10:56:44Z</time>
      </trkpt>
      <trkpt lat="44.79117" lon="4.37643">
        <ele>993</ele>
        <time>2018-08-04T10:56:44Z</time>
      </trkpt>
      <trkpt lat="44.79117" lon="4.37643">
        <ele>993</ele>
        <time>2018-08-04T10:56:44Z</time>
      </trkpt>
      <trkpt lat="44.79119" lon="4.37639">
        <ele>993</ele>
        <time>2018-08-04T10:57:12Z</time>
      </trkpt>
      <trkpt lat="44.7912" lon="4.37638">
        <ele>993</ele>
        <time>2018-08-04T10:57:12Z</time>
      </trkpt>
      <trkpt lat="44.7912" lon="4.37636">
        <ele>993</ele>
        <time>2018-08-04T10:57:12Z</time>
      </trkpt>
      <trkpt lat="44.79123" lon="4.37635">
        <ele>993</ele>
        <time>2018-08-04T10:57:12Z</time>
      </trkpt>
      <trkpt lat="44.79127" lon="4.37631">
        <ele>990</ele>
        <time>2018-08-04T10:57:12Z</time>
      </trkpt>
      <trkpt lat="44.79131" lon="4.37624">
        <ele>996</ele>
        <time>2018-08-04T10:57:28Z</time>
      </trkpt>
      <trkpt lat="44.79134" lon="4.37621">
        <ele>996</ele>
        <time>2018-08-04T10:57:28Z</time>
      </trkpt>
      <trkpt lat="44.79136" lon="4.3762">
        <ele>996</ele>
        <time>2018-08-04T10:57:28Z</time>
      </trkpt>
      <trkpt lat="44.7914" lon="4.37617">
        <ele>996</ele>
        <time>2018-08-04T10:57:28Z</time>
      </trkpt>
      <trkpt lat="44.79143" lon="4.37613">
        <ele>996</ele>
        <time>2018-08-04T10:57:44Z</time>
      </trkpt>
      <trkpt lat="44.79147" lon="4.37609">
        <ele>996</ele>
        <time>2018-08-04T10:57:44Z</time>
      </trkpt>
      <trkpt lat="44.7915" lon="4.37606">
        <ele>996</ele>
        <time>2018-08-04T10:57:44Z</time>
      </trkpt>
      <trkpt lat="44.79152" lon="4.37601">
        <ele>996</ele>
        <time>2018-08-04T10:57:44Z</time>
      </trkpt>
      <trkpt lat="44.79155" lon="4.37597">
        <ele>994</ele>
        <time>2018-08-04T10:58:00Z</time>
      </trkpt>
      <trkpt lat="44.79158" lon="4.37595">
        <ele>994</ele>
        <time>2018-08-04T10:58:00Z</time>
      </trkpt>
      <trkpt lat="44.79159" lon="4.37591">
        <ele>994</ele>
        <time>2018-08-04T10:58:00Z</time>
      </trkpt>
      <trkpt lat="44.79161" lon="4.37582">
        <ele>994</ele>
        <time>2018-08-04T10:58:00Z</time>
      </trkpt>
      <trkpt lat="44.79162" lon="4.37575">
        <ele>994</ele>
        <time>2018-08-04T10:58:16Z</time>
      </trkpt>
      <trkpt lat="44.79164" lon="4.37572">
        <ele>994</ele>
        <time>2018-08-04T10:58:16Z</time>
      </trkpt>
      <trkpt lat="44.79166" lon="4.37569">
        <ele>998</ele>
        <time>2018-08-04T10:58:16Z</time>
      </trkpt>
      <trkpt lat="44.79167" lon="4.37563">
        <ele>998</ele>
        <time>2018-08-04T10:58:16Z</time>
      </trkpt>
      <trkpt lat="44.79168" lon="4.37556">
        <ele>998</ele>
        <time>2018-08-04T10:58:32Z</time>
      </trkpt>
      <trkpt lat="44.7917" lon="4.3755">
        <ele>998</ele>
        <time>2018-08-04T10:58:32Z</time>
      </trkpt>
      <trkpt lat="44.79173" lon="4.37546">
        <ele>998</ele>
        <time>2018-08-04T10:58:32Z</time>
      </trkpt>
      <trkpt lat="44.79175" lon="4.3754">
        <ele>1003</ele>
        <time>2018-08-04T10:58:32Z</time>
      </trkpt>
      <trkpt lat="44.79177" lon="4.37532">
        <ele>1003</ele>
        <time>2018-08-04T10:58:48Z</time>
      </trkpt>
      <trkpt lat="44.79178" lon="4.37528">
        <ele>1003</ele>
        <time>2018-08-04T10:58:48Z</time>
      </trkpt>
      <trkpt lat="44.79181" lon="4.37525">
        <ele>998</ele>
        <time>2018-08-04T10:58:48Z</time>
      </trkpt>
      <trkpt lat="44.79184" lon="4.37522">
        <ele>998</ele>
        <time>2018-08-04T10:58:48Z</time>
      </trkpt>
      <trkpt lat="44.79186" lon="4.37519">
        <ele>998</ele>
        <time>2018-08-04T10:59:04Z</time>
      </trkpt>
      <trkpt lat="44.79188" lon="4.37514">
        <ele>998</ele>
        <time>2018-08-04T10:59:04Z</time>
      </trkpt>
      <trkpt lat="44.79189" lon="4.37511">
        <ele>1002</ele>
        <time>2018-08-04T10:59:04Z</time>
      </trkpt>
      <trkpt lat="44.7919" lon="4.37503">
        <ele>1002</ele>
        <time>2018-08-04T10:59:04Z</time>
      </trkpt>
      <trkpt lat="44.79186" lon="4.37492">
        <ele>1002</ele>
        <time>2018-08-04T10:59:28Z</time>
      </trkpt>
      <trkpt lat="44.79185" lon="4.37491">
        <ele>1002</ele>
        <time>2018-08-04T10:59:28Z</time>
      </trkpt>
      <trkpt lat="44.79183" lon="4.37491">
        <ele>1002</ele>
        <time>2018-08-04T10:59:28Z</time>
      </trkpt>
      <trkpt lat="44.79179" lon="4.3749">
        <ele>1007</ele>
        <time>2018-08-04T10:59:28Z</time>
      </trkpt>
      <trkpt lat="44.79175" lon="4.37492">
        <ele>1007</ele>
        <time>2018-08-04T10:59:28Z</time>
      </trkpt>
      <trkpt lat="44.7917" lon="4.37493">
        <ele>1007</ele>
        <time>2018-08-04T10:59:44Z</time>
      </trkpt>
      <trkpt lat="44.79166" lon="4.37495">
        <ele>1007</ele>
        <time>2018-08-04T10:59:44Z</time>
      </trkpt>
      <trkpt lat="44.79162" lon="4.37495">
        <ele>1007</ele>
        <time>2018-08-04T10:59:44Z</time>
      </trkpt>
      <trkpt lat="44.7916" lon="4.37496">
        <ele>1007</ele>
        <time>2018-08-04T10:59:44Z</time>
      </trkpt>
      <trkpt lat="44.7916" lon="4.37498">
        <ele>1007</ele>
        <time>2018-08-04T11:00:00Z</time>
      </trkpt>
      <trkpt lat="44.79156" lon="4.37495">
        <ele>1007</ele>
        <time>2018-08-04T11:00:00Z</time>
      </trkpt>
      <trkpt lat="44.79153" lon="4.37494">
        <ele>1016</ele>
        <time>2018-08-04T11:00:00Z</time>
      </trkpt>
      <trkpt lat="44.7915" lon="4.37496">
        <ele>1016</ele>
        <time>2018-08-04T11:00:00Z</time>
      </trkpt>
      <trkpt lat="44.79147" lon="4.37497">
        <ele>1016</ele>
        <time>2018-08-04T11:00:20Z</time>
      </trkpt>
      <trkpt lat="44.79144" lon="4.37495">
        <ele>1016</ele>
        <time>2018-08-04T11:00:20Z</time>
      </trkpt>
      <trkpt lat="44.79143" lon="4.37493">
        <ele>1016</ele>
        <time>2018-08-04T11:00:20Z</time>
      </trkpt>
      <trkpt lat="44.79141" lon="4.37495">
        <ele>1016</ele>
        <time>2018-08-04T11:00:20Z</time>
      </trkpt>
      <trkpt lat="44.79138" lon="4.37493">
        <ele>1016</ele>
        <time>2018-08-04T11:00:20Z</time>
      </trkpt>
      <trkpt lat="44.79134" lon="4.37491">
        <ele>1016</ele>
        <time>2018-08-04T11:00:36Z</time>
      </trkpt>
      <trkpt lat="44.7913" lon="4.37498">
        <ele>1016</ele>
        <time>2018-08-04T11:00:36Z</time>
      </trkpt>
      <trkpt lat="44.79127" lon="4.37503">
        <ele>1016</ele>
        <time>2018-08-04T11:00:36Z</time>
      </trkpt>
      <trkpt lat="44.79125" lon="4.37504">
        <ele>1026</ele>
        <time>2018-08-04T11:00:36Z</time>
      </trkpt>
      <trkpt lat="44.79123" lon="4.37505">
        <ele>1026</ele>
        <time>2018-08-04T11:00:52Z</time>
      </trkpt>
      <trkpt lat="44.79119" lon="4.37507">
        <ele>1026</ele>
        <time>2018-08-04T11:00:52Z</time>
      </trkpt>
      <trkpt lat="44.79116" lon="4.37511">
        <ele>1026</ele>
        <time>2018-08-04T11:00:52Z</time>
      </trkpt>
      <trkpt lat="44.79112" lon="4.37514">
        <ele>1026</ele>
        <time>2018-08-04T11:00:52Z</time>
      </trkpt>
      <trkpt lat="44.79108" lon="4.37514">
        <ele>1020</ele>
        <time>2018-08-04T11:01:12Z</time>
      </trkpt>
      <trkpt lat="44.79104" lon="4.37515">
        <ele>1020</ele>
        <time>2018-08-04T11:01:12Z</time>
      </trkpt>
      <trkpt lat="44.79102" lon="4.37518">
        <ele>1020</ele>
        <time>2018-08-04T11:01:12Z</time>
      </trkpt>
      <trkpt lat="44.79101" lon="4.37519">
        <ele>1020</ele>
        <time>2018-08-04T11:01:12Z</time>
      </trkpt>
      <trkpt lat="44.79099" lon="4.37521">
        <ele>1020</ele>
        <time>2018-08-04T11:01:12Z</time>
      </trkpt>
      <trkpt lat="44.79092" lon="4.37521">
        <ele>1027</ele>
        <time>2018-08-04T11:01:52Z</time>
      </trkpt>
      <trkpt lat="44.79092" lon="4.37517">
        <ele>1027</ele>
        <time>2018-08-04T11:01:52Z</time>
      </trkpt>
      <trkpt lat="44.79095" lon="4.37514">
        <ele>1027</ele>
        <time>2018-08-04T11:01:52Z</time>
      </trkpt>
      <trkpt lat="44.79099" lon="4.37512">
        <ele>1026</ele>
        <time>2018-08-04T11:01:52Z</time>
      </trkpt>
      <trkpt lat="44.79102" lon="4.37509">
        <ele>1026</ele>
        <time>2018-08-04T11:01:52Z</time>
      </trkpt>
      <trkpt lat="44.79107" lon="4.37507">
        <ele>1026</ele>
        <time>2018-08-04T11:02:08Z</time>
      </trkpt>
      <trkpt lat="44.79109" lon="4.37504">
        <ele>1026</ele>
        <time>2018-08-04T11:02:08Z</time>
      </trkpt>
      <trkpt lat="44.7911" lon="4.37498">
        <ele>1026</ele>
        <time>2018-08-04T11:02:08Z</time>
      </trkpt>
      <trkpt lat="44.7911" lon="4.37494">
        <ele>1026</ele>
        <time>2018-08-04T11:02:08Z</time>
      </trkpt>
      <trkpt lat="44.79112" lon="4.37491">
        <ele>1026</ele>
        <time>2018-08-04T11:02:24Z</time>
      </trkpt>
      <trkpt lat="44.79113" lon="4.37482">
        <ele>1031</ele>
        <time>2018-08-04T11:02:24Z</time>
      </trkpt>
      <trkpt lat="44.79114" lon="4.37477">
        <ele>1031</ele>
        <time>2018-08-04T11:02:24Z</time>
      </trkpt>
      <trkpt lat="44.79115" lon="4.37473">
        <ele>1031</ele>
        <time>2018-08-04T11:02:24Z</time>
      </trkpt>
      <trkpt lat="44.79116" lon="4.37469">
        <ele>1031</ele>
        <time>2018-08-04T11:02:44Z</time>
      </trkpt>
      <trkpt lat="44.79116" lon="4.37465">
        <ele>1031</ele>
        <time>2018-08-04T11:02:44Z</time>
      </trkpt>
      <trkpt lat="44.79116" lon="4.37461">
        <ele>1031</ele>
        <time>2018-08-04T11:02:44Z</time>
      </trkpt>
      <trkpt lat="44.79117" lon="4.37458">
        <ele>1037</ele>
        <time>2018-08-04T11:02:44Z</time>
      </trkpt>
      <trkpt lat="44.79118" lon="4.37454">
        <ele>1037</ele>
        <time>2018-08-04T11:02:44Z</time>
      </trkpt>
      <trkpt lat="44.79119" lon="4.3745">
        <ele>1037</ele>
        <time>2018-08-04T11:03:04Z</time>
      </trkpt>
      <trkpt lat="44.79121" lon="4.37447">
        <ele>1037</ele>
        <time>2018-08-04T11:03:04Z</time>
      </trkpt>
      <trkpt lat="44.79124" lon="4.37444">
        <ele>1037</ele>
        <time>2018-08-04T11:03:04Z</time>
      </trkpt>
      <trkpt lat="44.79122" lon="4.3744">
        <ele>1037</ele>
        <time>2018-08-04T11:03:04Z</time>
      </trkpt>
      <trkpt lat="44.79124" lon="4.37435">
        <ele>1037</ele>
        <time>2018-08-04T11:03:04Z</time>
      </trkpt>
      <trkpt lat="44.79126" lon="4.3743">
        <ele>1034</ele>
        <time>2018-08-04T11:03:20Z</time>
      </trkpt>
      <trkpt lat="44.79128" lon="4.37424">
        <ele>1034</ele>
        <time>2018-08-04T11:03:20Z</time>
      </trkpt>
      <trkpt lat="44.7913" lon="4.37421">
        <ele>1034</ele>
        <time>2018-08-04T11:03:20Z</time>
      </trkpt>
      <trkpt lat="44.79132" lon="4.37415">
        <ele>1034</ele>
        <time>2018-08-04T11:03:20Z</time>
      </trkpt>
      <trkpt lat="44.79134" lon="4.37412">
        <ele>1034</ele>
        <time>2018-08-04T11:03:36Z</time>
      </trkpt>
      <trkpt lat="44.79134" lon="4.37409">
        <ele>1034</ele>
        <time>2018-08-04T11:03:36Z</time>
      </trkpt>
      <trkpt lat="44.79132" lon="4.37401">
        <ele>1041</ele>
        <time>2018-08-04T11:03:36Z</time>
      </trkpt>
      <trkpt lat="44.79131" lon="4.37395">
        <ele>1041</ele>
        <time>2018-08-04T11:03:36Z</time>
      </trkpt>
      <trkpt lat="44.79132" lon="4.37391">
        <ele>1041</ele>
        <time>2018-08-04T11:03:52Z</time>
      </trkpt>
      <trkpt lat="44.79132" lon="4.37386">
        <ele>1041</ele>
        <time>2018-08-04T11:03:52Z</time>
      </trkpt>
      <trkpt lat="44.79132" lon="4.37382">
        <ele>1041</ele>
        <time>2018-08-04T11:03:52Z</time>
      </trkpt>
      <trkpt lat="44.79133" lon="4.37378">
        <ele>1041</ele>
        <time>2018-08-04T11:03:52Z</time>
      </trkpt>
      <trkpt lat="44.79133" lon="4.37373">
        <ele>1044</ele>
        <time>2018-08-04T11:04:08Z</time>
      </trkpt>
      <trkpt lat="44.79133" lon="4.37368">
        <ele>1044</ele>
        <time>2018-08-04T11:04:08Z</time>
      </trkpt>
      <trkpt lat="44.79135" lon="4.37362">
        <ele>1044</ele>
        <time>2018-08-04T11:04:08Z</time>
      </trkpt>
      <trkpt lat="44.79136" lon="4.37353">
        <ele>1044</ele>
        <time>2018-08-04T11:04:08Z</time>
      </trkpt>
      <trkpt lat="44.79138" lon="4.37344">
        <ele>1045</ele>
        <time>2018-08-04T11:04:24Z</time>
      </trkpt>
      <trkpt lat="44.79138" lon="4.37337">
        <ele>1045</ele>
        <time>2018-08-04T11:04:24Z</time>
      </trkpt>
      <trkpt lat="44.79138" lon="4.37328">
        <ele>1045</ele>
        <time>2018-08-04T11:04:24Z</time>
      </trkpt>
      <trkpt lat="44.7914" lon="4.3732">
        <ele>1045</ele>
        <time>2018-08-04T11:04:24Z</time>
      </trkpt>
      <trkpt lat="44.79143" lon="4.37312">
        <ele>1049</ele>
        <time>2018-08-04T11:04:40Z</time>
      </trkpt>
      <trkpt lat="44.79144" lon="4.37308">
        <ele>1049</ele>
        <time>2018-08-04T11:04:40Z</time>
      </trkpt>
      <trkpt lat="44.79145" lon="4.37303">
        <ele>1049</ele>
        <time>2018-08-04T11:04:40Z</time>
      </trkpt>
      <trkpt lat="44.79146" lon="4.37297">
        <ele>1049</ele>
        <time>2018-08-04T11:04:40Z</time>
      </trkpt>
      <trkpt lat="44.79147" lon="4.37294">
        <ele>1049</ele>
        <time>2018-08-04T11:04:56Z</time>
      </trkpt>
      <trkpt lat="44.79147" lon="4.37286">
        <ele>1053</ele>
        <time>2018-08-04T11:04:56Z</time>
      </trkpt>
      <trkpt lat="44.79147" lon="4.3728">
        <ele>1053</ele>
        <time>2018-08-04T11:04:56Z</time>
      </trkpt>
      <trkpt lat="44.79147" lon="4.37279">
        <ele>1053</ele>
        <time>2018-08-04T11:04:56Z</time>
      </trkpt>
      <trkpt lat="44.79147" lon="4.37277">
        <ele>1053</ele>
        <time>2018-08-04T11:05:16Z</time>
      </trkpt>
      <trkpt lat="44.79147" lon="4.37275">
        <ele>1053</ele>
        <time>2018-08-04T11:05:16Z</time>
      </trkpt>
      <trkpt lat="44.79148" lon="4.37273">
        <ele>1053</ele>
        <time>2018-08-04T11:05:16Z</time>
      </trkpt>
      <trkpt lat="44.79152" lon="4.37268">
        <ele>1053</ele>
        <time>2018-08-04T11:05:16Z</time>
      </trkpt>
      <trkpt lat="44.79153" lon="4.37261">
        <ele>1044</ele>
        <time>2018-08-04T11:05:16Z</time>
      </trkpt>
      <trkpt lat="44.79152" lon="4.37253">
        <ele>1057</ele>
        <time>2018-08-04T11:05:32Z</time>
      </trkpt>
      <trkpt lat="44.79156" lon="4.37249">
        <ele>1044</ele>
        <time>2018-08-04T11:05:32Z</time>
      </trkpt>
      <trkpt lat="44.79158" lon="4.37246">
        <ele>1044</ele>
        <time>2018-08-04T11:05:32Z</time>
      </trkpt>
      <trkpt lat="44.79158" lon="4.3724">
        <ele>1044</ele>
        <time>2018-08-04T11:05:32Z</time>
      </trkpt>
      <trkpt lat="44.79158" lon="4.37235">
        <ele>1049</ele>
        <time>2018-08-04T11:05:48Z</time>
      </trkpt>
      <trkpt lat="44.79156" lon="4.37226">
        <ele>1049</ele>
        <time>2018-08-04T11:05:48Z</time>
      </trkpt>
      <trkpt lat="44.79155" lon="4.37222">
        <ele>1049</ele>
        <time>2018-08-04T11:05:48Z</time>
      </trkpt>
      <trkpt lat="44.79157" lon="4.37216">
        <ele>1049</ele>
        <time>2018-08-04T11:05:48Z</time>
      </trkpt>
      <trkpt lat="44.79157" lon="4.37212">
        <ele>1049</ele>
        <time>2018-08-04T11:06:04Z</time>
      </trkpt>
      <trkpt lat="44.79156" lon="4.37206">
        <ele>1054</ele>
        <time>2018-08-04T11:06:04Z</time>
      </trkpt>
      <trkpt lat="44.79157" lon="4.37199">
        <ele>1054</ele>
        <time>2018-08-04T11:06:04Z</time>
      </trkpt>
      <trkpt lat="44.79158" lon="4.37194">
        <ele>1054</ele>
        <time>2018-08-04T11:06:04Z</time>
      </trkpt>
      <trkpt lat="44.79157" lon="4.37187">
        <ele>1054</ele>
        <time>2018-08-04T11:06:24Z</time>
      </trkpt>
      <trkpt lat="44.79157" lon="4.37182">
        <ele>1054</ele>
        <time>2018-08-04T11:06:24Z</time>
      </trkpt>
      <trkpt lat="44.79156" lon="4.37178">
        <ele>1059</ele>
        <time>2018-08-04T11:06:24Z</time>
      </trkpt>
      <trkpt lat="44.79156" lon="4.37176">
        <ele>1059</ele>
        <time>2018-08-04T11:06:24Z</time>
      </trkpt>
      <trkpt lat="44.79156" lon="4.3717">
        <ele>1059</ele>
        <time>2018-08-04T11:06:24Z</time>
      </trkpt>
      <trkpt lat="44.79155" lon="4.37168">
        <ele>1059</ele>
        <time>2018-08-04T11:06:40Z</time>
      </trkpt>
      <trkpt lat="44.79154" lon="4.37165">
        <ele>1059</ele>
        <time>2018-08-04T11:06:40Z</time>
      </trkpt>
      <trkpt lat="44.79155" lon="4.37159">
        <ele>1059</ele>
        <time>2018-08-04T11:06:40Z</time>
      </trkpt>
      <trkpt lat="44.79153" lon="4.3715">
        <ele>1062</ele>
        <time>2018-08-04T11:06:40Z</time>
      </trkpt>
      <trkpt lat="44.79154" lon="4.37143">
        <ele>1062</ele>
        <time>2018-08-04T11:06:56Z</time>
      </trkpt>
      <trkpt lat="44.79152" lon="4.37137">
        <ele>1072</ele>
        <time>2018-08-04T11:06:56Z</time>
      </trkpt>
      <trkpt lat="44.7915" lon="4.37133">
        <ele>1072</ele>
        <time>2018-08-04T11:06:56Z</time>
      </trkpt>
      <trkpt lat="44.79147" lon="4.3713">
        <ele>1072</ele>
        <time>2018-08-04T11:06:56Z</time>
      </trkpt>
      <trkpt lat="44.79146" lon="4.37125">
        <ele>1073</ele>
        <time>2018-08-04T11:07:12Z</time>
      </trkpt>
      <trkpt lat="44.79144" lon="4.37119">
        <ele>1073</ele>
        <time>2018-08-04T11:07:12Z</time>
      </trkpt>
      <trkpt lat="44.79143" lon="4.37113">
        <ele>1073</ele>
        <time>2018-08-04T11:07:12Z</time>
      </trkpt>
      <trkpt lat="44.79141" lon="4.37107">
        <ele>1073</ele>
        <time>2018-08-04T11:07:12Z</time>
      </trkpt>
      <trkpt lat="44.79139" lon="4.371">
        <ele>1073</ele>
        <time>2018-08-04T11:07:28Z</time>
      </trkpt>
      <trkpt lat="44.79137" lon="4.37097">
        <ele>1072</ele>
        <time>2018-08-04T11:07:28Z</time>
      </trkpt>
      <trkpt lat="44.79134" lon="4.37092">
        <ele>1072</ele>
        <time>2018-08-04T11:07:28Z</time>
      </trkpt>
      <trkpt lat="44.79131" lon="4.37086">
        <ele>1072</ele>
        <time>2018-08-04T11:07:28Z</time>
      </trkpt>
      <trkpt lat="44.7913" lon="4.37083">
        <ele>1072</ele>
        <time>2018-08-04T11:07:48Z</time>
      </trkpt>
      <trkpt lat="44.79129" lon="4.37079">
        <ele>1072</ele>
        <time>2018-08-04T11:07:48Z</time>
      </trkpt>
      <trkpt lat="44.79128" lon="4.37077">
        <ele>1072</ele>
        <time>2018-08-04T11:07:48Z</time>
      </trkpt>
      <trkpt lat="44.79127" lon="4.37073">
        <ele>1072</ele>
        <time>2018-08-04T11:07:48Z</time>
      </trkpt>
      <trkpt lat="44.79123" lon="4.37071">
        <ele>1083</ele>
        <time>2018-08-04T11:07:48Z</time>
      </trkpt>
      <trkpt lat="44.7912" lon="4.37067">
        <ele>1080</ele>
        <time>2018-08-04T11:08:04Z</time>
      </trkpt>
      <trkpt lat="44.79118" lon="4.37062">
        <ele>1080</ele>
        <time>2018-08-04T11:08:04Z</time>
      </trkpt>
      <trkpt lat="44.79116" lon="4.37059">
        <ele>1080</ele>
        <time>2018-08-04T11:08:04Z</time>
      </trkpt>
      <trkpt lat="44.79115" lon="4.37056">
        <ele>1080</ele>
        <time>2018-08-04T11:08:04Z</time>
      </trkpt>
      <trkpt lat="44.79115" lon="4.3705">
        <ele>1080</ele>
        <time>2018-08-04T11:08:24Z</time>
      </trkpt>
      <trkpt lat="44.79115" lon="4.37048">
        <ele>1080</ele>
        <time>2018-08-04T11:08:24Z</time>
      </trkpt>
      <trkpt lat="44.79113" lon="4.37043">
        <ele>1080</ele>
        <time>2018-08-04T11:08:24Z</time>
      </trkpt>
      <trkpt lat="44.79111" lon="4.37041">
        <ele>1077</ele>
        <time>2018-08-04T11:08:24Z</time>
      </trkpt>
      <trkpt lat="44.79109" lon="4.37036">
        <ele>1077</ele>
        <time>2018-08-04T11:08:24Z</time>
      </trkpt>
      <trkpt lat="44.79108" lon="4.37034">
        <ele>1077</ele>
        <time>2018-08-04T11:08:40Z</time>
      </trkpt>
      <trkpt lat="44.79106" lon="4.3703">
        <ele>1077</ele>
        <time>2018-08-04T11:08:40Z</time>
      </trkpt>
      <trkpt lat="44.79104" lon="4.37026">
        <ele>1077</ele>
        <time>2018-08-04T11:08:40Z</time>
      </trkpt>
      <trkpt lat="44.79102" lon="4.37022">
        <ele>1077</ele>
        <time>2018-08-04T11:08:40Z</time>
      </trkpt>
      <trkpt lat="44.791" lon="4.37016">
        <ele>1077</ele>
        <time>2018-08-04T11:09:00Z</time>
      </trkpt>
      <trkpt lat="44.79099" lon="4.37014">
        <ele>1076</ele>
        <time>2018-08-04T11:09:00Z</time>
      </trkpt>
      <trkpt lat="44.79097" lon="4.3701">
        <ele>1093</ele>
        <time>2018-08-04T11:09:00Z</time>
      </trkpt>
      <trkpt lat="44.79095" lon="4.37005">
        <ele>1093</ele>
        <time>2018-08-04T11:09:00Z</time>
      </trkpt>
      <trkpt lat="44.79095" lon="4.37">
        <ele>1093</ele>
        <time>2018-08-04T11:09:00Z</time>
      </trkpt>
      <trkpt lat="44.79093" lon="4.36995">
        <ele>1093</ele>
        <time>2018-08-04T11:09:16Z</time>
      </trkpt>
      <trkpt lat="44.79091" lon="4.36988">
        <ele>1093</ele>
        <time>2018-08-04T11:09:16Z</time>
      </trkpt>
      <trkpt lat="44.79091" lon="4.36984">
        <ele>1097</ele>
        <time>2018-08-04T11:09:16Z</time>
      </trkpt>
      <trkpt lat="44.79089" lon="4.3698">
        <ele>1097</ele>
        <time>2018-08-04T11:09:16Z</time>
      </trkpt>
      <trkpt lat="44.79089" lon="4.36975">
        <ele>1097</ele>
        <time>2018-08-04T11:09:32Z</time>
      </trkpt>
      <trkpt lat="44.79087" lon="4.3697">
        <ele>1097</ele>
        <time>2018-08-04T11:09:32Z</time>
      </trkpt>
      <trkpt lat="44.79086" lon="4.36964">
        <ele>1097</ele>
        <time>2018-08-04T11:09:32Z</time>
      </trkpt>
      <trkpt lat="44.79085" lon="4.36959">
        <ele>1097</ele>
        <time>2018-08-04T11:09:32Z</time>
      </trkpt>
      <trkpt lat="44.79084" lon="4.36954">
        <ele>1100</ele>
        <time>2018-08-04T11:09:52Z</time>
      </trkpt>
      <trkpt lat="44.79084" lon="4.36953">
        <ele>1100</ele>
        <time>2018-08-04T11:09:52Z</time>
      </trkpt>
      <trkpt lat="44.79083" lon="4.36947">
        <ele>1100</ele>
        <time>2018-08-04T11:09:52Z</time>
      </trkpt>
      <trkpt lat="44.79081" lon="4.36944">
        <ele>1100</ele>
        <time>2018-08-04T11:09:52Z</time>
      </trkpt>
      <trkpt lat="44.7908" lon="4.36943">
        <ele>1100</ele>
        <time>2018-08-04T11:09:52Z</time>
      </trkpt>
      <trkpt lat="44.7908" lon="4.36942">
        <ele>1100</ele>
        <time>2018-08-04T11:10:08Z</time>
      </trkpt>
      <trkpt lat="44.79079" lon="4.36938">
        <ele>1100</ele>
        <time>2018-08-04T11:10:08Z</time>
      </trkpt>
      <trkpt lat="44.79077" lon="4.36932">
        <ele>1100</ele>
        <time>2018-08-04T11:10:08Z</time>
      </trkpt>
      <trkpt lat="44.79076" lon="4.36929">
        <ele>1102</ele>
        <time>2018-08-04T11:10:08Z</time>
      </trkpt>
      <trkpt lat="44.79075" lon="4.36921">
        <ele>1102</ele>
        <time>2018-08-04T11:10:24Z</time>
      </trkpt>
      <trkpt lat="44.79073" lon="4.36911">
        <ele>1102</ele>
        <time>2018-08-04T11:10:24Z</time>
      </trkpt>
      <trkpt lat="44.79072" lon="4.36904">
        <ele>1102</ele>
        <time>2018-08-04T11:10:24Z</time>
      </trkpt>
      <trkpt lat="44.79071" lon="4.36903">
        <ele>1102</ele>
        <time>2018-08-04T11:10:24Z</time>
      </trkpt>
      <trkpt lat="44.79069" lon="4.36902">
        <ele>1117</ele>
        <time>2018-08-04T11:10:44Z</time>
      </trkpt>
      <trkpt lat="44.79069" lon="4.36902">
        <ele>1117</ele>
        <time>2018-08-04T11:10:44Z</time>
      </trkpt>
      <trkpt lat="44.7907" lon="4.36898">
        <ele>1103</ele>
        <time>2018-08-04T11:10:44Z</time>
      </trkpt>
      <trkpt lat="44.79068" lon="4.36892">
        <ele>1117</ele>
        <time>2018-08-04T11:10:44Z</time>
      </trkpt>
      <trkpt lat="44.79064" lon="4.36885">
        <ele>1117</ele>
        <time>2018-08-04T11:10:44Z</time>
      </trkpt>
      <trkpt lat="44.79062" lon="4.36881">
        <ele>1117</ele>
        <time>2018-08-04T11:11:00Z</time>
      </trkpt>
      <trkpt lat="44.7906" lon="4.36873">
        <ele>1116</ele>
        <time>2018-08-04T11:11:00Z</time>
      </trkpt>
      <trkpt lat="44.7906" lon="4.36865">
        <ele>1116</ele>
        <time>2018-08-04T11:11:00Z</time>
      </trkpt>
      <trkpt lat="44.79061" lon="4.3686">
        <ele>1116</ele>
        <time>2018-08-04T11:11:00Z</time>
      </trkpt>
      <trkpt lat="44.79061" lon="4.36857">
        <ele>1116</ele>
        <time>2018-08-04T11:11:16Z</time>
      </trkpt>
      <trkpt lat="44.79058" lon="4.36854">
        <ele>1116</ele>
        <time>2018-08-04T11:11:16Z</time>
      </trkpt>
      <trkpt lat="44.79057" lon="4.36846">
        <ele>1114</ele>
        <time>2018-08-04T11:11:16Z</time>
      </trkpt>
      <trkpt lat="44.79057" lon="4.36839">
        <ele>1114</ele>
        <time>2018-08-04T11:11:16Z</time>
      </trkpt>
      <trkpt lat="44.79054" lon="4.36832">
        <ele>1114</ele>
        <time>2018-08-04T11:11:32Z</time>
      </trkpt>
      <trkpt lat="44.79053" lon="4.36828">
        <ele>1114</ele>
        <time>2018-08-04T11:11:32Z</time>
      </trkpt>
      <trkpt lat="44.79053" lon="4.3682">
        <ele>1114</ele>
        <time>2018-08-04T11:11:32Z</time>
      </trkpt>
      <trkpt lat="44.79053" lon="4.36814">
        <ele>1113</ele>
        <time>2018-08-04T11:11:32Z</time>
      </trkpt>
      <trkpt lat="44.79054" lon="4.36808">
        <ele>1113</ele>
        <time>2018-08-04T11:11:48Z</time>
      </trkpt>
      <trkpt lat="44.79052" lon="4.36802">
        <ele>1113</ele>
        <time>2018-08-04T11:11:48Z</time>
      </trkpt>
      <trkpt lat="44.79051" lon="4.36798">
        <ele>1113</ele>
        <time>2018-08-04T11:11:48Z</time>
      </trkpt>
      <trkpt lat="44.7905" lon="4.36792">
        <ele>1118</ele>
        <time>2018-08-04T11:11:48Z</time>
      </trkpt>
      <trkpt lat="44.79049" lon="4.36785">
        <ele>1118</ele>
        <time>2018-08-04T11:12:18Z</time>
      </trkpt>
      <trkpt lat="44.79049" lon="4.36785">
        <ele>1118</ele>
        <time>2018-08-04T11:12:18Z</time>
      </trkpt>
      <trkpt lat="44.79049" lon="4.36784">
        <ele>1118</ele>
        <time>2018-08-04T11:12:18Z</time>
      </trkpt>
      <trkpt lat="44.7905" lon="4.36781">
        <ele>1118</ele>
        <time>2018-08-04T11:12:18Z</time>
      </trkpt>
      <trkpt lat="44.79052" lon="4.36773">
        <ele>1118</ele>
        <time>2018-08-04T11:12:18Z</time>
      </trkpt>
      <trkpt lat="44.79058" lon="4.36764">
        <ele>1118</ele>
        <time>2018-08-04T11:12:44Z</time>
      </trkpt>
      <trkpt lat="44.79061" lon="4.36756">
        <ele>1123</ele>
        <time>2018-08-04T11:12:45Z</time>
      </trkpt>
      <trkpt lat="44.7906" lon="4.36753">
        <ele>1123</ele>
        <time>2018-08-04T11:12:46Z</time>
      </trkpt>
      <trkpt lat="44.79062" lon="4.3673">
        <ele>1131</ele>
        <time>2018-08-04T11:12:48Z</time>
      </trkpt>
      <trkpt lat="44.79061" lon="4.36719">
        <ele>1131</ele>
        <time>2018-08-04T11:13:06Z</time>
      </trkpt>
      <trkpt lat="44.79061" lon="4.36709">
        <ele>1131</ele>
        <time>2018-08-04T11:13:06Z</time>
      </trkpt>
      <trkpt lat="44.79061" lon="4.36707">
        <ele>1138</ele>
        <time>2018-08-04T11:13:06Z</time>
      </trkpt>
      <trkpt lat="44.79064" lon="4.3669">
        <ele>1138</ele>
        <time>2018-08-04T11:13:06Z</time>
      </trkpt>
      <trkpt lat="44.79067" lon="4.36683">
        <ele>1138</ele>
        <time>2018-08-04T11:13:33Z</time>
      </trkpt>
      <trkpt lat="44.79074" lon="4.36665">
        <ele>1137</ele>
        <time>2018-08-04T11:13:35Z</time>
      </trkpt>
      <trkpt lat="44.79075" lon="4.36663">
        <ele>1137</ele>
        <time>2018-08-04T11:13:36Z</time>
      </trkpt>
      <trkpt lat="44.79078" lon="4.3666">
        <ele>1137</ele>
        <time>2018-08-04T11:13:37Z</time>
      </trkpt>
      <trkpt lat="44.79081" lon="4.36655">
        <ele>1137</ele>
        <time>2018-08-04T11:13:52Z</time>
      </trkpt>
      <trkpt lat="44.79085" lon="4.36643">
        <ele>1144</ele>
        <time>2018-08-04T11:13:52Z</time>
      </trkpt>
      <trkpt lat="44.79086" lon="4.36641">
        <ele>1144</ele>
        <time>2018-08-04T11:13:52Z</time>
      </trkpt>
      <trkpt lat="44.79089" lon="4.3664">
        <ele>1144</ele>
        <time>2018-08-04T11:13:52Z</time>
      </trkpt>
      <trkpt lat="44.79091" lon="4.36639">
        <ele>1144</ele>
        <time>2018-08-04T11:14:41Z</time>
      </trkpt>
      <trkpt lat="44.79097" lon="4.36629">
        <ele>1138</ele>
        <time>2018-08-04T11:14:41Z</time>
      </trkpt>
      <trkpt lat="44.791" lon="4.36613">
        <ele>1144</ele>
        <time>2018-08-04T11:14:41Z</time>
      </trkpt>
      <trkpt lat="44.79107" lon="4.36597">
        <ele>1144</ele>
        <time>2018-08-04T11:14:41Z</time>
      </trkpt>
      <trkpt lat="44.79107" lon="4.36596">
        <ele>1149</ele>
        <time>2018-08-04T11:15:09Z</time>
      </trkpt>
      <trkpt lat="44.79112" lon="4.36585">
        <ele>1149</ele>
        <time>2018-08-04T11:15:10Z</time>
      </trkpt>
      <trkpt lat="44.79112" lon="4.36584">
        <ele>1149</ele>
        <time>2018-08-04T11:15:11Z</time>
      </trkpt>
      <trkpt lat="44.79107" lon="4.36567">
        <ele>1152</ele>
        <time>2018-08-04T11:15:11Z</time>
      </trkpt>
      <trkpt lat="44.79106" lon="4.36566">
        <ele>1152</ele>
        <time>2018-08-04T11:15:26Z</time>
      </trkpt>
      <trkpt lat="44.79105" lon="4.36564">
        <ele>1152</ele>
        <time>2018-08-04T11:15:27Z</time>
      </trkpt>
      <trkpt lat="44.791" lon="4.3656">
        <ele>1152</ele>
        <time>2018-08-04T11:15:28Z</time>
      </trkpt>
      <trkpt lat="44.79098" lon="4.36551">
        <ele>1152</ele>
        <time>2018-08-04T11:15:28Z</time>
      </trkpt>
      <trkpt lat="44.79098" lon="4.36551">
        <ele>1152</ele>
        <time>2018-08-04T11:15:40Z</time>
      </trkpt>
      <trkpt lat="44.79098" lon="4.36547">
        <ele>1152</ele>
        <time>2018-08-04T11:15:40Z</time>
      </trkpt>
      <trkpt lat="44.79096" lon="4.36536">
        <ele>1161</ele>
        <time>2018-08-04T11:15:40Z</time>
      </trkpt>
      <trkpt lat="44.79094" lon="4.3653">
        <ele>1161</ele>
        <time>2018-08-04T11:15:40Z</time>
      </trkpt>
      <trkpt lat="44.79092" lon="4.36526">
        <ele>1161</ele>
        <time>2018-08-04T11:15:56Z</time>
      </trkpt>
      <trkpt lat="44.79091" lon="4.36522">
        <ele>1161</ele>
        <time>2018-08-04T11:15:56Z</time>
      </trkpt>
      <trkpt lat="44.7909" lon="4.36516">
        <ele>1161</ele>
        <time>2018-08-04T11:15:56Z</time>
      </trkpt>
      <trkpt lat="44.79089" lon="4.3651">
        <ele>1163</ele>
        <time>2018-08-04T11:15:56Z</time>
      </trkpt>
      <trkpt lat="44.79087" lon="4.36503">
        <ele>1163</ele>
        <time>2018-08-04T11:16:12Z</time>
      </trkpt>
      <trkpt lat="44.79087" lon="4.36495">
        <ele>1163</ele>
        <time>2018-08-04T11:16:12Z</time>
      </trkpt>
      <trkpt lat="44.79084" lon="4.36488">
        <ele>1163</ele>
        <time>2018-08-04T11:16:12Z</time>
      </trkpt>
      <trkpt lat="44.79082" lon="4.36482">
        <ele>1162</ele>
        <time>2018-08-04T11:16:12Z</time>
      </trkpt>
      <trkpt lat="44.79082" lon="4.36478">
        <ele>1162</ele>
        <time>2018-08-04T11:16:28Z</time>
      </trkpt>
      <trkpt lat="44.79079" lon="4.36472">
        <ele>1162</ele>
        <time>2018-08-04T11:16:28Z</time>
      </trkpt>
      <trkpt lat="44.79078" lon="4.3647">
        <ele>1162</ele>
        <time>2018-08-04T11:16:28Z</time>
      </trkpt>
      <trkpt lat="44.79076" lon="4.36466">
        <ele>1162</ele>
        <time>2018-08-04T11:16:28Z</time>
      </trkpt>
      <trkpt lat="44.79075" lon="4.36461">
        <ele>1162</ele>
        <time>2018-08-04T11:16:44Z</time>
      </trkpt>
      <trkpt lat="44.79075" lon="4.36457">
        <ele>1161</ele>
        <time>2018-08-04T11:16:44Z</time>
      </trkpt>
      <trkpt lat="44.79074" lon="4.3645">
        <ele>1161</ele>
        <time>2018-08-04T11:16:44Z</time>
      </trkpt>
      <trkpt lat="44.79075" lon="4.36445">
        <ele>1161</ele>
        <time>2018-08-04T11:16:44Z</time>
      </trkpt>
      <trkpt lat="44.79075" lon="4.36441">
        <ele>1161</ele>
        <time>2018-08-04T11:17:00Z</time>
      </trkpt>
      <trkpt lat="44.79074" lon="4.36436">
        <ele>1161</ele>
        <time>2018-08-04T11:17:00Z</time>
      </trkpt>
      <trkpt lat="44.79072" lon="4.36429">
        <ele>1161</ele>
        <time>2018-08-04T11:17:00Z</time>
      </trkpt>
      <trkpt lat="44.79072" lon="4.36427">
        <ele>1161</ele>
        <time>2018-08-04T11:17:00Z</time>
      </trkpt>
      <trkpt lat="44.79073" lon="4.36422">
        <ele>1161</ele>
        <time>2018-08-04T11:18:38Z</time>
      </trkpt>
      <trkpt lat="44.79073" lon="4.36422">
        <ele>1161</ele>
        <time>2018-08-04T11:18:39Z</time>
      </trkpt>
      <trkpt lat="44.79073" lon="4.36422">
        <ele>1161</ele>
        <time>2018-08-04T11:18:40Z</time>
      </trkpt>
      <trkpt lat="44.79075" lon="4.36419">
        <ele>1161</ele>
        <time>2018-08-04T11:18:41Z</time>
      </trkpt>
      <trkpt lat="44.79077" lon="4.36413">
        <ele>1161</ele>
        <time>2018-08-04T11:18:42Z</time>
      </trkpt>
      <trkpt lat="44.79074" lon="4.3641">
        <ele>1161</ele>
        <time>2018-08-04T11:39:27Z</time>
      </trkpt>
      <trkpt lat="44.79074" lon="4.36409">
        <ele>1161</ele>
        <time>2018-08-04T11:39:27Z</time>
      </trkpt>
      <trkpt lat="44.79073" lon="4.36409">
        <ele>1161</ele>
        <time>2018-08-04T11:39:27Z</time>
      </trkpt>
      <trkpt lat="44.79078" lon="4.36402">
        <ele>1163</ele>
        <time>2018-08-04T11:39:27Z</time>
      </trkpt>
      <trkpt lat="44.79083" lon="4.36389">
        <ele>1163</ele>
        <time>2018-08-04T11:39:27Z</time>
      </trkpt>
      <trkpt lat="44.79083" lon="4.36388">
        <ele>1163</ele>
        <time>2018-08-04T11:39:47Z</time>
      </trkpt>
      <trkpt lat="44.79085" lon="4.36384">
        <ele>1163</ele>
        <time>2018-08-04T11:39:47Z</time>
      </trkpt>
      <trkpt lat="44.79087" lon="4.36379">
        <ele>1163</ele>
        <time>2018-08-04T11:39:48Z</time>
      </trkpt>
      <trkpt lat="44.79088" lon="4.36377">
        <ele>1163</ele>
        <time>2018-08-04T11:39:49Z</time>
      </trkpt>
      <trkpt lat="44.79093" lon="4.36369">
        <ele>1165</ele>
        <time>2018-08-04T11:39:50Z</time>
      </trkpt>
      <trkpt lat="44.79095" lon="4.36361">
        <ele>1165</ele>
        <time>2018-08-04T11:40:04Z</time>
      </trkpt>
      <trkpt lat="44.79096" lon="4.36353">
        <ele>1165</ele>
        <time>2018-08-04T11:40:04Z</time>
      </trkpt>
      <trkpt lat="44.791" lon="4.36347">
        <ele>1166</ele>
        <time>2018-08-04T11:40:04Z</time>
      </trkpt>
      <trkpt lat="44.79104" lon="4.36346">
        <ele>1166</ele>
        <time>2018-08-04T11:40:04Z</time>
      </trkpt>
      <trkpt lat="44.79106" lon="4.36338">
        <ele>1166</ele>
        <time>2018-08-04T11:40:34Z</time>
      </trkpt>
      <trkpt lat="44.79108" lon="4.36331">
        <ele>1166</ele>
        <time>2018-08-04T11:40:34Z</time>
      </trkpt>
      <trkpt lat="44.79117" lon="4.36306">
        <ele>1174</ele>
        <time>2018-08-04T11:40:35Z</time>
      </trkpt>
      <trkpt lat="44.79124" lon="4.363">
        <ele>1174</ele>
        <time>2018-08-04T11:40:35Z</time>
      </trkpt>
      <trkpt lat="44.79127" lon="4.363">
        <ele>1174</ele>
        <time>2018-08-04T11:40:52Z</time>
      </trkpt>
      <trkpt lat="44.79137" lon="4.36307">
        <ele>1174</ele>
        <time>2018-08-04T11:40:53Z</time>
      </trkpt>
      <trkpt lat="44.79142" lon="4.36311">
        <ele>1174</ele>
        <time>2018-08-04T11:40:53Z</time>
      </trkpt>
      <trkpt lat="44.79143" lon="4.36311">
        <ele>1174</ele>
        <time>2018-08-04T11:40:54Z</time>
      </trkpt>
      <trkpt lat="44.79149" lon="4.36316">
        <ele>1174</ele>
        <time>2018-08-04T11:41:33Z</time>
      </trkpt>
      <trkpt lat="44.79151" lon="4.36316">
        <ele>1174</ele>
        <time>2018-08-04T11:41:33Z</time>
      </trkpt>
      <trkpt lat="44.79175" lon="4.36317">
        <ele>1171</ele>
        <time>2018-08-04T11:41:33Z</time>
      </trkpt>
      <trkpt lat="44.7919" lon="4.36313">
        <ele>1164</ele>
        <time>2018-08-04T11:41:33Z</time>
      </trkpt>
      <trkpt lat="44.79191" lon="4.36312">
        <ele>1164</ele>
        <time>2018-08-04T11:41:48Z</time>
      </trkpt>
      <trkpt lat="44.79197" lon="4.3631">
        <ele>1164</ele>
        <time>2018-08-04T11:41:49Z</time>
      </trkpt>
      <trkpt lat="44.79206" lon="4.36306">
        <ele>1164</ele>
        <time>2018-08-04T11:41:49Z</time>
      </trkpt>
      <trkpt lat="44.79211" lon="4.36303">
        <ele>1157</ele>
        <time>2018-08-04T11:41:51Z</time>
      </trkpt>
      <trkpt lat="44.79217" lon="4.363">
        <ele>1157</ele>
        <time>2018-08-04T11:42:32Z</time>
      </trkpt>
      <trkpt lat="44.79237" lon="4.36286">
        <ele>1157</ele>
        <time>2018-08-04T11:42:33Z</time>
      </trkpt>
      <trkpt lat="44.79254" lon="4.36263">
        <ele>1166</ele>
        <time>2018-08-04T11:42:35Z</time>
      </trkpt>
      <trkpt lat="44.79258" lon="4.36256">
        <ele>1166</ele>
        <time>2018-08-04T11:42:36Z</time>
      </trkpt>
      <trkpt lat="44.79263" lon="4.3625">
        <ele>1166</ele>
        <time>2018-08-04T11:42:48Z</time>
      </trkpt>
      <trkpt lat="44.79265" lon="4.36244">
        <ele>1156</ele>
        <time>2018-08-04T11:42:48Z</time>
      </trkpt>
      <trkpt lat="44.79269" lon="4.36237">
        <ele>1156</ele>
        <time>2018-08-04T11:42:48Z</time>
      </trkpt>
      <trkpt lat="44.79272" lon="4.36232">
        <ele>1163</ele>
        <time>2018-08-04T11:42:48Z</time>
      </trkpt>
      <trkpt lat="44.79276" lon="4.36226">
        <ele>1163</ele>
        <time>2018-08-04T11:43:04Z</time>
      </trkpt>
      <trkpt lat="44.79279" lon="4.36219">
        <ele>1163</ele>
        <time>2018-08-04T11:43:04Z</time>
      </trkpt>
      <trkpt lat="44.79282" lon="4.36214">
        <ele>1163</ele>
        <time>2018-08-04T11:43:04Z</time>
      </trkpt>
      <trkpt lat="44.79284" lon="4.36207">
        <ele>1169</ele>
        <time>2018-08-04T11:43:04Z</time>
      </trkpt>
      <trkpt lat="44.79286" lon="4.36201">
        <ele>1169</ele>
        <time>2018-08-04T11:43:20Z</time>
      </trkpt>
      <trkpt lat="44.79289" lon="4.36194">
        <ele>1169</ele>
        <time>2018-08-04T11:43:20Z</time>
      </trkpt>
      <trkpt lat="44.79292" lon="4.36189">
        <ele>1160</ele>
        <time>2018-08-04T11:43:20Z</time>
      </trkpt>
      <trkpt lat="44.79296" lon="4.36183">
        <ele>1160</ele>
        <time>2018-08-04T11:43:20Z</time>
      </trkpt>
      <trkpt lat="44.793" lon="4.36178">
        <ele>1164</ele>
        <time>2018-08-04T11:43:36Z</time>
      </trkpt>
      <trkpt lat="44.79302" lon="4.36171">
        <ele>1164</ele>
        <time>2018-08-04T11:43:36Z</time>
      </trkpt>
      <trkpt lat="44.79304" lon="4.36167">
        <ele>1164</ele>
        <time>2018-08-04T11:43:36Z</time>
      </trkpt>
      <trkpt lat="44.79307" lon="4.36158">
        <ele>1164</ele>
        <time>2018-08-04T11:43:36Z</time>
      </trkpt>
      <trkpt lat="44.79309" lon="4.36151">
        <ele>1167</ele>
        <time>2018-08-04T11:44:10Z</time>
      </trkpt>
      <trkpt lat="44.79312" lon="4.36147">
        <ele>1167</ele>
        <time>2018-08-04T11:44:10Z</time>
      </trkpt>
      <trkpt lat="44.79316" lon="4.36136">
        <ele>1167</ele>
        <time>2018-08-04T11:44:11Z</time>
      </trkpt>
      <trkpt lat="44.79328" lon="4.36106">
        <ele>1159</ele>
        <time>2018-08-04T11:44:13Z</time>
      </trkpt>
      <trkpt lat="44.79332" lon="4.36096">
        <ele>1163</ele>
        <time>2018-08-04T11:44:44Z</time>
      </trkpt>
      <trkpt lat="44.79335" lon="4.36087">
        <ele>1163</ele>
        <time>2018-08-04T11:44:45Z</time>
      </trkpt>
      <trkpt lat="44.79346" lon="4.36057">
        <ele>1167</ele>
        <time>2018-08-04T11:44:46Z</time>
      </trkpt>
      <trkpt lat="44.79348" lon="4.36049">
        <ele>1162</ele>
        <time>2018-08-04T11:44:47Z</time>
      </trkpt>
      <trkpt lat="44.79351" lon="4.36043">
        <ele>1162</ele>
        <time>2018-08-04T11:45:12Z</time>
      </trkpt>
      <trkpt lat="44.79355" lon="4.36037">
        <ele>1165</ele>
        <time>2018-08-04T11:45:12Z</time>
      </trkpt>
      <trkpt lat="44.79359" lon="4.3602">
        <ele>1165</ele>
        <time>2018-08-04T11:45:12Z</time>
      </trkpt>
      <trkpt lat="44.79366" lon="4.3601">
        <ele>1169</ele>
        <time>2018-08-04T11:45:12Z</time>
      </trkpt>
      <trkpt lat="44.79371" lon="4.36001">
        <ele>1169</ele>
        <time>2018-08-04T11:45:28Z</time>
      </trkpt>
      <trkpt lat="44.79374" lon="4.35994">
        <ele>1169</ele>
        <time>2018-08-04T11:45:28Z</time>
      </trkpt>
      <trkpt lat="44.79379" lon="4.35988">
        <ele>1163</ele>
        <time>2018-08-04T11:45:28Z</time>
      </trkpt>
      <trkpt lat="44.79382" lon="4.35982">
        <ele>1166</ele>
        <time>2018-08-04T11:45:28Z</time>
      </trkpt>
      <trkpt lat="44.79386" lon="4.35978">
        <ele>1166</ele>
        <time>2018-08-04T11:45:44Z</time>
      </trkpt>
      <trkpt lat="44.79389" lon="4.35971">
        <ele>1166</ele>
        <time>2018-08-04T11:45:44Z</time>
      </trkpt>
      <trkpt lat="44.7939" lon="4.35966">
        <ele>1166</ele>
        <time>2018-08-04T11:45:44Z</time>
      </trkpt>
      <trkpt lat="44.79392" lon="4.35961">
        <ele>1166</ele>
        <time>2018-08-04T11:45:44Z</time>
      </trkpt>
      <trkpt lat="44.79394" lon="4.35956">
        <ele>1168</ele>
        <time>2018-08-04T11:46:00Z</time>
      </trkpt>
      <trkpt lat="44.79396" lon="4.3595">
        <ele>1168</ele>
        <time>2018-08-04T11:46:00Z</time>
      </trkpt>
      <trkpt lat="44.79399" lon="4.35944">
        <ele>1168</ele>
        <time>2018-08-04T11:46:00Z</time>
      </trkpt>
      <trkpt lat="44.79401" lon="4.35938">
        <ele>1168</ele>
        <time>2018-08-04T11:46:00Z</time>
      </trkpt>
      <trkpt lat="44.79403" lon="4.35932">
        <ele>1164</ele>
        <time>2018-08-04T11:46:16Z</time>
      </trkpt>
      <trkpt lat="44.79405" lon="4.35927">
        <ele>1167</ele>
        <time>2018-08-04T11:46:16Z</time>
      </trkpt>
      <trkpt lat="44.79408" lon="4.35921">
        <ele>1167</ele>
        <time>2018-08-04T11:46:16Z</time>
      </trkpt>
      <trkpt lat="44.79411" lon="4.35917">
        <ele>1167</ele>
        <time>2018-08-04T11:46:16Z</time>
      </trkpt>
      <trkpt lat="44.79414" lon="4.35913">
        <ele>1167</ele>
        <time>2018-08-04T11:46:32Z</time>
      </trkpt>
      <trkpt lat="44.79418" lon="4.35908">
        <ele>1167</ele>
        <time>2018-08-04T11:46:32Z</time>
      </trkpt>
      <trkpt lat="44.79423" lon="4.35905">
        <ele>1167</ele>
        <time>2018-08-04T11:46:32Z</time>
      </trkpt>
      <trkpt lat="44.79429" lon="4.359">
        <ele>1171</ele>
        <time>2018-08-04T11:46:32Z</time>
      </trkpt>
      <trkpt lat="44.79433" lon="4.35896">
        <ele>1166</ele>
        <time>2018-08-04T11:46:48Z</time>
      </trkpt>
      <trkpt lat="44.79438" lon="4.35894">
        <ele>1166</ele>
        <time>2018-08-04T11:46:48Z</time>
      </trkpt>
      <trkpt lat="44.79442" lon="4.35893">
        <ele>1166</ele>
        <time>2018-08-04T11:46:48Z</time>
      </trkpt>
      <trkpt lat="44.79446" lon="4.35891">
        <ele>1166</ele>
        <time>2018-08-04T11:46:48Z</time>
      </trkpt>
      <trkpt lat="44.7945" lon="4.35889">
        <ele>1166</ele>
        <time>2018-08-04T11:47:04Z</time>
      </trkpt>
      <trkpt lat="44.79454" lon="4.35886">
        <ele>1166</ele>
        <time>2018-08-04T11:47:04Z</time>
      </trkpt>
      <trkpt lat="44.7946" lon="4.35882">
        <ele>1162</ele>
        <time>2018-08-04T11:47:04Z</time>
      </trkpt>
      <trkpt lat="44.79464" lon="4.3588">
        <ele>1162</ele>
        <time>2018-08-04T11:47:04Z</time>
      </trkpt>
      <trkpt lat="44.79468" lon="4.35877">
        <ele>1162</ele>
        <time>2018-08-04T11:47:20Z</time>
      </trkpt>
      <trkpt lat="44.79472" lon="4.35875">
        <ele>1165</ele>
        <time>2018-08-04T11:47:20Z</time>
      </trkpt>
      <trkpt lat="44.79477" lon="4.35873">
        <ele>1165</ele>
        <time>2018-08-04T11:47:20Z</time>
      </trkpt>
      <trkpt lat="44.7948" lon="4.35873">
        <ele>1165</ele>
        <time>2018-08-04T11:47:20Z</time>
      </trkpt>
      <trkpt lat="44.79482" lon="4.35872">
        <ele>1165</ele>
        <time>2018-08-04T11:47:36Z</time>
      </trkpt>
      <trkpt lat="44.79488" lon="4.35869">
        <ele>1163</ele>
        <time>2018-08-04T11:47:36Z</time>
      </trkpt>
      <trkpt lat="44.79492" lon="4.35866">
        <ele>1163</ele>
        <time>2018-08-04T11:47:36Z</time>
      </trkpt>
      <trkpt lat="44.79498" lon="4.35862">
        <ele>1163</ele>
        <time>2018-08-04T11:47:36Z</time>
      </trkpt>
      <trkpt lat="44.79501" lon="4.35861">
        <ele>1163</ele>
        <time>2018-08-04T11:48:05Z</time>
      </trkpt>
      <trkpt lat="44.79516" lon="4.35856">
        <ele>1163</ele>
        <time>2018-08-04T11:48:05Z</time>
      </trkpt>
      <trkpt lat="44.79521" lon="4.35854">
        <ele>1163</ele>
        <time>2018-08-04T11:48:05Z</time>
      </trkpt>
      <trkpt lat="44.79533" lon="4.35847">
        <ele>1162</ele>
        <time>2018-08-04T11:48:05Z</time>
      </trkpt>
      <trkpt lat="44.79537" lon="4.35844">
        <ele>1162</ele>
        <time>2018-08-04T11:48:40Z</time>
      </trkpt>
      <trkpt lat="44.79545" lon="4.35838">
        <ele>1166</ele>
        <time>2018-08-04T11:48:41Z</time>
      </trkpt>
      <trkpt lat="44.79556" lon="4.35827">
        <ele>1166</ele>
        <time>2018-08-04T11:48:42Z</time>
      </trkpt>
      <trkpt lat="44.79568" lon="4.35817">
        <ele>1164</ele>
        <time>2018-08-04T11:48:43Z</time>
      </trkpt>
      <trkpt lat="44.79569" lon="4.35818">
        <ele>1164</ele>
        <time>2018-08-04T11:49:12Z</time>
      </trkpt>
      <trkpt lat="44.79579" lon="4.35819">
        <ele>1169</ele>
        <time>2018-08-04T11:49:12Z</time>
      </trkpt>
      <trkpt lat="44.79592" lon="4.35821">
        <ele>1172</ele>
        <time>2018-08-04T11:49:12Z</time>
      </trkpt>
      <trkpt lat="44.79593" lon="4.35822">
        <ele>1172</ele>
        <time>2018-08-04T11:49:12Z</time>
      </trkpt>
      <trkpt lat="44.79597" lon="4.35822">
        <ele>1172</ele>
        <time>2018-08-04T11:49:28Z</time>
      </trkpt>
      <trkpt lat="44.796" lon="4.35823">
        <ele>1174</ele>
        <time>2018-08-04T11:49:28Z</time>
      </trkpt>
      <trkpt lat="44.79604" lon="4.35822">
        <ele>1174</ele>
        <time>2018-08-04T11:49:28Z</time>
      </trkpt>
      <trkpt lat="44.79608" lon="4.35822">
        <ele>1174</ele>
        <time>2018-08-04T11:49:28Z</time>
      </trkpt>
      <trkpt lat="44.79618" lon="4.35821">
        <ele>1174</ele>
        <time>2018-08-04T11:50:12Z</time>
      </trkpt>
      <trkpt lat="44.79618" lon="4.35821">
        <ele>1174</ele>
        <time>2018-08-04T11:50:12Z</time>
      </trkpt>
      <trkpt lat="44.79619" lon="4.3582">
        <ele>1174</ele>
        <time>2018-08-04T11:50:12Z</time>
      </trkpt>
      <trkpt lat="44.79619" lon="4.35822">
        <ele>1174</ele>
        <time>2018-08-04T11:50:12Z</time>
      </trkpt>
      <trkpt lat="44.79622" lon="4.35825">
        <ele>1174</ele>
        <time>2018-08-04T11:50:12Z</time>
      </trkpt>
      <trkpt lat="44.79634" lon="4.35826">
        <ele>1174</ele>
        <time>2018-08-04T11:51:28Z</time>
      </trkpt>
      <trkpt lat="44.79636" lon="4.35826">
        <ele>1174</ele>
        <time>2018-08-04T11:51:28Z</time>
      </trkpt>
      <trkpt lat="44.79637" lon="4.35826">
        <ele>1174</ele>
        <time>2018-08-04T11:51:28Z</time>
      </trkpt>
      <trkpt lat="44.7964" lon="4.35824">
        <ele>1174</ele>
        <time>2018-08-04T11:51:28Z</time>
      </trkpt>
      <trkpt lat="44.79644" lon="4.35823">
        <ele>1174</ele>
        <time>2018-08-04T11:51:28Z</time>
      </trkpt>
      <trkpt lat="44.79653" lon="4.35824">
        <ele>1176</ele>
        <time>2018-08-04T11:52:12Z</time>
      </trkpt>
      <trkpt lat="44.79658" lon="4.35824">
        <ele>1176</ele>
        <time>2018-08-04T11:52:12Z</time>
      </trkpt>
      <trkpt lat="44.79672" lon="4.35827">
        <ele>1176</ele>
        <time>2018-08-04T11:52:12Z</time>
      </trkpt>
      <trkpt lat="44.79684" lon="4.35834">
        <ele>1174</ele>
        <time>2018-08-04T11:52:12Z</time>
      </trkpt>
      <trkpt lat="44.7969" lon="4.35834">
        <ele>1174</ele>
        <time>2018-08-04T11:52:55Z</time>
      </trkpt>
      <trkpt lat="44.79691" lon="4.35834">
        <ele>1174</ele>
        <time>2018-08-04T11:52:57Z</time>
      </trkpt>
      <trkpt lat="44.79692" lon="4.35835">
        <ele>1174</ele>
        <time>2018-08-04T11:52:58Z</time>
      </trkpt>
      <trkpt lat="44.79693" lon="4.35835">
        <ele>1174</ele>
        <time>2018-08-04T11:52:59Z</time>
      </trkpt>
      <trkpt lat="44.79698" lon="4.35839">
        <ele>1174</ele>
        <time>2018-08-04T11:52:59Z</time>
      </trkpt>
      <trkpt lat="44.79705" lon="4.35841">
        <ele>1174</ele>
        <time>2018-08-04T11:53:13Z</time>
      </trkpt>
      <trkpt lat="44.79709" lon="4.35843">
        <ele>1173</ele>
        <time>2018-08-04T11:53:13Z</time>
      </trkpt>
      <trkpt lat="44.79711" lon="4.35844">
        <ele>1173</ele>
        <time>2018-08-04T11:53:13Z</time>
      </trkpt>
      <trkpt lat="44.79715" lon="4.35846">
        <ele>1173</ele>
        <time>2018-08-04T11:53:13Z</time>
      </trkpt>
      <trkpt lat="44.79719" lon="4.35847">
        <ele>1173</ele>
        <time>2018-08-04T11:53:30Z</time>
      </trkpt>
      <trkpt lat="44.79724" lon="4.35848">
        <ele>1172</ele>
        <time>2018-08-04T11:53:30Z</time>
      </trkpt>
      <trkpt lat="44.79729" lon="4.35849">
        <ele>1172</ele>
        <time>2018-08-04T11:53:30Z</time>
      </trkpt>
      <trkpt lat="44.79736" lon="4.35852">
        <ele>1172</ele>
        <time>2018-08-04T11:53:31Z</time>
      </trkpt>
      <trkpt lat="44.79737" lon="4.35852">
        <ele>1173</ele>
        <time>2018-08-04T11:53:52Z</time>
      </trkpt>
      <trkpt lat="44.79748" lon="4.35861">
        <ele>1173</ele>
        <time>2018-08-04T11:53:52Z</time>
      </trkpt>
      <trkpt lat="44.79749" lon="4.35861">
        <ele>1173</ele>
        <time>2018-08-04T11:53:52Z</time>
      </trkpt>
      <trkpt lat="44.79751" lon="4.35863">
        <ele>1173</ele>
        <time>2018-08-04T11:53:52Z</time>
      </trkpt>
      <trkpt lat="44.79756" lon="4.35866">
        <ele>1173</ele>
        <time>2018-08-04T11:54:08Z</time>
      </trkpt>
      <trkpt lat="44.7976" lon="4.35869">
        <ele>1173</ele>
        <time>2018-08-04T11:54:08Z</time>
      </trkpt>
      <trkpt lat="44.79763" lon="4.35872">
        <ele>1173</ele>
        <time>2018-08-04T11:54:08Z</time>
      </trkpt>
      <trkpt lat="44.79765" lon="4.35873">
        <ele>1174</ele>
        <time>2018-08-04T11:54:08Z</time>
      </trkpt>
      <trkpt lat="44.79768" lon="4.35877">
        <ele>1173</ele>
        <time>2018-08-04T11:54:44Z</time>
      </trkpt>
      <trkpt lat="44.79777" lon="4.35892">
        <ele>1173</ele>
        <time>2018-08-04T11:54:45Z</time>
      </trkpt>
      <trkpt lat="44.79778" lon="4.35894">
        <ele>1173</ele>
        <time>2018-08-04T11:54:45Z</time>
      </trkpt>
      <trkpt lat="44.79789" lon="4.35924">
        <ele>1173</ele>
        <time>2018-08-04T11:54:47Z</time>
      </trkpt>
      <trkpt lat="44.79789" lon="4.35928">
        <ele>1173</ele>
        <time>2018-08-04T11:55:00Z</time>
      </trkpt>
      <trkpt lat="44.7979" lon="4.35932">
        <ele>1174</ele>
        <time>2018-08-04T11:55:00Z</time>
      </trkpt>
      <trkpt lat="44.7979" lon="4.35932">
        <ele>1174</ele>
        <time>2018-08-04T11:55:00Z</time>
      </trkpt>
      <trkpt lat="44.79794" lon="4.35938">
        <ele>1177</ele>
        <time>2018-08-04T11:55:00Z</time>
      </trkpt>
      <trkpt lat="44.79795" lon="4.35941">
        <ele>1177</ele>
        <time>2018-08-04T11:55:00Z</time>
      </trkpt>
      <trkpt lat="44.79797" lon="4.35949">
        <ele>1177</ele>
        <time>2018-08-04T11:55:17Z</time>
      </trkpt>
      <trkpt lat="44.79798" lon="4.35952">
        <ele>1177</ele>
        <time>2018-08-04T11:55:17Z</time>
      </trkpt>
      <trkpt lat="44.798" lon="4.3596">
        <ele>1178</ele>
        <time>2018-08-04T11:55:17Z</time>
      </trkpt>
      <trkpt lat="44.79802" lon="4.35964">
        <ele>1178</ele>
        <time>2018-08-04T11:55:17Z</time>
      </trkpt>
      <trkpt lat="44.79806" lon="4.35971">
        <ele>1178</ele>
        <time>2018-08-04T11:55:49Z</time>
      </trkpt>
      <trkpt lat="44.79814" lon="4.35981">
        <ele>1178</ele>
        <time>2018-08-04T11:55:49Z</time>
      </trkpt>
      <trkpt lat="44.79824" lon="4.35997">
        <ele>1183</ele>
        <time>2018-08-04T11:55:49Z</time>
      </trkpt>
      <trkpt lat="44.79829" lon="4.36003">
        <ele>1183</ele>
        <time>2018-08-04T11:55:49Z</time>
      </trkpt>
      <trkpt lat="44.79832" lon="4.36005">
        <ele>1183</ele>
        <time>2018-08-04T11:56:04Z</time>
      </trkpt>
      <trkpt lat="44.79837" lon="4.36008">
        <ele>1183</ele>
        <time>2018-08-04T11:56:04Z</time>
      </trkpt>
      <trkpt lat="44.79841" lon="4.36009">
        <ele>1183</ele>
        <time>2018-08-04T11:56:04Z</time>
      </trkpt>
      <trkpt lat="44.79847" lon="4.36009">
        <ele>1183</ele>
        <time>2018-08-04T11:56:04Z</time>
      </trkpt>
      <trkpt lat="44.7985" lon="4.36011">
        <ele>1185</ele>
        <time>2018-08-04T11:56:20Z</time>
      </trkpt>
      <trkpt lat="44.79856" lon="4.36011">
        <ele>1185</ele>
        <time>2018-08-04T11:56:20Z</time>
      </trkpt>
      <trkpt lat="44.7986" lon="4.36012">
        <ele>1185</ele>
        <time>2018-08-04T11:56:20Z</time>
      </trkpt>
      <trkpt lat="44.79864" lon="4.36011">
        <ele>1185</ele>
        <time>2018-08-04T11:56:20Z</time>
      </trkpt>
      <trkpt lat="44.79867" lon="4.36011">
        <ele>1185</ele>
        <time>2018-08-04T11:56:36Z</time>
      </trkpt>
      <trkpt lat="44.79872" lon="4.36011">
        <ele>1185</ele>
        <time>2018-08-04T11:56:36Z</time>
      </trkpt>
      <trkpt lat="44.79876" lon="4.36011">
        <ele>1183</ele>
        <time>2018-08-04T11:56:36Z</time>
      </trkpt>
      <trkpt lat="44.79879" lon="4.36011">
        <ele>1183</ele>
        <time>2018-08-04T11:56:36Z</time>
      </trkpt>
      <trkpt lat="44.79884" lon="4.36011">
        <ele>1183</ele>
        <time>2018-08-04T11:56:52Z</time>
      </trkpt>
      <trkpt lat="44.7989" lon="4.3601">
        <ele>1183</ele>
        <time>2018-08-04T11:56:52Z</time>
      </trkpt>
      <trkpt lat="44.79893" lon="4.36009">
        <ele>1183</ele>
        <time>2018-08-04T11:56:52Z</time>
      </trkpt>
      <trkpt lat="44.79899" lon="4.3601">
        <ele>1183</ele>
        <time>2018-08-04T11:56:52Z</time>
      </trkpt>
      <trkpt lat="44.79905" lon="4.36012">
        <ele>1179</ele>
        <time>2018-08-04T11:57:08Z</time>
      </trkpt>
      <trkpt lat="44.79909" lon="4.36012">
        <ele>1179</ele>
        <time>2018-08-04T11:57:08Z</time>
      </trkpt>
      <trkpt lat="44.79914" lon="4.36013">
        <ele>1179</ele>
        <time>2018-08-04T11:57:08Z</time>
      </trkpt>
      <trkpt lat="44.79917" lon="4.36015">
        <ele>1178</ele>
        <time>2018-08-04T11:57:08Z</time>
      </trkpt>
      <trkpt lat="44.7992" lon="4.36014">
        <ele>1178</ele>
        <time>2018-08-04T11:57:24Z</time>
      </trkpt>
      <trkpt lat="44.79925" lon="4.36012">
        <ele>1179</ele>
        <time>2018-08-04T11:57:24Z</time>
      </trkpt>
      <trkpt lat="44.7993" lon="4.36011">
        <ele>1179</ele>
        <time>2018-08-04T11:57:24Z</time>
      </trkpt>
      <trkpt lat="44.79931" lon="4.36009">
        <ele>1176</ele>
        <time>2018-08-04T11:57:24Z</time>
      </trkpt>
      <trkpt lat="44.79937" lon="4.36007">
        <ele>1176</ele>
        <time>2018-08-04T11:57:40Z</time>
      </trkpt>
      <trkpt lat="44.79943" lon="4.36005">
        <ele>1176</ele>
        <time>2018-08-04T11:57:40Z</time>
      </trkpt>
      <trkpt lat="44.79948" lon="4.36003">
        <ele>1176</ele>
        <time>2018-08-04T11:57:40Z</time>
      </trkpt>
      <trkpt lat="44.79954" lon="4.36">
        <ele>1176</ele>
        <time>2018-08-04T11:57:40Z</time>
      </trkpt>
      <trkpt lat="44.79958" lon="4.35998">
        <ele>1176</ele>
        <time>2018-08-04T11:57:56Z</time>
      </trkpt>
      <trkpt lat="44.79963" lon="4.35996">
        <ele>1174</ele>
        <time>2018-08-04T11:57:56Z</time>
      </trkpt>
      <trkpt lat="44.79967" lon="4.35996">
        <ele>1174</ele>
        <time>2018-08-04T11:57:56Z</time>
      </trkpt>
      <trkpt lat="44.7997" lon="4.35993">
        <ele>1174</ele>
        <time>2018-08-04T11:57:56Z</time>
      </trkpt>
      <trkpt lat="44.79975" lon="4.35991">
        <ele>1174</ele>
        <time>2018-08-04T11:58:12Z</time>
      </trkpt>
      <trkpt lat="44.79979" lon="4.35988">
        <ele>1174</ele>
        <time>2018-08-04T11:58:14Z</time>
      </trkpt>
      <trkpt lat="44.79985" lon="4.35985">
        <ele>1177</ele>
        <time>2018-08-04T11:58:14Z</time>
      </trkpt>
      <trkpt lat="44.7999" lon="4.35982">
        <ele>1175</ele>
        <time>2018-08-04T11:58:16Z</time>
      </trkpt>
      <trkpt lat="44.79994" lon="4.35981">
        <ele>1175</ele>
        <time>2018-08-04T11:58:28Z</time>
      </trkpt>
      <trkpt lat="44.80002" lon="4.35975">
        <ele>1175</ele>
        <time>2018-08-04T11:58:28Z</time>
      </trkpt>
      <trkpt lat="44.80003" lon="4.35975">
        <ele>1175</ele>
        <time>2018-08-04T11:58:28Z</time>
      </trkpt>
      <trkpt lat="44.80007" lon="4.35973">
        <ele>1175</ele>
        <time>2018-08-04T11:58:28Z</time>
      </trkpt>
      <trkpt lat="44.80014" lon="4.35966">
        <ele>1175</ele>
        <time>2018-08-04T11:59:03Z</time>
      </trkpt>
      <trkpt lat="44.80022" lon="4.35959">
        <ele>1174</ele>
        <time>2018-08-04T11:59:04Z</time>
      </trkpt>
      <trkpt lat="44.80045" lon="4.35947">
        <ele>1175</ele>
        <time>2018-08-04T11:59:05Z</time>
      </trkpt>
      <trkpt lat="44.80049" lon="4.3594">
        <ele>1175</ele>
        <time>2018-08-04T11:59:06Z</time>
      </trkpt>
      <trkpt lat="44.80053" lon="4.35938">
        <ele>1175</ele>
        <time>2018-08-04T11:59:25Z</time>
      </trkpt>
      <trkpt lat="44.80054" lon="4.35937">
        <ele>1175</ele>
        <time>2018-08-04T11:59:25Z</time>
      </trkpt>
      <trkpt lat="44.80061" lon="4.35921">
        <ele>1174</ele>
        <time>2018-08-04T11:59:25Z</time>
      </trkpt>
      <trkpt lat="44.80065" lon="4.35915">
        <ele>1174</ele>
        <time>2018-08-04T11:59:25Z</time>
      </trkpt>
      <trkpt lat="44.80074" lon="4.35904">
        <ele>1176</ele>
        <time>2018-08-04T11:59:58Z</time>
      </trkpt>
      <trkpt lat="44.80076" lon="4.35903">
        <ele>1174</ele>
        <time>2018-08-04T11:59:58Z</time>
      </trkpt>
      <trkpt lat="44.80083" lon="4.35895">
        <ele>1174</ele>
        <time>2018-08-04T11:59:58Z</time>
      </trkpt>
      <trkpt lat="44.80087" lon="4.35891">
        <ele>1174</ele>
        <time>2018-08-04T11:59:58Z</time>
      </trkpt>
      <trkpt lat="44.80088" lon="4.35887">
        <ele>1174</ele>
        <time>2018-08-04T12:00:24Z</time>
      </trkpt>
      <trkpt lat="44.80091" lon="4.35882">
        <ele>1174</ele>
        <time>2018-08-04T12:00:24Z</time>
      </trkpt>
      <trkpt lat="44.80099" lon="4.35875">
        <ele>1174</ele>
        <time>2018-08-04T12:00:24Z</time>
      </trkpt>
      <trkpt lat="44.80109" lon="4.35862">
        <ele>1174</ele>
        <time>2018-08-04T12:00:24Z</time>
      </trkpt>
      <trkpt lat="44.8011" lon="4.35861">
        <ele>1174</ele>
        <time>2018-08-04T12:00:36Z</time>
      </trkpt>
      <trkpt lat="44.80113" lon="4.35856">
        <ele>1174</ele>
        <time>2018-08-04T12:00:36Z</time>
      </trkpt>
      <trkpt lat="44.80116" lon="4.3585">
        <ele>1174</ele>
        <time>2018-08-04T12:00:36Z</time>
      </trkpt>
      <trkpt lat="44.80118" lon="4.35847">
        <ele>1171</ele>
        <time>2018-08-04T12:00:36Z</time>
      </trkpt>
      <trkpt lat="44.80124" lon="4.35842">
        <ele>1171</ele>
        <time>2018-08-04T12:00:58Z</time>
      </trkpt>
      <trkpt lat="44.80127" lon="4.35838">
        <ele>1176</ele>
        <time>2018-08-04T12:00:58Z</time>
      </trkpt>
      <trkpt lat="44.80135" lon="4.35828">
        <ele>1176</ele>
        <time>2018-08-04T12:00:58Z</time>
      </trkpt>
      <trkpt lat="44.80141" lon="4.35825">
        <ele>1176</ele>
        <time>2018-08-04T12:00:58Z</time>
      </trkpt>
      <trkpt lat="44.80143" lon="4.35823">
        <ele>1176</ele>
        <time>2018-08-04T12:01:23Z</time>
      </trkpt>
      <trkpt lat="44.80147" lon="4.35819">
        <ele>1173</ele>
        <time>2018-08-04T12:01:23Z</time>
      </trkpt>
      <trkpt lat="44.80163" lon="4.35802">
        <ele>1174</ele>
        <time>2018-08-04T12:01:23Z</time>
      </trkpt>
      <trkpt lat="44.80167" lon="4.35799">
        <ele>1174</ele>
        <time>2018-08-04T12:01:23Z</time>
      </trkpt>
      <trkpt lat="44.80168" lon="4.35799">
        <ele>1174</ele>
        <time>2018-08-04T12:01:52Z</time>
      </trkpt>
      <trkpt lat="44.80171" lon="4.35796">
        <ele>1174</ele>
        <time>2018-08-04T12:01:53Z</time>
      </trkpt>
      <trkpt lat="44.80184" lon="4.35785">
        <ele>1172</ele>
        <time>2018-08-04T12:01:54Z</time>
      </trkpt>
      <trkpt lat="44.80193" lon="4.35777">
        <ele>1172</ele>
        <time>2018-08-04T12:01:55Z</time>
      </trkpt>
      <trkpt lat="44.80198" lon="4.35772">
        <ele>1172</ele>
        <time>2018-08-04T12:02:47Z</time>
      </trkpt>
      <trkpt lat="44.80216" lon="4.35747">
        <ele>1172</ele>
        <time>2018-08-04T12:02:49Z</time>
      </trkpt>
      <trkpt lat="44.80231" lon="4.35731">
        <ele>1167</ele>
        <time>2018-08-04T12:02:50Z</time>
      </trkpt>
      <trkpt lat="44.80251" lon="4.35712">
        <ele>1173</ele>
        <time>2018-08-04T12:02:51Z</time>
      </trkpt>
      <trkpt lat="44.80255" lon="4.35709">
        <ele>1173</ele>
        <time>2018-08-04T12:03:32Z</time>
      </trkpt>
      <trkpt lat="44.80271" lon="4.35695">
        <ele>1173</ele>
        <time>2018-08-04T12:03:33Z</time>
      </trkpt>
      <trkpt lat="44.80276" lon="4.3569">
        <ele>1173</ele>
        <time>2018-08-04T12:03:34Z</time>
      </trkpt>
      <trkpt lat="44.80296" lon="4.35664">
        <ele>1177</ele>
        <time>2018-08-04T12:03:35Z</time>
      </trkpt>
      <trkpt lat="44.80301" lon="4.35658">
        <ele>1177</ele>
        <time>2018-08-04T12:04:16Z</time>
      </trkpt>
      <trkpt lat="44.80316" lon="4.35642">
        <ele>1171</ele>
        <time>2018-08-04T12:04:16Z</time>
      </trkpt>
      <trkpt lat="44.80321" lon="4.35637">
        <ele>1178</ele>
        <time>2018-08-04T12:04:17Z</time>
      </trkpt>
      <trkpt lat="44.80338" lon="4.35613">
        <ele>1171</ele>
        <time>2018-08-04T12:04:18Z</time>
      </trkpt>
      <trkpt lat="44.80342" lon="4.35608">
        <ele>1171</ele>
        <time>2018-08-04T12:04:32Z</time>
      </trkpt>
      <trkpt lat="44.80343" lon="4.35604">
        <ele>1171</ele>
        <time>2018-08-04T12:04:32Z</time>
      </trkpt>
      <trkpt lat="44.80348" lon="4.3559">
        <ele>1171</ele>
        <time>2018-08-04T12:04:32Z</time>
      </trkpt>
      <trkpt lat="44.80351" lon="4.35586">
        <ele>1171</ele>
        <time>2018-08-04T12:04:32Z</time>
      </trkpt>
      <trkpt lat="44.80357" lon="4.35582">
        <ele>1171</ele>
        <time>2018-08-04T12:04:53Z</time>
      </trkpt>
      <trkpt lat="44.80358" lon="4.3558">
        <ele>1171</ele>
        <time>2018-08-04T12:04:53Z</time>
      </trkpt>
      <trkpt lat="44.80361" lon="4.35578">
        <ele>1171</ele>
        <time>2018-08-04T12:04:53Z</time>
      </trkpt>
      <trkpt lat="44.80367" lon="4.35566">
        <ele>1166</ele>
        <time>2018-08-04T12:04:53Z</time>
      </trkpt>
      <trkpt lat="44.8037" lon="4.35561">
        <ele>1166</ele>
        <time>2018-08-04T12:05:20Z</time>
      </trkpt>
      <trkpt lat="44.80374" lon="4.35549">
        <ele>1166</ele>
        <time>2018-08-04T12:05:20Z</time>
      </trkpt>
      <trkpt lat="44.80375" lon="4.35544">
        <ele>1166</ele>
        <time>2018-08-04T12:05:21Z</time>
      </trkpt>
      <trkpt lat="44.80381" lon="4.35524">
        <ele>1171</ele>
        <time>2018-08-04T12:05:21Z</time>
      </trkpt>
      <trkpt lat="44.80386" lon="4.35505">
        <ele>1168</ele>
        <time>2018-08-04T12:05:44Z</time>
      </trkpt>
      <trkpt lat="44.80389" lon="4.35499">
        <ele>1168</ele>
        <time>2018-08-04T12:05:45Z</time>
      </trkpt>
      <trkpt lat="44.8039" lon="4.35497">
        <ele>1168</ele>
        <time>2018-08-04T12:05:46Z</time>
      </trkpt>
      <trkpt lat="44.80395" lon="4.35489">
        <ele>1168</ele>
        <time>2018-08-04T12:05:46Z</time>
      </trkpt>
      <trkpt lat="44.80397" lon="4.35486">
        <ele>1165</ele>
        <time>2018-08-04T12:06:16Z</time>
      </trkpt>
      <trkpt lat="44.804" lon="4.3548">
        <ele>1165</ele>
        <time>2018-08-04T12:06:17Z</time>
      </trkpt>
      <trkpt lat="44.80411" lon="4.35447">
        <ele>1166</ele>
        <time>2018-08-04T12:06:19Z</time>
      </trkpt>
      <trkpt lat="44.80414" lon="4.3544">
        <ele>1166</ele>
        <time>2018-08-04T12:06:19Z</time>
      </trkpt>
      <trkpt lat="44.80417" lon="4.35435">
        <ele>1166</ele>
        <time>2018-08-04T12:06:32Z</time>
      </trkpt>
      <trkpt lat="44.80424" lon="4.35426">
        <ele>1163</ele>
        <time>2018-08-04T12:06:32Z</time>
      </trkpt>
      <trkpt lat="44.80425" lon="4.35423">
        <ele>1163</ele>
        <time>2018-08-04T12:06:32Z</time>
      </trkpt>
      <trkpt lat="44.80427" lon="4.35417">
        <ele>1163</ele>
        <time>2018-08-04T12:06:32Z</time>
      </trkpt>
      <trkpt lat="44.8043" lon="4.35411">
        <ele>1163</ele>
        <time>2018-08-04T12:06:48Z</time>
      </trkpt>
      <trkpt lat="44.80435" lon="4.35409">
        <ele>1164</ele>
        <time>2018-08-04T12:06:48Z</time>
      </trkpt>
      <trkpt lat="44.80437" lon="4.35408">
        <ele>1164</ele>
        <time>2018-08-04T12:06:48Z</time>
      </trkpt>
      <trkpt lat="44.80444" lon="4.35403">
        <ele>1159</ele>
        <time>2018-08-04T12:06:48Z</time>
      </trkpt>
      <trkpt lat="44.80447" lon="4.354">
        <ele>1159</ele>
        <time>2018-08-04T12:07:04Z</time>
      </trkpt>
      <trkpt lat="44.8045" lon="4.35398">
        <ele>1159</ele>
        <time>2018-08-04T12:07:04Z</time>
      </trkpt>
      <trkpt lat="44.80453" lon="4.35395">
        <ele>1159</ele>
        <time>2018-08-04T12:07:04Z</time>
      </trkpt>
      <trkpt lat="44.80455" lon="4.35393">
        <ele>1159</ele>
        <time>2018-08-04T12:07:04Z</time>
      </trkpt>
      <trkpt lat="44.80461" lon="4.35388">
        <ele>1160</ele>
        <time>2018-08-04T12:07:32Z</time>
      </trkpt>
      <trkpt lat="44.80464" lon="4.35384">
        <ele>1160</ele>
        <time>2018-08-04T12:07:32Z</time>
      </trkpt>
      <trkpt lat="44.80469" lon="4.35381">
        <ele>1160</ele>
        <time>2018-08-04T12:07:32Z</time>
      </trkpt>
      <trkpt lat="44.80472" lon="4.35378">
        <ele>1160</ele>
        <time>2018-08-04T12:07:32Z</time>
      </trkpt>
      <trkpt lat="44.80476" lon="4.35374">
        <ele>1154</ele>
        <time>2018-08-04T12:07:32Z</time>
      </trkpt>
      <trkpt lat="44.8048" lon="4.35372">
        <ele>1154</ele>
        <time>2018-08-04T12:07:48Z</time>
      </trkpt>
      <trkpt lat="44.80484" lon="4.35369">
        <ele>1154</ele>
        <time>2018-08-04T12:07:48Z</time>
      </trkpt>
      <trkpt lat="44.80488" lon="4.35365">
        <ele>1156</ele>
        <time>2018-08-04T12:07:48Z</time>
      </trkpt>
      <trkpt lat="44.80493" lon="4.35363">
        <ele>1156</ele>
        <time>2018-08-04T12:07:48Z</time>
      </trkpt>
      <trkpt lat="44.80498" lon="4.3536">
        <ele>1156</ele>
        <time>2018-08-04T12:08:04Z</time>
      </trkpt>
      <trkpt lat="44.80503" lon="4.35357">
        <ele>1156</ele>
        <time>2018-08-04T12:08:04Z</time>
      </trkpt>
      <trkpt lat="44.80509" lon="4.35356">
        <ele>1156</ele>
        <time>2018-08-04T12:08:04Z</time>
      </trkpt>
      <trkpt lat="44.80513" lon="4.35354">
        <ele>1156</ele>
        <time>2018-08-04T12:08:04Z</time>
      </trkpt>
      <trkpt lat="44.80517" lon="4.35351">
        <ele>1158</ele>
        <time>2018-08-04T12:08:20Z</time>
      </trkpt>
      <trkpt lat="44.80521" lon="4.35347">
        <ele>1158</ele>
        <time>2018-08-04T12:08:20Z</time>
      </trkpt>
      <trkpt lat="44.80524" lon="4.35346">
        <ele>1155</ele>
        <time>2018-08-04T12:08:20Z</time>
      </trkpt>
      <trkpt lat="44.80529" lon="4.3534">
        <ele>1155</ele>
        <time>2018-08-04T12:08:20Z</time>
      </trkpt>
      <trkpt lat="44.80532" lon="4.35336">
        <ele>1155</ele>
        <time>2018-08-04T12:08:36Z</time>
      </trkpt>
      <trkpt lat="44.80535" lon="4.35333">
        <ele>1155</ele>
        <time>2018-08-04T12:08:36Z</time>
      </trkpt>
      <trkpt lat="44.80537" lon="4.35332">
        <ele>1155</ele>
        <time>2018-08-04T12:08:36Z</time>
      </trkpt>
      <trkpt lat="44.80541" lon="4.3533">
        <ele>1155</ele>
        <time>2018-08-04T12:08:36Z</time>
      </trkpt>
      <trkpt lat="44.80544" lon="4.35327">
        <ele>1155</ele>
        <time>2018-08-04T12:08:53Z</time>
      </trkpt>
      <trkpt lat="44.80546" lon="4.35326">
        <ele>1155</ele>
        <time>2018-08-04T12:08:53Z</time>
      </trkpt>
      <trkpt lat="44.80551" lon="4.35327">
        <ele>1155</ele>
        <time>2018-08-04T12:08:53Z</time>
      </trkpt>
      <trkpt lat="44.80556" lon="4.35324">
        <ele>1155</ele>
        <time>2018-08-04T12:08:53Z</time>
      </trkpt>
      <trkpt lat="44.80557" lon="4.35322">
        <ele>1155</ele>
        <time>2018-08-04T12:09:24Z</time>
      </trkpt>
      <trkpt lat="44.80572" lon="4.35315">
        <ele>1151</ele>
        <time>2018-08-04T12:09:24Z</time>
      </trkpt>
      <trkpt lat="44.80585" lon="4.3531">
        <ele>1151</ele>
        <time>2018-08-04T12:09:24Z</time>
      </trkpt>
      <trkpt lat="44.80592" lon="4.35306">
        <ele>1151</ele>
        <time>2018-08-04T12:09:24Z</time>
      </trkpt>
      <trkpt lat="44.80593" lon="4.35306">
        <ele>1151</ele>
        <time>2018-08-04T12:09:36Z</time>
      </trkpt>
      <trkpt lat="44.80601" lon="4.35304">
        <ele>1151</ele>
        <time>2018-08-04T12:09:36Z</time>
      </trkpt>
      <trkpt lat="44.80607" lon="4.35302">
        <ele>1151</ele>
        <time>2018-08-04T12:09:36Z</time>
      </trkpt>
      <trkpt lat="44.8061" lon="4.35301">
        <ele>1151</ele>
        <time>2018-08-04T12:09:36Z</time>
      </trkpt>
      <trkpt lat="44.80615" lon="4.35299">
        <ele>1151</ele>
        <time>2018-08-04T12:09:52Z</time>
      </trkpt>
      <trkpt lat="44.8062" lon="4.35296">
        <ele>1151</ele>
        <time>2018-08-04T12:09:52Z</time>
      </trkpt>
      <trkpt lat="44.80625" lon="4.35294">
        <ele>1151</ele>
        <time>2018-08-04T12:09:52Z</time>
      </trkpt>
      <trkpt lat="44.8063" lon="4.35293">
        <ele>1151</ele>
        <time>2018-08-04T12:09:52Z</time>
      </trkpt>
      <trkpt lat="44.80634" lon="4.35293">
        <ele>1151</ele>
        <time>2018-08-04T12:10:29Z</time>
      </trkpt>
      <trkpt lat="44.80642" lon="4.35291">
        <ele>1147</ele>
        <time>2018-08-04T12:10:29Z</time>
      </trkpt>
      <trkpt lat="44.80651" lon="4.35289">
        <ele>1147</ele>
        <time>2018-08-04T12:10:29Z</time>
      </trkpt>
      <trkpt lat="44.80664" lon="4.35284">
        <ele>1146</ele>
        <time>2018-08-04T12:10:29Z</time>
      </trkpt>
      <trkpt lat="44.80668" lon="4.35284">
        <ele>1146</ele>
        <time>2018-08-04T12:10:48Z</time>
      </trkpt>
      <trkpt lat="44.80674" lon="4.35283">
        <ele>1146</ele>
        <time>2018-08-04T12:10:48Z</time>
      </trkpt>
      <trkpt lat="44.80678" lon="4.35282">
        <ele>1146</ele>
        <time>2018-08-04T12:10:48Z</time>
      </trkpt>
      <trkpt lat="44.80685" lon="4.3528">
        <ele>1146</ele>
        <time>2018-08-04T12:10:48Z</time>
      </trkpt>
      <trkpt lat="44.80691" lon="4.35276">
        <ele>1146</ele>
        <time>2018-08-04T12:12:14Z</time>
      </trkpt>
      <trkpt lat="44.80691" lon="4.35276">
        <ele>1146</ele>
        <time>2018-08-04T12:12:14Z</time>
      </trkpt>
      <trkpt lat="44.80693" lon="4.35277">
        <ele>1146</ele>
        <time>2018-08-04T12:12:14Z</time>
      </trkpt>
      <trkpt lat="44.80696" lon="4.35279">
        <ele>1146</ele>
        <time>2018-08-04T12:12:14Z</time>
      </trkpt>
      <trkpt lat="44.80698" lon="4.3528">
        <ele>1146</ele>
        <time>2018-08-04T12:12:14Z</time>
      </trkpt>
      <trkpt lat="44.807" lon="4.3528">
        <ele>1146</ele>
        <time>2018-08-04T12:12:30Z</time>
      </trkpt>
      <trkpt lat="44.80703" lon="4.35279">
        <ele>1146</ele>
        <time>2018-08-04T12:12:30Z</time>
      </trkpt>
      <trkpt lat="44.8071" lon="4.35282">
        <ele>1147</ele>
        <time>2018-08-04T12:12:30Z</time>
      </trkpt>
      <trkpt lat="44.80714" lon="4.35284">
        <ele>1147</ele>
        <time>2018-08-04T12:12:30Z</time>
      </trkpt>
      <trkpt lat="44.80715" lon="4.35285">
        <ele>1147</ele>
        <time>2018-08-04T12:12:48Z</time>
      </trkpt>
      <trkpt lat="44.80718" lon="4.35286">
        <ele>1147</ele>
        <time>2018-08-04T12:12:48Z</time>
      </trkpt>
      <trkpt lat="44.80719" lon="4.35287">
        <ele>1147</ele>
        <time>2018-08-04T12:12:48Z</time>
      </trkpt>
      <trkpt lat="44.80722" lon="4.35288">
        <ele>1147</ele>
        <time>2018-08-04T12:12:48Z</time>
      </trkpt>
      <trkpt lat="44.80729" lon="4.3529">
        <ele>1147</ele>
        <time>2018-08-04T12:12:48Z</time>
      </trkpt>
      <trkpt lat="44.80737" lon="4.35292">
        <ele>1146</ele>
        <time>2018-08-04T12:13:07Z</time>
      </trkpt>
      <trkpt lat="44.80744" lon="4.35291">
        <ele>1146</ele>
        <time>2018-08-04T12:13:08Z</time>
      </trkpt>
      <trkpt lat="44.80747" lon="4.35288">
        <ele>1146</ele>
        <time>2018-08-04T12:13:08Z</time>
      </trkpt>
      <trkpt lat="44.80747" lon="4.35284">
        <ele>1146</ele>
        <time>2018-08-04T12:13:09Z</time>
      </trkpt>
      <trkpt lat="44.8075" lon="4.35283">
        <ele>1146</ele>
        <time>2018-08-04T12:13:31Z</time>
      </trkpt>
      <trkpt lat="44.80752" lon="4.35281">
        <ele>1146</ele>
        <time>2018-08-04T12:13:31Z</time>
      </trkpt>
      <trkpt lat="44.80755" lon="4.35275">
        <ele>1146</ele>
        <time>2018-08-04T12:13:31Z</time>
      </trkpt>
      <trkpt lat="44.80756" lon="4.35271">
        <ele>1146</ele>
        <time>2018-08-04T12:13:31Z</time>
      </trkpt>
      <trkpt lat="44.80755" lon="4.3527">
        <ele>1146</ele>
        <time>2018-08-04T12:13:44Z</time>
      </trkpt>
      <trkpt lat="44.80758" lon="4.35264">
        <ele>1142</ele>
        <time>2018-08-04T12:13:44Z</time>
      </trkpt>
      <trkpt lat="44.80758" lon="4.35263">
        <ele>1142</ele>
        <time>2018-08-04T12:13:44Z</time>
      </trkpt>
      <trkpt lat="44.80762" lon="4.35258">
        <ele>1142</ele>
        <time>2018-08-04T12:13:44Z</time>
      </trkpt>
      <trkpt lat="44.80766" lon="4.35251">
        <ele>1144</ele>
        <time>2018-08-04T12:14:04Z</time>
      </trkpt>
      <trkpt lat="44.80768" lon="4.35248">
        <ele>1144</ele>
        <time>2018-08-04T12:14:04Z</time>
      </trkpt>
      <trkpt lat="44.80771" lon="4.35244">
        <ele>1144</ele>
        <time>2018-08-04T12:14:04Z</time>
      </trkpt>
      <trkpt lat="44.8077" lon="4.3524">
        <ele>1144</ele>
        <time>2018-08-04T12:14:04Z</time>
      </trkpt>
      <trkpt lat="44.80769" lon="4.35237">
        <ele>1144</ele>
        <time>2018-08-04T12:14:04Z</time>
      </trkpt>
      <trkpt lat="44.80776" lon="4.35232">
        <ele>1141</ele>
        <time>2018-08-04T12:14:36Z</time>
      </trkpt>
      <trkpt lat="44.80776" lon="4.3523">
        <ele>1141</ele>
        <time>2018-08-04T12:14:36Z</time>
      </trkpt>
      <trkpt lat="44.80776" lon="4.35229">
        <ele>1141</ele>
        <time>2018-08-04T12:14:36Z</time>
      </trkpt>
      <trkpt lat="44.80777" lon="4.35228">
        <ele>1141</ele>
        <time>2018-08-04T12:14:36Z</time>
      </trkpt>
      <trkpt lat="44.80779" lon="4.35224">
        <ele>1141</ele>
        <time>2018-08-04T12:14:36Z</time>
      </trkpt>
      <trkpt lat="44.80779" lon="4.35223">
        <ele>1141</ele>
        <time>2018-08-04T12:15:28Z</time>
      </trkpt>
      <trkpt lat="44.80779" lon="4.35223">
        <ele>1141</ele>
        <time>2018-08-04T12:15:28Z</time>
      </trkpt>
      <trkpt lat="44.80779" lon="4.35223">
        <ele>1141</ele>
        <time>2018-08-04T12:15:28Z</time>
      </trkpt>
      <trkpt lat="44.80785" lon="4.35226">
        <ele>1141</ele>
        <time>2018-08-04T12:15:28Z</time>
      </trkpt>
      <trkpt lat="44.80788" lon="4.35227">
        <ele>1141</ele>
        <time>2018-08-04T12:15:28Z</time>
      </trkpt>
      <trkpt lat="44.80791" lon="4.35229">
        <ele>1141</ele>
        <time>2018-08-04T12:16:28Z</time>
      </trkpt>
      <trkpt lat="44.80792" lon="4.35231">
        <ele>1142</ele>
        <time>2018-08-04T12:16:28Z</time>
      </trkpt>
      <trkpt lat="44.80793" lon="4.35232">
        <ele>1142</ele>
        <time>2018-08-04T12:16:28Z</time>
      </trkpt>
      <trkpt lat="44.80794" lon="4.35232">
        <ele>1142</ele>
        <time>2018-08-04T12:16:28Z</time>
      </trkpt>
      <trkpt lat="44.80796" lon="4.35233">
        <ele>1142</ele>
        <time>2018-08-04T12:16:28Z</time>
      </trkpt>
      <trkpt lat="44.80799" lon="4.35234">
        <ele>1142</ele>
        <time>2018-08-04T12:16:56Z</time>
      </trkpt>
      <trkpt lat="44.808" lon="4.35234">
        <ele>1142</ele>
        <time>2018-08-04T12:16:56Z</time>
      </trkpt>
      <trkpt lat="44.80802" lon="4.35235">
        <ele>1142</ele>
        <time>2018-08-04T12:16:56Z</time>
      </trkpt>
      <trkpt lat="44.80804" lon="4.35233">
        <ele>1142</ele>
        <time>2018-08-04T12:16:56Z</time>
      </trkpt>
      <trkpt lat="44.80807" lon="4.35229">
        <ele>1142</ele>
        <time>2018-08-04T12:16:56Z</time>
      </trkpt>
      <trkpt lat="44.80811" lon="4.35218">
        <ele>1142</ele>
        <time>2018-08-04T12:18:07Z</time>
      </trkpt>
      <trkpt lat="44.80811" lon="4.35216">
        <ele>1142</ele>
        <time>2018-08-04T12:18:07Z</time>
      </trkpt>
      <trkpt lat="44.8081" lon="4.35216">
        <ele>1142</ele>
        <time>2018-08-04T12:18:07Z</time>
      </trkpt>
      <trkpt lat="44.8081" lon="4.35215">
        <ele>1142</ele>
        <time>2018-08-04T12:18:07Z</time>
      </trkpt>
      <trkpt lat="44.80809" lon="4.35211">
        <ele>1142</ele>
        <time>2018-08-04T12:18:07Z</time>
      </trkpt>
      <trkpt lat="44.80811" lon="4.35213">
        <ele>1142</ele>
        <time>2018-08-04T12:24:52Z</time>
      </trkpt>
      <trkpt lat="44.80812" lon="4.35215">
        <ele>1142</ele>
        <time>2018-08-04T12:24:53Z</time>
      </trkpt>
      <trkpt lat="44.80814" lon="4.35216">
        <ele>1142</ele>
        <time>2018-08-04T12:24:54Z</time>
      </trkpt>
      <trkpt lat="44.80815" lon="4.35217">
        <ele>1142</ele>
        <time>2018-08-04T12:24:54Z</time>
      </trkpt>
      <trkpt lat="44.80819" lon="4.35218">
        <ele>1142</ele>
        <time>2018-08-04T12:24:55Z</time>
      </trkpt>
      <trkpt lat="44.80818" lon="4.35215">
        <ele>1142</ele>
        <time>2018-08-04T12:27:44Z</time>
      </trkpt>
      <trkpt lat="44.80817" lon="4.35215">
        <ele>1142</ele>
        <time>2018-08-04T12:27:45Z</time>
      </trkpt>
      <trkpt lat="44.80817" lon="4.35215">
        <ele>1142</ele>
        <time>2018-08-04T12:27:45Z</time>
      </trkpt>
      <trkpt lat="44.80817" lon="4.35215">
        <ele>1142</ele>
        <time>2018-08-04T12:27:45Z</time>
      </trkpt>
      <trkpt lat="44.80816" lon="4.35205">
        <ele>1141</ele>
        <time>2018-08-04T12:27:45Z</time>
      </trkpt>
      <trkpt lat="44.80816" lon="4.35201">
        <ele>1141</ele>
        <time>2018-08-04T12:28:32Z</time>
      </trkpt>
      <trkpt lat="44.80816" lon="4.35197">
        <ele>1141</ele>
        <time>2018-08-04T12:28:32Z</time>
      </trkpt>
      <trkpt lat="44.80819" lon="4.35193">
        <ele>1141</ele>
        <time>2018-08-04T12:28:33Z</time>
      </trkpt>
      <trkpt lat="44.8082" lon="4.35192">
        <ele>1140</ele>
        <time>2018-08-04T12:28:34Z</time>
      </trkpt>
      <trkpt lat="44.80814" lon="4.35169">
        <ele>1140</ele>
        <time>2018-08-04T12:28:34Z</time>
      </trkpt>
      <trkpt lat="44.80812" lon="4.35167">
        <ele>1140</ele>
        <time>2018-08-04T12:28:44Z</time>
      </trkpt>
      <trkpt lat="44.80811" lon="4.35166">
        <ele>1140</ele>
        <time>2018-08-04T12:28:44Z</time>
      </trkpt>
      <trkpt lat="44.80808" lon="4.35161">
        <ele>1140</ele>
        <time>2018-08-04T12:28:44Z</time>
      </trkpt>
      <trkpt lat="44.80805" lon="4.35159">
        <ele>1140</ele>
        <time>2018-08-04T12:28:44Z</time>
      </trkpt>
      <trkpt lat="44.80803" lon="4.35158">
        <ele>1140</ele>
        <time>2018-08-04T12:29:00Z</time>
      </trkpt>
      <trkpt lat="44.80799" lon="4.35155">
        <ele>1140</ele>
        <time>2018-08-04T12:29:00Z</time>
      </trkpt>
      <trkpt lat="44.80796" lon="4.35149">
        <ele>1140</ele>
        <time>2018-08-04T12:29:00Z</time>
      </trkpt>
      <trkpt lat="44.80797" lon="4.35145">
        <ele>1140</ele>
        <time>2018-08-04T12:29:00Z</time>
      </trkpt>
      <trkpt lat="44.80803" lon="4.35137">
        <ele>1140</ele>
        <time>2018-08-04T12:29:25Z</time>
      </trkpt>
      <trkpt lat="44.80805" lon="4.35133">
        <ele>1140</ele>
        <time>2018-08-04T12:29:25Z</time>
      </trkpt>
      <trkpt lat="44.80807" lon="4.35127">
        <ele>1140</ele>
        <time>2018-08-04T12:29:25Z</time>
      </trkpt>
      <trkpt lat="44.80808" lon="4.35119">
        <ele>1139</ele>
        <time>2018-08-04T12:29:25Z</time>
      </trkpt>
      <trkpt lat="44.80809" lon="4.35114">
        <ele>1139</ele>
        <time>2018-08-04T12:30:04Z</time>
      </trkpt>
      <trkpt lat="44.80809" lon="4.35096">
        <ele>1138</ele>
        <time>2018-08-04T12:30:04Z</time>
      </trkpt>
      <trkpt lat="44.80812" lon="4.35082">
        <ele>1138</ele>
        <time>2018-08-04T12:30:05Z</time>
      </trkpt>
      <trkpt lat="44.80817" lon="4.35067">
        <ele>1134</ele>
        <time>2018-08-04T12:30:06Z</time>
      </trkpt>
      <trkpt lat="44.80819" lon="4.35064">
        <ele>1134</ele>
        <time>2018-08-04T12:30:24Z</time>
      </trkpt>
      <trkpt lat="44.80821" lon="4.35062">
        <ele>1137</ele>
        <time>2018-08-04T12:30:25Z</time>
      </trkpt>
      <trkpt lat="44.80824" lon="4.3506">
        <ele>1137</ele>
        <time>2018-08-04T12:30:25Z</time>
      </trkpt>
      <trkpt lat="44.80826" lon="4.35043">
        <ele>1137</ele>
        <time>2018-08-04T12:30:26Z</time>
      </trkpt>
      <trkpt lat="44.80828" lon="4.35038">
        <ele>1134</ele>
        <time>2018-08-04T12:30:47Z</time>
      </trkpt>
      <trkpt lat="44.80829" lon="4.35033">
        <ele>1134</ele>
        <time>2018-08-04T12:30:47Z</time>
      </trkpt>
      <trkpt lat="44.8083" lon="4.35031">
        <ele>1134</ele>
        <time>2018-08-04T12:30:48Z</time>
      </trkpt>
      <trkpt lat="44.80837" lon="4.35006">
        <ele>1132</ele>
        <time>2018-08-04T12:30:49Z</time>
      </trkpt>
      <trkpt lat="44.80837" lon="4.34998">
        <ele>1132</ele>
        <time>2018-08-04T12:31:12Z</time>
      </trkpt>
      <trkpt lat="44.80839" lon="4.34992">
        <ele>1132</ele>
        <time>2018-08-04T12:31:12Z</time>
      </trkpt>
      <trkpt lat="44.80837" lon="4.34971">
        <ele>1131</ele>
        <time>2018-08-04T12:31:12Z</time>
      </trkpt>
      <trkpt lat="44.80837" lon="4.34969">
        <ele>1131</ele>
        <time>2018-08-04T12:31:12Z</time>
      </trkpt>
      <trkpt lat="44.80834" lon="4.34959">
        <ele>1131</ele>
        <time>2018-08-04T12:31:28Z</time>
      </trkpt>
      <trkpt lat="44.80833" lon="4.34956">
        <ele>1130</ele>
        <time>2018-08-04T12:31:28Z</time>
      </trkpt>
      <trkpt lat="44.80831" lon="4.34949">
        <ele>1130</ele>
        <time>2018-08-04T12:31:28Z</time>
      </trkpt>
      <trkpt lat="44.80829" lon="4.34943">
        <ele>1130</ele>
        <time>2018-08-04T12:31:28Z</time>
      </trkpt>
      <trkpt lat="44.80827" lon="4.34936">
        <ele>1130</ele>
        <time>2018-08-04T12:31:48Z</time>
      </trkpt>
      <trkpt lat="44.80826" lon="4.34928">
        <ele>1131</ele>
        <time>2018-08-04T12:31:48Z</time>
      </trkpt>
      <trkpt lat="44.80824" lon="4.34921">
        <ele>1131</ele>
        <time>2018-08-04T12:31:48Z</time>
      </trkpt>
      <trkpt lat="44.80824" lon="4.34917">
        <ele>1131</ele>
        <time>2018-08-04T12:31:48Z</time>
      </trkpt>
      <trkpt lat="44.80824" lon="4.3491">
        <ele>1131</ele>
        <time>2018-08-04T12:32:09Z</time>
      </trkpt>
      <trkpt lat="44.80822" lon="4.34902">
        <ele>1132</ele>
        <time>2018-08-04T12:32:09Z</time>
      </trkpt>
      <trkpt lat="44.80818" lon="4.34894">
        <ele>1129</ele>
        <time>2018-08-04T12:32:09Z</time>
      </trkpt>
      <trkpt lat="44.80812" lon="4.3488">
        <ele>1129</ele>
        <time>2018-08-04T12:32:09Z</time>
      </trkpt>
      <trkpt lat="44.80811" lon="4.34875">
        <ele>1128</ele>
        <time>2018-08-04T12:32:36Z</time>
      </trkpt>
      <trkpt lat="44.80811" lon="4.34866">
        <ele>1128</ele>
        <time>2018-08-04T12:32:37Z</time>
      </trkpt>
      <trkpt lat="44.80811" lon="4.34864">
        <ele>1128</ele>
        <time>2018-08-04T12:32:38Z</time>
      </trkpt>
      <trkpt lat="44.80801" lon="4.34842">
        <ele>1126</ele>
        <time>2018-08-04T12:32:39Z</time>
      </trkpt>
      <trkpt lat="44.80799" lon="4.34835">
        <ele>1126</ele>
        <time>2018-08-04T12:32:58Z</time>
      </trkpt>
      <trkpt lat="44.80796" lon="4.34827">
        <ele>1126</ele>
        <time>2018-08-04T12:32:58Z</time>
      </trkpt>
      <trkpt lat="44.80795" lon="4.34827">
        <ele>1126</ele>
        <time>2018-08-04T12:32:58Z</time>
      </trkpt>
      <trkpt lat="44.80792" lon="4.34814">
        <ele>1124</ele>
        <time>2018-08-04T12:32:58Z</time>
      </trkpt>
      <trkpt lat="44.80791" lon="4.34811">
        <ele>1120</ele>
        <time>2018-08-04T12:33:18Z</time>
      </trkpt>
      <trkpt lat="44.80789" lon="4.34807">
        <ele>1120</ele>
        <time>2018-08-04T12:33:18Z</time>
      </trkpt>
      <trkpt lat="44.80789" lon="4.34806">
        <ele>1120</ele>
        <time>2018-08-04T12:33:18Z</time>
      </trkpt>
      <trkpt lat="44.80788" lon="4.34802">
        <ele>1120</ele>
        <time>2018-08-04T12:33:18Z</time>
      </trkpt>
      <trkpt lat="44.80786" lon="4.34794">
        <ele>1120</ele>
        <time>2018-08-04T12:33:19Z</time>
      </trkpt>
      <trkpt lat="44.80787" lon="4.34792">
        <ele>1120</ele>
        <time>2018-08-04T12:33:40Z</time>
      </trkpt>
      <trkpt lat="44.80784" lon="4.3477">
        <ele>1120</ele>
        <time>2018-08-04T12:33:40Z</time>
      </trkpt>
      <trkpt lat="44.8078" lon="4.34758">
        <ele>1121</ele>
        <time>2018-08-04T12:33:40Z</time>
      </trkpt>
      <trkpt lat="44.8078" lon="4.34756">
        <ele>1121</ele>
        <time>2018-08-04T12:33:40Z</time>
      </trkpt>
      <trkpt lat="44.80778" lon="4.34749">
        <ele>1121</ele>
        <time>2018-08-04T12:33:58Z</time>
      </trkpt>
      <trkpt lat="44.80777" lon="4.34741">
        <ele>1121</ele>
        <time>2018-08-04T12:33:58Z</time>
      </trkpt>
      <trkpt lat="44.80777" lon="4.34735">
        <ele>1122</ele>
        <time>2018-08-04T12:33:59Z</time>
      </trkpt>
      <trkpt lat="44.80774" lon="4.34728">
        <ele>1122</ele>
        <time>2018-08-04T12:33:59Z</time>
      </trkpt>
      <trkpt lat="44.80773" lon="4.34722">
        <ele>1122</ele>
        <time>2018-08-04T12:34:19Z</time>
      </trkpt>
      <trkpt lat="44.80772" lon="4.34706">
        <ele>1122</ele>
        <time>2018-08-04T12:34:19Z</time>
      </trkpt>
      <trkpt lat="44.80772" lon="4.34704">
        <ele>1122</ele>
        <time>2018-08-04T12:34:19Z</time>
      </trkpt>
      <trkpt lat="44.80774" lon="4.34693">
        <ele>1122</ele>
        <time>2018-08-04T12:34:19Z</time>
      </trkpt>
      <trkpt lat="44.80774" lon="4.34691">
        <ele>1122</ele>
        <time>2018-08-04T12:34:32Z</time>
      </trkpt>
      <trkpt lat="44.80777" lon="4.34682">
        <ele>1122</ele>
        <time>2018-08-04T12:34:33Z</time>
      </trkpt>
      <trkpt lat="44.80778" lon="4.34678">
        <ele>1122</ele>
        <time>2018-08-04T12:34:34Z</time>
      </trkpt>
      <trkpt lat="44.80779" lon="4.34672">
        <ele>1122</ele>
        <time>2018-08-04T12:34:34Z</time>
      </trkpt>
      <trkpt lat="44.8078" lon="4.34664">
        <ele>1122</ele>
        <time>2018-08-04T12:34:56Z</time>
      </trkpt>
      <trkpt lat="44.80783" lon="4.34658">
        <ele>1122</ele>
        <time>2018-08-04T12:34:57Z</time>
      </trkpt>
      <trkpt lat="44.80785" lon="4.34654">
        <ele>1122</ele>
        <time>2018-08-04T12:34:57Z</time>
      </trkpt>
      <trkpt lat="44.80787" lon="4.3464">
        <ele>1121</ele>
        <time>2018-08-04T12:34:58Z</time>
      </trkpt>
      <trkpt lat="44.80787" lon="4.34634">
        <ele>1121</ele>
        <time>2018-08-04T12:35:19Z</time>
      </trkpt>
      <trkpt lat="44.80786" lon="4.3463">
        <ele>1121</ele>
        <time>2018-08-04T12:35:20Z</time>
      </trkpt>
      <trkpt lat="44.80785" lon="4.34629">
        <ele>1121</ele>
        <time>2018-08-04T12:35:20Z</time>
      </trkpt>
      <trkpt lat="44.80775" lon="4.34608">
        <ele>1121</ele>
        <time>2018-08-04T12:35:20Z</time>
      </trkpt>
      <trkpt lat="44.80762" lon="4.34605">
        <ele>1121</ele>
        <time>2018-08-04T12:36:56Z</time>
      </trkpt>
      <trkpt lat="44.80762" lon="4.34602">
        <ele>1121</ele>
        <time>2018-08-04T12:36:56Z</time>
      </trkpt>
      <trkpt lat="44.80762" lon="4.34597">
        <ele>1121</ele>
        <time>2018-08-04T12:36:56Z</time>
      </trkpt>
      <trkpt lat="44.80763" lon="4.34593">
        <ele>1121</ele>
        <time>2018-08-04T12:36:56Z</time>
      </trkpt>
      <trkpt lat="44.80763" lon="4.34593">
        <ele>1121</ele>
        <time>2018-08-04T12:36:56Z</time>
      </trkpt>
      <trkpt lat="44.80767" lon="4.34604">
        <ele>1121</ele>
        <time>2018-08-04T12:39:08Z</time>
      </trkpt>
      <trkpt lat="44.80767" lon="4.34606">
        <ele>1121</ele>
        <time>2018-08-04T12:39:08Z</time>
      </trkpt>
      <trkpt lat="44.80767" lon="4.34606">
        <ele>1121</ele>
        <time>2018-08-04T12:39:08Z</time>
      </trkpt>
      <trkpt lat="44.80772" lon="4.34611">
        <ele>1121</ele>
        <time>2018-08-04T12:39:08Z</time>
      </trkpt>
      <trkpt lat="44.80773" lon="4.34612">
        <ele>1121</ele>
        <time>2018-08-04T12:39:08Z</time>
      </trkpt>
      <trkpt lat="44.80775" lon="4.34613">
        <ele>1121</ele>
        <time>2018-08-04T12:39:40Z</time>
      </trkpt>
      <trkpt lat="44.80777" lon="4.34614">
        <ele>1121</ele>
        <time>2018-08-04T12:39:40Z</time>
      </trkpt>
      <trkpt lat="44.80777" lon="4.34614">
        <ele>1121</ele>
        <time>2018-08-04T12:39:40Z</time>
      </trkpt>
      <trkpt lat="44.8078" lon="4.34618">
        <ele>1121</ele>
        <time>2018-08-04T12:39:40Z</time>
      </trkpt>
      <trkpt lat="44.80781" lon="4.3462">
        <ele>1121</ele>
        <time>2018-08-04T12:39:40Z</time>
      </trkpt>
      <trkpt lat="44.80787" lon="4.34636">
        <ele>1121</ele>
        <time>2018-08-04T12:40:08Z</time>
      </trkpt>
      <trkpt lat="44.80788" lon="4.34647">
        <ele>1121</ele>
        <time>2018-08-04T12:40:08Z</time>
      </trkpt>
      <trkpt lat="44.80786" lon="4.34652">
        <ele>1121</ele>
        <time>2018-08-04T12:40:08Z</time>
      </trkpt>
      <trkpt lat="44.80785" lon="4.34656">
        <ele>1122</ele>
        <time>2018-08-04T12:40:08Z</time>
      </trkpt>
      <trkpt lat="44.80784" lon="4.34665">
        <ele>1122</ele>
        <time>2018-08-04T12:40:25Z</time>
      </trkpt>
      <trkpt lat="44.80781" lon="4.34672">
        <ele>1122</ele>
        <time>2018-08-04T12:40:25Z</time>
      </trkpt>
      <trkpt lat="44.80778" lon="4.34678">
        <ele>1122</ele>
        <time>2018-08-04T12:40:25Z</time>
      </trkpt>
      <trkpt lat="44.80779" lon="4.34683">
        <ele>1122</ele>
        <time>2018-08-04T12:40:25Z</time>
      </trkpt>
      <trkpt lat="44.80777" lon="4.34689">
        <ele>1122</ele>
        <time>2018-08-04T12:40:49Z</time>
      </trkpt>
      <trkpt lat="44.80777" lon="4.34696">
        <ele>1122</ele>
        <time>2018-08-04T12:40:50Z</time>
      </trkpt>
      <trkpt lat="44.80776" lon="4.34702">
        <ele>1122</ele>
        <time>2018-08-04T12:40:50Z</time>
      </trkpt>
      <trkpt lat="44.80777" lon="4.34721">
        <ele>1122</ele>
        <time>2018-08-04T12:40:50Z</time>
      </trkpt>
      <trkpt lat="44.80777" lon="4.34727">
        <ele>1122</ele>
        <time>2018-08-04T12:41:08Z</time>
      </trkpt>
      <trkpt lat="44.80777" lon="4.34736">
        <ele>1122</ele>
        <time>2018-08-04T12:41:08Z</time>
      </trkpt>
      <trkpt lat="44.80779" lon="4.34743">
        <ele>1121</ele>
        <time>2018-08-04T12:41:08Z</time>
      </trkpt>
      <trkpt lat="44.8078" lon="4.34747">
        <ele>1121</ele>
        <time>2018-08-04T12:41:08Z</time>
      </trkpt>
      <trkpt lat="44.80781" lon="4.34752">
        <ele>1121</ele>
        <time>2018-08-04T12:41:24Z</time>
      </trkpt>
      <trkpt lat="44.80783" lon="4.3476">
        <ele>1121</ele>
        <time>2018-08-04T12:41:24Z</time>
      </trkpt>
      <trkpt lat="44.80785" lon="4.34765">
        <ele>1120</ele>
        <time>2018-08-04T12:41:24Z</time>
      </trkpt>
      <trkpt lat="44.80786" lon="4.34772">
        <ele>1120</ele>
        <time>2018-08-04T12:41:24Z</time>
      </trkpt>
      <trkpt lat="44.80788" lon="4.34778">
        <ele>1120</ele>
        <time>2018-08-04T12:41:40Z</time>
      </trkpt>
      <trkpt lat="44.8079" lon="4.34783">
        <ele>1120</ele>
        <time>2018-08-04T12:41:40Z</time>
      </trkpt>
      <trkpt lat="44.80791" lon="4.34789">
        <ele>1120</ele>
        <time>2018-08-04T12:41:40Z</time>
      </trkpt>
      <trkpt lat="44.80792" lon="4.34793">
        <ele>1120</ele>
        <time>2018-08-04T12:41:40Z</time>
      </trkpt>
      <trkpt lat="44.80794" lon="4.34797">
        <ele>1124</ele>
        <time>2018-08-04T12:41:56Z</time>
      </trkpt>
      <trkpt lat="44.80796" lon="4.34806">
        <ele>1124</ele>
        <time>2018-08-04T12:41:56Z</time>
      </trkpt>
      <trkpt lat="44.80796" lon="4.34807">
        <ele>1124</ele>
        <time>2018-08-04T12:41:56Z</time>
      </trkpt>
      <trkpt lat="44.80798" lon="4.34813">
        <ele>1124</ele>
        <time>2018-08-04T12:41:56Z</time>
      </trkpt>
      <trkpt lat="44.808" lon="4.34823">
        <ele>1126</ele>
        <time>2018-08-04T12:42:12Z</time>
      </trkpt>
      <trkpt lat="44.80801" lon="4.3483">
        <ele>1126</ele>
        <time>2018-08-04T12:42:13Z</time>
      </trkpt>
      <trkpt lat="44.80804" lon="4.34838">
        <ele>1126</ele>
        <time>2018-08-04T12:42:13Z</time>
      </trkpt>
      <trkpt lat="44.80805" lon="4.34841">
        <ele>1126</ele>
        <time>2018-08-04T12:42:14Z</time>
      </trkpt>
      <trkpt lat="44.80807" lon="4.34845">
        <ele>1126</ele>
        <time>2018-08-04T12:42:34Z</time>
      </trkpt>
      <trkpt lat="44.8081" lon="4.34854">
        <ele>1128</ele>
        <time>2018-08-04T12:42:34Z</time>
      </trkpt>
      <trkpt lat="44.80811" lon="4.34861">
        <ele>1128</ele>
        <time>2018-08-04T12:42:34Z</time>
      </trkpt>
      <trkpt lat="44.80813" lon="4.34866">
        <ele>1128</ele>
        <time>2018-08-04T12:42:34Z</time>
      </trkpt>
      <trkpt lat="44.80813" lon="4.3487">
        <ele>1128</ele>
        <time>2018-08-04T12:42:48Z</time>
      </trkpt>
      <trkpt lat="44.80816" lon="4.3488">
        <ele>1129</ele>
        <time>2018-08-04T12:42:48Z</time>
      </trkpt>
      <trkpt lat="44.80816" lon="4.34882">
        <ele>1129</ele>
        <time>2018-08-04T12:42:48Z</time>
      </trkpt>
      <trkpt lat="44.80817" lon="4.34888">
        <ele>1129</ele>
        <time>2018-08-04T12:42:48Z</time>
      </trkpt>
      <trkpt lat="44.80818" lon="4.34907">
        <ele>1127</ele>
        <time>2018-08-04T12:43:08Z</time>
      </trkpt>
      <trkpt lat="44.80821" lon="4.34918">
        <ele>1131</ele>
        <time>2018-08-04T12:43:08Z</time>
      </trkpt>
      <trkpt lat="44.80821" lon="4.34919">
        <ele>1131</ele>
        <time>2018-08-04T12:43:08Z</time>
      </trkpt>
      <trkpt lat="44.80821" lon="4.34925">
        <ele>1131</ele>
        <time>2018-08-04T12:43:08Z</time>
      </trkpt>
      <trkpt lat="44.80824" lon="4.34932">
        <ele>1130</ele>
        <time>2018-08-04T12:43:24Z</time>
      </trkpt>
      <trkpt lat="44.80826" lon="4.34938">
        <ele>1130</ele>
        <time>2018-08-04T12:43:24Z</time>
      </trkpt>
      <trkpt lat="44.80826" lon="4.34941">
        <ele>1130</ele>
        <time>2018-08-04T12:43:24Z</time>
      </trkpt>
      <trkpt lat="44.80828" lon="4.34947">
        <ele>1130</ele>
        <time>2018-08-04T12:43:24Z</time>
      </trkpt>
      <trkpt lat="44.80828" lon="4.34954">
        <ele>1130</ele>
        <time>2018-08-04T12:43:40Z</time>
      </trkpt>
      <trkpt lat="44.80829" lon="4.34961">
        <ele>1131</ele>
        <time>2018-08-04T12:43:40Z</time>
      </trkpt>
      <trkpt lat="44.80831" lon="4.34964">
        <ele>1131</ele>
        <time>2018-08-04T12:43:40Z</time>
      </trkpt>
      <trkpt lat="44.80833" lon="4.34968">
        <ele>1131</ele>
        <time>2018-08-04T12:43:40Z</time>
      </trkpt>
      <trkpt lat="44.80835" lon="4.34974">
        <ele>1131</ele>
        <time>2018-08-04T12:43:56Z</time>
      </trkpt>
      <trkpt lat="44.80837" lon="4.34981">
        <ele>1131</ele>
        <time>2018-08-04T12:43:56Z</time>
      </trkpt>
      <trkpt lat="44.80838" lon="4.34986">
        <ele>1131</ele>
        <time>2018-08-04T12:43:56Z</time>
      </trkpt>
      <trkpt lat="44.80838" lon="4.34989">
        <ele>1132</ele>
        <time>2018-08-04T12:43:56Z</time>
      </trkpt>
      <trkpt lat="44.80838" lon="4.34996">
        <ele>1132</ele>
        <time>2018-08-04T12:44:12Z</time>
      </trkpt>
      <trkpt lat="44.80837" lon="4.35004">
        <ele>1132</ele>
        <time>2018-08-04T12:44:12Z</time>
      </trkpt>
      <trkpt lat="44.80837" lon="4.35009">
        <ele>1132</ele>
        <time>2018-08-04T12:44:12Z</time>
      </trkpt>
      <trkpt lat="44.80837" lon="4.35014">
        <ele>1134</ele>
        <time>2018-08-04T12:44:12Z</time>
      </trkpt>
      <trkpt lat="44.80835" lon="4.35019">
        <ele>1134</ele>
        <time>2018-08-04T12:44:28Z</time>
      </trkpt>
      <trkpt lat="44.80834" lon="4.35025">
        <ele>1134</ele>
        <time>2018-08-04T12:44:28Z</time>
      </trkpt>
      <trkpt lat="44.80832" lon="4.35028">
        <ele>1134</ele>
        <time>2018-08-04T12:44:28Z</time>
      </trkpt>
      <trkpt lat="44.80831" lon="4.35031">
        <ele>1134</ele>
        <time>2018-08-04T12:44:28Z</time>
      </trkpt>
      <trkpt lat="44.80828" lon="4.35039">
        <ele>1134</ele>
        <time>2018-08-04T12:44:44Z</time>
      </trkpt>
      <trkpt lat="44.80824" lon="4.35046">
        <ele>1137</ele>
        <time>2018-08-04T12:44:44Z</time>
      </trkpt>
      <trkpt lat="44.80822" lon="4.35054">
        <ele>1137</ele>
        <time>2018-08-04T12:44:44Z</time>
      </trkpt>
      <trkpt lat="44.8082" lon="4.35062">
        <ele>1137</ele>
        <time>2018-08-04T12:44:44Z</time>
      </trkpt>
      <trkpt lat="44.80819" lon="4.35067">
        <ele>1134</ele>
        <time>2018-08-04T12:45:04Z</time>
      </trkpt>
      <trkpt lat="44.80817" lon="4.35072">
        <ele>1138</ele>
        <time>2018-08-04T12:45:04Z</time>
      </trkpt>
      <trkpt lat="44.80816" lon="4.35076">
        <ele>1138</ele>
        <time>2018-08-04T12:45:04Z</time>
      </trkpt>
      <trkpt lat="44.80814" lon="4.35077">
        <ele>1138</ele>
        <time>2018-08-04T12:45:04Z</time>
      </trkpt>
      <trkpt lat="44.80811" lon="4.35075">
        <ele>1138</ele>
        <time>2018-08-04T12:45:04Z</time>
      </trkpt>
      <trkpt lat="44.80809" lon="4.35074">
        <ele>1138</ele>
        <time>2018-08-04T12:45:24Z</time>
      </trkpt>
      <trkpt lat="44.8081" lon="4.35074">
        <ele>1138</ele>
        <time>2018-08-04T12:45:24Z</time>
      </trkpt>
      <trkpt lat="44.8081" lon="4.35079">
        <ele>1138</ele>
        <time>2018-08-04T12:45:24Z</time>
      </trkpt>
      <trkpt lat="44.8081" lon="4.35084">
        <ele>1138</ele>
        <time>2018-08-04T12:45:24Z</time>
      </trkpt>
      <trkpt lat="44.80808" lon="4.3509">
        <ele>1138</ele>
        <time>2018-08-04T12:45:24Z</time>
      </trkpt>
      <trkpt lat="44.80808" lon="4.35096">
        <ele>1138</ele>
        <time>2018-08-04T12:45:58Z</time>
      </trkpt>
      <trkpt lat="44.80808" lon="4.35102">
        <ele>1139</ele>
        <time>2018-08-04T12:45:59Z</time>
      </trkpt>
      <trkpt lat="44.80802" lon="4.35117">
        <ele>1139</ele>
        <time>2018-08-04T12:45:59Z</time>
      </trkpt>
      <trkpt lat="44.80799" lon="4.35143">
        <ele>1140</ele>
        <time>2018-08-04T12:45:59Z</time>
      </trkpt>
      <trkpt lat="44.80797" lon="4.35149">
        <ele>1140</ele>
        <time>2018-08-04T12:50:14Z</time>
      </trkpt>
      <trkpt lat="44.80795" lon="4.3515">
        <ele>1140</ele>
        <time>2018-08-04T12:50:15Z</time>
      </trkpt>
      <trkpt lat="44.80796" lon="4.35151">
        <ele>1140</ele>
        <time>2018-08-04T12:50:16Z</time>
      </trkpt>
      <trkpt lat="44.80795" lon="4.35162">
        <ele>1140</ele>
        <time>2018-08-04T12:50:16Z</time>
      </trkpt>
      <trkpt lat="44.80795" lon="4.35163">
        <ele>1140</ele>
        <time>2018-08-04T12:50:17Z</time>
      </trkpt>
      <trkpt lat="44.80793" lon="4.35169">
        <ele>1140</ele>
        <time>2018-08-04T12:51:04Z</time>
      </trkpt>
      <trkpt lat="44.80793" lon="4.35171">
        <ele>1140</ele>
        <time>2018-08-04T12:51:04Z</time>
      </trkpt>
      <trkpt lat="44.80793" lon="4.35173">
        <ele>1140</ele>
        <time>2018-08-04T12:51:04Z</time>
      </trkpt>
      <trkpt lat="44.80793" lon="4.35175">
        <ele>1140</ele>
        <time>2018-08-04T12:51:04Z</time>
      </trkpt>
      <trkpt lat="44.80793" lon="4.35178">
        <ele>1140</ele>
        <time>2018-08-04T12:51:04Z</time>
      </trkpt>
      <trkpt lat="44.8079" lon="4.35187">
        <ele>1139</ele>
        <time>2018-08-04T12:55:35Z</time>
      </trkpt>
      <trkpt lat="44.8079" lon="4.35187">
        <ele>1139</ele>
        <time>2018-08-04T12:55:36Z</time>
      </trkpt>
      <trkpt lat="44.8079" lon="4.35187">
        <ele>1139</ele>
        <time>2018-08-04T12:55:37Z</time>
      </trkpt>
      <trkpt lat="44.80787" lon="4.35186">
        <ele>1139</ele>
        <time>2018-08-04T12:55:38Z</time>
      </trkpt>
      <trkpt lat="44.80784" lon="4.35187">
        <ele>1139</ele>
        <time>2018-08-04T12:55:39Z</time>
      </trkpt>
      <trkpt lat="44.80784" lon="4.35186">
        <ele>1139</ele>
        <time>2018-08-04T12:57:42Z</time>
      </trkpt>
      <trkpt lat="44.80785" lon="4.35188">
        <ele>1139</ele>
        <time>2018-08-04T12:57:42Z</time>
      </trkpt>
      <trkpt lat="44.80786" lon="4.35189">
        <ele>1139</ele>
        <time>2018-08-04T12:57:43Z</time>
      </trkpt>
      <trkpt lat="44.80787" lon="4.35189">
        <ele>1139</ele>
        <time>2018-08-04T12:57:43Z</time>
      </trkpt>
      <trkpt lat="44.8079" lon="4.35199">
        <ele>1139</ele>
        <time>2018-08-04T12:57:43Z</time>
      </trkpt>
      <trkpt lat="44.80789" lon="4.35202">
        <ele>1139</ele>
        <time>2018-08-04T12:58:01Z</time>
      </trkpt>
      <trkpt lat="44.80789" lon="4.35205">
        <ele>1139</ele>
        <time>2018-08-04T12:58:01Z</time>
      </trkpt>
      <trkpt lat="44.80785" lon="4.35215">
        <ele>1141</ele>
        <time>2018-08-04T12:58:01Z</time>
      </trkpt>
      <trkpt lat="44.80784" lon="4.35221">
        <ele>1141</ele>
        <time>2018-08-04T12:58:01Z</time>
      </trkpt>
      <trkpt lat="44.80784" lon="4.35228">
        <ele>1141</ele>
        <time>2018-08-04T12:58:22Z</time>
      </trkpt>
      <trkpt lat="44.80783" lon="4.35229">
        <ele>1141</ele>
        <time>2018-08-04T12:58:22Z</time>
      </trkpt>
      <trkpt lat="44.80778" lon="4.35233">
        <ele>1141</ele>
        <time>2018-08-04T12:58:22Z</time>
      </trkpt>
      <trkpt lat="44.80777" lon="4.35234">
        <ele>1141</ele>
        <time>2018-08-04T12:58:22Z</time>
      </trkpt>
      <trkpt lat="44.80773" lon="4.35244">
        <ele>1144</ele>
        <time>2018-08-04T12:58:22Z</time>
      </trkpt>
      <trkpt lat="44.80771" lon="4.35247">
        <ele>1144</ele>
        <time>2018-08-04T12:58:41Z</time>
      </trkpt>
      <trkpt lat="44.80769" lon="4.35254">
        <ele>1144</ele>
        <time>2018-08-04T12:58:41Z</time>
      </trkpt>
      <trkpt lat="44.80768" lon="4.35254">
        <ele>1144</ele>
        <time>2018-08-04T12:58:41Z</time>
      </trkpt>
      <trkpt lat="44.80768" lon="4.35258">
        <ele>1144</ele>
        <time>2018-08-04T12:58:41Z</time>
      </trkpt>
      <trkpt lat="44.80769" lon="4.35263">
        <ele>1144</ele>
        <time>2018-08-04T12:58:41Z</time>
      </trkpt>
      <trkpt lat="44.80775" lon="4.35284">
        <ele>1146</ele>
        <time>2018-08-04T12:59:09Z</time>
      </trkpt>
      <trkpt lat="44.8078" lon="4.3529">
        <ele>1146</ele>
        <time>2018-08-04T12:59:10Z</time>
      </trkpt>
      <trkpt lat="44.80791" lon="4.35298">
        <ele>1148</ele>
        <time>2018-08-04T12:59:11Z</time>
      </trkpt>
      <trkpt lat="44.80792" lon="4.35299">
        <ele>1148</ele>
        <time>2018-08-04T12:59:11Z</time>
      </trkpt>
      <trkpt lat="44.80796" lon="4.353">
        <ele>1148</ele>
        <time>2018-08-04T13:00:15Z</time>
      </trkpt>
      <trkpt lat="44.80804" lon="4.35309">
        <ele>1148</ele>
        <time>2018-08-04T13:00:15Z</time>
      </trkpt>
      <trkpt lat="44.80806" lon="4.35311">
        <ele>1148</ele>
        <time>2018-08-04T13:00:15Z</time>
      </trkpt>
      <trkpt lat="44.80814" lon="4.35325">
        <ele>1150</ele>
        <time>2018-08-04T13:00:15Z</time>
      </trkpt>
      <trkpt lat="44.80828" lon="4.35339">
        <ele>1147</ele>
        <time>2018-08-04T13:00:15Z</time>
      </trkpt>
      <trkpt lat="44.80829" lon="4.3534">
        <ele>1147</ele>
        <time>2018-08-04T13:00:28Z</time>
      </trkpt>
      <trkpt lat="44.80832" lon="4.35342">
        <ele>1147</ele>
        <time>2018-08-04T13:00:28Z</time>
      </trkpt>
      <trkpt lat="44.80838" lon="4.35351">
        <ele>1152</ele>
        <time>2018-08-04T13:00:28Z</time>
      </trkpt>
      <trkpt lat="44.8084" lon="4.35354">
        <ele>1152</ele>
        <time>2018-08-04T13:00:28Z</time>
      </trkpt>
      <trkpt lat="44.80844" lon="4.35359">
        <ele>1152</ele>
        <time>2018-08-04T13:00:56Z</time>
      </trkpt>
      <trkpt lat="44.80852" lon="4.35366">
        <ele>1146</ele>
        <time>2018-08-04T13:00:57Z</time>
      </trkpt>
      <trkpt lat="44.80851" lon="4.35371">
        <ele>1146</ele>
        <time>2018-08-04T13:00:58Z</time>
      </trkpt>
      <trkpt lat="44.80853" lon="4.35379">
        <ele>1153</ele>
        <time>2018-08-04T13:00:59Z</time>
      </trkpt>
      <trkpt lat="44.80854" lon="4.35382">
        <ele>1153</ele>
        <time>2018-08-04T13:01:20Z</time>
      </trkpt>
      <trkpt lat="44.80854" lon="4.35383">
        <ele>1153</ele>
        <time>2018-08-04T13:01:20Z</time>
      </trkpt>
      <trkpt lat="44.80855" lon="4.35385">
        <ele>1153</ele>
        <time>2018-08-04T13:01:20Z</time>
      </trkpt>
      <trkpt lat="44.80856" lon="4.35388">
        <ele>1153</ele>
        <time>2018-08-04T13:01:20Z</time>
      </trkpt>
      <trkpt lat="44.8086" lon="4.35404">
        <ele>1155</ele>
        <time>2018-08-04T13:01:20Z</time>
      </trkpt>
      <trkpt lat="44.8086" lon="4.35404">
        <ele>1155</ele>
        <time>2018-08-04T13:01:32Z</time>
      </trkpt>
      <trkpt lat="44.80861" lon="4.35405">
        <ele>1155</ele>
        <time>2018-08-04T13:01:32Z</time>
      </trkpt>
      <trkpt lat="44.80864" lon="4.35411">
        <ele>1155</ele>
        <time>2018-08-04T13:01:32Z</time>
      </trkpt>
      <trkpt lat="44.80866" lon="4.35417">
        <ele>1155</ele>
        <time>2018-08-04T13:01:32Z</time>
      </trkpt>
      <trkpt lat="44.80867" lon="4.35422">
        <ele>1155</ele>
        <time>2018-08-04T13:01:48Z</time>
      </trkpt>
      <trkpt lat="44.80869" lon="4.35428">
        <ele>1155</ele>
        <time>2018-08-04T13:01:48Z</time>
      </trkpt>
      <trkpt lat="44.80869" lon="4.3543">
        <ele>1155</ele>
        <time>2018-08-04T13:01:48Z</time>
      </trkpt>
      <trkpt lat="44.8087" lon="4.35437">
        <ele>1160</ele>
        <time>2018-08-04T13:01:48Z</time>
      </trkpt>
      <trkpt lat="44.8087" lon="4.35441">
        <ele>1160</ele>
        <time>2018-08-04T13:02:04Z</time>
      </trkpt>
      <trkpt lat="44.80871" lon="4.35446">
        <ele>1160</ele>
        <time>2018-08-04T13:02:04Z</time>
      </trkpt>
      <trkpt lat="44.80872" lon="4.35451">
        <ele>1160</ele>
        <time>2018-08-04T13:02:04Z</time>
      </trkpt>
      <trkpt lat="44.80872" lon="4.35455">
        <ele>1160</ele>
        <time>2018-08-04T13:02:04Z</time>
      </trkpt>
      <trkpt lat="44.80872" lon="4.35461">
        <ele>1161</ele>
        <time>2018-08-04T13:02:20Z</time>
      </trkpt>
      <trkpt lat="44.80872" lon="4.35466">
        <ele>1161</ele>
        <time>2018-08-04T13:02:20Z</time>
      </trkpt>
      <trkpt lat="44.80872" lon="4.35471">
        <ele>1161</ele>
        <time>2018-08-04T13:02:20Z</time>
      </trkpt>
      <trkpt lat="44.80871" lon="4.35476">
        <ele>1161</ele>
        <time>2018-08-04T13:02:20Z</time>
      </trkpt>
      <trkpt lat="44.80872" lon="4.35482">
        <ele>1161</ele>
        <time>2018-08-04T13:02:36Z</time>
      </trkpt>
      <trkpt lat="44.80873" lon="4.35487">
        <ele>1163</ele>
        <time>2018-08-04T13:02:36Z</time>
      </trkpt>
      <trkpt lat="44.80872" lon="4.35492">
        <ele>1163</ele>
        <time>2018-08-04T13:02:36Z</time>
      </trkpt>
      <trkpt lat="44.80872" lon="4.35497">
        <ele>1163</ele>
        <time>2018-08-04T13:02:36Z</time>
      </trkpt>
      <trkpt lat="44.80872" lon="4.35502">
        <ele>1163</ele>
        <time>2018-08-04T13:02:52Z</time>
      </trkpt>
      <trkpt lat="44.80871" lon="4.35507">
        <ele>1163</ele>
        <time>2018-08-04T13:02:52Z</time>
      </trkpt>
      <trkpt lat="44.80869" lon="4.35513">
        <ele>1163</ele>
        <time>2018-08-04T13:02:52Z</time>
      </trkpt>
      <trkpt lat="44.80868" lon="4.35518">
        <ele>1162</ele>
        <time>2018-08-04T13:02:52Z</time>
      </trkpt>
      <trkpt lat="44.80866" lon="4.35522">
        <ele>1162</ele>
        <time>2018-08-04T13:03:08Z</time>
      </trkpt>
      <trkpt lat="44.80863" lon="4.35525">
        <ele>1162</ele>
        <time>2018-08-04T13:03:08Z</time>
      </trkpt>
      <trkpt lat="44.80859" lon="4.35526">
        <ele>1162</ele>
        <time>2018-08-04T13:03:08Z</time>
      </trkpt>
      <trkpt lat="44.80855" lon="4.35528">
        <ele>1162</ele>
        <time>2018-08-04T13:03:08Z</time>
      </trkpt>
      <trkpt lat="44.80852" lon="4.35529">
        <ele>1162</ele>
        <time>2018-08-04T13:03:29Z</time>
      </trkpt>
      <trkpt lat="44.80849" lon="4.3553">
        <ele>1162</ele>
        <time>2018-08-04T13:03:29Z</time>
      </trkpt>
      <trkpt lat="44.80846" lon="4.35532">
        <ele>1164</ele>
        <time>2018-08-04T13:03:29Z</time>
      </trkpt>
      <trkpt lat="44.80837" lon="4.35533">
        <ele>1164</ele>
        <time>2018-08-04T13:03:29Z</time>
      </trkpt>
      <trkpt lat="44.80833" lon="4.35533">
        <ele>1164</ele>
        <time>2018-08-04T13:03:52Z</time>
      </trkpt>
      <trkpt lat="44.80824" lon="4.35533">
        <ele>1164</ele>
        <time>2018-08-04T13:03:53Z</time>
      </trkpt>
      <trkpt lat="44.80815" lon="4.35531">
        <ele>1167</ele>
        <time>2018-08-04T13:03:53Z</time>
      </trkpt>
      <trkpt lat="44.80814" lon="4.35531">
        <ele>1167</ele>
        <time>2018-08-04T13:03:54Z</time>
      </trkpt>
      <trkpt lat="44.80811" lon="4.3553">
        <ele>1167</ele>
        <time>2018-08-04T13:04:16Z</time>
      </trkpt>
      <trkpt lat="44.80808" lon="4.3553">
        <ele>1167</ele>
        <time>2018-08-04T13:04:16Z</time>
      </trkpt>
      <trkpt lat="44.80805" lon="4.35529">
        <ele>1167</ele>
        <time>2018-08-04T13:04:16Z</time>
      </trkpt>
      <trkpt lat="44.80803" lon="4.35529">
        <ele>1167</ele>
        <time>2018-08-04T13:04:16Z</time>
      </trkpt>
      <trkpt lat="44.80797" lon="4.35528">
        <ele>1167</ele>
        <time>2018-08-04T13:04:16Z</time>
      </trkpt>
      <trkpt lat="44.80793" lon="4.35525">
        <ele>1167</ele>
        <time>2018-08-04T13:04:35Z</time>
      </trkpt>
      <trkpt lat="44.8079" lon="4.35523">
        <ele>1170</ele>
        <time>2018-08-04T13:04:35Z</time>
      </trkpt>
      <trkpt lat="44.80785" lon="4.35521">
        <ele>1170</ele>
        <time>2018-08-04T13:04:35Z</time>
      </trkpt>
      <trkpt lat="44.8078" lon="4.35521">
        <ele>1170</ele>
        <time>2018-08-04T13:04:35Z</time>
      </trkpt>
      <trkpt lat="44.80773" lon="4.35524">
        <ele>1170</ele>
        <time>2018-08-04T13:05:18Z</time>
      </trkpt>
      <trkpt lat="44.80773" lon="4.35525">
        <ele>1170</ele>
        <time>2018-08-04T13:05:19Z</time>
      </trkpt>
      <trkpt lat="44.80773" lon="4.35527">
        <ele>1170</ele>
        <time>2018-08-04T13:05:19Z</time>
      </trkpt>
      <trkpt lat="44.8077" lon="4.35536">
        <ele>1170</ele>
        <time>2018-08-04T13:05:19Z</time>
      </trkpt>
      <trkpt lat="44.80769" lon="4.35539">
        <ele>1170</ele>
        <time>2018-08-04T13:05:42Z</time>
      </trkpt>
      <trkpt lat="44.80765" lon="4.35549">
        <ele>1166</ele>
        <time>2018-08-04T13:05:43Z</time>
      </trkpt>
      <trkpt lat="44.80764" lon="4.35549">
        <ele>1166</ele>
        <time>2018-08-04T13:05:44Z</time>
      </trkpt>
      <trkpt lat="44.80756" lon="4.35554">
        <ele>1168</ele>
        <time>2018-08-04T13:05:46Z</time>
      </trkpt>
      <trkpt lat="44.80751" lon="4.35556">
        <ele>1168</ele>
        <time>2018-08-04T13:06:07Z</time>
      </trkpt>
      <trkpt lat="44.80738" lon="4.35565">
        <ele>1168</ele>
        <time>2018-08-04T13:06:07Z</time>
      </trkpt>
      <trkpt lat="44.80737" lon="4.35566">
        <ele>1168</ele>
        <time>2018-08-04T13:06:07Z</time>
      </trkpt>
      <trkpt lat="44.80728" lon="4.35576">
        <ele>1168</ele>
        <time>2018-08-04T13:06:07Z</time>
      </trkpt>
      <trkpt lat="44.80727" lon="4.35576">
        <ele>1168</ele>
        <time>2018-08-04T13:06:30Z</time>
      </trkpt>
      <trkpt lat="44.80715" lon="4.35588">
        <ele>1168</ele>
        <time>2018-08-04T13:06:30Z</time>
      </trkpt>
      <trkpt lat="44.8071" lon="4.35592">
        <ele>1168</ele>
        <time>2018-08-04T13:06:30Z</time>
      </trkpt>
      <trkpt lat="44.80707" lon="4.35596">
        <ele>1171</ele>
        <time>2018-08-04T13:06:30Z</time>
      </trkpt>
      <trkpt lat="44.80705" lon="4.35598">
        <ele>1163</ele>
        <time>2018-08-04T13:06:56Z</time>
      </trkpt>
      <trkpt lat="44.80691" lon="4.35622">
        <ele>1163</ele>
        <time>2018-08-04T13:06:56Z</time>
      </trkpt>
      <trkpt lat="44.80691" lon="4.35624">
        <ele>1163</ele>
        <time>2018-08-04T13:06:56Z</time>
      </trkpt>
      <trkpt lat="44.80688" lon="4.35627">
        <ele>1155</ele>
        <time>2018-08-04T13:06:56Z</time>
      </trkpt>
      <trkpt lat="44.80682" lon="4.35633">
        <ele>1155</ele>
        <time>2018-08-04T13:08:14Z</time>
      </trkpt>
      <trkpt lat="44.80682" lon="4.35633">
        <ele>1155</ele>
        <time>2018-08-04T13:08:15Z</time>
      </trkpt>
      <trkpt lat="44.80682" lon="4.35634">
        <ele>1155</ele>
        <time>2018-08-04T13:08:15Z</time>
      </trkpt>
      <trkpt lat="44.8068" lon="4.35635">
        <ele>1162</ele>
        <time>2018-08-04T13:08:16Z</time>
      </trkpt>
      <trkpt lat="44.80667" lon="4.35654">
        <ele>1154</ele>
        <time>2018-08-04T13:08:17Z</time>
      </trkpt>
      <trkpt lat="44.80664" lon="4.35657">
        <ele>1154</ele>
        <time>2018-08-04T13:08:32Z</time>
      </trkpt>
      <trkpt lat="44.80655" lon="4.3567">
        <ele>1154</ele>
        <time>2018-08-04T13:08:32Z</time>
      </trkpt>
      <trkpt lat="44.80655" lon="4.35672">
        <ele>1154</ele>
        <time>2018-08-04T13:08:32Z</time>
      </trkpt>
      <trkpt lat="44.80653" lon="4.35676">
        <ele>1163</ele>
        <time>2018-08-04T13:08:32Z</time>
      </trkpt>
      <trkpt lat="44.80644" lon="4.35689">
        <ele>1155</ele>
        <time>2018-08-04T13:09:08Z</time>
      </trkpt>
      <trkpt lat="44.80633" lon="4.35704">
        <ele>1155</ele>
        <time>2018-08-04T13:09:10Z</time>
      </trkpt>
      <trkpt lat="44.80627" lon="4.35715">
        <ele>1148</ele>
        <time>2018-08-04T13:09:11Z</time>
      </trkpt>
      <trkpt lat="44.80624" lon="4.35721">
        <ele>1155</ele>
        <time>2018-08-04T13:09:12Z</time>
      </trkpt>
      <trkpt lat="44.80621" lon="4.35728">
        <ele>1155</ele>
        <time>2018-08-04T13:09:34Z</time>
      </trkpt>
      <trkpt lat="44.80612" lon="4.35744">
        <ele>1149</ele>
        <time>2018-08-04T13:09:34Z</time>
      </trkpt>
      <trkpt lat="44.80609" lon="4.35748">
        <ele>1149</ele>
        <time>2018-08-04T13:09:34Z</time>
      </trkpt>
      <trkpt lat="44.80606" lon="4.35752">
        <ele>1149</ele>
        <time>2018-08-04T13:09:35Z</time>
      </trkpt>
      <trkpt lat="44.80603" lon="4.35757">
        <ele>1149</ele>
        <time>2018-08-04T13:09:48Z</time>
      </trkpt>
      <trkpt lat="44.806" lon="4.35765">
        <ele>1144</ele>
        <time>2018-08-04T13:09:48Z</time>
      </trkpt>
      <trkpt lat="44.80599" lon="4.35767">
        <ele>1144</ele>
        <time>2018-08-04T13:09:48Z</time>
      </trkpt>
      <trkpt lat="44.80596" lon="4.35774">
        <ele>1151</ele>
        <time>2018-08-04T13:09:48Z</time>
      </trkpt>
      <trkpt lat="44.80594" lon="4.35781">
        <ele>1151</ele>
        <time>2018-08-04T13:10:20Z</time>
      </trkpt>
      <trkpt lat="44.80586" lon="4.35804">
        <ele>1148</ele>
        <time>2018-08-04T13:10:20Z</time>
      </trkpt>
      <trkpt lat="44.80581" lon="4.35819">
        <ele>1148</ele>
        <time>2018-08-04T13:10:20Z</time>
      </trkpt>
      <trkpt lat="44.80579" lon="4.35825">
        <ele>1146</ele>
        <time>2018-08-04T13:10:20Z</time>
      </trkpt>
      <trkpt lat="44.80578" lon="4.35832">
        <ele>1146</ele>
        <time>2018-08-04T13:10:36Z</time>
      </trkpt>
      <trkpt lat="44.80577" lon="4.35838">
        <ele>1146</ele>
        <time>2018-08-04T13:10:36Z</time>
      </trkpt>
      <trkpt lat="44.80576" lon="4.35844">
        <ele>1146</ele>
        <time>2018-08-04T13:10:36Z</time>
      </trkpt>
      <trkpt lat="44.80573" lon="4.35851">
        <ele>1142</ele>
        <time>2018-08-04T13:10:36Z</time>
      </trkpt>
      <trkpt lat="44.80571" lon="4.35857">
        <ele>1142</ele>
        <time>2018-08-04T13:10:52Z</time>
      </trkpt>
      <trkpt lat="44.80571" lon="4.35864">
        <ele>1142</ele>
        <time>2018-08-04T13:10:52Z</time>
      </trkpt>
      <trkpt lat="44.80571" lon="4.35869">
        <ele>1142</ele>
        <time>2018-08-04T13:10:52Z</time>
      </trkpt>
      <trkpt lat="44.8057" lon="4.35875">
        <ele>1140</ele>
        <time>2018-08-04T13:10:52Z</time>
      </trkpt>
      <trkpt lat="44.8057" lon="4.3588">
        <ele>1140</ele>
        <time>2018-08-04T13:11:08Z</time>
      </trkpt>
      <trkpt lat="44.80569" lon="4.35887">
        <ele>1152</ele>
        <time>2018-08-04T13:11:08Z</time>
      </trkpt>
      <trkpt lat="44.80568" lon="4.35892">
        <ele>1152</ele>
        <time>2018-08-04T13:11:08Z</time>
      </trkpt>
      <trkpt lat="44.80566" lon="4.35898">
        <ele>1152</ele>
        <time>2018-08-04T13:11:08Z</time>
      </trkpt>
      <trkpt lat="44.80566" lon="4.35903">
        <ele>1152</ele>
        <time>2018-08-04T13:11:26Z</time>
      </trkpt>
      <trkpt lat="44.80565" lon="4.3591">
        <ele>1152</ele>
        <time>2018-08-04T13:11:26Z</time>
      </trkpt>
      <trkpt lat="44.80565" lon="4.35917">
        <ele>1152</ele>
        <time>2018-08-04T13:11:26Z</time>
      </trkpt>
      <trkpt lat="44.80566" lon="4.35924">
        <ele>1152</ele>
        <time>2018-08-04T13:11:26Z</time>
      </trkpt>
      <trkpt lat="44.80566" lon="4.35933">
        <ele>1152</ele>
        <time>2018-08-04T13:11:43Z</time>
      </trkpt>
      <trkpt lat="44.80566" lon="4.35939">
        <ele>1152</ele>
        <time>2018-08-04T13:11:43Z</time>
      </trkpt>
      <trkpt lat="44.80566" lon="4.35943">
        <ele>1152</ele>
        <time>2018-08-04T13:11:43Z</time>
      </trkpt>
      <trkpt lat="44.80566" lon="4.35956">
        <ele>1152</ele>
        <time>2018-08-04T13:11:43Z</time>
      </trkpt>
      <trkpt lat="44.80565" lon="4.35958">
        <ele>1152</ele>
        <time>2018-08-04T13:12:00Z</time>
      </trkpt>
      <trkpt lat="44.80565" lon="4.35969">
        <ele>1152</ele>
        <time>2018-08-04T13:12:00Z</time>
      </trkpt>
      <trkpt lat="44.80564" lon="4.35978">
        <ele>1152</ele>
        <time>2018-08-04T13:12:00Z</time>
      </trkpt>
      <trkpt lat="44.80564" lon="4.3598">
        <ele>1152</ele>
        <time>2018-08-04T13:12:00Z</time>
      </trkpt>
      <trkpt lat="44.80564" lon="4.35985">
        <ele>1152</ele>
        <time>2018-08-04T13:12:16Z</time>
      </trkpt>
      <trkpt lat="44.80564" lon="4.35993">
        <ele>1154</ele>
        <time>2018-08-04T13:12:16Z</time>
      </trkpt>
      <trkpt lat="44.80563" lon="4.36003">
        <ele>1154</ele>
        <time>2018-08-04T13:12:16Z</time>
      </trkpt>
      <trkpt lat="44.80563" lon="4.36005">
        <ele>1154</ele>
        <time>2018-08-04T13:12:16Z</time>
      </trkpt>
      <trkpt lat="44.80566" lon="4.36017">
        <ele>1156</ele>
        <time>2018-08-04T13:12:38Z</time>
      </trkpt>
      <trkpt lat="44.80569" lon="4.36028">
        <ele>1156</ele>
        <time>2018-08-04T13:12:38Z</time>
      </trkpt>
      <trkpt lat="44.80569" lon="4.36031">
        <ele>1156</ele>
        <time>2018-08-04T13:12:38Z</time>
      </trkpt>
      <trkpt lat="44.80569" lon="4.36039">
        <ele>1156</ele>
        <time>2018-08-04T13:12:38Z</time>
      </trkpt>
      <trkpt lat="44.80569" lon="4.36049">
        <ele>1157</ele>
        <time>2018-08-04T13:12:52Z</time>
      </trkpt>
      <trkpt lat="44.80569" lon="4.36052">
        <ele>1157</ele>
        <time>2018-08-04T13:12:52Z</time>
      </trkpt>
      <trkpt lat="44.80568" lon="4.36059">
        <ele>1157</ele>
        <time>2018-08-04T13:12:52Z</time>
      </trkpt>
      <trkpt lat="44.80567" lon="4.36063">
        <ele>1157</ele>
        <time>2018-08-04T13:12:52Z</time>
      </trkpt>
      <trkpt lat="44.80565" lon="4.36067">
        <ele>1157</ele>
        <time>2018-08-04T13:13:09Z</time>
      </trkpt>
      <trkpt lat="44.80564" lon="4.36071">
        <ele>1154</ele>
        <time>2018-08-04T13:13:10Z</time>
      </trkpt>
      <trkpt lat="44.80563" lon="4.3608">
        <ele>1154</ele>
        <time>2018-08-04T13:13:10Z</time>
      </trkpt>
      <trkpt lat="44.80563" lon="4.36083">
        <ele>1154</ele>
        <time>2018-08-04T13:13:10Z</time>
      </trkpt>
      <trkpt lat="44.8056" lon="4.36088">
        <ele>1154</ele>
        <time>2018-08-04T13:13:28Z</time>
      </trkpt>
      <trkpt lat="44.80555" lon="4.36094">
        <ele>1154</ele>
        <time>2018-08-04T13:13:28Z</time>
      </trkpt>
      <trkpt lat="44.80551" lon="4.36097">
        <ele>1154</ele>
        <time>2018-08-04T13:13:28Z</time>
      </trkpt>
      <trkpt lat="44.8055" lon="4.36098">
        <ele>1149</ele>
        <time>2018-08-04T13:13:28Z</time>
      </trkpt>
      <trkpt lat="44.80547" lon="4.36098">
        <ele>1149</ele>
        <time>2018-08-04T13:13:44Z</time>
      </trkpt>
      <trkpt lat="44.80544" lon="4.361">
        <ele>1149</ele>
        <time>2018-08-04T13:13:44Z</time>
      </trkpt>
      <trkpt lat="44.80541" lon="4.36106">
        <ele>1162</ele>
        <time>2018-08-04T13:13:44Z</time>
      </trkpt>
      <trkpt lat="44.80539" lon="4.36109">
        <ele>1162</ele>
        <time>2018-08-04T13:13:44Z</time>
      </trkpt>
      <trkpt lat="44.80536" lon="4.36114">
        <ele>1162</ele>
        <time>2018-08-04T13:14:00Z</time>
      </trkpt>
      <trkpt lat="44.80534" lon="4.36115">
        <ele>1162</ele>
        <time>2018-08-04T13:14:00Z</time>
      </trkpt>
      <trkpt lat="44.80532" lon="4.36117">
        <ele>1162</ele>
        <time>2018-08-04T13:14:00Z</time>
      </trkpt>
      <trkpt lat="44.80528" lon="4.36123">
        <ele>1162</ele>
        <time>2018-08-04T13:14:00Z</time>
      </trkpt>
      <trkpt lat="44.80526" lon="4.36128">
        <ele>1155</ele>
        <time>2018-08-04T13:14:17Z</time>
      </trkpt>
      <trkpt lat="44.80524" lon="4.36135">
        <ele>1155</ele>
        <time>2018-08-04T13:14:18Z</time>
      </trkpt>
      <trkpt lat="44.80521" lon="4.36143">
        <ele>1155</ele>
        <time>2018-08-04T13:14:18Z</time>
      </trkpt>
      <trkpt lat="44.80519" lon="4.36145">
        <ele>1155</ele>
        <time>2018-08-04T13:14:18Z</time>
      </trkpt>
      <trkpt lat="44.80517" lon="4.36144">
        <ele>1155</ele>
        <time>2018-08-04T13:14:32Z</time>
      </trkpt>
      <trkpt lat="44.80514" lon="4.36148">
        <ele>1155</ele>
        <time>2018-08-04T13:14:32Z</time>
      </trkpt>
      <trkpt lat="44.80513" lon="4.36149">
        <ele>1163</ele>
        <time>2018-08-04T13:14:32Z</time>
      </trkpt>
      <trkpt lat="44.8051" lon="4.36153">
        <ele>1163</ele>
        <time>2018-08-04T13:14:32Z</time>
      </trkpt>
      <trkpt lat="44.80506" lon="4.36158">
        <ele>1155</ele>
        <time>2018-08-04T13:15:00Z</time>
      </trkpt>
      <trkpt lat="44.80502" lon="4.36162">
        <ele>1155</ele>
        <time>2018-08-04T13:15:01Z</time>
      </trkpt>
      <trkpt lat="44.80492" lon="4.3617">
        <ele>1155</ele>
        <time>2018-08-04T13:15:02Z</time>
      </trkpt>
      <trkpt lat="44.8048" lon="4.36174">
        <ele>1156</ele>
        <time>2018-08-04T13:15:04Z</time>
      </trkpt>
      <trkpt lat="44.80475" lon="4.36174">
        <ele>1156</ele>
        <time>2018-08-04T13:15:40Z</time>
      </trkpt>
      <trkpt lat="44.80461" lon="4.36175">
        <ele>1156</ele>
        <time>2018-08-04T13:15:40Z</time>
      </trkpt>
      <trkpt lat="44.80452" lon="4.3618">
        <ele>1157</ele>
        <time>2018-08-04T13:15:40Z</time>
      </trkpt>
      <trkpt lat="44.80449" lon="4.36182">
        <ele>1152</ele>
        <time>2018-08-04T13:15:40Z</time>
      </trkpt>
      <trkpt lat="44.80448" lon="4.36193">
        <ele>1152</ele>
        <time>2018-08-04T13:16:10Z</time>
      </trkpt>
      <trkpt lat="44.80452" lon="4.36197">
        <ele>1152</ele>
        <time>2018-08-04T13:16:10Z</time>
      </trkpt>
      <trkpt lat="44.80453" lon="4.36198">
        <ele>1152</ele>
        <time>2018-08-04T13:16:10Z</time>
      </trkpt>
      <trkpt lat="44.80463" lon="4.36203">
        <ele>1152</ele>
        <time>2018-08-04T13:16:10Z</time>
      </trkpt>
      <trkpt lat="44.80466" lon="4.36204">
        <ele>1152</ele>
        <time>2018-08-04T13:16:33Z</time>
      </trkpt>
      <trkpt lat="44.8047" lon="4.36206">
        <ele>1152</ele>
        <time>2018-08-04T13:16:33Z</time>
      </trkpt>
      <trkpt lat="44.80478" lon="4.36209">
        <ele>1146</ele>
        <time>2018-08-04T13:16:33Z</time>
      </trkpt>
      <trkpt lat="44.80481" lon="4.36209">
        <ele>1146</ele>
        <time>2018-08-04T13:16:33Z</time>
      </trkpt>
      <trkpt lat="44.80481" lon="4.36211">
        <ele>1146</ele>
        <time>2018-08-04T13:16:48Z</time>
      </trkpt>
      <trkpt lat="44.80479" lon="4.36215">
        <ele>1146</ele>
        <time>2018-08-04T13:16:48Z</time>
      </trkpt>
      <trkpt lat="44.80477" lon="4.36218">
        <ele>1146</ele>
        <time>2018-08-04T13:16:48Z</time>
      </trkpt>
      <trkpt lat="44.80475" lon="4.36222">
        <ele>1146</ele>
        <time>2018-08-04T13:16:48Z</time>
      </trkpt>
      <trkpt lat="44.80473" lon="4.36226">
        <ele>1146</ele>
        <time>2018-08-04T13:17:04Z</time>
      </trkpt>
      <trkpt lat="44.80471" lon="4.36232">
        <ele>1146</ele>
        <time>2018-08-04T13:17:04Z</time>
      </trkpt>
      <trkpt lat="44.80469" lon="4.36238">
        <ele>1140</ele>
        <time>2018-08-04T13:17:04Z</time>
      </trkpt>
      <trkpt lat="44.80468" lon="4.36243">
        <ele>1140</ele>
        <time>2018-08-04T13:17:04Z</time>
      </trkpt>
      <trkpt lat="44.80467" lon="4.36247">
        <ele>1140</ele>
        <time>2018-08-04T13:17:24Z</time>
      </trkpt>
      <trkpt lat="44.80465" lon="4.36249">
        <ele>1140</ele>
        <time>2018-08-04T13:17:24Z</time>
      </trkpt>
      <trkpt lat="44.80464" lon="4.36252">
        <ele>1140</ele>
        <time>2018-08-04T13:17:24Z</time>
      </trkpt>
      <trkpt lat="44.80462" lon="4.36257">
        <ele>1140</ele>
        <time>2018-08-04T13:17:24Z</time>
      </trkpt>
      <trkpt lat="44.8046" lon="4.36261">
        <ele>1140</ele>
        <time>2018-08-04T13:17:24Z</time>
      </trkpt>
      <trkpt lat="44.80457" lon="4.36264">
        <ele>1143</ele>
        <time>2018-08-04T13:17:40Z</time>
      </trkpt>
      <trkpt lat="44.80454" lon="4.36266">
        <ele>1138</ele>
        <time>2018-08-04T13:17:40Z</time>
      </trkpt>
      <trkpt lat="44.8045" lon="4.36271">
        <ele>1138</ele>
        <time>2018-08-04T13:17:40Z</time>
      </trkpt>
      <trkpt lat="44.80447" lon="4.36275">
        <ele>1138</ele>
        <time>2018-08-04T13:17:40Z</time>
      </trkpt>
      <trkpt lat="44.80442" lon="4.36277">
        <ele>1138</ele>
        <time>2018-08-04T13:17:56Z</time>
      </trkpt>
      <trkpt lat="44.80438" lon="4.36282">
        <ele>1138</ele>
        <time>2018-08-04T13:17:56Z</time>
      </trkpt>
      <trkpt lat="44.80433" lon="4.36285">
        <ele>1138</ele>
        <time>2018-08-04T13:17:56Z</time>
      </trkpt>
      <trkpt lat="44.80429" lon="4.36287">
        <ele>1137</ele>
        <time>2018-08-04T13:17:56Z</time>
      </trkpt>
      <trkpt lat="44.80425" lon="4.36289">
        <ele>1137</ele>
        <time>2018-08-04T13:18:12Z</time>
      </trkpt>
      <trkpt lat="44.80419" lon="4.36292">
        <ele>1135</ele>
        <time>2018-08-04T13:18:12Z</time>
      </trkpt>
      <trkpt lat="44.80418" lon="4.36295">
        <ele>1135</ele>
        <time>2018-08-04T13:18:12Z</time>
      </trkpt>
      <trkpt lat="44.80417" lon="4.36301">
        <ele>1135</ele>
        <time>2018-08-04T13:18:12Z</time>
      </trkpt>
      <trkpt lat="44.80417" lon="4.36309">
        <ele>1135</ele>
        <time>2018-08-04T13:18:28Z</time>
      </trkpt>
      <trkpt lat="44.80418" lon="4.36317">
        <ele>1135</ele>
        <time>2018-08-04T13:18:28Z</time>
      </trkpt>
      <trkpt lat="44.8042" lon="4.36323">
        <ele>1134</ele>
        <time>2018-08-04T13:18:28Z</time>
      </trkpt>
      <trkpt lat="44.80421" lon="4.36329">
        <ele>1134</ele>
        <time>2018-08-04T13:18:28Z</time>
      </trkpt>
      <trkpt lat="44.80422" lon="4.36335">
        <ele>1134</ele>
        <time>2018-08-04T13:18:58Z</time>
      </trkpt>
      <trkpt lat="44.80424" lon="4.36341">
        <ele>1134</ele>
        <time>2018-08-04T13:18:59Z</time>
      </trkpt>
      <trkpt lat="44.80424" lon="4.36343">
        <ele>1134</ele>
        <time>2018-08-04T13:18:59Z</time>
      </trkpt>
      <trkpt lat="44.80438" lon="4.36354">
        <ele>1131</ele>
        <time>2018-08-04T13:18:59Z</time>
      </trkpt>
      <trkpt lat="44.80439" lon="4.36354">
        <ele>1131</ele>
        <time>2018-08-04T13:19:20Z</time>
      </trkpt>
      <trkpt lat="44.80439" lon="4.36354">
        <ele>1131</ele>
        <time>2018-08-04T13:19:21Z</time>
      </trkpt>
      <trkpt lat="44.80444" lon="4.36354">
        <ele>1131</ele>
        <time>2018-08-04T13:19:21Z</time>
      </trkpt>
      <trkpt lat="44.80455" lon="4.36353">
        <ele>1131</ele>
        <time>2018-08-04T13:19:21Z</time>
      </trkpt>
      <trkpt lat="44.80455" lon="4.36352">
        <ele>1131</ele>
        <time>2018-08-04T13:19:34Z</time>
      </trkpt>
      <trkpt lat="44.80459" lon="4.36351">
        <ele>1125</ele>
        <time>2018-08-04T13:19:34Z</time>
      </trkpt>
      <trkpt lat="44.80466" lon="4.36352">
        <ele>1125</ele>
        <time>2018-08-04T13:19:34Z</time>
      </trkpt>
      <trkpt lat="44.80468" lon="4.36357">
        <ele>1125</ele>
        <time>2018-08-04T13:19:34Z</time>
      </trkpt>
      <trkpt lat="44.80468" lon="4.3636">
        <ele>1125</ele>
        <time>2018-08-04T13:20:16Z</time>
      </trkpt>
      <trkpt lat="44.8046" lon="4.3638">
        <ele>1121</ele>
        <time>2018-08-04T13:20:16Z</time>
      </trkpt>
      <trkpt lat="44.80449" lon="4.36405">
        <ele>1122</ele>
        <time>2018-08-04T13:20:16Z</time>
      </trkpt>
      <trkpt lat="44.80448" lon="4.36408">
        <ele>1122</ele>
        <time>2018-08-04T13:20:16Z</time>
      </trkpt>
      <trkpt lat="44.80446" lon="4.36416">
        <ele>1122</ele>
        <time>2018-08-04T13:20:48Z</time>
      </trkpt>
      <trkpt lat="44.8044" lon="4.36427">
        <ele>1122</ele>
        <time>2018-08-04T13:20:48Z</time>
      </trkpt>
      <trkpt lat="44.8043" lon="4.36441">
        <ele>1120</ele>
        <time>2018-08-04T13:20:48Z</time>
      </trkpt>
      <trkpt lat="44.80425" lon="4.36446">
        <ele>1120</ele>
        <time>2018-08-04T13:20:48Z</time>
      </trkpt>
      <trkpt lat="44.80423" lon="4.36446">
        <ele>1120</ele>
        <time>2018-08-04T13:21:20Z</time>
      </trkpt>
      <trkpt lat="44.80409" lon="4.36455">
        <ele>1120</ele>
        <time>2018-08-04T13:21:20Z</time>
      </trkpt>
      <trkpt lat="44.80396" lon="4.36464">
        <ele>1113</ele>
        <time>2018-08-04T13:21:21Z</time>
      </trkpt>
      <trkpt lat="44.80392" lon="4.36467">
        <ele>1113</ele>
        <time>2018-08-04T13:21:22Z</time>
      </trkpt>
      <trkpt lat="44.80391" lon="4.36469">
        <ele>1113</ele>
        <time>2018-08-04T13:21:36Z</time>
      </trkpt>
      <trkpt lat="44.80391" lon="4.3647">
        <ele>1113</ele>
        <time>2018-08-04T13:21:36Z</time>
      </trkpt>
      <trkpt lat="44.8039" lon="4.36471">
        <ele>1113</ele>
        <time>2018-08-04T13:21:37Z</time>
      </trkpt>
      <trkpt lat="44.80384" lon="4.36475">
        <ele>1113</ele>
        <time>2018-08-04T13:21:38Z</time>
      </trkpt>
      <trkpt lat="44.80382" lon="4.36475">
        <ele>1113</ele>
        <time>2018-08-04T13:21:38Z</time>
      </trkpt>
      <trkpt lat="44.80377" lon="4.36476">
        <ele>1113</ele>
        <time>2018-08-04T13:22:06Z</time>
      </trkpt>
      <trkpt lat="44.80358" lon="4.36471">
        <ele>1114</ele>
        <time>2018-08-04T13:22:06Z</time>
      </trkpt>
      <trkpt lat="44.80357" lon="4.36471">
        <ele>1114</ele>
        <time>2018-08-04T13:22:06Z</time>
      </trkpt>
      <trkpt lat="44.80348" lon="4.36466">
        <ele>1114</ele>
        <time>2018-08-04T13:22:06Z</time>
      </trkpt>
      <trkpt lat="44.8034" lon="4.36464">
        <ele>1110</ele>
        <time>2018-08-04T13:22:32Z</time>
      </trkpt>
      <trkpt lat="44.80339" lon="4.36463">
        <ele>1110</ele>
        <time>2018-08-04T13:22:32Z</time>
      </trkpt>
      <trkpt lat="44.80324" lon="4.36453">
        <ele>1115</ele>
        <time>2018-08-04T13:22:32Z</time>
      </trkpt>
      <trkpt lat="44.80318" lon="4.36448">
        <ele>1109</ele>
        <time>2018-08-04T13:22:32Z</time>
      </trkpt>
      <trkpt lat="44.80313" lon="4.36446">
        <ele>1109</ele>
        <time>2018-08-04T13:23:04Z</time>
      </trkpt>
      <trkpt lat="44.80304" lon="4.3644">
        <ele>1109</ele>
        <time>2018-08-04T13:23:05Z</time>
      </trkpt>
      <trkpt lat="44.80295" lon="4.36434">
        <ele>1109</ele>
        <time>2018-08-04T13:23:06Z</time>
      </trkpt>
      <trkpt lat="44.80278" lon="4.3642">
        <ele>1102</ele>
        <time>2018-08-04T13:23:07Z</time>
      </trkpt>
      <trkpt lat="44.80276" lon="4.36417">
        <ele>1102</ele>
        <time>2018-08-04T13:23:33Z</time>
      </trkpt>
      <trkpt lat="44.80275" lon="4.36415">
        <ele>1102</ele>
        <time>2018-08-04T13:23:33Z</time>
      </trkpt>
      <trkpt lat="44.80273" lon="4.36391">
        <ele>1103</ele>
        <time>2018-08-04T13:23:34Z</time>
      </trkpt>
      <trkpt lat="44.80274" lon="4.36389">
        <ele>1103</ele>
        <time>2018-08-04T13:23:34Z</time>
      </trkpt>
      <trkpt lat="44.80275" lon="4.36385">
        <ele>1103</ele>
        <time>2018-08-04T13:23:48Z</time>
      </trkpt>
      <trkpt lat="44.80276" lon="4.36379">
        <ele>1103</ele>
        <time>2018-08-04T13:23:48Z</time>
      </trkpt>
      <trkpt lat="44.80276" lon="4.36372">
        <ele>1100</ele>
        <time>2018-08-04T13:23:48Z</time>
      </trkpt>
      <trkpt lat="44.80274" lon="4.36366">
        <ele>1100</ele>
        <time>2018-08-04T13:23:48Z</time>
      </trkpt>
      <trkpt lat="44.80273" lon="4.36361">
        <ele>1100</ele>
        <time>2018-08-04T13:24:04Z</time>
      </trkpt>
      <trkpt lat="44.80269" lon="4.36353">
        <ele>1100</ele>
        <time>2018-08-04T13:24:04Z</time>
      </trkpt>
      <trkpt lat="44.80267" lon="4.36346">
        <ele>1100</ele>
        <time>2018-08-04T13:24:04Z</time>
      </trkpt>
      <trkpt lat="44.80267" lon="4.36343">
        <ele>1100</ele>
        <time>2018-08-04T13:24:04Z</time>
      </trkpt>
      <trkpt lat="44.80269" lon="4.36348">
        <ele>1100</ele>
        <time>2018-08-04T13:37:24Z</time>
      </trkpt>
      <trkpt lat="44.8027" lon="4.36348">
        <ele>1100</ele>
        <time>2018-08-04T13:37:26Z</time>
      </trkpt>
      <trkpt lat="44.80271" lon="4.36348">
        <ele>1100</ele>
        <time>2018-08-04T13:37:27Z</time>
      </trkpt>
      <trkpt lat="44.80271" lon="4.36349">
        <ele>1100</ele>
        <time>2018-08-04T13:37:28Z</time>
      </trkpt>
      <trkpt lat="44.80273" lon="4.36355">
        <ele>1100</ele>
        <time>2018-08-04T13:37:29Z</time>
      </trkpt>
      <trkpt lat="44.80272" lon="4.36359">
        <ele>1100</ele>
        <time>2018-08-04T13:37:55Z</time>
      </trkpt>
      <trkpt lat="44.80271" lon="4.3636">
        <ele>1100</ele>
        <time>2018-08-04T13:37:55Z</time>
      </trkpt>
      <trkpt lat="44.80271" lon="4.3636">
        <ele>1100</ele>
        <time>2018-08-04T13:37:55Z</time>
      </trkpt>
      <trkpt lat="44.8027" lon="4.36361">
        <ele>1100</ele>
        <time>2018-08-04T13:37:55Z</time>
      </trkpt>
      <trkpt lat="44.80265" lon="4.36368">
        <ele>1100</ele>
        <time>2018-08-04T13:37:55Z</time>
      </trkpt>
      <trkpt lat="44.80265" lon="4.36369">
        <ele>1100</ele>
        <time>2018-08-04T13:38:24Z</time>
      </trkpt>
      <trkpt lat="44.80261" lon="4.36376">
        <ele>1092</ele>
        <time>2018-08-04T13:38:25Z</time>
      </trkpt>
      <trkpt lat="44.80261" lon="4.36377">
        <ele>1092</ele>
        <time>2018-08-04T13:38:26Z</time>
      </trkpt>
      <trkpt lat="44.80259" lon="4.36382">
        <ele>1092</ele>
        <time>2018-08-04T13:38:26Z</time>
      </trkpt>
      <trkpt lat="44.80256" lon="4.36387">
        <ele>1092</ele>
        <time>2018-08-04T13:38:47Z</time>
      </trkpt>
      <trkpt lat="44.80256" lon="4.36391">
        <ele>1092</ele>
        <time>2018-08-04T13:38:47Z</time>
      </trkpt>
      <trkpt lat="44.80256" lon="4.36395">
        <ele>1092</ele>
        <time>2018-08-04T13:38:47Z</time>
      </trkpt>
      <trkpt lat="44.80257" lon="4.36406">
        <ele>1090</ele>
        <time>2018-08-04T13:38:47Z</time>
      </trkpt>
      <trkpt lat="44.80257" lon="4.36407">
        <ele>1090</ele>
        <time>2018-08-04T13:39:08Z</time>
      </trkpt>
      <trkpt lat="44.80258" lon="4.36411">
        <ele>1090</ele>
        <time>2018-08-04T13:39:08Z</time>
      </trkpt>
      <trkpt lat="44.80259" lon="4.36415">
        <ele>1090</ele>
        <time>2018-08-04T13:39:08Z</time>
      </trkpt>
      <trkpt lat="44.80261" lon="4.36426">
        <ele>1090</ele>
        <time>2018-08-04T13:39:08Z</time>
      </trkpt>
      <trkpt lat="44.80269" lon="4.36438">
        <ele>1099</ele>
        <time>2018-08-04T13:39:36Z</time>
      </trkpt>
      <trkpt lat="44.80273" lon="4.36443">
        <ele>1099</ele>
        <time>2018-08-04T13:39:37Z</time>
      </trkpt>
      <trkpt lat="44.8028" lon="4.36459">
        <ele>1092</ele>
        <time>2018-08-04T13:39:37Z</time>
      </trkpt>
      <trkpt lat="44.80281" lon="4.36461">
        <ele>1092</ele>
        <time>2018-08-04T13:39:37Z</time>
      </trkpt>
      <trkpt lat="44.80286" lon="4.36467">
        <ele>1092</ele>
        <time>2018-08-04T13:39:56Z</time>
      </trkpt>
      <trkpt lat="44.80288" lon="4.36469">
        <ele>1092</ele>
        <time>2018-08-04T13:39:56Z</time>
      </trkpt>
      <trkpt lat="44.80289" lon="4.36479">
        <ele>1092</ele>
        <time>2018-08-04T13:39:57Z</time>
      </trkpt>
      <trkpt lat="44.80291" lon="4.36482">
        <ele>1092</ele>
        <time>2018-08-04T13:39:58Z</time>
      </trkpt>
      <trkpt lat="44.80292" lon="4.36486">
        <ele>1102</ele>
        <time>2018-08-04T13:40:28Z</time>
      </trkpt>
      <trkpt lat="44.80297" lon="4.36495">
        <ele>1094</ele>
        <time>2018-08-04T13:40:29Z</time>
      </trkpt>
      <trkpt lat="44.80314" lon="4.36513">
        <ele>1094</ele>
        <time>2018-08-04T13:40:29Z</time>
      </trkpt>
      <trkpt lat="44.80316" lon="4.36513">
        <ele>1094</ele>
        <time>2018-08-04T13:40:29Z</time>
      </trkpt>
      <trkpt lat="44.80323" lon="4.36516">
        <ele>1095</ele>
        <time>2018-08-04T13:41:12Z</time>
      </trkpt>
      <trkpt lat="44.80333" lon="4.3653">
        <ele>1095</ele>
        <time>2018-08-04T13:41:13Z</time>
      </trkpt>
      <trkpt lat="44.80348" lon="4.36537">
        <ele>1099</ele>
        <time>2018-08-04T13:41:14Z</time>
      </trkpt>
      <trkpt lat="44.80359" lon="4.3655">
        <ele>1092</ele>
        <time>2018-08-04T13:41:15Z</time>
      </trkpt>
      <trkpt lat="44.80359" lon="4.36551">
        <ele>1092</ele>
        <time>2018-08-04T13:41:28Z</time>
      </trkpt>
      <trkpt lat="44.80362" lon="4.36557">
        <ele>1092</ele>
        <time>2018-08-04T13:41:28Z</time>
      </trkpt>
      <trkpt lat="44.80368" lon="4.36557">
        <ele>1092</ele>
        <time>2018-08-04T13:41:28Z</time>
      </trkpt>
      <trkpt lat="44.80368" lon="4.36558">
        <ele>1092</ele>
        <time>2018-08-04T13:41:28Z</time>
      </trkpt>
      <trkpt lat="44.80368" lon="4.36558">
        <ele>1092</ele>
        <time>2018-08-04T13:42:00Z</time>
      </trkpt>
      <trkpt lat="44.80368" lon="4.36558">
        <ele>1092</ele>
        <time>2018-08-04T13:42:00Z</time>
      </trkpt>
      <trkpt lat="44.80363" lon="4.36558">
        <ele>1092</ele>
        <time>2018-08-04T13:42:00Z</time>
      </trkpt>
      <trkpt lat="44.80361" lon="4.36556">
        <ele>1092</ele>
        <time>2018-08-04T13:42:00Z</time>
      </trkpt>
      <trkpt lat="44.80359" lon="4.36553">
        <ele>1092</ele>
        <time>2018-08-04T13:42:00Z</time>
      </trkpt>
      <trkpt lat="44.80355" lon="4.36554">
        <ele>1092</ele>
        <time>2018-08-04T13:42:16Z</time>
      </trkpt>
      <trkpt lat="44.8035" lon="4.36553">
        <ele>1092</ele>
        <time>2018-08-04T13:42:16Z</time>
      </trkpt>
      <trkpt lat="44.80349" lon="4.36552">
        <ele>1092</ele>
        <time>2018-08-04T13:42:16Z</time>
      </trkpt>
      <trkpt lat="44.80345" lon="4.36548">
        <ele>1086</ele>
        <time>2018-08-04T13:42:16Z</time>
      </trkpt>
      <trkpt lat="44.80333" lon="4.36536">
        <ele>1095</ele>
        <time>2018-08-04T13:42:53Z</time>
      </trkpt>
      <trkpt lat="44.80327" lon="4.36525">
        <ele>1095</ele>
        <time>2018-08-04T13:42:53Z</time>
      </trkpt>
      <trkpt lat="44.80327" lon="4.36524">
        <ele>1095</ele>
        <time>2018-08-04T13:42:53Z</time>
      </trkpt>
      <trkpt lat="44.80315" lon="4.36518">
        <ele>1086</ele>
        <time>2018-08-04T13:42:53Z</time>
      </trkpt>
      <trkpt lat="44.80311" lon="4.36519">
        <ele>1086</ele>
        <time>2018-08-04T13:43:24Z</time>
      </trkpt>
      <trkpt lat="44.80296" lon="4.36513">
        <ele>1094</ele>
        <time>2018-08-04T13:43:25Z</time>
      </trkpt>
      <trkpt lat="44.80295" lon="4.36511">
        <ele>1094</ele>
        <time>2018-08-04T13:43:25Z</time>
      </trkpt>
      <trkpt lat="44.80279" lon="4.365">
        <ele>1084</ele>
        <time>2018-08-04T13:43:25Z</time>
      </trkpt>
      <trkpt lat="44.80269" lon="4.36491">
        <ele>1084</ele>
        <time>2018-08-04T13:43:59Z</time>
      </trkpt>
      <trkpt lat="44.8026" lon="4.36471">
        <ele>1082</ele>
        <time>2018-08-04T13:44:01Z</time>
      </trkpt>
      <trkpt lat="44.80258" lon="4.36468">
        <ele>1082</ele>
        <time>2018-08-04T13:44:01Z</time>
      </trkpt>
      <trkpt lat="44.80244" lon="4.36453">
        <ele>1086</ele>
        <time>2018-08-04T13:44:02Z</time>
      </trkpt>
      <trkpt lat="44.8024" lon="4.36448">
        <ele>1086</ele>
        <time>2018-08-04T13:44:16Z</time>
      </trkpt>
      <trkpt lat="44.80235" lon="4.36443">
        <ele>1077</ele>
        <time>2018-08-04T13:44:16Z</time>
      </trkpt>
      <trkpt lat="44.80231" lon="4.36439">
        <ele>1077</ele>
        <time>2018-08-04T13:44:16Z</time>
      </trkpt>
      <trkpt lat="44.80228" lon="4.36437">
        <ele>1077</ele>
        <time>2018-08-04T13:44:16Z</time>
      </trkpt>
      <trkpt lat="44.80224" lon="4.36432">
        <ele>1077</ele>
        <time>2018-08-04T13:44:44Z</time>
      </trkpt>
      <trkpt lat="44.80218" lon="4.36419">
        <ele>1080</ele>
        <time>2018-08-04T13:44:44Z</time>
      </trkpt>
      <trkpt lat="44.80215" lon="4.36407">
        <ele>1080</ele>
        <time>2018-08-04T13:44:44Z</time>
      </trkpt>
      <trkpt lat="44.80214" lon="4.36405">
        <ele>1080</ele>
        <time>2018-08-04T13:44:44Z</time>
      </trkpt>
      <trkpt lat="44.80202" lon="4.36405">
        <ele>1078</ele>
        <time>2018-08-04T13:45:31Z</time>
      </trkpt>
      <trkpt lat="44.80191" lon="4.36407">
        <ele>1078</ele>
        <time>2018-08-04T13:45:31Z</time>
      </trkpt>
      <trkpt lat="44.80188" lon="4.3643">
        <ele>1078</ele>
        <time>2018-08-04T13:45:32Z</time>
      </trkpt>
      <trkpt lat="44.80185" lon="4.36432">
        <ele>1075</ele>
        <time>2018-08-04T13:45:32Z</time>
      </trkpt>
      <trkpt lat="44.80184" lon="4.36432">
        <ele>1075</ele>
        <time>2018-08-04T13:45:52Z</time>
      </trkpt>
      <trkpt lat="44.80169" lon="4.3643">
        <ele>1080</ele>
        <time>2018-08-04T13:45:52Z</time>
      </trkpt>
      <trkpt lat="44.80165" lon="4.36432">
        <ele>1079</ele>
        <time>2018-08-04T13:45:52Z</time>
      </trkpt>
      <trkpt lat="44.80161" lon="4.3643">
        <ele>1080</ele>
        <time>2018-08-04T13:45:52Z</time>
      </trkpt>
      <trkpt lat="44.80159" lon="4.36446">
        <ele>1079</ele>
        <time>2018-08-04T13:46:25Z</time>
      </trkpt>
      <trkpt lat="44.80165" lon="4.36451">
        <ele>1079</ele>
        <time>2018-08-04T13:46:26Z</time>
      </trkpt>
      <trkpt lat="44.80167" lon="4.36452">
        <ele>1079</ele>
        <time>2018-08-04T13:46:28Z</time>
      </trkpt>
      <trkpt lat="44.80171" lon="4.36453">
        <ele>1079</ele>
        <time>2018-08-04T13:46:29Z</time>
      </trkpt>
      <trkpt lat="44.80175" lon="4.36457">
        <ele>1079</ele>
        <time>2018-08-04T13:46:46Z</time>
      </trkpt>
      <trkpt lat="44.80182" lon="4.36469">
        <ele>1074</ele>
        <time>2018-08-04T13:46:47Z</time>
      </trkpt>
      <trkpt lat="44.80183" lon="4.36471">
        <ele>1074</ele>
        <time>2018-08-04T13:46:47Z</time>
      </trkpt>
      <trkpt lat="44.80186" lon="4.3648">
        <ele>1074</ele>
        <time>2018-08-04T13:46:47Z</time>
      </trkpt>
      <trkpt lat="44.80188" lon="4.36482">
        <ele>1074</ele>
        <time>2018-08-04T13:47:13Z</time>
      </trkpt>
      <trkpt lat="44.80198" lon="4.36514">
        <ele>1077</ele>
        <time>2018-08-04T13:47:13Z</time>
      </trkpt>
      <trkpt lat="44.802" lon="4.36522">
        <ele>1077</ele>
        <time>2018-08-04T13:47:13Z</time>
      </trkpt>
      <trkpt lat="44.80201" lon="4.36528">
        <ele>1077</ele>
        <time>2018-08-04T13:47:13Z</time>
      </trkpt>
      <trkpt lat="44.80204" lon="4.36534">
        <ele>1077</ele>
        <time>2018-08-04T13:47:48Z</time>
      </trkpt>
      <trkpt lat="44.80205" lon="4.36535">
        <ele>1077</ele>
        <time>2018-08-04T13:47:49Z</time>
      </trkpt>
      <trkpt lat="44.80212" lon="4.36563">
        <ele>1068</ele>
        <time>2018-08-04T13:47:50Z</time>
      </trkpt>
      <trkpt lat="44.80214" lon="4.36579">
        <ele>1066</ele>
        <time>2018-08-04T13:47:51Z</time>
      </trkpt>
      <trkpt lat="44.80218" lon="4.36586">
        <ele>1066</ele>
        <time>2018-08-04T13:48:32Z</time>
      </trkpt>
      <trkpt lat="44.80219" lon="4.36606">
        <ele>1068</ele>
        <time>2018-08-04T13:48:32Z</time>
      </trkpt>
      <trkpt lat="44.80216" lon="4.36617">
        <ele>1068</ele>
        <time>2018-08-04T13:48:32Z</time>
      </trkpt>
      <trkpt lat="44.80228" lon="4.3664">
        <ele>1069</ele>
        <time>2018-08-04T13:48:32Z</time>
      </trkpt>
      <trkpt lat="44.80234" lon="4.36668">
        <ele>1071</ele>
        <time>2018-08-04T13:49:10Z</time>
      </trkpt>
      <trkpt lat="44.80235" lon="4.36673">
        <ele>1071</ele>
        <time>2018-08-04T13:49:10Z</time>
      </trkpt>
      <trkpt lat="44.80241" lon="4.36683">
        <ele>1063</ele>
        <time>2018-08-04T13:49:10Z</time>
      </trkpt>
      <trkpt lat="44.80248" lon="4.36698">
        <ele>1063</ele>
        <time>2018-08-04T13:49:10Z</time>
      </trkpt>
      <trkpt lat="44.80249" lon="4.36703">
        <ele>1063</ele>
        <time>2018-08-04T13:49:36Z</time>
      </trkpt>
      <trkpt lat="44.80251" lon="4.36708">
        <ele>1063</ele>
        <time>2018-08-04T13:49:36Z</time>
      </trkpt>
      <trkpt lat="44.80257" lon="4.36722">
        <ele>1065</ele>
        <time>2018-08-04T13:49:38Z</time>
      </trkpt>
      <trkpt lat="44.80263" lon="4.36735">
        <ele>1065</ele>
        <time>2018-08-04T13:49:38Z</time>
      </trkpt>
      <trkpt lat="44.80265" lon="4.36741">
        <ele>1060</ele>
        <time>2018-08-04T13:49:53Z</time>
      </trkpt>
      <trkpt lat="44.80266" lon="4.36744">
        <ele>1060</ele>
        <time>2018-08-04T13:49:54Z</time>
      </trkpt>
      <trkpt lat="44.80269" lon="4.3675">
        <ele>1060</ele>
        <time>2018-08-04T13:49:54Z</time>
      </trkpt>
      <trkpt lat="44.80275" lon="4.36761">
        <ele>1060</ele>
        <time>2018-08-04T13:49:54Z</time>
      </trkpt>
      <trkpt lat="44.80276" lon="4.36762">
        <ele>1060</ele>
        <time>2018-08-04T13:50:21Z</time>
      </trkpt>
      <trkpt lat="44.80282" lon="4.36769">
        <ele>1063</ele>
        <time>2018-08-04T13:50:21Z</time>
      </trkpt>
      <trkpt lat="44.80294" lon="4.36791">
        <ele>1053</ele>
        <time>2018-08-04T13:50:21Z</time>
      </trkpt>
      <trkpt lat="44.80295" lon="4.36792">
        <ele>1059</ele>
        <time>2018-08-04T13:50:21Z</time>
      </trkpt>
      <trkpt lat="44.80308" lon="4.36804">
        <ele>1059</ele>
        <time>2018-08-04T13:50:56Z</time>
      </trkpt>
      <trkpt lat="44.80309" lon="4.36805">
        <ele>1059</ele>
        <time>2018-08-04T13:50:57Z</time>
      </trkpt>
      <trkpt lat="44.80327" lon="4.36833">
        <ele>1059</ele>
        <time>2018-08-04T13:50:57Z</time>
      </trkpt>
      <trkpt lat="44.80331" lon="4.36836">
        <ele>1059</ele>
        <time>2018-08-04T13:50:58Z</time>
      </trkpt>
      <trkpt lat="44.80334" lon="4.36839">
        <ele>1059</ele>
        <time>2018-08-04T13:51:18Z</time>
      </trkpt>
      <trkpt lat="44.80336" lon="4.36845">
        <ele>1059</ele>
        <time>2018-08-04T13:51:18Z</time>
      </trkpt>
      <trkpt lat="44.80347" lon="4.36861">
        <ele>1068</ele>
        <time>2018-08-04T13:51:18Z</time>
      </trkpt>
      <trkpt lat="44.80347" lon="4.36867">
        <ele>1053</ele>
        <time>2018-08-04T13:51:18Z</time>
      </trkpt>
      <trkpt lat="44.80347" lon="4.3687">
        <ele>1068</ele>
        <time>2018-08-04T13:52:00Z</time>
      </trkpt>
      <trkpt lat="44.80347" lon="4.3687">
        <ele>1068</ele>
        <time>2018-08-04T13:52:00Z</time>
      </trkpt>
      <trkpt lat="44.80347" lon="4.36871">
        <ele>1053</ele>
        <time>2018-08-04T13:52:00Z</time>
      </trkpt>
      <trkpt lat="44.80351" lon="4.36873">
        <ele>1053</ele>
        <time>2018-08-04T13:52:00Z</time>
      </trkpt>
      <trkpt lat="44.80353" lon="4.36876">
        <ele>1061</ele>
        <time>2018-08-04T13:52:00Z</time>
      </trkpt>
      <trkpt lat="44.80355" lon="4.36879">
        <ele>1061</ele>
        <time>2018-08-04T13:52:16Z</time>
      </trkpt>
      <trkpt lat="44.80358" lon="4.36883">
        <ele>1061</ele>
        <time>2018-08-04T13:52:16Z</time>
      </trkpt>
      <trkpt lat="44.80359" lon="4.36887">
        <ele>1061</ele>
        <time>2018-08-04T13:52:16Z</time>
      </trkpt>
      <trkpt lat="44.8036" lon="4.36892">
        <ele>1061</ele>
        <time>2018-08-04T13:52:16Z</time>
      </trkpt>
      <trkpt lat="44.80364" lon="4.36896">
        <ele>1061</ele>
        <time>2018-08-04T13:52:32Z</time>
      </trkpt>
      <trkpt lat="44.80367" lon="4.36901">
        <ele>1061</ele>
        <time>2018-08-04T13:52:32Z</time>
      </trkpt>
      <trkpt lat="44.8037" lon="4.36905">
        <ele>1066</ele>
        <time>2018-08-04T13:52:32Z</time>
      </trkpt>
      <trkpt lat="44.80372" lon="4.36911">
        <ele>1066</ele>
        <time>2018-08-04T13:52:32Z</time>
      </trkpt>
      <trkpt lat="44.80376" lon="4.36917">
        <ele>1052</ele>
        <time>2018-08-04T13:52:48Z</time>
      </trkpt>
      <trkpt lat="44.80379" lon="4.36923">
        <ele>1052</ele>
        <time>2018-08-04T13:52:48Z</time>
      </trkpt>
      <trkpt lat="44.80383" lon="4.36928">
        <ele>1052</ele>
        <time>2018-08-04T13:52:48Z</time>
      </trkpt>
      <trkpt lat="44.80387" lon="4.36935">
        <ele>1056</ele>
        <time>2018-08-04T13:52:48Z</time>
      </trkpt>
      <trkpt lat="44.8039" lon="4.36943">
        <ele>1056</ele>
        <time>2018-08-04T13:53:04Z</time>
      </trkpt>
      <trkpt lat="44.80391" lon="4.3695">
        <ele>1056</ele>
        <time>2018-08-04T13:53:04Z</time>
      </trkpt>
      <trkpt lat="44.80391" lon="4.36956">
        <ele>1056</ele>
        <time>2018-08-04T13:53:04Z</time>
      </trkpt>
      <trkpt lat="44.80391" lon="4.36962">
        <ele>1058</ele>
        <time>2018-08-04T13:53:04Z</time>
      </trkpt>
      <trkpt lat="44.80392" lon="4.36968">
        <ele>1058</ele>
        <time>2018-08-04T13:53:20Z</time>
      </trkpt>
      <trkpt lat="44.80395" lon="4.36974">
        <ele>1058</ele>
        <time>2018-08-04T13:53:20Z</time>
      </trkpt>
      <trkpt lat="44.804" lon="4.36979">
        <ele>1058</ele>
        <time>2018-08-04T13:53:20Z</time>
      </trkpt>
      <trkpt lat="44.80402" lon="4.36986">
        <ele>1058</ele>
        <time>2018-08-04T13:53:20Z</time>
      </trkpt>
      <trkpt lat="44.804" lon="4.36992">
        <ele>1059</ele>
        <time>2018-08-04T13:53:45Z</time>
      </trkpt>
      <trkpt lat="44.80398" lon="4.36998">
        <ele>1059</ele>
        <time>2018-08-04T13:53:45Z</time>
      </trkpt>
      <trkpt lat="44.80395" lon="4.37003">
        <ele>1059</ele>
        <time>2018-08-04T13:53:45Z</time>
      </trkpt>
      <trkpt lat="44.80405" lon="4.37021">
        <ele>1040</ele>
        <time>2018-08-04T13:53:45Z</time>
      </trkpt>
      <trkpt lat="44.80415" lon="4.37041">
        <ele>1040</ele>
        <time>2018-08-04T13:54:14Z</time>
      </trkpt>
      <trkpt lat="44.80416" lon="4.37047">
        <ele>1043</ele>
        <time>2018-08-04T13:54:15Z</time>
      </trkpt>
      <trkpt lat="44.80416" lon="4.37048">
        <ele>1043</ele>
        <time>2018-08-04T13:54:15Z</time>
      </trkpt>
      <trkpt lat="44.8042" lon="4.37058">
        <ele>1043</ele>
        <time>2018-08-04T13:54:16Z</time>
      </trkpt>
      <trkpt lat="44.80419" lon="4.3706">
        <ele>1043</ele>
        <time>2018-08-04T13:54:32Z</time>
      </trkpt>
      <trkpt lat="44.80425" lon="4.37069">
        <ele>1043</ele>
        <time>2018-08-04T13:54:32Z</time>
      </trkpt>
      <trkpt lat="44.8043" lon="4.37074">
        <ele>1046</ele>
        <time>2018-08-04T13:54:34Z</time>
      </trkpt>
      <trkpt lat="44.80431" lon="4.3708">
        <ele>1029</ele>
        <time>2018-08-04T13:54:35Z</time>
      </trkpt>
      <trkpt lat="44.80433" lon="4.37089">
        <ele>1029</ele>
        <time>2018-08-04T13:55:03Z</time>
      </trkpt>
      <trkpt lat="44.80442" lon="4.37101">
        <ele>1035</ele>
        <time>2018-08-04T13:55:05Z</time>
      </trkpt>
      <trkpt lat="44.80444" lon="4.37103">
        <ele>1035</ele>
        <time>2018-08-04T13:55:05Z</time>
      </trkpt>
      <trkpt lat="44.80459" lon="4.37128">
        <ele>1027</ele>
        <time>2018-08-04T13:55:05Z</time>
      </trkpt>
      <trkpt lat="44.80462" lon="4.3713">
        <ele>1027</ele>
        <time>2018-08-04T13:55:32Z</time>
      </trkpt>
      <trkpt lat="44.80472" lon="4.37141">
        <ele>1027</ele>
        <time>2018-08-04T13:55:32Z</time>
      </trkpt>
      <trkpt lat="44.80477" lon="4.37149">
        <ele>1027</ele>
        <time>2018-08-04T13:55:32Z</time>
      </trkpt>
      <trkpt lat="44.8048" lon="4.37154">
        <ele>1031</ele>
        <time>2018-08-04T13:55:32Z</time>
      </trkpt>
      <trkpt lat="44.80479" lon="4.37156">
        <ele>1031</ele>
        <time>2018-08-04T13:56:00Z</time>
      </trkpt>
      <trkpt lat="44.80478" lon="4.37159">
        <ele>1031</ele>
        <time>2018-08-04T13:56:00Z</time>
      </trkpt>
      <trkpt lat="44.80476" lon="4.37168">
        <ele>1031</ele>
        <time>2018-08-04T13:56:00Z</time>
      </trkpt>
      <trkpt lat="44.80476" lon="4.37175">
        <ele>1031</ele>
        <time>2018-08-04T13:56:00Z</time>
      </trkpt>
      <trkpt lat="44.80479" lon="4.37181">
        <ele>1032</ele>
        <time>2018-08-04T13:56:00Z</time>
      </trkpt>
      <trkpt lat="44.80482" lon="4.37187">
        <ele>1032</ele>
        <time>2018-08-04T13:56:16Z</time>
      </trkpt>
      <trkpt lat="44.80487" lon="4.37193">
        <ele>1019</ele>
        <time>2018-08-04T13:56:16Z</time>
      </trkpt>
      <trkpt lat="44.80491" lon="4.37197">
        <ele>1019</ele>
        <time>2018-08-04T13:56:16Z</time>
      </trkpt>
      <trkpt lat="44.80497" lon="4.37203">
        <ele>1019</ele>
        <time>2018-08-04T13:56:16Z</time>
      </trkpt>
      <trkpt lat="44.805" lon="4.37204">
        <ele>1019</ele>
        <time>2018-08-04T13:56:36Z</time>
      </trkpt>
      <trkpt lat="44.80506" lon="4.37207">
        <ele>1019</ele>
        <time>2018-08-04T13:56:37Z</time>
      </trkpt>
      <trkpt lat="44.80511" lon="4.37208">
        <ele>1019</ele>
        <time>2018-08-04T13:56:38Z</time>
      </trkpt>
      <trkpt lat="44.80518" lon="4.37211">
        <ele>1014</ele>
        <time>2018-08-04T13:56:39Z</time>
      </trkpt>
      <trkpt lat="44.80523" lon="4.37214">
        <ele>1014</ele>
        <time>2018-08-04T13:57:04Z</time>
      </trkpt>
      <trkpt lat="44.80523" lon="4.37214">
        <ele>1014</ele>
        <time>2018-08-04T13:57:05Z</time>
      </trkpt>
      <trkpt lat="44.80524" lon="4.37216">
        <ele>1014</ele>
        <time>2018-08-04T13:57:06Z</time>
      </trkpt>
      <trkpt lat="44.80527" lon="4.37218">
        <ele>1014</ele>
        <time>2018-08-04T13:57:07Z</time>
      </trkpt>
      <trkpt lat="44.80535" lon="4.37221">
        <ele>1014</ele>
        <time>2018-08-04T13:57:07Z</time>
      </trkpt>
      <trkpt lat="44.80539" lon="4.37224">
        <ele>1014</ele>
        <time>2018-08-04T13:57:24Z</time>
      </trkpt>
      <trkpt lat="44.80551" lon="4.37227">
        <ele>1004</ele>
        <time>2018-08-04T13:57:24Z</time>
      </trkpt>
      <trkpt lat="44.8056" lon="4.37234">
        <ele>1004</ele>
        <time>2018-08-04T13:57:24Z</time>
      </trkpt>
      <trkpt lat="44.80562" lon="4.37235">
        <ele>1004</ele>
        <time>2018-08-04T13:57:24Z</time>
      </trkpt>
      <trkpt lat="44.80571" lon="4.37241">
        <ele>1009</ele>
        <time>2018-08-04T13:57:41Z</time>
      </trkpt>
      <trkpt lat="44.80575" lon="4.37243">
        <ele>1009</ele>
        <time>2018-08-04T13:57:41Z</time>
      </trkpt>
      <trkpt lat="44.80581" lon="4.37246">
        <ele>1009</ele>
        <time>2018-08-04T13:57:41Z</time>
      </trkpt>
      <trkpt lat="44.80586" lon="4.37247">
        <ele>1009</ele>
        <time>2018-08-04T13:57:41Z</time>
      </trkpt>
      <trkpt lat="44.80588" lon="4.37248">
        <ele>1009</ele>
        <time>2018-08-04T13:57:56Z</time>
      </trkpt>
      <trkpt lat="44.80591" lon="4.37249">
        <ele>1009</ele>
        <time>2018-08-04T13:57:56Z</time>
      </trkpt>
      <trkpt lat="44.80597" lon="4.3725">
        <ele>1000</ele>
        <time>2018-08-04T13:57:56Z</time>
      </trkpt>
      <trkpt lat="44.80602" lon="4.37251">
        <ele>1000</ele>
        <time>2018-08-04T13:57:56Z</time>
      </trkpt>
      <trkpt lat="44.80609" lon="4.37251">
        <ele>1000</ele>
        <time>2018-08-04T13:58:12Z</time>
      </trkpt>
      <trkpt lat="44.80614" lon="4.37254">
        <ele>1000</ele>
        <time>2018-08-04T13:58:12Z</time>
      </trkpt>
      <trkpt lat="44.80622" lon="4.37258">
        <ele>1000</ele>
        <time>2018-08-04T13:58:12Z</time>
      </trkpt>
      <trkpt lat="44.80626" lon="4.37261">
        <ele>992</ele>
        <time>2018-08-04T13:58:12Z</time>
      </trkpt>
      <trkpt lat="44.80633" lon="4.37266">
        <ele>999</ele>
        <time>2018-08-04T13:58:28Z</time>
      </trkpt>
      <trkpt lat="44.80638" lon="4.37267">
        <ele>999</ele>
        <time>2018-08-04T13:58:28Z</time>
      </trkpt>
      <trkpt lat="44.80641" lon="4.37271">
        <ele>999</ele>
        <time>2018-08-04T13:58:28Z</time>
      </trkpt>
      <trkpt lat="44.80645" lon="4.37274">
        <ele>999</ele>
        <time>2018-08-04T13:58:28Z</time>
      </trkpt>
      <trkpt lat="44.80646" lon="4.37276">
        <ele>999</ele>
        <time>2018-08-04T13:58:45Z</time>
      </trkpt>
      <trkpt lat="44.80648" lon="4.3728">
        <ele>999</ele>
        <time>2018-08-04T13:58:45Z</time>
      </trkpt>
      <trkpt lat="44.80652" lon="4.37285">
        <ele>999</ele>
        <time>2018-08-04T13:58:45Z</time>
      </trkpt>
      <trkpt lat="44.80658" lon="4.37287">
        <ele>987</ele>
        <time>2018-08-04T13:58:45Z</time>
      </trkpt>
      <trkpt lat="44.80663" lon="4.37288">
        <ele>987</ele>
        <time>2018-08-04T13:59:00Z</time>
      </trkpt>
      <trkpt lat="44.80668" lon="4.3729">
        <ele>987</ele>
        <time>2018-08-04T13:59:00Z</time>
      </trkpt>
      <trkpt lat="44.80669" lon="4.37294">
        <ele>992</ele>
        <time>2018-08-04T13:59:00Z</time>
      </trkpt>
      <trkpt lat="44.80673" lon="4.37297">
        <ele>992</ele>
        <time>2018-08-04T13:59:00Z</time>
      </trkpt>
      <trkpt lat="44.80676" lon="4.37302">
        <ele>992</ele>
        <time>2018-08-04T13:59:16Z</time>
      </trkpt>
      <trkpt lat="44.80684" lon="4.37307">
        <ele>982</ele>
        <time>2018-08-04T13:59:16Z</time>
      </trkpt>
      <trkpt lat="44.80686" lon="4.3731">
        <ele>982</ele>
        <time>2018-08-04T13:59:16Z</time>
      </trkpt>
      <trkpt lat="44.80689" lon="4.37314">
        <ele>982</ele>
        <time>2018-08-04T13:59:16Z</time>
      </trkpt>
      <trkpt lat="44.80693" lon="4.37317">
        <ele>982</ele>
        <time>2018-08-04T13:59:36Z</time>
      </trkpt>
      <trkpt lat="44.807" lon="4.37321">
        <ele>989</ele>
        <time>2018-08-04T13:59:37Z</time>
      </trkpt>
      <trkpt lat="44.80705" lon="4.37322">
        <ele>989</ele>
        <time>2018-08-04T13:59:39Z</time>
      </trkpt>
      <trkpt lat="44.80717" lon="4.37322">
        <ele>982</ele>
        <time>2018-08-04T13:59:40Z</time>
      </trkpt>
      <trkpt lat="44.80716" lon="4.37321">
        <ele>982</ele>
        <time>2018-08-04T14:00:09Z</time>
      </trkpt>
      <trkpt lat="44.80716" lon="4.37321">
        <ele>982</ele>
        <time>2018-08-04T14:00:09Z</time>
      </trkpt>
      <trkpt lat="44.80731" lon="4.37325">
        <ele>982</ele>
        <time>2018-08-04T14:00:09Z</time>
      </trkpt>
      <trkpt lat="44.80749" lon="4.37326">
        <ele>974</ele>
        <time>2018-08-04T14:00:09Z</time>
      </trkpt>
      <trkpt lat="44.8075" lon="4.37326">
        <ele>974</ele>
        <time>2018-08-04T14:00:31Z</time>
      </trkpt>
      <trkpt lat="44.80751" lon="4.37328">
        <ele>974</ele>
        <time>2018-08-04T14:00:31Z</time>
      </trkpt>
      <trkpt lat="44.80753" lon="4.37327">
        <ele>974</ele>
        <time>2018-08-04T14:00:31Z</time>
      </trkpt>
      <trkpt lat="44.80758" lon="4.37326">
        <ele>974</ele>
        <time>2018-08-04T14:00:31Z</time>
      </trkpt>
      <trkpt lat="44.80772" lon="4.37328">
        <ele>963</ele>
        <time>2018-08-04T14:00:31Z</time>
      </trkpt>
      <trkpt lat="44.80773" lon="4.37328">
        <ele>963</ele>
        <time>2018-08-04T14:00:56Z</time>
      </trkpt>
      <trkpt lat="44.80784" lon="4.37329">
        <ele>963</ele>
        <time>2018-08-04T14:00:56Z</time>
      </trkpt>
      <trkpt lat="44.80788" lon="4.37329">
        <ele>963</ele>
        <time>2018-08-04T14:00:56Z</time>
      </trkpt>
      <trkpt lat="44.80798" lon="4.3733">
        <ele>957</ele>
        <time>2018-08-04T14:00:56Z</time>
      </trkpt>
      <trkpt lat="44.808" lon="4.3733">
        <ele>957</ele>
        <time>2018-08-04T14:01:15Z</time>
      </trkpt>
      <trkpt lat="44.80807" lon="4.37329">
        <ele>957</ele>
        <time>2018-08-04T14:01:15Z</time>
      </trkpt>
      <trkpt lat="44.80811" lon="4.37328">
        <ele>957</ele>
        <time>2018-08-04T14:01:15Z</time>
      </trkpt>
      <trkpt lat="44.80823" lon="4.37329">
        <ele>946</ele>
        <time>2018-08-04T14:01:15Z</time>
      </trkpt>
      <trkpt lat="44.80845" lon="4.37346">
        <ele>946</ele>
        <time>2018-08-04T14:02:01Z</time>
      </trkpt>
      <trkpt lat="44.80846" lon="4.3735">
        <ele>950</ele>
        <time>2018-08-04T14:02:01Z</time>
      </trkpt>
      <trkpt lat="44.80846" lon="4.37353">
        <ele>950</ele>
        <time>2018-08-04T14:02:01Z</time>
      </trkpt>
      <trkpt lat="44.80847" lon="4.37358">
        <ele>950</ele>
        <time>2018-08-04T14:02:01Z</time>
      </trkpt>
      <trkpt lat="44.80853" lon="4.37372">
        <ele>938</ele>
        <time>2018-08-04T14:02:01Z</time>
      </trkpt>
      <trkpt lat="44.80854" lon="4.37377">
        <ele>939</ele>
        <time>2018-08-04T14:02:16Z</time>
      </trkpt>
      <trkpt lat="44.80856" lon="4.37382">
        <ele>939</ele>
        <time>2018-08-04T14:02:16Z</time>
      </trkpt>
      <trkpt lat="44.80857" lon="4.37386">
        <ele>939</ele>
        <time>2018-08-04T14:02:16Z</time>
      </trkpt>
      <trkpt lat="44.80858" lon="4.37389">
        <ele>939</ele>
        <time>2018-08-04T14:02:17Z</time>
      </trkpt>
      <trkpt lat="44.80859" lon="4.37392">
        <ele>939</ele>
        <time>2018-08-04T14:02:34Z</time>
      </trkpt>
      <trkpt lat="44.80859" lon="4.37397">
        <ele>939</ele>
        <time>2018-08-04T14:02:34Z</time>
      </trkpt>
      <trkpt lat="44.80858" lon="4.37402">
        <ele>939</ele>
        <time>2018-08-04T14:02:34Z</time>
      </trkpt>
      <trkpt lat="44.80856" lon="4.37414">
        <ele>941</ele>
        <time>2018-08-04T14:02:35Z</time>
      </trkpt>
      <trkpt lat="44.80866" lon="4.37414">
        <ele>941</ele>
        <time>2018-08-04T14:03:51Z</time>
      </trkpt>
      <trkpt lat="44.80871" lon="4.37412">
        <ele>941</ele>
        <time>2018-08-04T14:03:51Z</time>
      </trkpt>
      <trkpt lat="44.80873" lon="4.37409">
        <ele>941</ele>
        <time>2018-08-04T14:03:51Z</time>
      </trkpt>
      <trkpt lat="44.80873" lon="4.37408">
        <ele>941</ele>
        <time>2018-08-04T14:03:51Z</time>
      </trkpt>
      <trkpt lat="44.80874" lon="4.37408">
        <ele>941</ele>
        <time>2018-08-04T14:03:52Z</time>
      </trkpt>
      <trkpt lat="44.80874" lon="4.37408">
        <ele>941</ele>
        <time>2018-08-04T14:04:28Z</time>
      </trkpt>
      <trkpt lat="44.80873" lon="4.37408">
        <ele>941</ele>
        <time>2018-08-04T14:04:28Z</time>
      </trkpt>
      <trkpt lat="44.80873" lon="4.37408">
        <ele>941</ele>
        <time>2018-08-04T14:04:28Z</time>
      </trkpt>
      <trkpt lat="44.80868" lon="4.37402">
        <ele>939</ele>
        <time>2018-08-04T14:04:28Z</time>
      </trkpt>
      <trkpt lat="44.80867" lon="4.37398">
        <ele>939</ele>
        <time>2018-08-04T14:04:28Z</time>
      </trkpt>
      <trkpt lat="44.80868" lon="4.37395">
        <ele>939</ele>
        <time>2018-08-04T14:05:24Z</time>
      </trkpt>
      <trkpt lat="44.80869" lon="4.37392">
        <ele>939</ele>
        <time>2018-08-04T14:05:24Z</time>
      </trkpt>
      <trkpt lat="44.80866" lon="4.37388">
        <ele>939</ele>
        <time>2018-08-04T14:05:24Z</time>
      </trkpt>
      <trkpt lat="44.80865" lon="4.37382">
        <ele>939</ele>
        <time>2018-08-04T14:05:24Z</time>
      </trkpt>
      <trkpt lat="44.80867" lon="4.37377">
        <ele>939</ele>
        <time>2018-08-04T14:05:24Z</time>
      </trkpt>
      <trkpt lat="44.80866" lon="4.37368">
        <ele>938</ele>
        <time>2018-08-04T14:05:40Z</time>
      </trkpt>
      <trkpt lat="44.80863" lon="4.37364">
        <ele>938</ele>
        <time>2018-08-04T14:05:40Z</time>
      </trkpt>
      <trkpt lat="44.80859" lon="4.37359">
        <ele>938</ele>
        <time>2018-08-04T14:05:40Z</time>
      </trkpt>
      <trkpt lat="44.8086" lon="4.37354">
        <ele>938</ele>
        <time>2018-08-04T14:05:40Z</time>
      </trkpt>
      <trkpt lat="44.80861" lon="4.37344">
        <ele>934</ele>
        <time>2018-08-04T14:05:56Z</time>
      </trkpt>
      <trkpt lat="44.80864" lon="4.37338">
        <ele>934</ele>
        <time>2018-08-04T14:05:56Z</time>
      </trkpt>
      <trkpt lat="44.80863" lon="4.37333">
        <ele>934</ele>
        <time>2018-08-04T14:05:56Z</time>
      </trkpt>
      <trkpt lat="44.80865" lon="4.37328">
        <ele>934</ele>
        <time>2018-08-04T14:05:56Z</time>
      </trkpt>
      <trkpt lat="44.80866" lon="4.37325">
        <ele>934</ele>
        <time>2018-08-04T14:06:13Z</time>
      </trkpt>
      <trkpt lat="44.80865" lon="4.37324">
        <ele>934</ele>
        <time>2018-08-04T14:06:13Z</time>
      </trkpt>
      <trkpt lat="44.80863" lon="4.3732">
        <ele>934</ele>
        <time>2018-08-04T14:06:13Z</time>
      </trkpt>
      <trkpt lat="44.80857" lon="4.37315">
        <ele>929</ele>
        <time>2018-08-04T14:06:13Z</time>
      </trkpt>
      <trkpt lat="44.80853" lon="4.37309">
        <ele>929</ele>
        <time>2018-08-04T14:06:32Z</time>
      </trkpt>
      <trkpt lat="44.80845" lon="4.37302">
        <ele>937</ele>
        <time>2018-08-04T14:06:32Z</time>
      </trkpt>
      <trkpt lat="44.80844" lon="4.37299">
        <ele>937</ele>
        <time>2018-08-04T14:06:32Z</time>
      </trkpt>
      <trkpt lat="44.80839" lon="4.37294">
        <ele>937</ele>
        <time>2018-08-04T14:06:32Z</time>
      </trkpt>
      <trkpt lat="44.80828" lon="4.37288">
        <ele>932</ele>
        <time>2018-08-04T14:06:52Z</time>
      </trkpt>
      <trkpt lat="44.80826" lon="4.37287">
        <ele>932</ele>
        <time>2018-08-04T14:06:52Z</time>
      </trkpt>
      <trkpt lat="44.8082" lon="4.37279">
        <ele>932</ele>
        <time>2018-08-04T14:06:52Z</time>
      </trkpt>
      <trkpt lat="44.80819" lon="4.37277">
        <ele>939</ele>
        <time>2018-08-04T14:06:52Z</time>
      </trkpt>
      <trkpt lat="44.80813" lon="4.37268">
        <ele>939</ele>
        <time>2018-08-04T14:07:08Z</time>
      </trkpt>
      <trkpt lat="44.80808" lon="4.37264">
        <ele>939</ele>
        <time>2018-08-04T14:07:08Z</time>
      </trkpt>
      <trkpt lat="44.80804" lon="4.37262">
        <ele>932</ele>
        <time>2018-08-04T14:07:08Z</time>
      </trkpt>
      <trkpt lat="44.80801" lon="4.37256">
        <ele>932</ele>
        <time>2018-08-04T14:07:08Z</time>
      </trkpt>
      <trkpt lat="44.80796" lon="4.37254">
        <ele>932</ele>
        <time>2018-08-04T14:07:24Z</time>
      </trkpt>
      <trkpt lat="44.80788" lon="4.37249">
        <ele>937</ele>
        <time>2018-08-04T14:07:25Z</time>
      </trkpt>
      <trkpt lat="44.80781" lon="4.37241">
        <ele>937</ele>
        <time>2018-08-04T14:07:25Z</time>
      </trkpt>
      <trkpt lat="44.80779" lon="4.37239">
        <ele>937</ele>
        <time>2018-08-04T14:07:25Z</time>
      </trkpt>
      <trkpt lat="44.80774" lon="4.37236">
        <ele>933</ele>
        <time>2018-08-04T14:07:46Z</time>
      </trkpt>
      <trkpt lat="44.80765" lon="4.37228">
        <ele>933</ele>
        <time>2018-08-04T14:07:46Z</time>
      </trkpt>
      <trkpt lat="44.80763" lon="4.37228">
        <ele>942</ele>
        <time>2018-08-04T14:07:46Z</time>
      </trkpt>
      <trkpt lat="44.80758" lon="4.37224">
        <ele>942</ele>
        <time>2018-08-04T14:07:46Z</time>
      </trkpt>
      <trkpt lat="44.80755" lon="4.37221">
        <ele>942</ele>
        <time>2018-08-04T14:08:04Z</time>
      </trkpt>
      <trkpt lat="44.80739" lon="4.37213">
        <ele>942</ele>
        <time>2018-08-04T14:08:04Z</time>
      </trkpt>
      <trkpt lat="44.80738" lon="4.37212">
        <ele>942</ele>
        <time>2018-08-04T14:08:04Z</time>
      </trkpt>
      <trkpt lat="44.80731" lon="4.3721">
        <ele>953</ele>
        <time>2018-08-04T14:08:05Z</time>
      </trkpt>
      <trkpt lat="44.80724" lon="4.37209">
        <ele>953</ele>
        <time>2018-08-04T14:08:28Z</time>
      </trkpt>
      <trkpt lat="44.80725" lon="4.3721">
        <ele>953</ele>
        <time>2018-08-04T14:08:28Z</time>
      </trkpt>
      <trkpt lat="44.80741" lon="4.37207">
        <ele>940</ele>
        <time>2018-08-04T14:08:28Z</time>
      </trkpt>
      <trkpt lat="44.80742" lon="4.37207">
        <ele>940</ele>
        <time>2018-08-04T14:08:28Z</time>
      </trkpt>
      <trkpt lat="44.80756" lon="4.37206">
        <ele>940</ele>
        <time>2018-08-04T14:08:48Z</time>
      </trkpt>
      <trkpt lat="44.80757" lon="4.37206">
        <ele>940</ele>
        <time>2018-08-04T14:08:48Z</time>
      </trkpt>
      <trkpt lat="44.80769" lon="4.37213">
        <ele>933</ele>
        <time>2018-08-04T14:08:48Z</time>
      </trkpt>
      <trkpt lat="44.8077" lon="4.37214">
        <ele>933</ele>
        <time>2018-08-04T14:08:48Z</time>
      </trkpt>
      <trkpt lat="44.80776" lon="4.37216">
        <ele>933</ele>
        <time>2018-08-04T14:09:04Z</time>
      </trkpt>
      <trkpt lat="44.80781" lon="4.37219">
        <ele>933</ele>
        <time>2018-08-04T14:09:04Z</time>
      </trkpt>
      <trkpt lat="44.80786" lon="4.3722">
        <ele>933</ele>
        <time>2018-08-04T14:09:04Z</time>
      </trkpt>
      <trkpt lat="44.8079" lon="4.37224">
        <ele>933</ele>
        <time>2018-08-04T14:09:04Z</time>
      </trkpt>
      <trkpt lat="44.80806" lon="4.37227">
        <ele>927</ele>
        <time>2018-08-04T14:09:48Z</time>
      </trkpt>
      <trkpt lat="44.80806" lon="4.37227">
        <ele>927</ele>
        <time>2018-08-04T14:09:48Z</time>
      </trkpt>
      <trkpt lat="44.80826" lon="4.37228">
        <ele>923</ele>
        <time>2018-08-04T14:09:48Z</time>
      </trkpt>
      <trkpt lat="44.80841" lon="4.37236">
        <ele>923</ele>
        <time>2018-08-04T14:09:48Z</time>
      </trkpt>
      <trkpt lat="44.80842" lon="4.37237">
        <ele>928</ele>
        <time>2018-08-04T14:09:48Z</time>
      </trkpt>
      <trkpt lat="44.80848" lon="4.3724">
        <ele>922</ele>
        <time>2018-08-04T14:10:04Z</time>
      </trkpt>
      <trkpt lat="44.80854" lon="4.37243">
        <ele>922</ele>
        <time>2018-08-04T14:10:05Z</time>
      </trkpt>
      <trkpt lat="44.8086" lon="4.37248">
        <ele>922</ele>
        <time>2018-08-04T14:10:06Z</time>
      </trkpt>
      <trkpt lat="44.80861" lon="4.37249">
        <ele>922</ele>
        <time>2018-08-04T14:10:07Z</time>
      </trkpt>
      <trkpt lat="44.80895" lon="4.37268">
        <ele>915</ele>
        <time>2018-08-04T14:11:08Z</time>
      </trkpt>
      <trkpt lat="44.80902" lon="4.37269">
        <ele>915</ele>
        <time>2018-08-04T14:11:09Z</time>
      </trkpt>
      <trkpt lat="44.80912" lon="4.37272">
        <ele>908</ele>
        <time>2018-08-04T14:11:09Z</time>
      </trkpt>
      <trkpt lat="44.80923" lon="4.37281">
        <ele>908</ele>
        <time>2018-08-04T14:11:09Z</time>
      </trkpt>
      <trkpt lat="44.80924" lon="4.37281">
        <ele>908</ele>
        <time>2018-08-04T14:11:09Z</time>
      </trkpt>
      <trkpt lat="44.80932" lon="4.37283">
        <ele>902</ele>
        <time>2018-08-04T14:11:34Z</time>
      </trkpt>
      <trkpt lat="44.80933" lon="4.37283">
        <ele>902</ele>
        <time>2018-08-04T14:11:34Z</time>
      </trkpt>
      <trkpt lat="44.80946" lon="4.37291">
        <ele>902</ele>
        <time>2018-08-04T14:11:34Z</time>
      </trkpt>
      <trkpt lat="44.80951" lon="4.37294">
        <ele>903</ele>
        <time>2018-08-04T14:11:34Z</time>
      </trkpt>
      <trkpt lat="44.80959" lon="4.37295">
        <ele>896</ele>
        <time>2018-08-04T14:12:16Z</time>
      </trkpt>
      <trkpt lat="44.8096" lon="4.37295">
        <ele>896</ele>
        <time>2018-08-04T14:12:16Z</time>
      </trkpt>
      <trkpt lat="44.80961" lon="4.37295">
        <ele>896</ele>
        <time>2018-08-04T14:12:16Z</time>
      </trkpt>
      <trkpt lat="44.80964" lon="4.37294">
        <ele>896</ele>
        <time>2018-08-04T14:12:16Z</time>
      </trkpt>
      <trkpt lat="44.80969" lon="4.37293">
        <ele>896</ele>
        <time>2018-08-04T14:12:16Z</time>
      </trkpt>
      <trkpt lat="44.80968" lon="4.37295">
        <ele>896</ele>
        <time>2018-08-04T14:12:32Z</time>
      </trkpt>
      <trkpt lat="44.80975" lon="4.37298">
        <ele>896</ele>
        <time>2018-08-04T14:12:32Z</time>
      </trkpt>
      <trkpt lat="44.80977" lon="4.37299">
        <ele>896</ele>
        <time>2018-08-04T14:12:32Z</time>
      </trkpt>
      <trkpt lat="44.80984" lon="4.37303">
        <ele>896</ele>
        <time>2018-08-04T14:12:32Z</time>
      </trkpt>
      <trkpt lat="44.80988" lon="4.37308">
        <ele>891</ele>
        <time>2018-08-04T14:12:48Z</time>
      </trkpt>
      <trkpt lat="44.80997" lon="4.37309">
        <ele>891</ele>
        <time>2018-08-04T14:12:48Z</time>
      </trkpt>
      <trkpt lat="44.81003" lon="4.37309">
        <ele>891</ele>
        <time>2018-08-04T14:12:48Z</time>
      </trkpt>
      <trkpt lat="44.81005" lon="4.37309">
        <ele>891</ele>
        <time>2018-08-04T14:12:48Z</time>
      </trkpt>
      <trkpt lat="44.81013" lon="4.37312">
        <ele>891</ele>
        <time>2018-08-04T14:13:04Z</time>
      </trkpt>
      <trkpt lat="44.81018" lon="4.37315">
        <ele>888</ele>
        <time>2018-08-04T14:13:04Z</time>
      </trkpt>
      <trkpt lat="44.8102" lon="4.37318">
        <ele>888</ele>
        <time>2018-08-04T14:13:04Z</time>
      </trkpt>
      <trkpt lat="44.8102" lon="4.37323">
        <ele>884</ele>
        <time>2018-08-04T14:13:04Z</time>
      </trkpt>
      <trkpt lat="44.81018" lon="4.3733">
        <ele>884</ele>
        <time>2018-08-04T14:13:20Z</time>
      </trkpt>
      <trkpt lat="44.81018" lon="4.37337">
        <ele>884</ele>
        <time>2018-08-04T14:13:20Z</time>
      </trkpt>
      <trkpt lat="44.81018" lon="4.37344">
        <ele>884</ele>
        <time>2018-08-04T14:13:20Z</time>
      </trkpt>
      <trkpt lat="44.81017" lon="4.37349">
        <ele>882</ele>
        <time>2018-08-04T14:13:20Z</time>
      </trkpt>
      <trkpt lat="44.81018" lon="4.37354">
        <ele>882</ele>
        <time>2018-08-04T14:13:36Z</time>
      </trkpt>
      <trkpt lat="44.81018" lon="4.37361">
        <ele>882</ele>
        <time>2018-08-04T14:13:36Z</time>
      </trkpt>
      <trkpt lat="44.81017" lon="4.37366">
        <ele>882</ele>
        <time>2018-08-04T14:13:36Z</time>
      </trkpt>
      <trkpt lat="44.81015" lon="4.37372">
        <ele>882</ele>
        <time>2018-08-04T14:13:36Z</time>
      </trkpt>
      <trkpt lat="44.81012" lon="4.37375">
        <ele>879</ele>
        <time>2018-08-04T14:13:52Z</time>
      </trkpt>
      <trkpt lat="44.81011" lon="4.37381">
        <ele>879</ele>
        <time>2018-08-04T14:13:52Z</time>
      </trkpt>
      <trkpt lat="44.81008" lon="4.37387">
        <ele>879</ele>
        <time>2018-08-04T14:13:52Z</time>
      </trkpt>
      <trkpt lat="44.81008" lon="4.37393">
        <ele>879</ele>
        <time>2018-08-04T14:13:52Z</time>
      </trkpt>
      <trkpt lat="44.81008" lon="4.37401">
        <ele>879</ele>
        <time>2018-08-04T14:14:08Z</time>
      </trkpt>
      <trkpt lat="44.81007" lon="4.37408">
        <ele>877</ele>
        <time>2018-08-04T14:14:08Z</time>
      </trkpt>
      <trkpt lat="44.81007" lon="4.37415">
        <ele>877</ele>
        <time>2018-08-04T14:14:08Z</time>
      </trkpt>
      <trkpt lat="44.81008" lon="4.37422">
        <ele>877</ele>
        <time>2018-08-04T14:14:08Z</time>
      </trkpt>
      <trkpt lat="44.8101" lon="4.37426">
        <ele>877</ele>
        <time>2018-08-04T14:14:32Z</time>
      </trkpt>
      <trkpt lat="44.8101" lon="4.37432">
        <ele>878</ele>
        <time>2018-08-04T14:14:33Z</time>
      </trkpt>
      <trkpt lat="44.81008" lon="4.37437">
        <ele>878</ele>
        <time>2018-08-04T14:14:33Z</time>
      </trkpt>
      <trkpt lat="44.81011" lon="4.37451">
        <ele>878</ele>
        <time>2018-08-04T14:14:34Z</time>
      </trkpt>
      <trkpt lat="44.81011" lon="4.37458">
        <ele>878</ele>
        <time>2018-08-04T14:14:44Z</time>
      </trkpt>
      <trkpt lat="44.8101" lon="4.3746">
        <ele>877</ele>
        <time>2018-08-04T14:14:44Z</time>
      </trkpt>
      <trkpt lat="44.81012" lon="4.37464">
        <ele>877</ele>
        <time>2018-08-04T14:14:44Z</time>
      </trkpt>
      <trkpt lat="44.8101" lon="4.37473">
        <ele>877</ele>
        <time>2018-08-04T14:14:44Z</time>
      </trkpt>
      <trkpt lat="44.81008" lon="4.37478">
        <ele>877</ele>
        <time>2018-08-04T14:15:08Z</time>
      </trkpt>
      <trkpt lat="44.81006" lon="4.3748">
        <ele>877</ele>
        <time>2018-08-04T14:15:08Z</time>
      </trkpt>
      <trkpt lat="44.80999" lon="4.37494">
        <ele>876</ele>
        <time>2018-08-04T14:15:08Z</time>
      </trkpt>
      <trkpt lat="44.81" lon="4.37495">
        <ele>876</ele>
        <time>2018-08-04T14:15:08Z</time>
      </trkpt>
      <trkpt lat="44.80999" lon="4.37498">
        <ele>876</ele>
        <time>2018-08-04T14:15:24Z</time>
      </trkpt>
      <trkpt lat="44.80997" lon="4.37505">
        <ele>876</ele>
        <time>2018-08-04T14:15:24Z</time>
      </trkpt>
      <trkpt lat="44.80995" lon="4.37512">
        <ele>876</ele>
        <time>2018-08-04T14:15:24Z</time>
      </trkpt>
      <trkpt lat="44.80995" lon="4.37522">
        <ele>874</ele>
        <time>2018-08-04T14:15:24Z</time>
      </trkpt>
      <trkpt lat="44.80987" lon="4.37535">
        <ele>874</ele>
        <time>2018-08-04T14:15:51Z</time>
      </trkpt>
      <trkpt lat="44.80984" lon="4.37543">
        <ele>874</ele>
        <time>2018-08-04T14:15:51Z</time>
      </trkpt>
      <trkpt lat="44.80983" lon="4.37547">
        <ele>874</ele>
        <time>2018-08-04T14:15:51Z</time>
      </trkpt>
      <trkpt lat="44.8098" lon="4.37557">
        <ele>874</ele>
        <time>2018-08-04T14:15:51Z</time>
      </trkpt>
      <trkpt lat="44.8098" lon="4.3756">
        <ele>874</ele>
        <time>2018-08-04T14:16:15Z</time>
      </trkpt>
      <trkpt lat="44.80978" lon="4.37569">
        <ele>874</ele>
        <time>2018-08-04T14:16:15Z</time>
      </trkpt>
      <trkpt lat="44.8098" lon="4.37587">
        <ele>870</ele>
        <time>2018-08-04T14:16:15Z</time>
      </trkpt>
      <trkpt lat="44.80986" lon="4.37595">
        <ele>871</ele>
        <time>2018-08-04T14:16:16Z</time>
      </trkpt>
      <trkpt lat="44.8099" lon="4.37597">
        <ele>867</ele>
        <time>2018-08-04T14:16:38Z</time>
      </trkpt>
      <trkpt lat="44.80991" lon="4.376">
        <ele>867</ele>
        <time>2018-08-04T14:16:40Z</time>
      </trkpt>
      <trkpt lat="44.8099" lon="4.37606">
        <ele>867</ele>
        <time>2018-08-04T14:16:41Z</time>
      </trkpt>
      <trkpt lat="44.8099" lon="4.37607">
        <ele>867</ele>
        <time>2018-08-04T14:16:41Z</time>
      </trkpt>
      <trkpt lat="44.8099" lon="4.3761">
        <ele>867</ele>
        <time>2018-08-04T14:16:42Z</time>
      </trkpt>
      <trkpt lat="44.8099" lon="4.37611">
        <ele>867</ele>
        <time>2018-08-04T14:17:05Z</time>
      </trkpt>
      <trkpt lat="44.8099" lon="4.37612">
        <ele>867</ele>
        <time>2018-08-04T14:17:06Z</time>
      </trkpt>
      <trkpt lat="44.80992" lon="4.37615">
        <ele>867</ele>
        <time>2018-08-04T14:17:07Z</time>
      </trkpt>
      <trkpt lat="44.80995" lon="4.37621">
        <ele>867</ele>
        <time>2018-08-04T14:17:08Z</time>
      </trkpt>
      <trkpt lat="44.81" lon="4.37634">
        <ele>864</ele>
        <time>2018-08-04T14:17:08Z</time>
      </trkpt>
      <trkpt lat="44.81004" lon="4.37637">
        <ele>864</ele>
        <time>2018-08-04T14:17:32Z</time>
      </trkpt>
      <trkpt lat="44.81011" lon="4.3765">
        <ele>864</ele>
        <time>2018-08-04T14:17:33Z</time>
      </trkpt>
      <trkpt lat="44.81013" lon="4.37654">
        <ele>863</ele>
        <time>2018-08-04T14:17:33Z</time>
      </trkpt>
      <trkpt lat="44.81014" lon="4.37671">
        <ele>873</ele>
        <time>2018-08-04T14:17:34Z</time>
      </trkpt>
      <trkpt lat="44.81015" lon="4.37679">
        <ele>873</ele>
        <time>2018-08-04T14:17:52Z</time>
      </trkpt>
      <trkpt lat="44.81018" lon="4.37689">
        <ele>870</ele>
        <time>2018-08-04T14:17:52Z</time>
      </trkpt>
      <trkpt lat="44.81026" lon="4.37707">
        <ele>870</ele>
        <time>2018-08-04T14:17:52Z</time>
      </trkpt>
      <trkpt lat="44.81027" lon="4.37708">
        <ele>870</ele>
        <time>2018-08-04T14:17:52Z</time>
      </trkpt>
      <trkpt lat="44.81033" lon="4.37724">
        <ele>866</ele>
        <time>2018-08-04T14:18:13Z</time>
      </trkpt>
      <trkpt lat="44.81034" lon="4.37726">
        <ele>866</ele>
        <time>2018-08-04T14:18:13Z</time>
      </trkpt>
      <trkpt lat="44.81035" lon="4.37731">
        <ele>866</ele>
        <time>2018-08-04T14:18:13Z</time>
      </trkpt>
      <trkpt lat="44.81037" lon="4.37738">
        <ele>862</ele>
        <time>2018-08-04T14:18:13Z</time>
      </trkpt>
      <trkpt lat="44.81041" lon="4.37747">
        <ele>862</ele>
        <time>2018-08-04T14:18:50Z</time>
      </trkpt>
      <trkpt lat="44.81047" lon="4.37761">
        <ele>870</ele>
        <time>2018-08-04T14:18:51Z</time>
      </trkpt>
      <trkpt lat="44.81049" lon="4.37769">
        <ele>868</ele>
        <time>2018-08-04T14:18:52Z</time>
      </trkpt>
      <trkpt lat="44.81051" lon="4.37783">
        <ele>868</ele>
        <time>2018-08-04T14:18:53Z</time>
      </trkpt>
      <trkpt lat="44.81052" lon="4.37788">
        <ele>868</ele>
        <time>2018-08-04T14:19:21Z</time>
      </trkpt>
      <trkpt lat="44.81058" lon="4.37813">
        <ele>869</ele>
        <time>2018-08-04T14:19:21Z</time>
      </trkpt>
      <trkpt lat="44.81058" lon="4.37815">
        <ele>869</ele>
        <time>2018-08-04T14:19:21Z</time>
      </trkpt>
      <trkpt lat="44.81054" lon="4.37829">
        <ele>870</ele>
        <time>2018-08-04T14:19:21Z</time>
      </trkpt>
      <trkpt lat="44.81054" lon="4.3783">
        <ele>870</ele>
        <time>2018-08-04T14:19:44Z</time>
      </trkpt>
      <trkpt lat="44.81053" lon="4.37846">
        <ele>870</ele>
        <time>2018-08-04T14:19:44Z</time>
      </trkpt>
      <trkpt lat="44.8105" lon="4.3787">
        <ele>870</ele>
        <time>2018-08-04T14:19:44Z</time>
      </trkpt>
      <trkpt lat="44.8105" lon="4.3787">
        <ele>870</ele>
        <time>2018-08-04T14:19:44Z</time>
      </trkpt>
      <trkpt lat="44.8105" lon="4.37882">
        <ele>869</ele>
        <time>2018-08-04T14:20:08Z</time>
      </trkpt>
      <trkpt lat="44.8105" lon="4.37885">
        <ele>869</ele>
        <time>2018-08-04T14:20:08Z</time>
      </trkpt>
      <trkpt lat="44.8105" lon="4.37897">
        <ele>869</ele>
        <time>2018-08-04T14:20:08Z</time>
      </trkpt>
      <trkpt lat="44.81052" lon="4.37901">
        <ele>869</ele>
        <time>2018-08-04T14:20:08Z</time>
      </trkpt>
      <trkpt lat="44.8106" lon="4.37903">
        <ele>869</ele>
        <time>2018-08-04T14:20:44Z</time>
      </trkpt>
      <trkpt lat="44.81059" lon="4.37905">
        <ele>869</ele>
        <time>2018-08-04T14:20:44Z</time>
      </trkpt>
      <trkpt lat="44.81061" lon="4.37905">
        <ele>869</ele>
        <time>2018-08-04T14:20:44Z</time>
      </trkpt>
      <trkpt lat="44.81064" lon="4.37907">
        <ele>869</ele>
        <time>2018-08-04T14:20:44Z</time>
      </trkpt>
      <trkpt lat="44.81064" lon="4.37908">
        <ele>869</ele>
        <time>2018-08-04T14:20:44Z</time>
      </trkpt>
      <trkpt lat="44.81065" lon="4.3791">
        <ele>869</ele>
        <time>2018-08-04T14:21:00Z</time>
      </trkpt>
      <trkpt lat="44.81068" lon="4.37913">
        <ele>869</ele>
        <time>2018-08-04T14:21:00Z</time>
      </trkpt>
      <trkpt lat="44.81072" lon="4.37917">
        <ele>876</ele>
        <time>2018-08-04T14:21:00Z</time>
      </trkpt>
      <trkpt lat="44.81076" lon="4.37921">
        <ele>876</ele>
        <time>2018-08-04T14:21:00Z</time>
      </trkpt>
      <trkpt lat="44.81081" lon="4.37928">
        <ele>876</ele>
        <time>2018-08-04T14:21:21Z</time>
      </trkpt>
      <trkpt lat="44.81085" lon="4.37934">
        <ele>875</ele>
        <time>2018-08-04T14:21:21Z</time>
      </trkpt>
      <trkpt lat="44.81085" lon="4.37938">
        <ele>875</ele>
        <time>2018-08-04T14:21:21Z</time>
      </trkpt>
      <trkpt lat="44.81081" lon="4.3794">
        <ele>875</ele>
        <time>2018-08-04T14:21:21Z</time>
      </trkpt>
      <trkpt lat="44.81077" lon="4.37945">
        <ele>875</ele>
        <time>2018-08-04T14:21:21Z</time>
      </trkpt>
      <trkpt lat="44.81073" lon="4.37949">
        <ele>875</ele>
        <time>2018-08-04T14:21:43Z</time>
      </trkpt>
      <trkpt lat="44.81071" lon="4.37952">
        <ele>875</ele>
        <time>2018-08-04T14:21:44Z</time>
      </trkpt>
      <trkpt lat="44.81069" lon="4.37954">
        <ele>869</ele>
        <time>2018-08-04T14:21:45Z</time>
      </trkpt>
      <trkpt lat="44.81062" lon="4.3797">
        <ele>871</ele>
        <time>2018-08-04T14:21:45Z</time>
      </trkpt>
      <trkpt lat="44.81062" lon="4.37974">
        <ele>871</ele>
        <time>2018-08-04T14:21:57Z</time>
      </trkpt>
      <trkpt lat="44.81061" lon="4.37976">
        <ele>871</ele>
        <time>2018-08-04T14:21:57Z</time>
      </trkpt>
      <trkpt lat="44.8106" lon="4.3798">
        <ele>871</ele>
        <time>2018-08-04T14:21:58Z</time>
      </trkpt>
      <trkpt lat="44.81058" lon="4.37987">
        <ele>872</ele>
        <time>2018-08-04T14:21:58Z</time>
      </trkpt>
      <trkpt lat="44.81057" lon="4.37991">
        <ele>872</ele>
        <time>2018-08-04T14:22:13Z</time>
      </trkpt>
      <trkpt lat="44.81055" lon="4.37995">
        <ele>872</ele>
        <time>2018-08-04T14:22:14Z</time>
      </trkpt>
      <trkpt lat="44.81053" lon="4.38">
        <ele>872</ele>
        <time>2018-08-04T14:22:14Z</time>
      </trkpt>
      <trkpt lat="44.81051" lon="4.38009">
        <ele>872</ele>
        <time>2018-08-04T14:22:14Z</time>
      </trkpt>
      <trkpt lat="44.8105" lon="4.38014">
        <ele>878</ele>
        <time>2018-08-04T14:22:32Z</time>
      </trkpt>
      <trkpt lat="44.81049" lon="4.38021">
        <ele>878</ele>
        <time>2018-08-04T14:22:32Z</time>
      </trkpt>
      <trkpt lat="44.81047" lon="4.38026">
        <ele>878</ele>
        <time>2018-08-04T14:22:33Z</time>
      </trkpt>
      <trkpt lat="44.81044" lon="4.38038">
        <ele>878</ele>
        <time>2018-08-04T14:22:34Z</time>
      </trkpt>
      <trkpt lat="44.81044" lon="4.38043">
        <ele>882</ele>
        <time>2018-08-04T14:22:44Z</time>
      </trkpt>
      <trkpt lat="44.81043" lon="4.38047">
        <ele>882</ele>
        <time>2018-08-04T14:22:44Z</time>
      </trkpt>
      <trkpt lat="44.8104" lon="4.38054">
        <ele>869</ele>
        <time>2018-08-04T14:22:44Z</time>
      </trkpt>
      <trkpt lat="44.81038" lon="4.38062">
        <ele>869</ele>
        <time>2018-08-04T14:22:44Z</time>
      </trkpt>
      <trkpt lat="44.81037" lon="4.38066">
        <ele>869</ele>
        <time>2018-08-04T14:23:07Z</time>
      </trkpt>
      <trkpt lat="44.81032" lon="4.38078">
        <ele>876</ele>
        <time>2018-08-04T14:23:07Z</time>
      </trkpt>
      <trkpt lat="44.81031" lon="4.38079">
        <ele>876</ele>
        <time>2018-08-04T14:23:07Z</time>
      </trkpt>
      <trkpt lat="44.81025" lon="4.38094">
        <ele>876</ele>
        <time>2018-08-04T14:23:07Z</time>
      </trkpt>
      <trkpt lat="44.81024" lon="4.38095">
        <ele>876</ele>
        <time>2018-08-04T14:23:40Z</time>
      </trkpt>
      <trkpt lat="44.81015" lon="4.38121">
        <ele>880</ele>
        <time>2018-08-04T14:23:40Z</time>
      </trkpt>
      <trkpt lat="44.81014" lon="4.3813">
        <ele>865</ele>
        <time>2018-08-04T14:23:40Z</time>
      </trkpt>
      <trkpt lat="44.81008" lon="4.38143">
        <ele>865</ele>
        <time>2018-08-04T14:23:40Z</time>
      </trkpt>
      <trkpt lat="44.81006" lon="4.38151">
        <ele>865</ele>
        <time>2018-08-04T14:23:56Z</time>
      </trkpt>
      <trkpt lat="44.81005" lon="4.38157">
        <ele>870</ele>
        <time>2018-08-04T14:23:56Z</time>
      </trkpt>
      <trkpt lat="44.81003" lon="4.38165">
        <ele>870</ele>
        <time>2018-08-04T14:23:56Z</time>
      </trkpt>
      <trkpt lat="44.80999" lon="4.38171">
        <ele>870</ele>
        <time>2018-08-04T14:23:56Z</time>
      </trkpt>
      <trkpt lat="44.80991" lon="4.38184">
        <ele>873</ele>
        <time>2018-08-04T14:24:46Z</time>
      </trkpt>
      <trkpt lat="44.80991" lon="4.38202">
        <ele>873</ele>
        <time>2018-08-04T14:24:47Z</time>
      </trkpt>
      <trkpt lat="44.80987" lon="4.38222">
        <ele>872</ele>
        <time>2018-08-04T14:24:47Z</time>
      </trkpt>
      <trkpt lat="44.80991" lon="4.38254">
        <ele>870</ele>
        <time>2018-08-04T14:24:48Z</time>
      </trkpt>
      <trkpt lat="44.8099" lon="4.38261">
        <ele>870</ele>
        <time>2018-08-04T14:25:03Z</time>
      </trkpt>
      <trkpt lat="44.80993" lon="4.38265">
        <ele>864</ele>
        <time>2018-08-04T14:25:04Z</time>
      </trkpt>
      <trkpt lat="44.80995" lon="4.38266">
        <ele>864</ele>
        <time>2018-08-04T14:25:04Z</time>
      </trkpt>
      <trkpt lat="44.80996" lon="4.38278">
        <ele>864</ele>
        <time>2018-08-04T14:25:05Z</time>
      </trkpt>
      <trkpt lat="44.80999" lon="4.38287">
        <ele>864</ele>
        <time>2018-08-04T14:25:24Z</time>
      </trkpt>
      <trkpt lat="44.81001" lon="4.38289">
        <ele>864</ele>
        <time>2018-08-04T14:25:24Z</time>
      </trkpt>
      <trkpt lat="44.81012" lon="4.38298">
        <ele>854</ele>
        <time>2018-08-04T14:25:24Z</time>
      </trkpt>
      <trkpt lat="44.81015" lon="4.38307">
        <ele>867</ele>
        <time>2018-08-04T14:25:24Z</time>
      </trkpt>
      <trkpt lat="44.81015" lon="4.38308">
        <ele>867</ele>
        <time>2018-08-04T14:25:41Z</time>
      </trkpt>
      <trkpt lat="44.81017" lon="4.38309">
        <ele>867</ele>
        <time>2018-08-04T14:25:42Z</time>
      </trkpt>
      <trkpt lat="44.8102" lon="4.38313">
        <ele>867</ele>
        <time>2018-08-04T14:25:43Z</time>
      </trkpt>
      <trkpt lat="44.81029" lon="4.3832">
        <ele>853</ele>
        <time>2018-08-04T14:25:44Z</time>
      </trkpt>
      <trkpt lat="44.81033" lon="4.38323">
        <ele>853</ele>
        <time>2018-08-04T14:26:13Z</time>
      </trkpt>
      <trkpt lat="44.81045" lon="4.38331">
        <ele>868</ele>
        <time>2018-08-04T14:26:14Z</time>
      </trkpt>
      <trkpt lat="44.81056" lon="4.38348">
        <ele>856</ele>
        <time>2018-08-04T14:26:14Z</time>
      </trkpt>
      <trkpt lat="44.81066" lon="4.38362">
        <ele>856</ele>
        <time>2018-08-04T14:26:14Z</time>
      </trkpt>
      <trkpt lat="44.81071" lon="4.38367">
        <ele>871</ele>
        <time>2018-08-04T14:27:22Z</time>
      </trkpt>
      <trkpt lat="44.81071" lon="4.38383">
        <ele>866</ele>
        <time>2018-08-04T14:27:23Z</time>
      </trkpt>
      <trkpt lat="44.81075" lon="4.38399">
        <ele>866</ele>
        <time>2018-08-04T14:27:23Z</time>
      </trkpt>
      <trkpt lat="44.81073" lon="4.38411">
        <ele>864</ele>
        <time>2018-08-04T14:27:23Z</time>
      </trkpt>
      <trkpt lat="44.81074" lon="4.38426">
        <ele>864</ele>
        <time>2018-08-04T14:27:23Z</time>
      </trkpt>
      <trkpt lat="44.81075" lon="4.38428">
        <ele>864</ele>
        <time>2018-08-04T14:27:32Z</time>
      </trkpt>
      <trkpt lat="44.81075" lon="4.3843">
        <ele>864</ele>
        <time>2018-08-04T14:27:34Z</time>
      </trkpt>
      <trkpt lat="44.81076" lon="4.38437">
        <ele>861</ele>
        <time>2018-08-04T14:27:35Z</time>
      </trkpt>
      <trkpt lat="44.81074" lon="4.38446">
        <ele>861</ele>
        <time>2018-08-04T14:27:35Z</time>
      </trkpt>
      <trkpt lat="44.81073" lon="4.38457">
        <ele>861</ele>
        <time>2018-08-04T14:27:52Z</time>
      </trkpt>
      <trkpt lat="44.81072" lon="4.38468">
        <ele>859</ele>
        <time>2018-08-04T14:27:52Z</time>
      </trkpt>
      <trkpt lat="44.8107" lon="4.38475">
        <ele>859</ele>
        <time>2018-08-04T14:27:52Z</time>
      </trkpt>
      <trkpt lat="44.8107" lon="4.38475">
        <ele>859</ele>
        <time>2018-08-04T14:27:52Z</time>
      </trkpt>
      <trkpt lat="44.81069" lon="4.38484">
        <ele>844</ele>
        <time>2018-08-04T14:28:30Z</time>
      </trkpt>
      <trkpt lat="44.81068" lon="4.38484">
        <ele>844</ele>
        <time>2018-08-04T14:28:30Z</time>
      </trkpt>
      <trkpt lat="44.81065" lon="4.38501">
        <ele>845</ele>
        <time>2018-08-04T14:28:30Z</time>
      </trkpt>
      <trkpt lat="44.81066" lon="4.3853">
        <ele>845</ele>
        <time>2018-08-04T14:28:30Z</time>
      </trkpt>
      <trkpt lat="44.81064" lon="4.3854">
        <ele>845</ele>
        <time>2018-08-04T14:28:52Z</time>
      </trkpt>
      <trkpt lat="44.81063" lon="4.38543">
        <ele>844</ele>
        <time>2018-08-04T14:28:52Z</time>
      </trkpt>
      <trkpt lat="44.81062" lon="4.38554">
        <ele>844</ele>
        <time>2018-08-04T14:28:52Z</time>
      </trkpt>
      <trkpt lat="44.81064" lon="4.38563">
        <ele>844</ele>
        <time>2018-08-04T14:28:52Z</time>
      </trkpt>
      <trkpt lat="44.8107" lon="4.386">
        <ele>852</ele>
        <time>2018-08-04T14:29:25Z</time>
      </trkpt>
      <trkpt lat="44.8107" lon="4.38617">
        <ele>852</ele>
        <time>2018-08-04T14:29:25Z</time>
      </trkpt>
      <trkpt lat="44.8107" lon="4.38621">
        <ele>852</ele>
        <time>2018-08-04T14:29:25Z</time>
      </trkpt>
      <trkpt lat="44.81069" lon="4.38626">
        <ele>840</ele>
        <time>2018-08-04T14:29:25Z</time>
      </trkpt>
      <trkpt lat="44.8106" lon="4.38647">
        <ele>840</ele>
        <time>2018-08-04T14:29:57Z</time>
      </trkpt>
      <trkpt lat="44.81049" lon="4.38646">
        <ele>840</ele>
        <time>2018-08-04T14:29:58Z</time>
      </trkpt>
      <trkpt lat="44.81046" lon="4.38658">
        <ele>842</ele>
        <time>2018-08-04T14:29:58Z</time>
      </trkpt>
      <trkpt lat="44.81046" lon="4.3866">
        <ele>842</ele>
        <time>2018-08-04T14:29:59Z</time>
      </trkpt>
      <trkpt lat="44.81044" lon="4.38662">
        <ele>842</ele>
        <time>2018-08-04T14:30:17Z</time>
      </trkpt>
      <trkpt lat="44.81044" lon="4.38669">
        <ele>842</ele>
        <time>2018-08-04T14:30:20Z</time>
      </trkpt>
      <trkpt lat="44.81042" lon="4.38674">
        <ele>842</ele>
        <time>2018-08-04T14:30:21Z</time>
      </trkpt>
      <trkpt lat="44.8104" lon="4.38678">
        <ele>822</ele>
        <time>2018-08-04T14:30:22Z</time>
      </trkpt>
      <trkpt lat="44.81036" lon="4.38681">
        <ele>822</ele>
        <time>2018-08-04T14:30:41Z</time>
      </trkpt>
      <trkpt lat="44.81034" lon="4.38681">
        <ele>822</ele>
        <time>2018-08-04T14:30:42Z</time>
      </trkpt>
      <trkpt lat="44.81034" lon="4.38687">
        <ele>822</ele>
        <time>2018-08-04T14:30:43Z</time>
      </trkpt>
      <trkpt lat="44.81028" lon="4.38698">
        <ele>822</ele>
        <time>2018-08-04T14:30:44Z</time>
      </trkpt>
      <trkpt lat="44.81026" lon="4.38704">
        <ele>822</ele>
        <time>2018-08-04T14:31:08Z</time>
      </trkpt>
      <trkpt lat="44.81016" lon="4.38726">
        <ele>825</ele>
        <time>2018-08-04T14:31:08Z</time>
      </trkpt>
      <trkpt lat="44.81013" lon="4.38733">
        <ele>810</ele>
        <time>2018-08-04T14:31:08Z</time>
      </trkpt>
      <trkpt lat="44.81012" lon="4.38734">
        <ele>810</ele>
        <time>2018-08-04T14:31:08Z</time>
      </trkpt>
      <trkpt lat="44.81012" lon="4.38738">
        <ele>813</ele>
        <time>2018-08-04T14:31:28Z</time>
      </trkpt>
      <trkpt lat="44.8101" lon="4.38743">
        <ele>813</ele>
        <time>2018-08-04T14:31:28Z</time>
      </trkpt>
      <trkpt lat="44.81009" lon="4.38747">
        <ele>813</ele>
        <time>2018-08-04T14:31:28Z</time>
      </trkpt>
      <trkpt lat="44.81009" lon="4.38749">
        <ele>813</ele>
        <time>2018-08-04T14:31:28Z</time>
      </trkpt>
      <trkpt lat="44.81009" lon="4.38753">
        <ele>813</ele>
        <time>2018-08-04T14:31:28Z</time>
      </trkpt>
      <trkpt lat="44.81007" lon="4.38755">
        <ele>813</ele>
        <time>2018-08-04T14:31:44Z</time>
      </trkpt>
      <trkpt lat="44.81005" lon="4.38758">
        <ele>813</ele>
        <time>2018-08-04T14:31:44Z</time>
      </trkpt>
      <trkpt lat="44.81002" lon="4.38762">
        <ele>813</ele>
        <time>2018-08-04T14:31:44Z</time>
      </trkpt>
      <trkpt lat="44.81002" lon="4.38766">
        <ele>816</ele>
        <time>2018-08-04T14:31:44Z</time>
      </trkpt>
      <trkpt lat="44.81" lon="4.38769">
        <ele>816</ele>
        <time>2018-08-04T14:32:00Z</time>
      </trkpt>
      <trkpt lat="44.81" lon="4.38776">
        <ele>816</ele>
        <time>2018-08-04T14:32:00Z</time>
      </trkpt>
      <trkpt lat="44.80999" lon="4.3878">
        <ele>816</ele>
        <time>2018-08-04T14:32:00Z</time>
      </trkpt>
      <trkpt lat="44.80998" lon="4.38783">
        <ele>816</ele>
        <time>2018-08-04T14:32:00Z</time>
      </trkpt>
      <trkpt lat="44.80995" lon="4.38788">
        <ele>816</ele>
        <time>2018-08-04T14:32:20Z</time>
      </trkpt>
      <trkpt lat="44.80993" lon="4.38792">
        <ele>815</ele>
        <time>2018-08-04T14:32:20Z</time>
      </trkpt>
      <trkpt lat="44.80993" lon="4.38794">
        <ele>815</ele>
        <time>2018-08-04T14:32:20Z</time>
      </trkpt>
      <trkpt lat="44.80992" lon="4.38797">
        <ele>815</ele>
        <time>2018-08-04T14:32:20Z</time>
      </trkpt>
      <trkpt lat="44.80989" lon="4.388">
        <ele>815</ele>
        <time>2018-08-04T14:32:20Z</time>
      </trkpt>
      <trkpt lat="44.80986" lon="4.38801">
        <ele>802</ele>
        <time>2018-08-04T14:32:36Z</time>
      </trkpt>
      <trkpt lat="44.80983" lon="4.38804">
        <ele>802</ele>
        <time>2018-08-04T14:32:37Z</time>
      </trkpt>
      <trkpt lat="44.8098" lon="4.38804">
        <ele>802</ele>
        <time>2018-08-04T14:32:37Z</time>
      </trkpt>
      <trkpt lat="44.80977" lon="4.38805">
        <ele>802</ele>
        <time>2018-08-04T14:32:37Z</time>
      </trkpt>
      <trkpt lat="44.80977" lon="4.38806">
        <ele>802</ele>
        <time>2018-08-04T14:33:11Z</time>
      </trkpt>
      <trkpt lat="44.80974" lon="4.38808">
        <ele>802</ele>
        <time>2018-08-04T14:33:12Z</time>
      </trkpt>
      <trkpt lat="44.80972" lon="4.38811">
        <ele>802</ele>
        <time>2018-08-04T14:33:12Z</time>
      </trkpt>
      <trkpt lat="44.80971" lon="4.38814">
        <ele>802</ele>
        <time>2018-08-04T14:33:13Z</time>
      </trkpt>
      <trkpt lat="44.80972" lon="4.3882">
        <ele>801</ele>
        <time>2018-08-04T14:33:14Z</time>
      </trkpt>
      <trkpt lat="44.80971" lon="4.38825">
        <ele>801</ele>
        <time>2018-08-04T14:33:38Z</time>
      </trkpt>
      <trkpt lat="44.80968" lon="4.38832">
        <ele>801</ele>
        <time>2018-08-04T14:33:38Z</time>
      </trkpt>
      <trkpt lat="44.80969" lon="4.3886">
        <ele>797</ele>
        <time>2018-08-04T14:33:39Z</time>
      </trkpt>
      <trkpt lat="44.80968" lon="4.38864">
        <ele>797</ele>
        <time>2018-08-04T14:33:40Z</time>
      </trkpt>
      <trkpt lat="44.80969" lon="4.38867">
        <ele>797</ele>
        <time>2018-08-04T14:34:16Z</time>
      </trkpt>
      <trkpt lat="44.80968" lon="4.38872">
        <ele>797</ele>
        <time>2018-08-04T14:34:16Z</time>
      </trkpt>
      <trkpt lat="44.8097" lon="4.38873">
        <ele>797</ele>
        <time>2018-08-04T14:34:16Z</time>
      </trkpt>
      <trkpt lat="44.80971" lon="4.38876">
        <ele>793</ele>
        <time>2018-08-04T14:34:16Z</time>
      </trkpt>
      <trkpt lat="44.80971" lon="4.38879">
        <ele>793</ele>
        <time>2018-08-04T14:34:16Z</time>
      </trkpt>
      <trkpt lat="44.80975" lon="4.38884">
        <ele>793</ele>
        <time>2018-08-04T14:34:48Z</time>
      </trkpt>
      <trkpt lat="44.80982" lon="4.38911">
        <ele>790</ele>
        <time>2018-08-04T14:34:48Z</time>
      </trkpt>
      <trkpt lat="44.80985" lon="4.38918">
        <ele>790</ele>
        <time>2018-08-04T14:34:48Z</time>
      </trkpt>
      <trkpt lat="44.80989" lon="4.38931">
        <ele>796</ele>
        <time>2018-08-04T14:34:48Z</time>
      </trkpt>
      <trkpt lat="44.80989" lon="4.3894">
        <ele>796</ele>
        <time>2018-08-04T14:35:04Z</time>
      </trkpt>
      <trkpt lat="44.80989" lon="4.38947">
        <ele>796</ele>
        <time>2018-08-04T14:35:04Z</time>
      </trkpt>
      <trkpt lat="44.8099" lon="4.38952">
        <ele>796</ele>
        <time>2018-08-04T14:35:04Z</time>
      </trkpt>
      <trkpt lat="44.80991" lon="4.38957">
        <ele>796</ele>
        <time>2018-08-04T14:35:04Z</time>
      </trkpt>
      <trkpt lat="44.80995" lon="4.38965">
        <ele>796</ele>
        <time>2018-08-04T14:35:30Z</time>
      </trkpt>
      <trkpt lat="44.80995" lon="4.38968">
        <ele>796</ele>
        <time>2018-08-04T14:35:30Z</time>
      </trkpt>
      <trkpt lat="44.80996" lon="4.38977">
        <ele>796</ele>
        <time>2018-08-04T14:35:30Z</time>
      </trkpt>
      <trkpt lat="44.80994" lon="4.38987">
        <ele>797</ele>
        <time>2018-08-04T14:35:30Z</time>
      </trkpt>
      <trkpt lat="44.8099" lon="4.39">
        <ele>797</ele>
        <time>2018-08-04T14:35:52Z</time>
      </trkpt>
      <trkpt lat="44.80987" lon="4.39006">
        <ele>797</ele>
        <time>2018-08-04T14:35:52Z</time>
      </trkpt>
      <trkpt lat="44.80986" lon="4.39011">
        <ele>787</ele>
        <time>2018-08-04T14:35:52Z</time>
      </trkpt>
      <trkpt lat="44.8098" lon="4.39023">
        <ele>788</ele>
        <time>2018-08-04T14:35:52Z</time>
      </trkpt>
      <trkpt lat="44.80974" lon="4.39037">
        <ele>788</ele>
        <time>2018-08-04T14:36:30Z</time>
      </trkpt>
      <trkpt lat="44.80967" lon="4.39067">
        <ele>790</ele>
        <time>2018-08-04T14:36:31Z</time>
      </trkpt>
      <trkpt lat="44.80967" lon="4.39079">
        <ele>788</ele>
        <time>2018-08-04T14:36:33Z</time>
      </trkpt>
      <trkpt lat="44.80969" lon="4.39093">
        <ele>788</ele>
        <time>2018-08-04T14:36:35Z</time>
      </trkpt>
      <trkpt lat="44.80971" lon="4.39104">
        <ele>785</ele>
        <time>2018-08-04T14:36:58Z</time>
      </trkpt>
      <trkpt lat="44.80972" lon="4.39113">
        <ele>785</ele>
        <time>2018-08-04T14:37:00Z</time>
      </trkpt>
      <trkpt lat="44.80971" lon="4.39117">
        <ele>785</ele>
        <time>2018-08-04T14:37:00Z</time>
      </trkpt>
      <trkpt lat="44.80969" lon="4.39143">
        <ele>781</ele>
        <time>2018-08-04T14:37:00Z</time>
      </trkpt>
      <trkpt lat="44.80969" lon="4.39146">
        <ele>781</ele>
        <time>2018-08-04T14:37:26Z</time>
      </trkpt>
      <trkpt lat="44.80973" lon="4.39185">
        <ele>775</ele>
        <time>2018-08-04T14:37:26Z</time>
      </trkpt>
      <trkpt lat="44.80974" lon="4.39189">
        <ele>775</ele>
        <time>2018-08-04T14:37:26Z</time>
      </trkpt>
      <trkpt lat="44.80974" lon="4.39195">
        <ele>775</ele>
        <time>2018-08-04T14:37:26Z</time>
      </trkpt>
      <trkpt lat="44.80974" lon="4.39199">
        <ele>775</ele>
        <time>2018-08-04T14:37:40Z</time>
      </trkpt>
      <trkpt lat="44.80976" lon="4.39204">
        <ele>775</ele>
        <time>2018-08-04T14:37:40Z</time>
      </trkpt>
      <trkpt lat="44.80977" lon="4.39209">
        <ele>772</ele>
        <time>2018-08-04T14:37:40Z</time>
      </trkpt>
      <trkpt lat="44.80979" lon="4.39218">
        <ele>772</ele>
        <time>2018-08-04T14:37:40Z</time>
      </trkpt>
      <trkpt lat="44.80983" lon="4.3922">
        <ele>772</ele>
        <time>2018-08-04T14:37:56Z</time>
      </trkpt>
      <trkpt lat="44.80988" lon="4.39226">
        <ele>783</ele>
        <time>2018-08-04T14:37:56Z</time>
      </trkpt>
      <trkpt lat="44.8099" lon="4.39234">
        <ele>783</ele>
        <time>2018-08-04T14:37:56Z</time>
      </trkpt>
      <trkpt lat="44.80994" lon="4.39241">
        <ele>776</ele>
        <time>2018-08-04T14:37:56Z</time>
      </trkpt>
      <trkpt lat="44.80997" lon="4.39246">
        <ele>776</ele>
        <time>2018-08-04T14:38:12Z</time>
      </trkpt>
      <trkpt lat="44.80998" lon="4.39252">
        <ele>776</ele>
        <time>2018-08-04T14:38:12Z</time>
      </trkpt>
      <trkpt lat="44.81" lon="4.39258">
        <ele>776</ele>
        <time>2018-08-04T14:38:12Z</time>
      </trkpt>
      <trkpt lat="44.81001" lon="4.39264">
        <ele>768</ele>
        <time>2018-08-04T14:38:12Z</time>
      </trkpt>
      <trkpt lat="44.81005" lon="4.3927">
        <ele>768</ele>
        <time>2018-08-04T14:38:28Z</time>
      </trkpt>
      <trkpt lat="44.81009" lon="4.39275">
        <ele>768</ele>
        <time>2018-08-04T14:38:28Z</time>
      </trkpt>
      <trkpt lat="44.81012" lon="4.39281">
        <ele>768</ele>
        <time>2018-08-04T14:38:28Z</time>
      </trkpt>
      <trkpt lat="44.81016" lon="4.39282">
        <ele>778</ele>
        <time>2018-08-04T14:38:28Z</time>
      </trkpt>
      <trkpt lat="44.81018" lon="4.39285">
        <ele>778</ele>
        <time>2018-08-04T14:38:44Z</time>
      </trkpt>
      <trkpt lat="44.81022" lon="4.39287">
        <ele>778</ele>
        <time>2018-08-04T14:38:44Z</time>
      </trkpt>
      <trkpt lat="44.81025" lon="4.39288">
        <ele>778</ele>
        <time>2018-08-04T14:38:44Z</time>
      </trkpt>
      <trkpt lat="44.81032" lon="4.39291">
        <ele>778</ele>
        <time>2018-08-04T14:38:44Z</time>
      </trkpt>
      <trkpt lat="44.81037" lon="4.39294">
        <ele>771</ele>
        <time>2018-08-04T14:39:00Z</time>
      </trkpt>
      <trkpt lat="44.81043" lon="4.39297">
        <ele>772</ele>
        <time>2018-08-04T14:39:00Z</time>
      </trkpt>
      <trkpt lat="44.81046" lon="4.393">
        <ele>772</ele>
        <time>2018-08-04T14:39:00Z</time>
      </trkpt>
      <trkpt lat="44.81051" lon="4.39304">
        <ele>772</ele>
        <time>2018-08-04T14:39:00Z</time>
      </trkpt>
      <trkpt lat="44.81056" lon="4.39306">
        <ele>772</ele>
        <time>2018-08-04T14:39:16Z</time>
      </trkpt>
      <trkpt lat="44.81062" lon="4.3931">
        <ele>772</ele>
        <time>2018-08-04T14:39:16Z</time>
      </trkpt>
      <trkpt lat="44.81065" lon="4.39313">
        <ele>772</ele>
        <time>2018-08-04T14:39:16Z</time>
      </trkpt>
      <trkpt lat="44.81069" lon="4.39316">
        <ele>772</ele>
        <time>2018-08-04T14:39:16Z</time>
      </trkpt>
      <trkpt lat="44.81071" lon="4.39318">
        <ele>770</ele>
        <time>2018-08-04T14:39:32Z</time>
      </trkpt>
      <trkpt lat="44.81077" lon="4.39321">
        <ele>760</ele>
        <time>2018-08-04T14:39:32Z</time>
      </trkpt>
      <trkpt lat="44.81084" lon="4.39322">
        <ele>760</ele>
        <time>2018-08-04T14:39:32Z</time>
      </trkpt>
      <trkpt lat="44.81089" lon="4.39321">
        <ele>760</ele>
        <time>2018-08-04T14:39:32Z</time>
      </trkpt>
      <trkpt lat="44.81097" lon="4.39323">
        <ele>760</ele>
        <time>2018-08-04T14:40:00Z</time>
      </trkpt>
      <trkpt lat="44.81101" lon="4.39326">
        <ele>760</ele>
        <time>2018-08-04T14:40:00Z</time>
      </trkpt>
      <trkpt lat="44.81123" lon="4.39329">
        <ele>760</ele>
        <time>2018-08-04T14:40:00Z</time>
      </trkpt>
      <trkpt lat="44.81125" lon="4.39329">
        <ele>758</ele>
        <time>2018-08-04T14:40:00Z</time>
      </trkpt>
      <trkpt lat="44.81131" lon="4.39331">
        <ele>758</ele>
        <time>2018-08-04T14:40:29Z</time>
      </trkpt>
      <trkpt lat="44.81145" lon="4.39331">
        <ele>758</ele>
        <time>2018-08-04T14:40:29Z</time>
      </trkpt>
      <trkpt lat="44.81159" lon="4.39332">
        <ele>754</ele>
        <time>2018-08-04T14:40:29Z</time>
      </trkpt>
      <trkpt lat="44.81164" lon="4.3933">
        <ele>754</ele>
        <time>2018-08-04T14:40:30Z</time>
      </trkpt>
      <trkpt lat="44.81168" lon="4.39328">
        <ele>754</ele>
        <time>2018-08-04T14:41:01Z</time>
      </trkpt>
      <trkpt lat="44.8118" lon="4.39321">
        <ele>754</ele>
        <time>2018-08-04T14:41:02Z</time>
      </trkpt>
      <trkpt lat="44.81187" lon="4.39312">
        <ele>755</ele>
        <time>2018-08-04T14:41:03Z</time>
      </trkpt>
      <trkpt lat="44.81202" lon="4.39299">
        <ele>755</ele>
        <time>2018-08-04T14:41:04Z</time>
      </trkpt>
      <trkpt lat="44.81202" lon="4.39293">
        <ele>755</ele>
        <time>2018-08-04T14:41:37Z</time>
      </trkpt>
      <trkpt lat="44.81212" lon="4.39269">
        <ele>755</ele>
        <time>2018-08-04T14:41:38Z</time>
      </trkpt>
      <trkpt lat="44.81214" lon="4.39253">
        <ele>760</ele>
        <time>2018-08-04T14:41:38Z</time>
      </trkpt>
      <trkpt lat="44.81223" lon="4.39242">
        <ele>760</ele>
        <time>2018-08-04T14:41:39Z</time>
      </trkpt>
      <trkpt lat="44.81223" lon="4.39238">
        <ele>760</ele>
        <time>2018-08-04T14:41:58Z</time>
      </trkpt>
      <trkpt lat="44.81226" lon="4.39235">
        <ele>764</ele>
        <time>2018-08-04T14:41:58Z</time>
      </trkpt>
      <trkpt lat="44.81235" lon="4.3922">
        <ele>764</ele>
        <time>2018-08-04T14:42:00Z</time>
      </trkpt>
      <trkpt lat="44.81246" lon="4.39211">
        <ele>764</ele>
        <time>2018-08-04T14:42:00Z</time>
      </trkpt>
      <trkpt lat="44.81249" lon="4.3921">
        <ele>764</ele>
        <time>2018-08-04T14:42:29Z</time>
      </trkpt>
      <trkpt lat="44.81275" lon="4.3922">
        <ele>763</ele>
        <time>2018-08-04T14:42:29Z</time>
      </trkpt>
      <trkpt lat="44.81279" lon="4.39229">
        <ele>763</ele>
        <time>2018-08-04T14:42:30Z</time>
      </trkpt>
      <trkpt lat="44.81277" lon="4.39233">
        <ele>763</ele>
        <time>2018-08-04T14:42:30Z</time>
      </trkpt>
      <trkpt lat="44.81275" lon="4.39238">
        <ele>766</ele>
        <time>2018-08-04T14:42:44Z</time>
      </trkpt>
      <trkpt lat="44.81274" lon="4.39245">
        <ele>766</ele>
        <time>2018-08-04T14:42:44Z</time>
      </trkpt>
      <trkpt lat="44.81272" lon="4.39248">
        <ele>766</ele>
        <time>2018-08-04T14:42:44Z</time>
      </trkpt>
      <trkpt lat="44.81271" lon="4.39257">
        <ele>766</ele>
        <time>2018-08-04T14:42:44Z</time>
      </trkpt>
      <trkpt lat="44.81267" lon="4.3927">
        <ele>764</ele>
        <time>2018-08-04T14:43:18Z</time>
      </trkpt>
      <trkpt lat="44.81267" lon="4.39286">
        <ele>764</ele>
        <time>2018-08-04T14:43:18Z</time>
      </trkpt>
      <trkpt lat="44.81266" lon="4.39293">
        <ele>761</ele>
        <time>2018-08-04T14:43:18Z</time>
      </trkpt>
      <trkpt lat="44.81262" lon="4.39311">
        <ele>749</ele>
        <time>2018-08-04T14:43:19Z</time>
      </trkpt>
      <trkpt lat="44.81262" lon="4.39313">
        <ele>749</ele>
        <time>2018-08-04T14:43:46Z</time>
      </trkpt>
      <trkpt lat="44.81261" lon="4.39317">
        <ele>749</ele>
        <time>2018-08-04T14:43:47Z</time>
      </trkpt>
      <trkpt lat="44.81261" lon="4.39334">
        <ele>749</ele>
        <time>2018-08-04T14:43:47Z</time>
      </trkpt>
      <trkpt lat="44.81261" lon="4.39358">
        <ele>750</ele>
        <time>2018-08-04T14:43:49Z</time>
      </trkpt>
      <trkpt lat="44.81263" lon="4.39364">
        <ele>750</ele>
        <time>2018-08-04T14:44:08Z</time>
      </trkpt>
      <trkpt lat="44.81269" lon="4.39384">
        <ele>763</ele>
        <time>2018-08-04T14:44:08Z</time>
      </trkpt>
      <trkpt lat="44.81271" lon="4.39388">
        <ele>763</ele>
        <time>2018-08-04T14:44:08Z</time>
      </trkpt>
      <trkpt lat="44.81273" lon="4.39395">
        <ele>763</ele>
        <time>2018-08-04T14:44:08Z</time>
      </trkpt>
      <trkpt lat="44.81287" lon="4.39417">
        <ele>760</ele>
        <time>2018-08-04T14:44:36Z</time>
      </trkpt>
      <trkpt lat="44.81289" lon="4.3942">
        <ele>760</ele>
        <time>2018-08-04T14:44:36Z</time>
      </trkpt>
      <trkpt lat="44.81291" lon="4.39423">
        <ele>760</ele>
        <time>2018-08-04T14:44:36Z</time>
      </trkpt>
      <trkpt lat="44.81292" lon="4.39431">
        <ele>763</ele>
        <time>2018-08-04T14:44:36Z</time>
      </trkpt>
      <trkpt lat="44.81295" lon="4.39437">
        <ele>763</ele>
        <time>2018-08-04T14:44:52Z</time>
      </trkpt>
      <trkpt lat="44.81299" lon="4.39444">
        <ele>763</ele>
        <time>2018-08-04T14:44:52Z</time>
      </trkpt>
      <trkpt lat="44.81303" lon="4.39451">
        <ele>763</ele>
        <time>2018-08-04T14:44:52Z</time>
      </trkpt>
      <trkpt lat="44.81305" lon="4.39459">
        <ele>760</ele>
        <time>2018-08-04T14:44:52Z</time>
      </trkpt>
      <trkpt lat="44.81306" lon="4.39466">
        <ele>760</ele>
        <time>2018-08-04T14:45:08Z</time>
      </trkpt>
      <trkpt lat="44.81308" lon="4.39471">
        <ele>760</ele>
        <time>2018-08-04T14:45:08Z</time>
      </trkpt>
      <trkpt lat="44.8131" lon="4.39476">
        <ele>760</ele>
        <time>2018-08-04T14:45:08Z</time>
      </trkpt>
      <trkpt lat="44.81312" lon="4.39482">
        <ele>760</ele>
        <time>2018-08-04T14:45:08Z</time>
      </trkpt>
      <trkpt lat="44.81315" lon="4.3949">
        <ele>753</ele>
        <time>2018-08-04T14:45:24Z</time>
      </trkpt>
      <trkpt lat="44.81318" lon="4.39498">
        <ele>753</ele>
        <time>2018-08-04T14:45:24Z</time>
      </trkpt>
      <trkpt lat="44.8132" lon="4.39504">
        <ele>772</ele>
        <time>2018-08-04T14:45:24Z</time>
      </trkpt>
      <trkpt lat="44.81323" lon="4.39511">
        <ele>772</ele>
        <time>2018-08-04T14:45:24Z</time>
      </trkpt>
      <trkpt lat="44.81324" lon="4.39517">
        <ele>769</ele>
        <time>2018-08-04T14:45:40Z</time>
      </trkpt>
      <trkpt lat="44.81326" lon="4.39523">
        <ele>769</ele>
        <time>2018-08-04T14:45:40Z</time>
      </trkpt>
      <trkpt lat="44.81327" lon="4.3953">
        <ele>769</ele>
        <time>2018-08-04T14:45:40Z</time>
      </trkpt>
      <trkpt lat="44.81328" lon="4.39537">
        <ele>769</ele>
        <time>2018-08-04T14:45:40Z</time>
      </trkpt>
      <trkpt lat="44.81329" lon="4.39547">
        <ele>769</ele>
        <time>2018-08-04T14:46:10Z</time>
      </trkpt>
      <trkpt lat="44.8133" lon="4.39557">
        <ele>769</ele>
        <time>2018-08-04T14:46:11Z</time>
      </trkpt>
      <trkpt lat="44.81331" lon="4.39577">
        <ele>768</ele>
        <time>2018-08-04T14:46:12Z</time>
      </trkpt>
      <trkpt lat="44.8133" lon="4.39585">
        <ele>768</ele>
        <time>2018-08-04T14:46:12Z</time>
      </trkpt>
      <trkpt lat="44.8133" lon="4.39588">
        <ele>768</ele>
        <time>2018-08-04T14:46:42Z</time>
      </trkpt>
      <trkpt lat="44.81328" lon="4.39618">
        <ele>766</ele>
        <time>2018-08-04T14:46:42Z</time>
      </trkpt>
      <trkpt lat="44.81328" lon="4.3962">
        <ele>766</ele>
        <time>2018-08-04T14:46:42Z</time>
      </trkpt>
      <trkpt lat="44.81327" lon="4.3962">
        <ele>766</ele>
        <time>2018-08-04T14:46:42Z</time>
      </trkpt>
      <trkpt lat="44.81326" lon="4.39621">
        <ele>766</ele>
        <time>2018-08-04T14:47:06Z</time>
      </trkpt>
      <trkpt lat="44.8132" lon="4.39619">
        <ele>766</ele>
        <time>2018-08-04T14:47:07Z</time>
      </trkpt>
      <trkpt lat="44.81319" lon="4.3962">
        <ele>754</ele>
        <time>2018-08-04T14:47:08Z</time>
      </trkpt>
      <trkpt lat="44.81318" lon="4.3963">
        <ele>752</ele>
        <time>2018-08-04T14:47:09Z</time>
      </trkpt>
      <trkpt lat="44.81316" lon="4.39634">
        <ele>752</ele>
        <time>2018-08-04T14:48:02Z</time>
      </trkpt>
      <trkpt lat="44.81316" lon="4.39638">
        <ele>752</ele>
        <time>2018-08-04T14:48:02Z</time>
      </trkpt>
      <trkpt lat="44.81317" lon="4.39646">
        <ele>752</ele>
        <time>2018-08-04T14:48:02Z</time>
      </trkpt>
      <trkpt lat="44.81317" lon="4.39647">
        <ele>752</ele>
        <time>2018-08-04T14:48:02Z</time>
      </trkpt>
      <trkpt lat="44.81315" lon="4.39658">
        <ele>752</ele>
        <time>2018-08-04T14:48:02Z</time>
      </trkpt>
      <trkpt lat="44.81315" lon="4.39661">
        <ele>752</ele>
        <time>2018-08-04T14:48:42Z</time>
      </trkpt>
      <trkpt lat="44.81315" lon="4.39672">
        <ele>752</ele>
        <time>2018-08-04T14:48:42Z</time>
      </trkpt>
      <trkpt lat="44.81317" lon="4.39685">
        <ele>751</ele>
        <time>2018-08-04T14:48:42Z</time>
      </trkpt>
      <trkpt lat="44.81318" lon="4.39709">
        <ele>751</ele>
        <time>2018-08-04T14:48:42Z</time>
      </trkpt>
      <trkpt lat="44.81319" lon="4.39712">
        <ele>751</ele>
        <time>2018-08-04T14:49:00Z</time>
      </trkpt>
      <trkpt lat="44.81322" lon="4.3972">
        <ele>756</ele>
        <time>2018-08-04T14:49:00Z</time>
      </trkpt>
      <trkpt lat="44.81325" lon="4.39731">
        <ele>756</ele>
        <time>2018-08-04T14:49:00Z</time>
      </trkpt>
      <trkpt lat="44.81327" lon="4.39733">
        <ele>756</ele>
        <time>2018-08-04T14:49:00Z</time>
      </trkpt>
      <trkpt lat="44.8133" lon="4.39738">
        <ele>751</ele>
        <time>2018-08-04T14:49:16Z</time>
      </trkpt>
      <trkpt lat="44.81333" lon="4.39742">
        <ele>751</ele>
        <time>2018-08-04T14:49:16Z</time>
      </trkpt>
      <trkpt lat="44.81335" lon="4.39747">
        <ele>751</ele>
        <time>2018-08-04T14:49:16Z</time>
      </trkpt>
      <trkpt lat="44.81336" lon="4.39749">
        <ele>751</ele>
        <time>2018-08-04T14:49:16Z</time>
      </trkpt>
      <trkpt lat="44.81339" lon="4.39753">
        <ele>751</ele>
        <time>2018-08-04T14:49:38Z</time>
      </trkpt>
      <trkpt lat="44.8134" lon="4.39759">
        <ele>751</ele>
        <time>2018-08-04T14:49:38Z</time>
      </trkpt>
      <trkpt lat="44.8134" lon="4.39771">
        <ele>747</ele>
        <time>2018-08-04T14:49:38Z</time>
      </trkpt>
      <trkpt lat="44.81338" lon="4.39777">
        <ele>747</ele>
        <time>2018-08-04T14:49:38Z</time>
      </trkpt>
      <trkpt lat="44.81337" lon="4.39782">
        <ele>747</ele>
        <time>2018-08-04T14:49:58Z</time>
      </trkpt>
      <trkpt lat="44.81335" lon="4.39793">
        <ele>742</ele>
        <time>2018-08-04T14:49:59Z</time>
      </trkpt>
      <trkpt lat="44.81333" lon="4.39795">
        <ele>742</ele>
        <time>2018-08-04T14:49:59Z</time>
      </trkpt>
      <trkpt lat="44.81325" lon="4.39807">
        <ele>742</ele>
        <time>2018-08-04T14:50:00Z</time>
      </trkpt>
      <trkpt lat="44.81323" lon="4.39811">
        <ele>742</ele>
        <time>2018-08-04T14:50:20Z</time>
      </trkpt>
      <trkpt lat="44.81323" lon="4.39813">
        <ele>742</ele>
        <time>2018-08-04T14:50:20Z</time>
      </trkpt>
      <trkpt lat="44.81322" lon="4.39828">
        <ele>738</ele>
        <time>2018-08-04T14:50:20Z</time>
      </trkpt>
      <trkpt lat="44.81323" lon="4.39835">
        <ele>738</ele>
        <time>2018-08-04T14:50:20Z</time>
      </trkpt>
      <trkpt lat="44.81331" lon="4.39831">
        <ele>738</ele>
        <time>2018-08-04T14:50:54Z</time>
      </trkpt>
      <trkpt lat="44.81337" lon="4.39833">
        <ele>738</ele>
        <time>2018-08-04T14:50:55Z</time>
      </trkpt>
      <trkpt lat="44.81343" lon="4.39837">
        <ele>738</ele>
        <time>2018-08-04T14:50:56Z</time>
      </trkpt>
      <trkpt lat="44.81352" lon="4.39841">
        <ele>741</ele>
        <time>2018-08-04T14:50:57Z</time>
      </trkpt>
      <trkpt lat="44.81354" lon="4.39844">
        <ele>741</ele>
        <time>2018-08-04T14:51:18Z</time>
      </trkpt>
      <trkpt lat="44.81364" lon="4.39845">
        <ele>741</ele>
        <time>2018-08-04T14:51:18Z</time>
      </trkpt>
      <trkpt lat="44.81372" lon="4.39839">
        <ele>741</ele>
        <time>2018-08-04T14:51:18Z</time>
      </trkpt>
      <trkpt lat="44.81377" lon="4.39837">
        <ele>743</ele>
        <time>2018-08-04T14:51:18Z</time>
      </trkpt>
      <trkpt lat="44.81387" lon="4.39838">
        <ele>743</ele>
        <time>2018-08-04T14:51:40Z</time>
      </trkpt>
      <trkpt lat="44.81385" lon="4.39844">
        <ele>743</ele>
        <time>2018-08-04T14:51:40Z</time>
      </trkpt>
      <trkpt lat="44.81381" lon="4.39852">
        <ele>739</ele>
        <time>2018-08-04T14:51:40Z</time>
      </trkpt>
      <trkpt lat="44.81377" lon="4.39858">
        <ele>739</ele>
        <time>2018-08-04T14:51:40Z</time>
      </trkpt>
      <trkpt lat="44.81374" lon="4.39871">
        <ele>738</ele>
        <time>2018-08-04T14:52:07Z</time>
      </trkpt>
      <trkpt lat="44.81375" lon="4.39888">
        <ele>736</ele>
        <time>2018-08-04T14:52:08Z</time>
      </trkpt>
      <trkpt lat="44.81375" lon="4.39893">
        <ele>736</ele>
        <time>2018-08-04T14:52:10Z</time>
      </trkpt>
      <trkpt lat="44.81377" lon="4.399">
        <ele>736</ele>
        <time>2018-08-04T14:52:10Z</time>
      </trkpt>
      <trkpt lat="44.8138" lon="4.39904">
        <ele>731</ele>
        <time>2018-08-04T14:52:30Z</time>
      </trkpt>
      <trkpt lat="44.81381" lon="4.39904">
        <ele>731</ele>
        <time>2018-08-04T14:52:30Z</time>
      </trkpt>
      <trkpt lat="44.81388" lon="4.39904">
        <ele>731</ele>
        <time>2018-08-04T14:52:30Z</time>
      </trkpt>
      <trkpt lat="44.81394" lon="4.39903">
        <ele>731</ele>
        <time>2018-08-04T14:52:30Z</time>
      </trkpt>
      <trkpt lat="44.81396" lon="4.39903">
        <ele>731</ele>
        <time>2018-08-04T14:52:50Z</time>
      </trkpt>
      <trkpt lat="44.81398" lon="4.39902">
        <ele>736</ele>
        <time>2018-08-04T14:52:50Z</time>
      </trkpt>
      <trkpt lat="44.814" lon="4.39902">
        <ele>736</ele>
        <time>2018-08-04T14:52:50Z</time>
      </trkpt>
      <trkpt lat="44.81414" lon="4.39905">
        <ele>731</ele>
        <time>2018-08-04T14:52:50Z</time>
      </trkpt>
      <trkpt lat="44.8142" lon="4.3991">
        <ele>731</ele>
        <time>2018-08-04T14:53:04Z</time>
      </trkpt>
      <trkpt lat="44.81425" lon="4.39913">
        <ele>731</ele>
        <time>2018-08-04T14:53:04Z</time>
      </trkpt>
      <trkpt lat="44.81429" lon="4.39915">
        <ele>731</ele>
        <time>2018-08-04T14:53:04Z</time>
      </trkpt>
      <trkpt lat="44.81431" lon="4.39922">
        <ele>733</ele>
        <time>2018-08-04T14:53:05Z</time>
      </trkpt>
      <trkpt lat="44.81435" lon="4.39928">
        <ele>733</ele>
        <time>2018-08-04T14:53:20Z</time>
      </trkpt>
      <trkpt lat="44.81443" lon="4.39934">
        <ele>728</ele>
        <time>2018-08-04T14:53:20Z</time>
      </trkpt>
      <trkpt lat="44.81445" lon="4.39935">
        <ele>728</ele>
        <time>2018-08-04T14:53:20Z</time>
      </trkpt>
      <trkpt lat="44.81446" lon="4.39937">
        <ele>728</ele>
        <time>2018-08-04T14:53:20Z</time>
      </trkpt>
      <trkpt lat="44.81448" lon="4.39943">
        <ele>728</ele>
        <time>2018-08-04T14:53:46Z</time>
      </trkpt>
      <trkpt lat="44.81449" lon="4.39942">
        <ele>728</ele>
        <time>2018-08-04T14:53:47Z</time>
      </trkpt>
      <trkpt lat="44.81448" lon="4.39951">
        <ele>728</ele>
        <time>2018-08-04T14:53:48Z</time>
      </trkpt>
      <trkpt lat="44.8145" lon="4.39955">
        <ele>728</ele>
        <time>2018-08-04T14:53:49Z</time>
      </trkpt>
      <trkpt lat="44.81453" lon="4.39961">
        <ele>726</ele>
        <time>2018-08-04T14:53:51Z</time>
      </trkpt>
      <trkpt lat="44.81457" lon="4.39966">
        <ele>726</ele>
        <time>2018-08-04T14:54:04Z</time>
      </trkpt>
      <trkpt lat="44.81458" lon="4.3997">
        <ele>726</ele>
        <time>2018-08-04T14:54:04Z</time>
      </trkpt>
      <trkpt lat="44.81457" lon="4.39977">
        <ele>726</ele>
        <time>2018-08-04T14:54:04Z</time>
      </trkpt>
      <trkpt lat="44.81454" lon="4.39985">
        <ele>726</ele>
        <time>2018-08-04T14:54:05Z</time>
      </trkpt>
      <trkpt lat="44.81453" lon="4.39987">
        <ele>724</ele>
        <time>2018-08-04T14:54:30Z</time>
      </trkpt>
      <trkpt lat="44.81452" lon="4.3999">
        <ele>724</ele>
        <time>2018-08-04T14:54:31Z</time>
      </trkpt>
      <trkpt lat="44.81446" lon="4.40006">
        <ele>724</ele>
        <time>2018-08-04T14:54:31Z</time>
      </trkpt>
      <trkpt lat="44.81444" lon="4.40016">
        <ele>722</ele>
        <time>2018-08-04T14:54:32Z</time>
      </trkpt>
      <trkpt lat="44.81441" lon="4.40023">
        <ele>722</ele>
        <time>2018-08-04T14:54:52Z</time>
      </trkpt>
      <trkpt lat="44.81435" lon="4.40036">
        <ele>722</ele>
        <time>2018-08-04T14:54:52Z</time>
      </trkpt>
      <trkpt lat="44.81432" lon="4.40039">
        <ele>722</ele>
        <time>2018-08-04T14:54:52Z</time>
      </trkpt>
      <trkpt lat="44.81431" lon="4.40039">
        <ele>722</ele>
        <time>2018-08-04T14:54:52Z</time>
      </trkpt>
      <trkpt lat="44.81424" lon="4.40046">
        <ele>715</ele>
        <time>2018-08-04T14:55:22Z</time>
      </trkpt>
      <trkpt lat="44.81423" lon="4.40047">
        <ele>715</ele>
        <time>2018-08-04T14:55:23Z</time>
      </trkpt>
      <trkpt lat="44.81421" lon="4.40052">
        <ele>715</ele>
        <time>2018-08-04T14:55:24Z</time>
      </trkpt>
      <trkpt lat="44.81411" lon="4.40058">
        <ele>715</ele>
        <time>2018-08-04T14:55:25Z</time>
      </trkpt>
      <trkpt lat="44.81417" lon="4.40057">
        <ele>715</ele>
        <time>2018-08-04T14:55:56Z</time>
      </trkpt>
      <trkpt lat="44.81417" lon="4.40057">
        <ele>715</ele>
        <time>2018-08-04T14:55:56Z</time>
      </trkpt>
      <trkpt lat="44.81417" lon="4.40057">
        <ele>715</ele>
        <time>2018-08-04T14:55:56Z</time>
      </trkpt>
      <trkpt lat="44.81419" lon="4.40057">
        <ele>715</ele>
        <time>2018-08-04T14:55:56Z</time>
      </trkpt>
      <trkpt lat="44.81423" lon="4.40056">
        <ele>715</ele>
        <time>2018-08-04T14:55:56Z</time>
      </trkpt>
      <trkpt lat="44.81424" lon="4.40051">
        <ele>715</ele>
        <time>2018-08-04T14:56:16Z</time>
      </trkpt>
      <trkpt lat="44.81426" lon="4.40047">
        <ele>715</ele>
        <time>2018-08-04T14:56:16Z</time>
      </trkpt>
      <trkpt lat="44.81428" lon="4.40044">
        <ele>715</ele>
        <time>2018-08-04T14:56:16Z</time>
      </trkpt>
      <trkpt lat="44.8143" lon="4.40043">
        <ele>715</ele>
        <time>2018-08-04T14:56:16Z</time>
      </trkpt>
      <trkpt lat="44.81434" lon="4.40041">
        <ele>722</ele>
        <time>2018-08-04T14:56:16Z</time>
      </trkpt>
      <trkpt lat="44.81437" lon="4.40038">
        <ele>722</ele>
        <time>2018-08-04T14:56:32Z</time>
      </trkpt>
      <trkpt lat="44.81438" lon="4.40034">
        <ele>722</ele>
        <time>2018-08-04T14:56:32Z</time>
      </trkpt>
      <trkpt lat="44.8144" lon="4.40029">
        <ele>722</ele>
        <time>2018-08-04T14:56:32Z</time>
      </trkpt>
      <trkpt lat="44.81443" lon="4.40026">
        <ele>722</ele>
        <time>2018-08-04T14:56:32Z</time>
      </trkpt>
      <trkpt lat="44.81447" lon="4.40022">
        <ele>722</ele>
        <time>2018-08-04T14:57:02Z</time>
      </trkpt>
      <trkpt lat="44.81447" lon="4.40021">
        <ele>722</ele>
        <time>2018-08-04T14:57:03Z</time>
      </trkpt>
      <trkpt lat="44.81451" lon="4.40023">
        <ele>722</ele>
        <time>2018-08-04T14:57:03Z</time>
      </trkpt>
      <trkpt lat="44.81455" lon="4.40025">
        <ele>722</ele>
        <time>2018-08-04T14:57:03Z</time>
      </trkpt>
      <trkpt lat="44.81462" lon="4.40029">
        <ele>724</ele>
        <time>2018-08-04T14:57:03Z</time>
      </trkpt>
      <trkpt lat="44.81464" lon="4.40032">
        <ele>724</ele>
        <time>2018-08-04T14:57:32Z</time>
      </trkpt>
      <trkpt lat="44.81467" lon="4.40036">
        <ele>724</ele>
        <time>2018-08-04T14:57:32Z</time>
      </trkpt>
      <trkpt lat="44.81468" lon="4.40039">
        <ele>724</ele>
        <time>2018-08-04T14:57:32Z</time>
      </trkpt>
      <trkpt lat="44.81467" lon="4.40041">
        <ele>724</ele>
        <time>2018-08-04T14:57:32Z</time>
      </trkpt>
      <trkpt lat="44.81468" lon="4.40042">
        <ele>724</ele>
        <time>2018-08-04T14:57:32Z</time>
      </trkpt>
      <trkpt lat="44.8147" lon="4.40042">
        <ele>721</ele>
        <time>2018-08-04T14:57:48Z</time>
      </trkpt>
      <trkpt lat="44.81474" lon="4.40046">
        <ele>721</ele>
        <time>2018-08-04T14:57:48Z</time>
      </trkpt>
      <trkpt lat="44.81477" lon="4.4005">
        <ele>721</ele>
        <time>2018-08-04T14:57:48Z</time>
      </trkpt>
      <trkpt lat="44.81479" lon="4.40055">
        <ele>721</ele>
        <time>2018-08-04T14:57:48Z</time>
      </trkpt>
      <trkpt lat="44.81483" lon="4.4006">
        <ele>721</ele>
        <time>2018-08-04T14:58:04Z</time>
      </trkpt>
      <trkpt lat="44.81486" lon="4.40066">
        <ele>724</ele>
        <time>2018-08-04T14:58:04Z</time>
      </trkpt>
      <trkpt lat="44.8149" lon="4.4007">
        <ele>722</ele>
        <time>2018-08-04T14:58:04Z</time>
      </trkpt>
      <trkpt lat="44.81488" lon="4.40074">
        <ele>722</ele>
        <time>2018-08-04T14:58:04Z</time>
      </trkpt>
      <trkpt lat="44.81485" lon="4.40075">
        <ele>718</ele>
        <time>2018-08-04T14:58:20Z</time>
      </trkpt>
      <trkpt lat="44.81481" lon="4.4008">
        <ele>718</ele>
        <time>2018-08-04T14:58:20Z</time>
      </trkpt>
      <trkpt lat="44.81483" lon="4.40086">
        <ele>718</ele>
        <time>2018-08-04T14:58:20Z</time>
      </trkpt>
      <trkpt lat="44.81486" lon="4.40088">
        <ele>718</ele>
        <time>2018-08-04T14:58:20Z</time>
      </trkpt>
      <trkpt lat="44.81487" lon="4.40094">
        <ele>722</ele>
        <time>2018-08-04T14:58:36Z</time>
      </trkpt>
      <trkpt lat="44.8149" lon="4.40096">
        <ele>722</ele>
        <time>2018-08-04T14:58:36Z</time>
      </trkpt>
      <trkpt lat="44.81491" lon="4.40099">
        <ele>720</ele>
        <time>2018-08-04T14:58:36Z</time>
      </trkpt>
      <trkpt lat="44.81493" lon="4.40105">
        <ele>720</ele>
        <time>2018-08-04T14:58:36Z</time>
      </trkpt>
      <trkpt lat="44.81491" lon="4.40112">
        <ele>720</ele>
        <time>2018-08-04T14:59:00Z</time>
      </trkpt>
      <trkpt lat="44.81486" lon="4.40116">
        <ele>716</ele>
        <time>2018-08-04T14:59:00Z</time>
      </trkpt>
      <trkpt lat="44.81477" lon="4.40129">
        <ele>714</ele>
        <time>2018-08-04T14:59:00Z</time>
      </trkpt>
      <trkpt lat="44.81472" lon="4.40138">
        <ele>714</ele>
        <time>2018-08-04T14:59:00Z</time>
      </trkpt>
      <trkpt lat="44.81468" lon="4.40143">
        <ele>714</ele>
        <time>2018-08-04T14:59:16Z</time>
      </trkpt>
      <trkpt lat="44.81464" lon="4.40146">
        <ele>714</ele>
        <time>2018-08-04T14:59:16Z</time>
      </trkpt>
      <trkpt lat="44.81458" lon="4.40149">
        <ele>714</ele>
        <time>2018-08-04T14:59:16Z</time>
      </trkpt>
      <trkpt lat="44.81456" lon="4.40153">
        <ele>713</ele>
        <time>2018-08-04T14:59:16Z</time>
      </trkpt>
      <trkpt lat="44.81451" lon="4.40157">
        <ele>713</ele>
        <time>2018-08-04T14:59:34Z</time>
      </trkpt>
      <trkpt lat="44.81449" lon="4.40153">
        <ele>713</ele>
        <time>2018-08-04T14:59:34Z</time>
      </trkpt>
      <trkpt lat="44.81448" lon="4.40147">
        <ele>713</ele>
        <time>2018-08-04T14:59:34Z</time>
      </trkpt>
      <trkpt lat="44.81448" lon="4.40141">
        <ele>713</ele>
        <time>2018-08-04T14:59:34Z</time>
      </trkpt>
      <trkpt lat="44.81446" lon="4.40138">
        <ele>713</ele>
        <time>2018-08-04T14:59:58Z</time>
      </trkpt>
      <trkpt lat="44.81442" lon="4.40132">
        <ele>713</ele>
        <time>2018-08-04T14:59:58Z</time>
      </trkpt>
      <trkpt lat="44.81441" lon="4.40131">
        <ele>713</ele>
        <time>2018-08-04T14:59:58Z</time>
      </trkpt>
      <trkpt lat="44.81434" lon="4.4012">
        <ele>714</ele>
        <time>2018-08-04T14:59:58Z</time>
      </trkpt>
      <trkpt lat="44.81434" lon="4.40118">
        <ele>714</ele>
        <time>2018-08-04T15:00:14Z</time>
      </trkpt>
      <trkpt lat="44.81434" lon="4.40117">
        <ele>714</ele>
        <time>2018-08-04T15:00:15Z</time>
      </trkpt>
      <trkpt lat="44.81425" lon="4.40102">
        <ele>714</ele>
        <time>2018-08-04T15:00:16Z</time>
      </trkpt>
      <trkpt lat="44.81423" lon="4.40099">
        <ele>714</ele>
        <time>2018-08-04T15:00:17Z</time>
      </trkpt>
      <trkpt lat="44.81418" lon="4.40094">
        <ele>714</ele>
        <time>2018-08-04T15:00:33Z</time>
      </trkpt>
      <trkpt lat="44.81416" lon="4.4009">
        <ele>714</ele>
        <time>2018-08-04T15:00:34Z</time>
      </trkpt>
      <trkpt lat="44.81414" lon="4.40088">
        <ele>714</ele>
        <time>2018-08-04T15:00:35Z</time>
      </trkpt>
      <trkpt lat="44.81408" lon="4.40079">
        <ele>714</ele>
        <time>2018-08-04T15:00:37Z</time>
      </trkpt>
      <trkpt lat="44.81404" lon="4.40075">
        <ele>714</ele>
        <time>2018-08-04T15:00:48Z</time>
      </trkpt>
      <trkpt lat="44.81402" lon="4.40074">
        <ele>716</ele>
        <time>2018-08-04T15:00:48Z</time>
      </trkpt>
      <trkpt lat="44.81398" lon="4.40074">
        <ele>716</ele>
        <time>2018-08-04T15:00:49Z</time>
      </trkpt>
      <trkpt lat="44.81394" lon="4.40072">
        <ele>716</ele>
        <time>2018-08-04T15:00:49Z</time>
      </trkpt>
      <trkpt lat="44.81389" lon="4.40069">
        <ele>713</ele>
        <time>2018-08-04T15:01:12Z</time>
      </trkpt>
      <trkpt lat="44.81385" lon="4.40061">
        <ele>713</ele>
        <time>2018-08-04T15:01:12Z</time>
      </trkpt>
      <trkpt lat="44.8138" lon="4.40055">
        <ele>713</ele>
        <time>2018-08-04T15:01:12Z</time>
      </trkpt>
      <trkpt lat="44.81379" lon="4.40055">
        <ele>713</ele>
        <time>2018-08-04T15:01:12Z</time>
      </trkpt>
      <trkpt lat="44.81378" lon="4.40054">
        <ele>713</ele>
        <time>2018-08-04T15:01:40Z</time>
      </trkpt>
      <trkpt lat="44.81373" lon="4.40051">
        <ele>717</ele>
        <time>2018-08-04T15:01:40Z</time>
      </trkpt>
      <trkpt lat="44.81366" lon="4.4005">
        <ele>717</ele>
        <time>2018-08-04T15:01:40Z</time>
      </trkpt>
      <trkpt lat="44.81365" lon="4.40049">
        <ele>717</ele>
        <time>2018-08-04T15:01:40Z</time>
      </trkpt>
      <trkpt lat="44.81362" lon="4.40051">
        <ele>717</ele>
        <time>2018-08-04T15:02:00Z</time>
      </trkpt>
      <trkpt lat="44.81359" lon="4.40053">
        <ele>717</ele>
        <time>2018-08-04T15:02:00Z</time>
      </trkpt>
      <trkpt lat="44.81355" lon="4.40054">
        <ele>717</ele>
        <time>2018-08-04T15:02:00Z</time>
      </trkpt>
      <trkpt lat="44.81351" lon="4.40053">
        <ele>717</ele>
        <time>2018-08-04T15:02:00Z</time>
      </trkpt>
      <trkpt lat="44.81336" lon="4.40048">
        <ele>725</ele>
        <time>2018-08-04T15:02:49Z</time>
      </trkpt>
      <trkpt lat="44.81328" lon="4.4005">
        <ele>725</ele>
        <time>2018-08-04T15:02:49Z</time>
      </trkpt>
      <trkpt lat="44.81319" lon="4.40047">
        <ele>737</ele>
        <time>2018-08-04T15:02:50Z</time>
      </trkpt>
      <trkpt lat="44.81315" lon="4.40041">
        <ele>731</ele>
        <time>2018-08-04T15:02:50Z</time>
      </trkpt>
      <trkpt lat="44.81314" lon="4.40041">
        <ele>731</ele>
        <time>2018-08-04T15:03:06Z</time>
      </trkpt>
      <trkpt lat="44.81312" lon="4.40039">
        <ele>731</ele>
        <time>2018-08-04T15:03:07Z</time>
      </trkpt>
      <trkpt lat="44.81309" lon="4.40035">
        <ele>731</ele>
        <time>2018-08-04T15:03:07Z</time>
      </trkpt>
      <trkpt lat="44.81302" lon="4.4003">
        <ele>731</ele>
        <time>2018-08-04T15:03:08Z</time>
      </trkpt>
      <trkpt lat="44.813" lon="4.40027">
        <ele>731</ele>
        <time>2018-08-04T15:03:28Z</time>
      </trkpt>
      <trkpt lat="44.8129" lon="4.40018">
        <ele>739</ele>
        <time>2018-08-04T15:03:28Z</time>
      </trkpt>
      <trkpt lat="44.81286" lon="4.40017">
        <ele>739</ele>
        <time>2018-08-04T15:03:28Z</time>
      </trkpt>
      <trkpt lat="44.81283" lon="4.40014">
        <ele>739</ele>
        <time>2018-08-04T15:03:28Z</time>
      </trkpt>
      <trkpt lat="44.81268" lon="4.40003">
        <ele>734</ele>
        <time>2018-08-04T15:04:43Z</time>
      </trkpt>
      <trkpt lat="44.81267" lon="4.40003">
        <ele>734</ele>
        <time>2018-08-04T15:04:44Z</time>
      </trkpt>
      <trkpt lat="44.81267" lon="4.40003">
        <ele>734</ele>
        <time>2018-08-04T15:04:44Z</time>
      </trkpt>
      <trkpt lat="44.81265" lon="4.40001">
        <ele>734</ele>
        <time>2018-08-04T15:04:44Z</time>
      </trkpt>
      <trkpt lat="44.81261" lon="4.39999">
        <ele>743</ele>
        <time>2018-08-04T15:04:45Z</time>
      </trkpt>
      <trkpt lat="44.81261" lon="4.40001">
        <ele>743</ele>
        <time>2018-08-04T15:07:04Z</time>
      </trkpt>
      <trkpt lat="44.81261" lon="4.40002">
        <ele>743</ele>
        <time>2018-08-04T15:07:04Z</time>
      </trkpt>
      <trkpt lat="44.81259" lon="4.39999">
        <ele>743</ele>
        <time>2018-08-04T15:07:04Z</time>
      </trkpt>
      <trkpt lat="44.81258" lon="4.39993">
        <ele>743</ele>
        <time>2018-08-04T15:07:04Z</time>
      </trkpt>
      <trkpt lat="44.81254" lon="4.39987">
        <ele>743</ele>
        <time>2018-08-04T15:07:04Z</time>
      </trkpt>
      <trkpt lat="44.81254" lon="4.39986">
        <ele>743</ele>
        <time>2018-08-04T15:07:20Z</time>
      </trkpt>
      <trkpt lat="44.81252" lon="4.39982">
        <ele>738</ele>
        <time>2018-08-04T15:07:20Z</time>
      </trkpt>
      <trkpt lat="44.81253" lon="4.39978">
        <ele>738</ele>
        <time>2018-08-04T15:07:20Z</time>
      </trkpt>
      <trkpt lat="44.81251" lon="4.39972">
        <ele>738</ele>
        <time>2018-08-04T15:07:20Z</time>
      </trkpt>
      <trkpt lat="44.81249" lon="4.39969">
        <ele>738</ele>
        <time>2018-08-04T15:07:36Z</time>
      </trkpt>
      <trkpt lat="44.81247" lon="4.39965">
        <ele>738</ele>
        <time>2018-08-04T15:07:36Z</time>
      </trkpt>
      <trkpt lat="44.81245" lon="4.3996">
        <ele>738</ele>
        <time>2018-08-04T15:07:36Z</time>
      </trkpt>
      <trkpt lat="44.81245" lon="4.39954">
        <ele>734</ele>
        <time>2018-08-04T15:07:36Z</time>
      </trkpt>
      <trkpt lat="44.81239" lon="4.39948">
        <ele>734</ele>
        <time>2018-08-04T15:08:57Z</time>
      </trkpt>
      <trkpt lat="44.81238" lon="4.39949">
        <ele>734</ele>
        <time>2018-08-04T15:08:58Z</time>
      </trkpt>
      <trkpt lat="44.81237" lon="4.3995">
        <ele>734</ele>
        <time>2018-08-04T15:08:58Z</time>
      </trkpt>
      <trkpt lat="44.81237" lon="4.3995">
        <ele>734</ele>
        <time>2018-08-04T15:08:58Z</time>
      </trkpt>
      <trkpt lat="44.81228" lon="4.3995">
        <ele>744</ele>
        <time>2018-08-04T15:08:58Z</time>
      </trkpt>
    </trkseg>
  </trk>
</gpx>